<?xml version="1.0" encoding="UTF-8"?>
<gpx version="1.1" creator="https://www.youtrack.es" xsi:schemaLocation="http://www.topografix.com/GPX/1/1 http://www.topografix.com/GPX/1/1/gpx.xsd http://www.garmin.com/xmlschemas/GpxExtensions/v3 http://www.garmin.com/xmlschemas/GpxExtensionsv3.xsd http://www.garmin.com/xmlschemas/TrackPointExtension/v1 http://www.garmin.com/xmlschemas/TrackPointExtensionv1.xsd" xmlns:gpxtpx="http://www.garmin.com/xmlschemas/TrackPointExtension/v1" xmlns:gpxx="http://www.garmin.com/xmlschemas/GpxExtensions/v3" xmlns:xsi="http://www.w3.org/2001/XMLSchema-instance">
  <metadata>
    <author>
      <name>Daniel Molina</name>
      <email id="djmolinap" domain="gmail.com"/>
    </author>
    <link href="https://www.youtrack.es">
      <text>YouTrack.es</text>
    </link>
    <time>2026-05-10T15:54:51Z</time>
  </metadata>
  <trk>
    <src>https://www.youtrack.es</src>
    <link href="https://www.youtrack.es/ruta/19164-gr-10-tramo-9-la-cabrera-a-patones-de-arriba">
      <text>YouTrack.es</text>
    </link>
    <trkseg>
      <trkpt lat="40.808052" lon="-3.753427">
        <ele>1042.161</ele>
        <time>2011-05-23T16:27:16Z</time>
      </trkpt>
      <trkpt lat="40.808085" lon="-3.753280">
        <ele>1042.621</ele>
        <time>2011-05-23T16:27:26Z</time>
      </trkpt>
      <trkpt lat="40.808029" lon="-3.753121">
        <ele>1042.113</ele>
        <time>2011-05-23T16:27:36Z</time>
      </trkpt>
      <trkpt lat="40.807967" lon="-3.752987">
        <ele>1040.808</ele>
        <time>2011-05-23T16:27:46Z</time>
      </trkpt>
      <trkpt lat="40.807884" lon="-3.752843">
        <ele>1040.382</ele>
        <time>2011-05-23T16:27:56Z</time>
      </trkpt>
      <trkpt lat="40.807829" lon="-3.752703">
        <ele>1040.347</ele>
        <time>2011-05-23T16:28:06Z</time>
      </trkpt>
      <trkpt lat="40.807862" lon="-3.752540">
        <ele>1039.857</ele>
        <time>2011-05-23T16:28:16Z</time>
      </trkpt>
      <trkpt lat="40.807945" lon="-3.752408">
        <ele>1038.837</ele>
        <time>2011-05-23T16:28:26Z</time>
      </trkpt>
      <trkpt lat="40.808043" lon="-3.752280">
        <ele>1039.378</ele>
        <time>2011-05-23T16:28:36Z</time>
      </trkpt>
      <trkpt lat="40.808119" lon="-3.752157">
        <ele>1039.378</ele>
        <time>2011-05-23T16:28:46Z</time>
      </trkpt>
      <trkpt lat="40.808228" lon="-3.752036">
        <ele>1037.926</ele>
        <time>2011-05-23T16:28:56Z</time>
      </trkpt>
      <trkpt lat="40.808322" lon="-3.751907">
        <ele>1038.878</ele>
        <time>2011-05-23T16:29:06Z</time>
      </trkpt>
      <trkpt lat="40.808409" lon="-3.751788">
        <ele>1039.362</ele>
        <time>2011-05-23T16:29:16Z</time>
      </trkpt>
      <trkpt lat="40.808498" lon="-3.751667">
        <ele>1038.883</ele>
        <time>2011-05-23T16:29:26Z</time>
      </trkpt>
      <trkpt lat="40.808596" lon="-3.751536">
        <ele>1038.811</ele>
        <time>2011-05-23T16:29:36Z</time>
      </trkpt>
      <trkpt lat="40.808695" lon="-3.751423">
        <ele>1037.908</ele>
        <time>2011-05-23T16:29:46Z</time>
      </trkpt>
      <trkpt lat="40.808786" lon="-3.751304">
        <ele>1039.322</ele>
        <time>2011-05-23T16:29:56Z</time>
      </trkpt>
      <trkpt lat="40.808864" lon="-3.751188">
        <ele>1037.967</ele>
        <time>2011-05-23T16:30:06Z</time>
      </trkpt>
      <trkpt lat="40.808951" lon="-3.751082">
        <ele>1037.917</ele>
        <time>2011-05-23T16:30:16Z</time>
      </trkpt>
      <trkpt lat="40.809047" lon="-3.750968">
        <ele>1038.897</ele>
        <time>2011-05-23T16:30:26Z</time>
      </trkpt>
      <trkpt lat="40.809140" lon="-3.750873">
        <ele>1038.868</ele>
        <time>2011-05-23T16:30:36Z</time>
      </trkpt>
      <trkpt lat="40.809236" lon="-3.750754">
        <ele>1038.868</ele>
        <time>2011-05-23T16:30:46Z</time>
      </trkpt>
      <trkpt lat="40.809351" lon="-3.750688">
        <ele>1040.316</ele>
        <time>2011-05-23T16:30:56Z</time>
      </trkpt>
      <trkpt lat="40.809477" lon="-3.750619">
        <ele>1039.848</ele>
        <time>2011-05-23T16:31:06Z</time>
      </trkpt>
      <trkpt lat="40.809614" lon="-3.750586">
        <ele>1040.817</ele>
        <time>2011-05-23T16:31:16Z</time>
      </trkpt>
      <trkpt lat="40.809740" lon="-3.750557">
        <ele>1041.687</ele>
        <time>2011-05-23T16:31:26Z</time>
      </trkpt>
      <trkpt lat="40.809879" lon="-3.750505">
        <ele>1043.115</ele>
        <time>2011-05-23T16:31:36Z</time>
      </trkpt>
      <trkpt lat="40.809986" lon="-3.750427">
        <ele>1043.608</ele>
        <time>2011-05-23T16:31:46Z</time>
      </trkpt>
      <trkpt lat="40.810085" lon="-3.750320">
        <ele>1044.537</ele>
        <time>2011-05-23T16:31:56Z</time>
      </trkpt>
      <trkpt lat="40.810201" lon="-3.750276">
        <ele>1045.052</ele>
        <time>2011-05-23T16:32:06Z</time>
      </trkpt>
      <trkpt lat="40.810339" lon="-3.750231">
        <ele>1045.522</ele>
        <time>2011-05-23T16:32:16Z</time>
      </trkpt>
      <trkpt lat="40.810463" lon="-3.750193">
        <ele>1046.032</ele>
        <time>2011-05-23T16:32:26Z</time>
      </trkpt>
      <trkpt lat="40.810575" lon="-3.750102">
        <ele>1046.043</ele>
        <time>2011-05-23T16:32:36Z</time>
      </trkpt>
      <trkpt lat="40.810648" lon="-3.750044">
        <ele>1046.583</ele>
        <time>2011-05-23T16:32:46Z</time>
      </trkpt>
      <trkpt lat="40.810647" lon="-3.750042">
        <ele>1047.071</ele>
        <time>2011-05-23T16:32:56Z</time>
      </trkpt>
      <trkpt lat="40.810641" lon="-3.750049">
        <ele>1047.083</ele>
        <time>2011-05-23T16:33:06Z</time>
      </trkpt>
      <trkpt lat="40.810699" lon="-3.750025">
        <ele>1046.538</ele>
        <time>2011-05-23T16:33:16Z</time>
      </trkpt>
      <trkpt lat="40.810796" lon="-3.749915">
        <ele>1048.470</ele>
        <time>2011-05-23T16:33:26Z</time>
      </trkpt>
      <trkpt lat="40.810886" lon="-3.749792">
        <ele>1048.417</ele>
        <time>2011-05-23T16:33:36Z</time>
      </trkpt>
      <trkpt lat="40.811002" lon="-3.749702">
        <ele>1048.908</ele>
        <time>2011-05-23T16:33:46Z</time>
      </trkpt>
      <trkpt lat="40.811106" lon="-3.749629">
        <ele>1050.469</ele>
        <time>2011-05-23T16:33:56Z</time>
      </trkpt>
      <trkpt lat="40.811219" lon="-3.749539">
        <ele>1050.914</ele>
        <time>2011-05-23T16:34:06Z</time>
      </trkpt>
      <trkpt lat="40.811310" lon="-3.749420">
        <ele>1052.334</ele>
        <time>2011-05-23T16:34:16Z</time>
      </trkpt>
      <trkpt lat="40.811415" lon="-3.749332">
        <ele>1052.864</ele>
        <time>2011-05-23T16:34:26Z</time>
      </trkpt>
      <trkpt lat="40.811415" lon="-3.749205">
        <ele>1052.815</ele>
        <time>2011-05-23T16:34:36Z</time>
      </trkpt>
      <trkpt lat="40.811429" lon="-3.749057">
        <ele>1050.965</ele>
        <time>2011-05-23T16:34:46Z</time>
      </trkpt>
      <trkpt lat="40.811480" lon="-3.748917">
        <ele>1050.483</ele>
        <time>2011-05-23T16:34:56Z</time>
      </trkpt>
      <trkpt lat="40.811508" lon="-3.748794">
        <ele>1049.475</ele>
        <time>2011-05-23T16:35:06Z</time>
      </trkpt>
      <trkpt lat="40.811538" lon="-3.748718">
        <ele>1048.072</ele>
        <time>2011-05-23T16:35:16Z</time>
      </trkpt>
      <trkpt lat="40.811588" lon="-3.748658">
        <ele>1046.013</ele>
        <time>2011-05-23T16:35:26Z</time>
      </trkpt>
      <trkpt lat="40.811586" lon="-3.748589">
        <ele>1045.014</ele>
        <time>2011-05-23T16:35:36Z</time>
      </trkpt>
      <trkpt lat="40.811584" lon="-3.748491">
        <ele>1043.608</ele>
        <time>2011-05-23T16:35:46Z</time>
      </trkpt>
      <trkpt lat="40.811624" lon="-3.748418">
        <ele>1041.643</ele>
        <time>2011-05-23T16:35:56Z</time>
      </trkpt>
      <trkpt lat="40.811646" lon="-3.748353">
        <ele>1039.838</ele>
        <time>2011-05-23T16:36:06Z</time>
      </trkpt>
      <trkpt lat="40.811639" lon="-3.748277">
        <ele>1038.438</ele>
        <time>2011-05-23T16:36:16Z</time>
      </trkpt>
      <trkpt lat="40.811653" lon="-3.748174">
        <ele>1036.418</ele>
        <time>2011-05-23T16:36:26Z</time>
      </trkpt>
      <trkpt lat="40.811704" lon="-3.748123">
        <ele>1035.519</ele>
        <time>2011-05-23T16:36:36Z</time>
      </trkpt>
      <trkpt lat="40.811763" lon="-3.748064">
        <ele>1034.069</ele>
        <time>2011-05-23T16:36:46Z</time>
      </trkpt>
      <trkpt lat="40.811823" lon="-3.747995">
        <ele>1031.557</ele>
        <time>2011-05-23T16:36:56Z</time>
      </trkpt>
      <trkpt lat="40.811927" lon="-3.747957">
        <ele>1031.569</ele>
        <time>2011-05-23T16:37:06Z</time>
      </trkpt>
      <trkpt lat="40.811950" lon="-3.747900">
        <ele>1029.192</ele>
        <time>2011-05-23T16:37:16Z</time>
      </trkpt>
      <trkpt lat="40.811944" lon="-3.747827">
        <ele>1027.873</ele>
        <time>2011-05-23T16:37:26Z</time>
      </trkpt>
      <trkpt lat="40.811930" lon="-3.747744">
        <ele>1027.320</ele>
        <time>2011-05-23T16:37:36Z</time>
      </trkpt>
      <trkpt lat="40.811910" lon="-3.747633">
        <ele>1024.408</ele>
        <time>2011-05-23T16:37:46Z</time>
      </trkpt>
      <trkpt lat="40.811921" lon="-3.747509">
        <ele>1023.095</ele>
        <time>2011-05-23T16:37:56Z</time>
      </trkpt>
      <trkpt lat="40.811972" lon="-3.747475">
        <ele>1021.550</ele>
        <time>2011-05-23T16:38:06Z</time>
      </trkpt>
      <trkpt lat="40.812012" lon="-3.747464">
        <ele>1020.520</ele>
        <time>2011-05-23T16:38:16Z</time>
      </trkpt>
      <trkpt lat="40.812085" lon="-3.747392">
        <ele>1017.770</ele>
        <time>2011-05-23T16:38:26Z</time>
      </trkpt>
      <trkpt lat="40.812061" lon="-3.747277">
        <ele>1016.791</ele>
        <time>2011-05-23T16:38:36Z</time>
      </trkpt>
      <trkpt lat="40.812044" lon="-3.747132">
        <ele>1014.751</ele>
        <time>2011-05-23T16:38:46Z</time>
      </trkpt>
      <trkpt lat="40.812064" lon="-3.747050">
        <ele>1013.759</ele>
        <time>2011-05-23T16:38:56Z</time>
      </trkpt>
      <trkpt lat="40.812064" lon="-3.747049">
        <ele>1013.431</ele>
        <time>2011-05-23T16:39:06Z</time>
      </trkpt>
      <trkpt lat="40.812064" lon="-3.747049">
        <ele>1013.417</ele>
        <time>2011-05-23T16:39:16Z</time>
      </trkpt>
      <trkpt lat="40.812065" lon="-3.747048">
        <ele>1013.487</ele>
        <time>2011-05-23T16:39:26Z</time>
      </trkpt>
      <trkpt lat="40.812069" lon="-3.747044">
        <ele>1013.415</ele>
        <time>2011-05-23T16:39:36Z</time>
      </trkpt>
      <trkpt lat="40.812096" lon="-3.746989">
        <ele>1013.708</ele>
        <time>2011-05-23T16:39:46Z</time>
      </trkpt>
      <trkpt lat="40.812216" lon="-3.746970">
        <ele>1014.227</ele>
        <time>2011-05-23T16:39:56Z</time>
      </trkpt>
      <trkpt lat="40.812324" lon="-3.747014">
        <ele>1014.232</ele>
        <time>2011-05-23T16:40:06Z</time>
      </trkpt>
      <trkpt lat="40.812400" lon="-3.747130">
        <ele>1014.782</ele>
        <time>2011-05-23T16:40:16Z</time>
      </trkpt>
      <trkpt lat="40.812482" lon="-3.747238">
        <ele>1015.272</ele>
        <time>2011-05-23T16:40:26Z</time>
      </trkpt>
      <trkpt lat="40.812593" lon="-3.747312">
        <ele>1014.273</ele>
        <time>2011-05-23T16:40:36Z</time>
      </trkpt>
      <trkpt lat="40.812712" lon="-3.747411">
        <ele>1014.743</ele>
        <time>2011-05-23T16:40:46Z</time>
      </trkpt>
      <trkpt lat="40.812846" lon="-3.747480">
        <ele>1014.741</ele>
        <time>2011-05-23T16:40:56Z</time>
      </trkpt>
      <trkpt lat="40.812982" lon="-3.747581">
        <ele>1016.283</ele>
        <time>2011-05-23T16:41:06Z</time>
      </trkpt>
      <trkpt lat="40.813132" lon="-3.747629">
        <ele>1015.261</ele>
        <time>2011-05-23T16:41:16Z</time>
      </trkpt>
      <trkpt lat="40.813222" lon="-3.747660">
        <ele>1018.221</ele>
        <time>2011-05-23T16:41:26Z</time>
      </trkpt>
      <trkpt lat="40.813359" lon="-3.747683">
        <ele>1016.713</ele>
        <time>2011-05-23T16:41:36Z</time>
      </trkpt>
      <trkpt lat="40.813525" lon="-3.747735">
        <ele>1017.708</ele>
        <time>2011-05-23T16:41:46Z</time>
      </trkpt>
      <trkpt lat="40.813610" lon="-3.747782">
        <ele>1017.752</ele>
        <time>2011-05-23T16:41:56Z</time>
      </trkpt>
      <trkpt lat="40.813730" lon="-3.747832">
        <ele>1017.747</ele>
        <time>2011-05-23T16:42:06Z</time>
      </trkpt>
      <trkpt lat="40.813878" lon="-3.747883">
        <ele>1017.797</ele>
        <time>2011-05-23T16:42:16Z</time>
      </trkpt>
      <trkpt lat="40.814005" lon="-3.747887">
        <ele>1018.797</ele>
        <time>2011-05-23T16:42:26Z</time>
      </trkpt>
      <trkpt lat="40.814138" lon="-3.747889">
        <ele>1019.578</ele>
        <time>2011-05-23T16:42:36Z</time>
      </trkpt>
      <trkpt lat="40.814267" lon="-3.747855">
        <ele>1020.078</ele>
        <time>2011-05-23T16:42:46Z</time>
      </trkpt>
      <trkpt lat="40.814406" lon="-3.747848">
        <ele>1019.556</ele>
        <time>2011-05-23T16:42:56Z</time>
      </trkpt>
      <trkpt lat="40.814523" lon="-3.747894">
        <ele>1018.798</ele>
        <time>2011-05-23T16:43:06Z</time>
      </trkpt>
      <trkpt lat="40.814665" lon="-3.747853">
        <ele>1018.754</ele>
        <time>2011-05-23T16:43:16Z</time>
      </trkpt>
      <trkpt lat="40.814795" lon="-3.747824">
        <ele>1019.056</ele>
        <time>2011-05-23T16:43:26Z</time>
      </trkpt>
      <trkpt lat="40.814944" lon="-3.747830">
        <ele>1020.011</ele>
        <time>2011-05-23T16:43:36Z</time>
      </trkpt>
      <trkpt lat="40.815078" lon="-3.747837">
        <ele>1021.008</ele>
        <time>2011-05-23T16:43:46Z</time>
      </trkpt>
      <trkpt lat="40.815207" lon="-3.747834">
        <ele>1021.041</ele>
        <time>2011-05-23T16:43:56Z</time>
      </trkpt>
      <trkpt lat="40.815328" lon="-3.747832">
        <ele>1020.096</ele>
        <time>2011-05-23T16:44:06Z</time>
      </trkpt>
      <trkpt lat="40.815449" lon="-3.747896">
        <ele>1020.586</ele>
        <time>2011-05-23T16:44:16Z</time>
      </trkpt>
      <trkpt lat="40.815589" lon="-3.747931">
        <ele>1021.556</ele>
        <time>2011-05-23T16:44:26Z</time>
      </trkpt>
      <trkpt lat="40.815738" lon="-3.747939">
        <ele>1023.037</ele>
        <time>2011-05-23T16:44:36Z</time>
      </trkpt>
      <trkpt lat="40.815864" lon="-3.747938">
        <ele>1023.097</ele>
        <time>2011-05-23T16:44:46Z</time>
      </trkpt>
      <trkpt lat="40.815990" lon="-3.747978">
        <ele>1023.585</ele>
        <time>2011-05-23T16:44:56Z</time>
      </trkpt>
      <trkpt lat="40.816099" lon="-3.748004">
        <ele>1023.057</ele>
        <time>2011-05-23T16:45:06Z</time>
      </trkpt>
      <trkpt lat="40.816232" lon="-3.748041">
        <ele>1023.061</ele>
        <time>2011-05-23T16:45:16Z</time>
      </trkpt>
      <trkpt lat="40.816344" lon="-3.748090">
        <ele>1022.021</ele>
        <time>2011-05-23T16:45:26Z</time>
      </trkpt>
      <trkpt lat="40.816458" lon="-3.748126">
        <ele>1023.013</ele>
        <time>2011-05-23T16:45:36Z</time>
      </trkpt>
      <trkpt lat="40.816609" lon="-3.748150">
        <ele>1022.508</ele>
        <time>2011-05-23T16:45:46Z</time>
      </trkpt>
      <trkpt lat="40.816736" lon="-3.748160">
        <ele>1024.972</ele>
        <time>2011-05-23T16:45:56Z</time>
      </trkpt>
      <trkpt lat="40.816864" lon="-3.748133">
        <ele>1025.467</ele>
        <time>2011-05-23T16:46:06Z</time>
      </trkpt>
      <trkpt lat="40.817006" lon="-3.748149">
        <ele>1025.487</ele>
        <time>2011-05-23T16:46:16Z</time>
      </trkpt>
      <trkpt lat="40.817160" lon="-3.748141">
        <ele>1026.857</ele>
        <time>2011-05-23T16:46:26Z</time>
      </trkpt>
      <trkpt lat="40.817296" lon="-3.748136">
        <ele>1027.858</ele>
        <time>2011-05-23T16:46:36Z</time>
      </trkpt>
      <trkpt lat="40.817399" lon="-3.748116">
        <ele>1027.868</ele>
        <time>2011-05-23T16:46:46Z</time>
      </trkpt>
      <trkpt lat="40.817556" lon="-3.748105">
        <ele>1026.846</ele>
        <time>2011-05-23T16:46:56Z</time>
      </trkpt>
      <trkpt lat="40.817713" lon="-3.748097">
        <ele>1028.888</ele>
        <time>2011-05-23T16:47:06Z</time>
      </trkpt>
      <trkpt lat="40.817827" lon="-3.748108">
        <ele>1028.374</ele>
        <time>2011-05-23T16:47:16Z</time>
      </trkpt>
      <trkpt lat="40.817962" lon="-3.748142">
        <ele>1029.156</ele>
        <time>2011-05-23T16:47:26Z</time>
      </trkpt>
      <trkpt lat="40.818083" lon="-3.748157">
        <ele>1031.521</ele>
        <time>2011-05-23T16:47:36Z</time>
      </trkpt>
      <trkpt lat="40.818175" lon="-3.748188">
        <ele>1032.508</ele>
        <time>2011-05-23T16:47:46Z</time>
      </trkpt>
      <trkpt lat="40.818289" lon="-3.748199">
        <ele>1034.073</ele>
        <time>2011-05-23T16:47:56Z</time>
      </trkpt>
      <trkpt lat="40.818415" lon="-3.748225">
        <ele>1036.038</ele>
        <time>2011-05-23T16:48:06Z</time>
      </trkpt>
      <trkpt lat="40.818549" lon="-3.748235">
        <ele>1037.448</ele>
        <time>2011-05-23T16:48:16Z</time>
      </trkpt>
      <trkpt lat="40.818639" lon="-3.748200">
        <ele>1039.848</ele>
        <time>2011-05-23T16:48:26Z</time>
      </trkpt>
      <trkpt lat="40.818724" lon="-3.748229">
        <ele>1040.399</ele>
        <time>2011-05-23T16:48:36Z</time>
      </trkpt>
      <trkpt lat="40.818842" lon="-3.748215">
        <ele>1043.199</ele>
        <time>2011-05-23T16:48:46Z</time>
      </trkpt>
      <trkpt lat="40.818961" lon="-3.748218">
        <ele>1043.117</ele>
        <time>2011-05-23T16:48:56Z</time>
      </trkpt>
      <trkpt lat="40.819086" lon="-3.748232">
        <ele>1043.689</ele>
        <time>2011-05-23T16:49:06Z</time>
      </trkpt>
      <trkpt lat="40.819207" lon="-3.748198">
        <ele>1046.025</ele>
        <time>2011-05-23T16:49:16Z</time>
      </trkpt>
      <trkpt lat="40.819320" lon="-3.748151">
        <ele>1045.526</ele>
        <time>2011-05-23T16:49:26Z</time>
      </trkpt>
      <trkpt lat="40.819491" lon="-3.748129">
        <ele>1046.008</ele>
        <time>2011-05-23T16:49:36Z</time>
      </trkpt>
      <trkpt lat="40.819625" lon="-3.748118">
        <ele>1045.508</ele>
        <time>2011-05-23T16:49:46Z</time>
      </trkpt>
      <trkpt lat="40.819748" lon="-3.748075">
        <ele>1046.058</ele>
        <time>2011-05-23T16:49:56Z</time>
      </trkpt>
      <trkpt lat="40.819876" lon="-3.748058">
        <ele>1049.433</ele>
        <time>2011-05-23T16:50:06Z</time>
      </trkpt>
      <trkpt lat="40.820022" lon="-3.748048">
        <ele>1050.473</ele>
        <time>2011-05-23T16:50:16Z</time>
      </trkpt>
      <trkpt lat="40.820132" lon="-3.748034">
        <ele>1050.413</ele>
        <time>2011-05-23T16:50:26Z</time>
      </trkpt>
      <trkpt lat="40.820245" lon="-3.748058">
        <ele>1048.484</ele>
        <time>2011-05-23T16:50:36Z</time>
      </trkpt>
      <trkpt lat="40.820355" lon="-3.748060">
        <ele>1048.954</ele>
        <time>2011-05-23T16:50:46Z</time>
      </trkpt>
      <trkpt lat="40.820367" lon="-3.748060">
        <ele>1049.412</ele>
        <time>2011-05-23T16:50:56Z</time>
      </trkpt>
      <trkpt lat="40.820367" lon="-3.748059">
        <ele>1049.454</ele>
        <time>2011-05-23T16:51:06Z</time>
      </trkpt>
      <trkpt lat="40.820367" lon="-3.748059">
        <ele>1048.915</ele>
        <time>2011-05-23T16:51:16Z</time>
      </trkpt>
      <trkpt lat="40.820363" lon="-3.748058">
        <ele>1048.965</ele>
        <time>2011-05-23T16:51:26Z</time>
      </trkpt>
      <trkpt lat="40.820361" lon="-3.748057">
        <ele>1048.911</ele>
        <time>2011-05-23T16:51:36Z</time>
      </trkpt>
      <trkpt lat="40.820361" lon="-3.748059">
        <ele>1049.408</ele>
        <time>2011-05-23T16:51:46Z</time>
      </trkpt>
      <trkpt lat="40.820368" lon="-3.748047">
        <ele>1048.427</ele>
        <time>2011-05-23T16:51:56Z</time>
      </trkpt>
      <trkpt lat="40.820367" lon="-3.748046">
        <ele>1048.952</ele>
        <time>2011-05-23T16:52:06Z</time>
      </trkpt>
      <trkpt lat="40.820388" lon="-3.748058">
        <ele>1049.462</ele>
        <time>2011-05-23T16:52:16Z</time>
      </trkpt>
      <trkpt lat="40.820372" lon="-3.748066">
        <ele>1048.092</ele>
        <time>2011-05-23T16:52:26Z</time>
      </trkpt>
      <trkpt lat="40.820369" lon="-3.748050">
        <ele>1048.473</ele>
        <time>2011-05-23T16:52:36Z</time>
      </trkpt>
      <trkpt lat="40.820363" lon="-3.748053">
        <ele>1048.483</ele>
        <time>2011-05-23T16:52:46Z</time>
      </trkpt>
      <trkpt lat="40.820353" lon="-3.748063">
        <ele>1048.461</ele>
        <time>2011-05-23T16:52:56Z</time>
      </trkpt>
      <trkpt lat="40.820354" lon="-3.748063">
        <ele>1048.993</ele>
        <time>2011-05-23T16:53:06Z</time>
      </trkpt>
      <trkpt lat="40.820294" lon="-3.748044">
        <ele>1048.485</ele>
        <time>2011-05-23T16:53:16Z</time>
      </trkpt>
      <trkpt lat="40.820273" lon="-3.748036">
        <ele>1048.489</ele>
        <time>2011-05-23T16:53:26Z</time>
      </trkpt>
      <trkpt lat="40.820327" lon="-3.748042">
        <ele>1048.417</ele>
        <time>2011-05-23T16:53:37Z</time>
      </trkpt>
      <trkpt lat="40.820416" lon="-3.748029">
        <ele>1049.908</ele>
        <time>2011-05-23T16:53:46Z</time>
      </trkpt>
      <trkpt lat="40.820556" lon="-3.748015">
        <ele>1049.934</ele>
        <time>2011-05-23T16:53:56Z</time>
      </trkpt>
      <trkpt lat="40.820670" lon="-3.748012">
        <ele>1049.969</ele>
        <time>2011-05-23T16:54:06Z</time>
      </trkpt>
      <trkpt lat="40.820802" lon="-3.748010">
        <ele>1049.949</ele>
        <time>2011-05-23T16:54:16Z</time>
      </trkpt>
      <trkpt lat="40.820942" lon="-3.748031">
        <ele>1049.949</ele>
        <time>2011-05-23T16:54:26Z</time>
      </trkpt>
      <trkpt lat="40.821042" lon="-3.748073">
        <ele>1048.950</ele>
        <time>2011-05-23T16:54:36Z</time>
      </trkpt>
      <trkpt lat="40.821040" lon="-3.748071">
        <ele>1049.470</ele>
        <time>2011-05-23T16:54:46Z</time>
      </trkpt>
      <trkpt lat="40.821040" lon="-3.748082">
        <ele>1049.488</ele>
        <time>2011-05-23T16:54:56Z</time>
      </trkpt>
      <trkpt lat="40.821137" lon="-3.748064">
        <ele>1049.450</ele>
        <time>2011-05-23T16:55:06Z</time>
      </trkpt>
      <trkpt lat="40.821249" lon="-3.748053">
        <ele>1050.462</ele>
        <time>2011-05-23T16:55:16Z</time>
      </trkpt>
      <trkpt lat="40.821352" lon="-3.748038">
        <ele>1051.883</ele>
        <time>2011-05-23T16:55:26Z</time>
      </trkpt>
      <trkpt lat="40.821461" lon="-3.748020">
        <ele>1052.811</ele>
        <time>2011-05-23T16:55:36Z</time>
      </trkpt>
      <trkpt lat="40.821573" lon="-3.747980">
        <ele>1054.608</ele>
        <time>2011-05-23T16:55:46Z</time>
      </trkpt>
      <trkpt lat="40.821687" lon="-3.747975">
        <ele>1055.642</ele>
        <time>2011-05-23T16:55:56Z</time>
      </trkpt>
      <trkpt lat="40.821792" lon="-3.747957">
        <ele>1056.147</ele>
        <time>2011-05-23T16:56:06Z</time>
      </trkpt>
      <trkpt lat="40.821924" lon="-3.747911">
        <ele>1057.077</ele>
        <time>2011-05-23T16:56:16Z</time>
      </trkpt>
      <trkpt lat="40.822039" lon="-3.747917">
        <ele>1057.577</ele>
        <time>2011-05-23T16:56:26Z</time>
      </trkpt>
      <trkpt lat="40.822170" lon="-3.747849">
        <ele>1059.088</ele>
        <time>2011-05-23T16:56:36Z</time>
      </trkpt>
      <trkpt lat="40.822276" lon="-3.747848">
        <ele>1060.098</ele>
        <time>2011-05-23T16:56:46Z</time>
      </trkpt>
      <trkpt lat="40.822408" lon="-3.747797">
        <ele>1060.036</ele>
        <time>2011-05-23T16:56:56Z</time>
      </trkpt>
      <trkpt lat="40.822513" lon="-3.747818">
        <ele>1059.558</ele>
        <time>2011-05-23T16:57:06Z</time>
      </trkpt>
      <trkpt lat="40.822670" lon="-3.747736">
        <ele>1060.518</ele>
        <time>2011-05-23T16:57:16Z</time>
      </trkpt>
      <trkpt lat="40.822796" lon="-3.747729">
        <ele>1060.098</ele>
        <time>2011-05-23T16:57:26Z</time>
      </trkpt>
      <trkpt lat="40.822929" lon="-3.747745">
        <ele>1060.017</ele>
        <time>2011-05-23T16:57:36Z</time>
      </trkpt>
      <trkpt lat="40.823050" lon="-3.747750">
        <ele>1060.508</ele>
        <time>2011-05-23T16:57:46Z</time>
      </trkpt>
      <trkpt lat="40.823183" lon="-3.747748">
        <ele>1060.987</ele>
        <time>2011-05-23T16:57:56Z</time>
      </trkpt>
      <trkpt lat="40.823319" lon="-3.747718">
        <ele>1061.942</ele>
        <time>2011-05-23T16:58:06Z</time>
      </trkpt>
      <trkpt lat="40.823456" lon="-3.747680">
        <ele>1062.432</ele>
        <time>2011-05-23T16:58:16Z</time>
      </trkpt>
      <trkpt lat="40.823586" lon="-3.747649">
        <ele>1062.912</ele>
        <time>2011-05-23T16:58:26Z</time>
      </trkpt>
      <trkpt lat="40.823713" lon="-3.747632">
        <ele>1062.983</ele>
        <time>2011-05-23T16:58:36Z</time>
      </trkpt>
      <trkpt lat="40.823813" lon="-3.747569">
        <ele>1062.973</ele>
        <time>2011-05-23T16:58:46Z</time>
      </trkpt>
      <trkpt lat="40.823957" lon="-3.747565">
        <ele>1063.411</ele>
        <time>2011-05-23T16:58:56Z</time>
      </trkpt>
      <trkpt lat="40.824078" lon="-3.747567">
        <ele>1065.363</ele>
        <time>2011-05-23T16:59:06Z</time>
      </trkpt>
      <trkpt lat="40.824215" lon="-3.747578">
        <ele>1067.173</ele>
        <time>2011-05-23T16:59:16Z</time>
      </trkpt>
      <trkpt lat="40.824339" lon="-3.747540">
        <ele>1067.185</ele>
        <time>2011-05-23T16:59:26Z</time>
      </trkpt>
      <trkpt lat="40.824467" lon="-3.747514">
        <ele>1067.613</ele>
        <time>2011-05-23T16:59:36Z</time>
      </trkpt>
      <trkpt lat="40.824591" lon="-3.747541">
        <ele>1068.508</ele>
        <time>2011-05-23T16:59:46Z</time>
      </trkpt>
      <trkpt lat="40.824714" lon="-3.747569">
        <ele>1069.083</ele>
        <time>2011-05-23T16:59:56Z</time>
      </trkpt>
      <trkpt lat="40.824846" lon="-3.747585">
        <ele>1069.568</ele>
        <time>2011-05-23T17:00:06Z</time>
      </trkpt>
      <trkpt lat="40.824983" lon="-3.747622">
        <ele>1069.048</ele>
        <time>2011-05-23T17:00:16Z</time>
      </trkpt>
      <trkpt lat="40.825122" lon="-3.747648">
        <ele>1069.018</ele>
        <time>2011-05-23T17:00:26Z</time>
      </trkpt>
      <trkpt lat="40.825266" lon="-3.747638">
        <ele>1069.549</ele>
        <time>2011-05-23T17:00:36Z</time>
      </trkpt>
      <trkpt lat="40.825397" lon="-3.747639">
        <ele>1070.049</ele>
        <time>2011-05-23T17:00:46Z</time>
      </trkpt>
      <trkpt lat="40.825522" lon="-3.747667">
        <ele>1070.077</ele>
        <time>2011-05-23T17:00:56Z</time>
      </trkpt>
      <trkpt lat="40.825653" lon="-3.747712">
        <ele>1070.539</ele>
        <time>2011-05-23T17:01:06Z</time>
      </trkpt>
      <trkpt lat="40.825788" lon="-3.747736">
        <ele>1071.584</ele>
        <time>2011-05-23T17:01:16Z</time>
      </trkpt>
      <trkpt lat="40.825928" lon="-3.747751">
        <ele>1072.007</ele>
        <time>2011-05-23T17:01:26Z</time>
      </trkpt>
      <trkpt lat="40.826065" lon="-3.747771">
        <ele>1072.517</ele>
        <time>2011-05-23T17:01:36Z</time>
      </trkpt>
      <trkpt lat="40.826192" lon="-3.747774">
        <ele>1073.908</ele>
        <time>2011-05-23T17:01:46Z</time>
      </trkpt>
      <trkpt lat="40.826332" lon="-3.747795">
        <ele>1074.464</ele>
        <time>2011-05-23T17:01:56Z</time>
      </trkpt>
      <trkpt lat="40.826463" lon="-3.747792">
        <ele>1074.979</ele>
        <time>2011-05-23T17:02:06Z</time>
      </trkpt>
      <trkpt lat="40.826591" lon="-3.747796">
        <ele>1074.489</ele>
        <time>2011-05-23T17:02:16Z</time>
      </trkpt>
      <trkpt lat="40.826723" lon="-3.747816">
        <ele>1074.419</ele>
        <time>2011-05-23T17:02:26Z</time>
      </trkpt>
      <trkpt lat="40.826878" lon="-3.747809">
        <ele>1074.980</ele>
        <time>2011-05-23T17:02:36Z</time>
      </trkpt>
      <trkpt lat="40.827011" lon="-3.747809">
        <ele>1074.940</ele>
        <time>2011-05-23T17:02:46Z</time>
      </trkpt>
      <trkpt lat="40.827152" lon="-3.747833">
        <ele>1074.958</ele>
        <time>2011-05-23T17:02:56Z</time>
      </trkpt>
      <trkpt lat="40.827284" lon="-3.747849">
        <ele>1075.490</ele>
        <time>2011-05-23T17:03:06Z</time>
      </trkpt>
      <trkpt lat="40.827421" lon="-3.747868">
        <ele>1075.413</ele>
        <time>2011-05-23T17:03:16Z</time>
      </trkpt>
      <trkpt lat="40.827558" lon="-3.747811">
        <ele>1075.843</ele>
        <time>2011-05-23T17:03:26Z</time>
      </trkpt>
      <trkpt lat="40.827691" lon="-3.747733">
        <ele>1075.807</ele>
        <time>2011-05-23T17:03:36Z</time>
      </trkpt>
      <trkpt lat="40.827814" lon="-3.747672">
        <ele>1074.908</ele>
        <time>2011-05-23T17:03:45Z</time>
      </trkpt>
      <trkpt lat="40.827947" lon="-3.747581">
        <ele>1074.437</ele>
        <time>2011-05-23T17:03:55Z</time>
      </trkpt>
      <trkpt lat="40.828073" lon="-3.747520">
        <ele>1073.992</ele>
        <time>2011-05-23T17:04:05Z</time>
      </trkpt>
      <trkpt lat="40.828179" lon="-3.747426">
        <ele>1073.442</ele>
        <time>2011-05-23T17:04:15Z</time>
      </trkpt>
      <trkpt lat="40.828316" lon="-3.747321">
        <ele>1073.412</ele>
        <time>2011-05-23T17:04:25Z</time>
      </trkpt>
      <trkpt lat="40.828437" lon="-3.747243">
        <ele>1073.043</ele>
        <time>2011-05-23T17:04:35Z</time>
      </trkpt>
      <trkpt lat="40.828552" lon="-3.747172">
        <ele>1072.573</ele>
        <time>2011-05-23T17:04:45Z</time>
      </trkpt>
      <trkpt lat="40.828684" lon="-3.747073">
        <ele>1072.581</ele>
        <time>2011-05-23T17:04:55Z</time>
      </trkpt>
      <trkpt lat="40.828818" lon="-3.746986">
        <ele>1072.573</ele>
        <time>2011-05-23T17:05:05Z</time>
      </trkpt>
      <trkpt lat="40.828912" lon="-3.746921">
        <ele>1071.527</ele>
        <time>2011-05-23T17:05:15Z</time>
      </trkpt>
      <trkpt lat="40.829028" lon="-3.746897">
        <ele>1069.568</ele>
        <time>2011-05-23T17:05:25Z</time>
      </trkpt>
      <trkpt lat="40.829144" lon="-3.746878">
        <ele>1068.514</ele>
        <time>2011-05-23T17:05:35Z</time>
      </trkpt>
      <trkpt lat="40.829277" lon="-3.746834">
        <ele>1068.508</ele>
        <time>2011-05-23T17:05:45Z</time>
      </trkpt>
      <trkpt lat="40.829395" lon="-3.746741">
        <ele>1068.558</ele>
        <time>2011-05-23T17:05:55Z</time>
      </trkpt>
      <trkpt lat="40.829514" lon="-3.746665">
        <ele>1069.023</ele>
        <time>2011-05-23T17:06:05Z</time>
      </trkpt>
      <trkpt lat="40.829654" lon="-3.746612">
        <ele>1069.083</ele>
        <time>2011-05-23T17:06:15Z</time>
      </trkpt>
      <trkpt lat="40.829787" lon="-3.746578">
        <ele>1069.023</ele>
        <time>2011-05-23T17:06:25Z</time>
      </trkpt>
      <trkpt lat="40.829899" lon="-3.746491">
        <ele>1068.544</ele>
        <time>2011-05-23T17:06:35Z</time>
      </trkpt>
      <trkpt lat="40.830044" lon="-3.746363">
        <ele>1069.564</ele>
        <time>2011-05-23T17:06:45Z</time>
      </trkpt>
      <trkpt lat="40.830170" lon="-3.746259">
        <ele>1070.522</ele>
        <time>2011-05-23T17:06:55Z</time>
      </trkpt>
      <trkpt lat="40.830279" lon="-3.746189">
        <ele>1070.024</ele>
        <time>2011-05-23T17:07:05Z</time>
      </trkpt>
      <trkpt lat="40.830397" lon="-3.746098">
        <ele>1069.586</ele>
        <time>2011-05-23T17:07:15Z</time>
      </trkpt>
      <trkpt lat="40.830499" lon="-3.745986">
        <ele>1070.560</ele>
        <time>2011-05-23T17:07:25Z</time>
      </trkpt>
      <trkpt lat="40.830612" lon="-3.745883">
        <ele>1070.526</ele>
        <time>2011-05-23T17:07:35Z</time>
      </trkpt>
      <trkpt lat="40.830750" lon="-3.745790">
        <ele>1070.508</ele>
        <time>2011-05-23T17:07:45Z</time>
      </trkpt>
      <trkpt lat="40.830879" lon="-3.745739">
        <ele>1071.054</ele>
        <time>2011-05-23T17:07:55Z</time>
      </trkpt>
      <trkpt lat="40.831015" lon="-3.745657">
        <ele>1072.049</ele>
        <time>2011-05-23T17:08:05Z</time>
      </trkpt>
      <trkpt lat="40.831137" lon="-3.745618">
        <ele>1073.079</ele>
        <time>2011-05-23T17:08:15Z</time>
      </trkpt>
      <trkpt lat="40.831270" lon="-3.745592">
        <ele>1074.489</ele>
        <time>2011-05-23T17:08:25Z</time>
      </trkpt>
      <trkpt lat="40.831399" lon="-3.745517">
        <ele>1075.480</ele>
        <time>2011-05-23T17:08:35Z</time>
      </trkpt>
      <trkpt lat="40.831534" lon="-3.745473">
        <ele>1075.430</ele>
        <time>2011-05-23T17:08:45Z</time>
      </trkpt>
      <trkpt lat="40.831652" lon="-3.745395">
        <ele>1075.838</ele>
        <time>2011-05-23T17:08:55Z</time>
      </trkpt>
      <trkpt lat="40.831755" lon="-3.745265">
        <ele>1075.430</ele>
        <time>2011-05-23T17:09:05Z</time>
      </trkpt>
      <trkpt lat="40.831774" lon="-3.745087">
        <ele>1075.453</ele>
        <time>2011-05-23T17:09:15Z</time>
      </trkpt>
      <trkpt lat="40.831834" lon="-3.744908">
        <ele>1076.304</ele>
        <time>2011-05-23T17:09:25Z</time>
      </trkpt>
      <trkpt lat="40.831931" lon="-3.744736">
        <ele>1075.814</ele>
        <time>2011-05-23T17:09:35Z</time>
      </trkpt>
      <trkpt lat="40.831949" lon="-3.744725">
        <ele>1076.308</ele>
        <time>2011-05-23T17:09:45Z</time>
      </trkpt>
      <trkpt lat="40.831949" lon="-3.744724">
        <ele>1076.331</ele>
        <time>2011-05-23T17:09:55Z</time>
      </trkpt>
      <trkpt lat="40.831954" lon="-3.744715">
        <ele>1076.326</ele>
        <time>2011-05-23T17:10:05Z</time>
      </trkpt>
      <trkpt lat="40.832067" lon="-3.744578">
        <ele>1076.316</ele>
        <time>2011-05-23T17:10:15Z</time>
      </trkpt>
      <trkpt lat="40.832161" lon="-3.744483">
        <ele>1076.896</ele>
        <time>2011-05-23T17:10:25Z</time>
      </trkpt>
      <trkpt lat="40.832245" lon="-3.744348">
        <ele>1078.387</ele>
        <time>2011-05-23T17:10:35Z</time>
      </trkpt>
      <trkpt lat="40.832371" lon="-3.744326">
        <ele>1079.657</ele>
        <time>2011-05-23T17:10:45Z</time>
      </trkpt>
      <trkpt lat="40.832476" lon="-3.744216">
        <ele>1080.685</ele>
        <time>2011-05-23T17:10:55Z</time>
      </trkpt>
      <trkpt lat="40.832584" lon="-3.744114">
        <ele>1078.627</ele>
        <time>2011-05-23T17:11:05Z</time>
      </trkpt>
      <trkpt lat="40.832705" lon="-3.743983">
        <ele>1079.633</ele>
        <time>2011-05-23T17:11:15Z</time>
      </trkpt>
      <trkpt lat="40.832819" lon="-3.743871">
        <ele>1080.623</ele>
        <time>2011-05-23T17:11:25Z</time>
      </trkpt>
      <trkpt lat="40.832934" lon="-3.743810">
        <ele>1080.615</ele>
        <time>2011-05-23T17:11:35Z</time>
      </trkpt>
      <trkpt lat="40.833055" lon="-3.743778">
        <ele>1081.508</ele>
        <time>2011-05-23T17:11:45Z</time>
      </trkpt>
      <trkpt lat="40.833185" lon="-3.743728">
        <ele>1082.089</ele>
        <time>2011-05-23T17:11:55Z</time>
      </trkpt>
      <trkpt lat="40.833304" lon="-3.743683">
        <ele>1083.584</ele>
        <time>2011-05-23T17:12:05Z</time>
      </trkpt>
      <trkpt lat="40.833415" lon="-3.743571">
        <ele>1084.554</ele>
        <time>2011-05-23T17:12:15Z</time>
      </trkpt>
      <trkpt lat="40.833502" lon="-3.743449">
        <ele>1085.564</ele>
        <time>2011-05-23T17:12:25Z</time>
      </trkpt>
      <trkpt lat="40.833615" lon="-3.743362">
        <ele>1085.945</ele>
        <time>2011-05-23T17:12:35Z</time>
      </trkpt>
      <trkpt lat="40.833752" lon="-3.743319">
        <ele>1087.415</ele>
        <time>2011-05-23T17:12:45Z</time>
      </trkpt>
      <trkpt lat="40.833884" lon="-3.743256">
        <ele>1088.843</ele>
        <time>2011-05-23T17:12:55Z</time>
      </trkpt>
      <trkpt lat="40.834024" lon="-3.743188">
        <ele>1089.815</ele>
        <time>2011-05-23T17:13:05Z</time>
      </trkpt>
      <trkpt lat="40.834147" lon="-3.743167">
        <ele>1090.396</ele>
        <time>2011-05-23T17:13:15Z</time>
      </trkpt>
      <trkpt lat="40.834270" lon="-3.743124">
        <ele>1089.831</ele>
        <time>2011-05-23T17:13:25Z</time>
      </trkpt>
      <trkpt lat="40.834391" lon="-3.743089">
        <ele>1090.824</ele>
        <time>2011-05-23T17:13:35Z</time>
      </trkpt>
      <trkpt lat="40.834510" lon="-3.743030">
        <ele>1091.608</ele>
        <time>2011-05-23T17:13:45Z</time>
      </trkpt>
      <trkpt lat="40.834639" lon="-3.742910">
        <ele>1092.195</ele>
        <time>2011-05-23T17:13:55Z</time>
      </trkpt>
      <trkpt lat="40.834751" lon="-3.742823">
        <ele>1092.630</ele>
        <time>2011-05-23T17:14:05Z</time>
      </trkpt>
      <trkpt lat="40.834851" lon="-3.742712">
        <ele>1093.560</ele>
        <time>2011-05-23T17:14:15Z</time>
      </trkpt>
      <trkpt lat="40.834965" lon="-3.742608">
        <ele>1095.030</ele>
        <time>2011-05-23T17:14:25Z</time>
      </trkpt>
      <trkpt lat="40.835087" lon="-3.742570">
        <ele>1095.571</ele>
        <time>2011-05-23T17:14:35Z</time>
      </trkpt>
      <trkpt lat="40.835228" lon="-3.742522">
        <ele>1096.021</ele>
        <time>2011-05-23T17:14:45Z</time>
      </trkpt>
      <trkpt lat="40.835355" lon="-3.742477">
        <ele>1097.589</ele>
        <time>2011-05-23T17:14:55Z</time>
      </trkpt>
      <trkpt lat="40.835486" lon="-3.742417">
        <ele>1099.451</ele>
        <time>2011-05-23T17:15:05Z</time>
      </trkpt>
      <trkpt lat="40.835606" lon="-3.742309">
        <ele>1101.352</ele>
        <time>2011-05-23T17:15:15Z</time>
      </trkpt>
      <trkpt lat="40.835720" lon="-3.742196">
        <ele>1102.353</ele>
        <time>2011-05-23T17:15:25Z</time>
      </trkpt>
      <trkpt lat="40.835809" lon="-3.742072">
        <ele>1104.108</ele>
        <time>2011-05-23T17:15:35Z</time>
      </trkpt>
      <trkpt lat="40.835922" lon="-3.741930">
        <ele>1105.108</ele>
        <time>2011-05-23T17:15:45Z</time>
      </trkpt>
      <trkpt lat="40.836015" lon="-3.741784">
        <ele>1106.081</ele>
        <time>2011-05-23T17:15:55Z</time>
      </trkpt>
      <trkpt lat="40.836109" lon="-3.741659">
        <ele>1106.586</ele>
        <time>2011-05-23T17:16:05Z</time>
      </trkpt>
      <trkpt lat="40.836220" lon="-3.741549">
        <ele>1106.576</ele>
        <time>2011-05-23T17:16:15Z</time>
      </trkpt>
      <trkpt lat="40.836338" lon="-3.741447">
        <ele>1107.536</ele>
        <time>2011-05-23T17:16:25Z</time>
      </trkpt>
      <trkpt lat="40.836454" lon="-3.741337">
        <ele>1108.087</ele>
        <time>2011-05-23T17:16:35Z</time>
      </trkpt>
      <trkpt lat="40.836564" lon="-3.741282">
        <ele>1108.567</ele>
        <time>2011-05-23T17:16:45Z</time>
      </trkpt>
      <trkpt lat="40.836674" lon="-3.741193">
        <ele>1110.015</ele>
        <time>2011-05-23T17:16:55Z</time>
      </trkpt>
      <trkpt lat="40.836782" lon="-3.741114">
        <ele>1111.487</ele>
        <time>2011-05-23T17:17:05Z</time>
      </trkpt>
      <trkpt lat="40.836915" lon="-3.741023">
        <ele>1112.922</ele>
        <time>2011-05-23T17:17:15Z</time>
      </trkpt>
      <trkpt lat="40.837016" lon="-3.740907">
        <ele>1114.862</ele>
        <time>2011-05-23T17:17:25Z</time>
      </trkpt>
      <trkpt lat="40.837132" lon="-3.740792">
        <ele>1116.108</ele>
        <time>2011-05-23T17:17:35Z</time>
      </trkpt>
      <trkpt lat="40.837257" lon="-3.740721">
        <ele>1117.608</ele>
        <time>2011-05-23T17:17:45Z</time>
      </trkpt>
      <trkpt lat="40.837397" lon="-3.740651">
        <ele>1119.028</ele>
        <time>2011-05-23T17:17:55Z</time>
      </trkpt>
      <trkpt lat="40.837518" lon="-3.740578">
        <ele>1119.563</ele>
        <time>2011-05-23T17:18:05Z</time>
      </trkpt>
      <trkpt lat="40.837649" lon="-3.740519">
        <ele>1120.563</ele>
        <time>2011-05-23T17:18:15Z</time>
      </trkpt>
      <trkpt lat="40.837779" lon="-3.740512">
        <ele>1121.593</ele>
        <time>2011-05-23T17:18:25Z</time>
      </trkpt>
      <trkpt lat="40.837920" lon="-3.740492">
        <ele>1122.514</ele>
        <time>2011-05-23T17:18:35Z</time>
      </trkpt>
      <trkpt lat="40.838075" lon="-3.740528">
        <ele>1123.464</ele>
        <time>2011-05-23T17:18:45Z</time>
      </trkpt>
      <trkpt lat="40.838198" lon="-3.740534">
        <ele>1123.912</ele>
        <time>2011-05-23T17:18:55Z</time>
      </trkpt>
      <trkpt lat="40.838338" lon="-3.740562">
        <ele>1124.414</ele>
        <time>2011-05-23T17:19:05Z</time>
      </trkpt>
      <trkpt lat="40.838467" lon="-3.740606">
        <ele>1124.915</ele>
        <time>2011-05-23T17:19:15Z</time>
      </trkpt>
      <trkpt lat="40.838591" lon="-3.740629">
        <ele>1125.465</ele>
        <time>2011-05-23T17:19:25Z</time>
      </trkpt>
      <trkpt lat="40.838723" lon="-3.740692">
        <ele>1125.411</ele>
        <time>2011-05-23T17:19:35Z</time>
      </trkpt>
      <trkpt lat="40.838844" lon="-3.740721">
        <ele>1126.308</ele>
        <time>2011-05-23T17:19:45Z</time>
      </trkpt>
      <trkpt lat="40.838981" lon="-3.740706">
        <ele>1127.897</ele>
        <time>2011-05-23T17:19:55Z</time>
      </trkpt>
      <trkpt lat="40.839121" lon="-3.740632">
        <ele>1128.662</ele>
        <time>2011-05-23T17:20:05Z</time>
      </trkpt>
      <trkpt lat="40.839247" lon="-3.740607">
        <ele>1130.162</ele>
        <time>2011-05-23T17:20:15Z</time>
      </trkpt>
      <trkpt lat="40.839327" lon="-3.740566">
        <ele>1130.632</ele>
        <time>2011-05-23T17:20:25Z</time>
      </trkpt>
      <trkpt lat="40.839445" lon="-3.740505">
        <ele>1131.043</ele>
        <time>2011-05-23T17:20:35Z</time>
      </trkpt>
      <trkpt lat="40.839587" lon="-3.740495">
        <ele>1131.543</ele>
        <time>2011-05-23T17:20:45Z</time>
      </trkpt>
      <trkpt lat="40.839719" lon="-3.740545">
        <ele>1132.011</ele>
        <time>2011-05-23T17:20:55Z</time>
      </trkpt>
      <trkpt lat="40.839856" lon="-3.740595">
        <ele>1133.063</ele>
        <time>2011-05-23T17:21:05Z</time>
      </trkpt>
      <trkpt lat="40.839982" lon="-3.740628">
        <ele>1134.593</ele>
        <time>2011-05-23T17:21:15Z</time>
      </trkpt>
      <trkpt lat="40.840109" lon="-3.740652">
        <ele>1135.965</ele>
        <time>2011-05-23T17:21:25Z</time>
      </trkpt>
      <trkpt lat="40.840216" lon="-3.740672">
        <ele>1136.421</ele>
        <time>2011-05-23T17:21:35Z</time>
      </trkpt>
      <trkpt lat="40.840322" lon="-3.740705">
        <ele>1136.908</ele>
        <time>2011-05-23T17:21:45Z</time>
      </trkpt>
      <trkpt lat="40.840428" lon="-3.740705">
        <ele>1137.975</ele>
        <time>2011-05-23T17:21:55Z</time>
      </trkpt>
      <trkpt lat="40.840541" lon="-3.740732">
        <ele>1138.330</ele>
        <time>2011-05-23T17:22:05Z</time>
      </trkpt>
      <trkpt lat="40.840672" lon="-3.740803">
        <ele>1138.820</ele>
        <time>2011-05-23T17:22:15Z</time>
      </trkpt>
      <trkpt lat="40.840773" lon="-3.740878">
        <ele>1139.360</ele>
        <time>2011-05-23T17:22:25Z</time>
      </trkpt>
      <trkpt lat="40.840889" lon="-3.740939">
        <ele>1140.381</ele>
        <time>2011-05-23T17:22:35Z</time>
      </trkpt>
      <trkpt lat="40.840975" lon="-3.741020">
        <ele>1141.121</ele>
        <time>2011-05-23T17:22:45Z</time>
      </trkpt>
      <trkpt lat="40.841079" lon="-3.741092">
        <ele>1142.179</ele>
        <time>2011-05-23T17:22:55Z</time>
      </trkpt>
      <trkpt lat="40.841209" lon="-3.741136">
        <ele>1142.161</ele>
        <time>2011-05-23T17:23:05Z</time>
      </trkpt>
      <trkpt lat="40.841315" lon="-3.741178">
        <ele>1142.639</ele>
        <time>2011-05-23T17:23:15Z</time>
      </trkpt>
      <trkpt lat="40.841436" lon="-3.741218">
        <ele>1143.501</ele>
        <time>2011-05-23T17:23:25Z</time>
      </trkpt>
      <trkpt lat="40.841509" lon="-3.741226">
        <ele>1144.021</ele>
        <time>2011-05-23T17:23:35Z</time>
      </trkpt>
      <trkpt lat="40.841602" lon="-3.741223">
        <ele>1144.008</ele>
        <time>2011-05-23T17:23:45Z</time>
      </trkpt>
      <trkpt lat="40.841707" lon="-3.741217">
        <ele>1144.059</ele>
        <time>2011-05-23T17:23:55Z</time>
      </trkpt>
      <trkpt lat="40.841841" lon="-3.741205">
        <ele>1144.074</ele>
        <time>2011-05-23T17:24:05Z</time>
      </trkpt>
      <trkpt lat="40.841926" lon="-3.741204">
        <ele>1144.524</ele>
        <time>2011-05-23T17:24:15Z</time>
      </trkpt>
      <trkpt lat="40.842045" lon="-3.741235">
        <ele>1144.564</ele>
        <time>2011-05-23T17:24:25Z</time>
      </trkpt>
      <trkpt lat="40.842162" lon="-3.741248">
        <ele>1145.055</ele>
        <time>2011-05-23T17:24:35Z</time>
      </trkpt>
      <trkpt lat="40.842255" lon="-3.741267">
        <ele>1145.055</ele>
        <time>2011-05-23T17:24:45Z</time>
      </trkpt>
      <trkpt lat="40.842380" lon="-3.741261">
        <ele>1145.593</ele>
        <time>2011-05-23T17:24:55Z</time>
      </trkpt>
      <trkpt lat="40.842491" lon="-3.741292">
        <ele>1145.555</ele>
        <time>2011-05-23T17:25:05Z</time>
      </trkpt>
      <trkpt lat="40.842612" lon="-3.741336">
        <ele>1146.594</ele>
        <time>2011-05-23T17:25:15Z</time>
      </trkpt>
      <trkpt lat="40.842686" lon="-3.741367">
        <ele>1147.057</ele>
        <time>2011-05-23T17:25:25Z</time>
      </trkpt>
      <trkpt lat="40.842685" lon="-3.741366">
        <ele>1147.022</ele>
        <time>2011-05-23T17:25:35Z</time>
      </trkpt>
      <trkpt lat="40.842682" lon="-3.741365">
        <ele>1147.008</ele>
        <time>2011-05-23T17:25:45Z</time>
      </trkpt>
      <trkpt lat="40.842689" lon="-3.741360">
        <ele>1147.595</ele>
        <time>2011-05-23T17:25:55Z</time>
      </trkpt>
      <trkpt lat="40.842802" lon="-3.741392">
        <ele>1147.570</ele>
        <time>2011-05-23T17:26:05Z</time>
      </trkpt>
      <trkpt lat="40.842938" lon="-3.741369">
        <ele>1148.420</ele>
        <time>2011-05-23T17:26:15Z</time>
      </trkpt>
      <trkpt lat="40.843066" lon="-3.741377">
        <ele>1147.950</ele>
        <time>2011-05-23T17:26:25Z</time>
      </trkpt>
      <trkpt lat="40.843198" lon="-3.741353">
        <ele>1148.451</ele>
        <time>2011-05-23T17:26:35Z</time>
      </trkpt>
      <trkpt lat="40.843333" lon="-3.741365">
        <ele>1148.981</ele>
        <time>2011-05-23T17:26:45Z</time>
      </trkpt>
      <trkpt lat="40.843453" lon="-3.741374">
        <ele>1149.969</ele>
        <time>2011-05-23T17:26:55Z</time>
      </trkpt>
      <trkpt lat="40.843563" lon="-3.741394">
        <ele>1150.361</ele>
        <time>2011-05-23T17:27:05Z</time>
      </trkpt>
      <trkpt lat="40.843692" lon="-3.741396">
        <ele>1151.872</ele>
        <time>2011-05-23T17:27:15Z</time>
      </trkpt>
      <trkpt lat="40.843819" lon="-3.741397">
        <ele>1152.313</ele>
        <time>2011-05-23T17:27:25Z</time>
      </trkpt>
      <trkpt lat="40.843957" lon="-3.741367">
        <ele>1152.314</ele>
        <time>2011-05-23T17:27:35Z</time>
      </trkpt>
      <trkpt lat="40.844081" lon="-3.741368">
        <ele>1152.308</ele>
        <time>2011-05-23T17:27:45Z</time>
      </trkpt>
      <trkpt lat="40.844219" lon="-3.741348">
        <ele>1152.883</ele>
        <time>2011-05-23T17:27:55Z</time>
      </trkpt>
      <trkpt lat="40.844345" lon="-3.741353">
        <ele>1152.848</ele>
        <time>2011-05-23T17:28:05Z</time>
      </trkpt>
      <trkpt lat="40.844450" lon="-3.741376">
        <ele>1154.128</ele>
        <time>2011-05-23T17:28:15Z</time>
      </trkpt>
      <trkpt lat="40.844566" lon="-3.741395">
        <ele>1155.598</ele>
        <time>2011-05-23T17:28:25Z</time>
      </trkpt>
      <trkpt lat="40.844701" lon="-3.741372">
        <ele>1157.539</ele>
        <time>2011-05-23T17:28:35Z</time>
      </trkpt>
      <trkpt lat="40.844812" lon="-3.741378">
        <ele>1159.099</ele>
        <time>2011-05-23T17:28:45Z</time>
      </trkpt>
      <trkpt lat="40.844951" lon="-3.741352">
        <ele>1159.517</ele>
        <time>2011-05-23T17:28:55Z</time>
      </trkpt>
      <trkpt lat="40.845089" lon="-3.741361">
        <ele>1160.059</ele>
        <time>2011-05-23T17:29:05Z</time>
      </trkpt>
      <trkpt lat="40.845196" lon="-3.741399">
        <ele>1160.957</ele>
        <time>2011-05-23T17:29:15Z</time>
      </trkpt>
      <trkpt lat="40.845324" lon="-3.741459">
        <ele>1161.400</ele>
        <time>2011-05-23T17:29:25Z</time>
      </trkpt>
      <trkpt lat="40.845436" lon="-3.741517">
        <ele>1162.420</ele>
        <time>2011-05-23T17:29:35Z</time>
      </trkpt>
      <trkpt lat="40.845560" lon="-3.741571">
        <ele>1163.308</ele>
        <time>2011-05-23T17:29:45Z</time>
      </trkpt>
      <trkpt lat="40.845680" lon="-3.741614">
        <ele>1164.321</ele>
        <time>2011-05-23T17:29:55Z</time>
      </trkpt>
      <trkpt lat="40.845822" lon="-3.741607">
        <ele>1165.366</ele>
        <time>2011-05-23T17:30:05Z</time>
      </trkpt>
      <trkpt lat="40.845950" lon="-3.741571">
        <ele>1165.686</ele>
        <time>2011-05-23T17:30:15Z</time>
      </trkpt>
      <trkpt lat="40.846059" lon="-3.741522">
        <ele>1166.136</ele>
        <time>2011-05-23T17:30:25Z</time>
      </trkpt>
      <trkpt lat="40.846185" lon="-3.741460">
        <ele>1166.617</ele>
        <time>2011-05-23T17:30:35Z</time>
      </trkpt>
      <trkpt lat="40.846292" lon="-3.741427">
        <ele>1168.057</ele>
        <time>2011-05-23T17:30:45Z</time>
      </trkpt>
      <trkpt lat="40.846416" lon="-3.741365">
        <ele>1168.585</ele>
        <time>2011-05-23T17:30:55Z</time>
      </trkpt>
      <trkpt lat="40.846540" lon="-3.741305">
        <ele>1169.527</ele>
        <time>2011-05-23T17:31:05Z</time>
      </trkpt>
      <trkpt lat="40.846641" lon="-3.741269">
        <ele>1170.062</ele>
        <time>2011-05-23T17:31:15Z</time>
      </trkpt>
      <trkpt lat="40.846764" lon="-3.741194">
        <ele>1170.083</ele>
        <time>2011-05-23T17:31:25Z</time>
      </trkpt>
      <trkpt lat="40.846893" lon="-3.741106">
        <ele>1170.011</ele>
        <time>2011-05-23T17:31:35Z</time>
      </trkpt>
      <trkpt lat="40.847010" lon="-3.741029">
        <ele>1170.508</ele>
        <time>2011-05-23T17:31:45Z</time>
      </trkpt>
      <trkpt lat="40.847155" lon="-3.741017">
        <ele>1172.512</ele>
        <time>2011-05-23T17:31:55Z</time>
      </trkpt>
      <trkpt lat="40.847259" lon="-3.740980">
        <ele>1171.587</ele>
        <time>2011-05-23T17:32:05Z</time>
      </trkpt>
      <trkpt lat="40.847384" lon="-3.740925">
        <ele>1172.547</ele>
        <time>2011-05-23T17:32:15Z</time>
      </trkpt>
      <trkpt lat="40.847509" lon="-3.740871">
        <ele>1172.947</ele>
        <time>2011-05-23T17:32:25Z</time>
      </trkpt>
      <trkpt lat="40.847641" lon="-3.740855">
        <ele>1174.918</ele>
        <time>2011-05-23T17:32:35Z</time>
      </trkpt>
      <trkpt lat="40.847760" lon="-3.740835">
        <ele>1174.928</ele>
        <time>2011-05-23T17:32:45Z</time>
      </trkpt>
      <trkpt lat="40.847888" lon="-3.740790">
        <ele>1175.356</ele>
        <time>2011-05-23T17:32:55Z</time>
      </trkpt>
      <trkpt lat="40.848020" lon="-3.740782">
        <ele>1176.348</ele>
        <time>2011-05-23T17:33:05Z</time>
      </trkpt>
      <trkpt lat="40.848147" lon="-3.740777">
        <ele>1177.386</ele>
        <time>2011-05-23T17:33:15Z</time>
      </trkpt>
      <trkpt lat="40.848269" lon="-3.740756">
        <ele>1179.160</ele>
        <time>2011-05-23T17:33:25Z</time>
      </trkpt>
      <trkpt lat="40.848396" lon="-3.740720">
        <ele>1180.526</ele>
        <time>2011-05-23T17:33:35Z</time>
      </trkpt>
      <trkpt lat="40.848514" lon="-3.740643">
        <ele>1183.008</ele>
        <time>2011-05-23T17:33:45Z</time>
      </trkpt>
      <trkpt lat="40.848622" lon="-3.740556">
        <ele>1184.564</ele>
        <time>2011-05-23T17:33:55Z</time>
      </trkpt>
      <trkpt lat="40.848711" lon="-3.740442">
        <ele>1185.479</ele>
        <time>2011-05-23T17:34:05Z</time>
      </trkpt>
      <trkpt lat="40.848808" lon="-3.740343">
        <ele>1187.489</ele>
        <time>2011-05-23T17:34:15Z</time>
      </trkpt>
      <trkpt lat="40.848902" lon="-3.740237">
        <ele>1188.399</ele>
        <time>2011-05-23T17:34:25Z</time>
      </trkpt>
      <trkpt lat="40.849013" lon="-3.740133">
        <ele>1189.870</ele>
        <time>2011-05-23T17:34:35Z</time>
      </trkpt>
      <trkpt lat="40.849124" lon="-3.740048">
        <ele>1191.160</ele>
        <time>2011-05-23T17:34:45Z</time>
      </trkpt>
      <trkpt lat="40.849241" lon="-3.739962">
        <ele>1192.618</ele>
        <time>2011-05-23T17:34:55Z</time>
      </trkpt>
      <trkpt lat="40.849327" lon="-3.739907">
        <ele>1195.060</ele>
        <time>2011-05-23T17:35:05Z</time>
      </trkpt>
      <trkpt lat="40.849413" lon="-3.739812">
        <ele>1197.018</ele>
        <time>2011-05-23T17:35:15Z</time>
      </trkpt>
      <trkpt lat="40.849495" lon="-3.739681">
        <ele>1197.998</ele>
        <time>2011-05-23T17:35:25Z</time>
      </trkpt>
      <trkpt lat="40.849612" lon="-3.739576">
        <ele>1199.917</ele>
        <time>2011-05-23T17:35:35Z</time>
      </trkpt>
      <trkpt lat="40.849731" lon="-3.739479">
        <ele>1200.308</ele>
        <time>2011-05-23T17:35:45Z</time>
      </trkpt>
      <trkpt lat="40.849834" lon="-3.739376">
        <ele>1200.387</ele>
        <time>2011-05-23T17:35:55Z</time>
      </trkpt>
      <trkpt lat="40.849919" lon="-3.739242">
        <ele>1200.822</ele>
        <time>2011-05-23T17:36:05Z</time>
      </trkpt>
      <trkpt lat="40.849991" lon="-3.739097">
        <ele>1203.172</ele>
        <time>2011-05-23T17:36:15Z</time>
      </trkpt>
      <trkpt lat="40.850100" lon="-3.739010">
        <ele>1203.132</ele>
        <time>2011-05-23T17:36:25Z</time>
      </trkpt>
      <trkpt lat="40.850219" lon="-3.738936">
        <ele>1205.113</ele>
        <time>2011-05-23T17:36:35Z</time>
      </trkpt>
      <trkpt lat="40.850326" lon="-3.738845">
        <ele>1206.543</ele>
        <time>2011-05-23T17:36:45Z</time>
      </trkpt>
      <trkpt lat="40.850396" lon="-3.738716">
        <ele>1208.081</ele>
        <time>2011-05-23T17:36:55Z</time>
      </trkpt>
      <trkpt lat="40.850514" lon="-3.738671">
        <ele>1210.053</ele>
        <time>2011-05-23T17:37:05Z</time>
      </trkpt>
      <trkpt lat="40.850629" lon="-3.738633">
        <ele>1211.425</ele>
        <time>2011-05-23T17:37:15Z</time>
      </trkpt>
      <trkpt lat="40.850747" lon="-3.738482">
        <ele>1212.426</ele>
        <time>2011-05-23T17:37:25Z</time>
      </trkpt>
      <trkpt lat="40.850833" lon="-3.738337">
        <ele>1213.308</ele>
        <time>2011-05-23T17:37:35Z</time>
      </trkpt>
      <trkpt lat="40.850924" lon="-3.738223">
        <ele>1214.308</ele>
        <time>2011-05-23T17:37:45Z</time>
      </trkpt>
      <trkpt lat="40.851015" lon="-3.738119">
        <ele>1215.118</ele>
        <time>2011-05-23T17:37:55Z</time>
      </trkpt>
      <trkpt lat="40.851111" lon="-3.737980">
        <ele>1215.673</ele>
        <time>2011-05-23T17:38:05Z</time>
      </trkpt>
      <trkpt lat="40.851212" lon="-3.737880">
        <ele>1216.163</ele>
        <time>2011-05-23T17:38:15Z</time>
      </trkpt>
      <trkpt lat="40.851291" lon="-3.737750">
        <ele>1216.133</ele>
        <time>2011-05-23T17:38:25Z</time>
      </trkpt>
      <trkpt lat="40.851362" lon="-3.737605">
        <ele>1218.024</ele>
        <time>2011-05-23T17:38:35Z</time>
      </trkpt>
      <trkpt lat="40.851449" lon="-3.737481">
        <ele>1219.014</ele>
        <time>2011-05-23T17:38:45Z</time>
      </trkpt>
      <trkpt lat="40.851528" lon="-3.737346">
        <ele>1220.522</ele>
        <time>2011-05-23T17:38:55Z</time>
      </trkpt>
      <trkpt lat="40.851594" lon="-3.737190">
        <ele>1221.514</ele>
        <time>2011-05-23T17:39:05Z</time>
      </trkpt>
      <trkpt lat="40.851660" lon="-3.737040">
        <ele>1222.916</ele>
        <time>2011-05-23T17:39:15Z</time>
      </trkpt>
      <trkpt lat="40.851758" lon="-3.736953">
        <ele>1222.976</ele>
        <time>2011-05-23T17:39:25Z</time>
      </trkpt>
      <trkpt lat="40.851857" lon="-3.736840">
        <ele>1223.913</ele>
        <time>2011-05-23T17:39:35Z</time>
      </trkpt>
      <trkpt lat="40.851951" lon="-3.736719">
        <ele>1225.808</ele>
        <time>2011-05-23T17:39:45Z</time>
      </trkpt>
      <trkpt lat="40.852042" lon="-3.736584">
        <ele>1227.327</ele>
        <time>2011-05-23T17:39:55Z</time>
      </trkpt>
      <trkpt lat="40.852097" lon="-3.736437">
        <ele>1228.152</ele>
        <time>2011-05-23T17:40:05Z</time>
      </trkpt>
      <trkpt lat="40.852128" lon="-3.736280">
        <ele>1229.622</ele>
        <time>2011-05-23T17:40:15Z</time>
      </trkpt>
      <trkpt lat="40.852142" lon="-3.736113">
        <ele>1231.592</ele>
        <time>2011-05-23T17:40:25Z</time>
      </trkpt>
      <trkpt lat="40.852215" lon="-3.735971">
        <ele>1233.053</ele>
        <time>2011-05-23T17:40:35Z</time>
      </trkpt>
      <trkpt lat="40.852310" lon="-3.735861">
        <ele>1234.053</ele>
        <time>2011-05-23T17:40:45Z</time>
      </trkpt>
      <trkpt lat="40.852408" lon="-3.735736">
        <ele>1234.931</ele>
        <time>2011-05-23T17:40:55Z</time>
      </trkpt>
      <trkpt lat="40.852494" lon="-3.735602">
        <ele>1235.913</ele>
        <time>2011-05-23T17:41:05Z</time>
      </trkpt>
      <trkpt lat="40.852564" lon="-3.735480">
        <ele>1237.382</ele>
        <time>2011-05-23T17:41:15Z</time>
      </trkpt>
      <trkpt lat="40.852589" lon="-3.735418">
        <ele>1237.843</ele>
        <time>2011-05-23T17:41:25Z</time>
      </trkpt>
      <trkpt lat="40.852589" lon="-3.735418">
        <ele>1237.817</ele>
        <time>2011-05-23T17:41:35Z</time>
      </trkpt>
      <trkpt lat="40.852589" lon="-3.735417">
        <ele>1237.808</ele>
        <time>2011-05-23T17:41:45Z</time>
      </trkpt>
      <trkpt lat="40.852583" lon="-3.735380">
        <ele>1238.354</ele>
        <time>2011-05-23T17:41:55Z</time>
      </trkpt>
      <trkpt lat="40.852651" lon="-3.735294">
        <ele>1239.879</ele>
        <time>2011-05-23T17:42:05Z</time>
      </trkpt>
      <trkpt lat="40.852737" lon="-3.735179">
        <ele>1240.669</ele>
        <time>2011-05-23T17:42:15Z</time>
      </trkpt>
      <trkpt lat="40.852796" lon="-3.735055">
        <ele>1241.119</ele>
        <time>2011-05-23T17:42:25Z</time>
      </trkpt>
      <trkpt lat="40.852877" lon="-3.734912">
        <ele>1242.160</ele>
        <time>2011-05-23T17:42:35Z</time>
      </trkpt>
      <trkpt lat="40.852950" lon="-3.734783">
        <ele>1241.680</ele>
        <time>2011-05-23T17:42:45Z</time>
      </trkpt>
      <trkpt lat="40.852992" lon="-3.734612">
        <ele>1241.648</ele>
        <time>2011-05-23T17:42:55Z</time>
      </trkpt>
      <trkpt lat="40.853032" lon="-3.734457">
        <ele>1241.640</ele>
        <time>2011-05-23T17:43:05Z</time>
      </trkpt>
      <trkpt lat="40.853051" lon="-3.734325">
        <ele>1242.174</ele>
        <time>2011-05-23T17:43:15Z</time>
      </trkpt>
      <trkpt lat="40.853077" lon="-3.734143">
        <ele>1242.156</ele>
        <time>2011-05-23T17:43:25Z</time>
      </trkpt>
      <trkpt lat="40.853098" lon="-3.733980">
        <ele>1242.121</ele>
        <time>2011-05-23T17:43:35Z</time>
      </trkpt>
      <trkpt lat="40.853127" lon="-3.733828">
        <ele>1242.108</ele>
        <time>2011-05-23T17:43:45Z</time>
      </trkpt>
      <trkpt lat="40.853138" lon="-3.733688">
        <ele>1242.583</ele>
        <time>2011-05-23T17:43:55Z</time>
      </trkpt>
      <trkpt lat="40.853145" lon="-3.733526">
        <ele>1241.688</ele>
        <time>2011-05-23T17:44:05Z</time>
      </trkpt>
      <trkpt lat="40.853134" lon="-3.733372">
        <ele>1242.528</ele>
        <time>2011-05-23T17:44:15Z</time>
      </trkpt>
      <trkpt lat="40.853142" lon="-3.733189">
        <ele>1243.098</ele>
        <time>2011-05-23T17:44:25Z</time>
      </trkpt>
      <trkpt lat="40.853129" lon="-3.733035">
        <ele>1243.019</ele>
        <time>2011-05-23T17:44:35Z</time>
      </trkpt>
      <trkpt lat="40.853088" lon="-3.732872">
        <ele>1243.029</ele>
        <time>2011-05-23T17:44:45Z</time>
      </trkpt>
      <trkpt lat="40.853040" lon="-3.732726">
        <ele>1243.567</ele>
        <time>2011-05-23T17:44:55Z</time>
      </trkpt>
      <trkpt lat="40.853003" lon="-3.732582">
        <ele>1244.089</ele>
        <time>2011-05-23T17:45:05Z</time>
      </trkpt>
      <trkpt lat="40.852992" lon="-3.732419">
        <ele>1244.586</ele>
        <time>2011-05-23T17:45:15Z</time>
      </trkpt>
      <trkpt lat="40.853033" lon="-3.732278">
        <ele>1245.060</ele>
        <time>2011-05-23T17:45:25Z</time>
      </trkpt>
      <trkpt lat="40.853091" lon="-3.732126">
        <ele>1246.026</ele>
        <time>2011-05-23T17:45:35Z</time>
      </trkpt>
      <trkpt lat="40.853089" lon="-3.731952">
        <ele>1246.508</ele>
        <time>2011-05-23T17:45:45Z</time>
      </trkpt>
      <trkpt lat="40.853062" lon="-3.731777">
        <ele>1247.494</ele>
        <time>2011-05-23T17:45:55Z</time>
      </trkpt>
      <trkpt lat="40.853039" lon="-3.731624">
        <ele>1247.479</ele>
        <time>2011-05-23T17:46:05Z</time>
      </trkpt>
      <trkpt lat="40.852976" lon="-3.731493">
        <ele>1247.079</ele>
        <time>2011-05-23T17:46:15Z</time>
      </trkpt>
      <trkpt lat="40.852959" lon="-3.731340">
        <ele>1247.999</ele>
        <time>2011-05-23T17:46:25Z</time>
      </trkpt>
      <trkpt lat="40.853001" lon="-3.731194">
        <ele>1249.480</ele>
        <time>2011-05-23T17:46:35Z</time>
      </trkpt>
      <trkpt lat="40.853026" lon="-3.731046">
        <ele>1250.860</ele>
        <time>2011-05-23T17:46:45Z</time>
      </trkpt>
      <trkpt lat="40.853060" lon="-3.730886">
        <ele>1252.658</ele>
        <time>2011-05-23T17:46:55Z</time>
      </trkpt>
      <trkpt lat="40.853114" lon="-3.730723">
        <ele>1253.150</ele>
        <time>2011-05-23T17:47:05Z</time>
      </trkpt>
      <trkpt lat="40.853163" lon="-3.730554">
        <ele>1253.692</ele>
        <time>2011-05-23T17:47:15Z</time>
      </trkpt>
      <trkpt lat="40.853251" lon="-3.730449">
        <ele>1254.673</ele>
        <time>2011-05-23T17:47:25Z</time>
      </trkpt>
      <trkpt lat="40.853337" lon="-3.730335">
        <ele>1256.020</ele>
        <time>2011-05-23T17:47:35Z</time>
      </trkpt>
      <trkpt lat="40.853414" lon="-3.730211">
        <ele>1257.008</ele>
        <time>2011-05-23T17:47:45Z</time>
      </trkpt>
      <trkpt lat="40.853470" lon="-3.730054">
        <ele>1257.525</ele>
        <time>2011-05-23T17:47:55Z</time>
      </trkpt>
      <trkpt lat="40.853510" lon="-3.729932">
        <ele>1258.540</ele>
        <time>2011-05-23T17:48:05Z</time>
      </trkpt>
      <trkpt lat="40.853577" lon="-3.729791">
        <ele>1259.920</ele>
        <time>2011-05-23T17:48:15Z</time>
      </trkpt>
      <trkpt lat="40.853627" lon="-3.729623">
        <ele>1261.930</ele>
        <time>2011-05-23T17:48:25Z</time>
      </trkpt>
      <trkpt lat="40.853697" lon="-3.729509">
        <ele>1263.861</ele>
        <time>2011-05-23T17:48:35Z</time>
      </trkpt>
      <trkpt lat="40.853807" lon="-3.729399">
        <ele>1265.671</ele>
        <time>2011-05-23T17:48:45Z</time>
      </trkpt>
      <trkpt lat="40.853935" lon="-3.729344">
        <ele>1267.189</ele>
        <time>2011-05-23T17:48:55Z</time>
      </trkpt>
      <trkpt lat="40.854037" lon="-3.729293">
        <ele>1268.521</ele>
        <time>2011-05-23T17:49:05Z</time>
      </trkpt>
      <trkpt lat="40.854129" lon="-3.729168">
        <ele>1269.557</ele>
        <time>2011-05-23T17:49:15Z</time>
      </trkpt>
      <trkpt lat="40.854174" lon="-3.729030">
        <ele>1270.000</ele>
        <time>2011-05-23T17:49:25Z</time>
      </trkpt>
      <trkpt lat="40.854183" lon="-3.728875">
        <ele>1271.020</ele>
        <time>2011-05-23T17:49:35Z</time>
      </trkpt>
      <trkpt lat="40.854227" lon="-3.728750">
        <ele>1271.508</ele>
        <time>2011-05-23T17:49:45Z</time>
      </trkpt>
      <trkpt lat="40.854292" lon="-3.728626">
        <ele>1272.011</ele>
        <time>2011-05-23T17:49:55Z</time>
      </trkpt>
      <trkpt lat="40.854391" lon="-3.728551">
        <ele>1272.416</ele>
        <time>2011-05-23T17:50:05Z</time>
      </trkpt>
      <trkpt lat="40.854497" lon="-3.728527">
        <ele>1272.416</ele>
        <time>2011-05-23T17:50:15Z</time>
      </trkpt>
      <trkpt lat="40.854617" lon="-3.728448">
        <ele>1272.966</ele>
        <time>2011-05-23T17:50:25Z</time>
      </trkpt>
      <trkpt lat="40.854707" lon="-3.728314">
        <ele>1272.947</ele>
        <time>2011-05-23T17:50:35Z</time>
      </trkpt>
      <trkpt lat="40.854782" lon="-3.728202">
        <ele>1272.917</ele>
        <time>2011-05-23T17:50:45Z</time>
      </trkpt>
      <trkpt lat="40.854797" lon="-3.728128">
        <ele>1273.435</ele>
        <time>2011-05-23T17:50:55Z</time>
      </trkpt>
      <trkpt lat="40.854779" lon="-3.728148">
        <ele>1272.997</ele>
        <time>2011-05-23T17:51:05Z</time>
      </trkpt>
      <trkpt lat="40.854828" lon="-3.728079">
        <ele>1272.496</ele>
        <time>2011-05-23T17:51:15Z</time>
      </trkpt>
      <trkpt lat="40.854903" lon="-3.727932">
        <ele>1272.931</ele>
        <time>2011-05-23T17:51:25Z</time>
      </trkpt>
      <trkpt lat="40.854955" lon="-3.727828">
        <ele>1273.424</ele>
        <time>2011-05-23T17:51:35Z</time>
      </trkpt>
      <trkpt lat="40.854990" lon="-3.727703">
        <ele>1273.908</ele>
        <time>2011-05-23T17:51:45Z</time>
      </trkpt>
      <trkpt lat="40.855008" lon="-3.727555">
        <ele>1273.915</ele>
        <time>2011-05-23T17:51:55Z</time>
      </trkpt>
      <trkpt lat="40.855037" lon="-3.727411">
        <ele>1274.470</ele>
        <time>2011-05-23T17:52:05Z</time>
      </trkpt>
      <trkpt lat="40.855078" lon="-3.727245">
        <ele>1274.430</ele>
        <time>2011-05-23T17:52:15Z</time>
      </trkpt>
      <trkpt lat="40.855112" lon="-3.727113">
        <ele>1274.460</ele>
        <time>2011-05-23T17:52:25Z</time>
      </trkpt>
      <trkpt lat="40.855124" lon="-3.726947">
        <ele>1274.821</ele>
        <time>2011-05-23T17:52:35Z</time>
      </trkpt>
      <trkpt lat="40.855115" lon="-3.726779">
        <ele>1275.341</ele>
        <time>2011-05-23T17:52:45Z</time>
      </trkpt>
      <trkpt lat="40.855171" lon="-3.726639">
        <ele>1275.879</ele>
        <time>2011-05-23T17:52:55Z</time>
      </trkpt>
      <trkpt lat="40.855202" lon="-3.726469">
        <ele>1275.841</ele>
        <time>2011-05-23T17:53:05Z</time>
      </trkpt>
      <trkpt lat="40.855240" lon="-3.726342">
        <ele>1276.396</ele>
        <time>2011-05-23T17:53:15Z</time>
      </trkpt>
      <trkpt lat="40.855248" lon="-3.726201">
        <ele>1276.831</ele>
        <time>2011-05-23T17:53:25Z</time>
      </trkpt>
      <trkpt lat="40.855291" lon="-3.726064">
        <ele>1276.824</ele>
        <time>2011-05-23T17:53:35Z</time>
      </trkpt>
      <trkpt lat="40.855297" lon="-3.725904">
        <ele>1276.808</ele>
        <time>2011-05-23T17:53:45Z</time>
      </trkpt>
      <trkpt lat="40.855279" lon="-3.725783">
        <ele>1277.185</ele>
        <time>2011-05-23T17:53:55Z</time>
      </trkpt>
      <trkpt lat="40.855208" lon="-3.725682">
        <ele>1278.160</ele>
        <time>2011-05-23T17:54:05Z</time>
      </trkpt>
      <trkpt lat="40.855186" lon="-3.725638">
        <ele>1278.610</ele>
        <time>2011-05-23T17:54:15Z</time>
      </trkpt>
      <trkpt lat="40.855168" lon="-3.725594">
        <ele>1278.670</ele>
        <time>2011-05-23T17:54:25Z</time>
      </trkpt>
      <trkpt lat="40.855166" lon="-3.725601">
        <ele>1278.631</ele>
        <time>2011-05-23T17:54:35Z</time>
      </trkpt>
      <trkpt lat="40.855165" lon="-3.725604">
        <ele>1278.611</ele>
        <time>2011-05-23T17:54:45Z</time>
      </trkpt>
      <trkpt lat="40.855161" lon="-3.725617">
        <ele>1278.649</ele>
        <time>2011-05-23T17:54:55Z</time>
      </trkpt>
      <trkpt lat="40.855148" lon="-3.725628">
        <ele>1278.651</ele>
        <time>2011-05-23T17:55:05Z</time>
      </trkpt>
      <trkpt lat="40.855169" lon="-3.725622">
        <ele>1277.154</ele>
        <time>2011-05-23T17:55:15Z</time>
      </trkpt>
      <trkpt lat="40.855195" lon="-3.725622">
        <ele>1277.156</ele>
        <time>2011-05-23T17:55:25Z</time>
      </trkpt>
      <trkpt lat="40.855187" lon="-3.725642">
        <ele>1277.111</ele>
        <time>2011-05-23T17:55:35Z</time>
      </trkpt>
      <trkpt lat="40.855191" lon="-3.725634">
        <ele>1277.108</ele>
        <time>2011-05-23T17:55:45Z</time>
      </trkpt>
      <trkpt lat="40.855192" lon="-3.725631">
        <ele>1277.631</ele>
        <time>2011-05-23T17:55:55Z</time>
      </trkpt>
      <trkpt lat="40.855192" lon="-3.725632">
        <ele>1277.676</ele>
        <time>2011-05-23T17:56:05Z</time>
      </trkpt>
      <trkpt lat="40.855193" lon="-3.725631">
        <ele>1277.656</ele>
        <time>2011-05-23T17:56:15Z</time>
      </trkpt>
      <trkpt lat="40.855195" lon="-3.725630">
        <ele>1277.646</ele>
        <time>2011-05-23T17:56:25Z</time>
      </trkpt>
      <trkpt lat="40.855196" lon="-3.725628">
        <ele>1277.687</ele>
        <time>2011-05-23T17:56:35Z</time>
      </trkpt>
      <trkpt lat="40.855196" lon="-3.725628">
        <ele>1277.697</ele>
        <time>2011-05-23T17:56:45Z</time>
      </trkpt>
      <trkpt lat="40.855197" lon="-3.725626">
        <ele>1278.135</ele>
        <time>2011-05-23T17:56:55Z</time>
      </trkpt>
      <trkpt lat="40.855197" lon="-3.725626">
        <ele>1277.657</ele>
        <time>2011-05-23T17:57:05Z</time>
      </trkpt>
      <trkpt lat="40.855196" lon="-3.725625">
        <ele>1278.165</ele>
        <time>2011-05-23T17:57:15Z</time>
      </trkpt>
      <trkpt lat="40.855197" lon="-3.725623">
        <ele>1278.168</ele>
        <time>2011-05-23T17:57:25Z</time>
      </trkpt>
      <trkpt lat="40.855199" lon="-3.725622">
        <ele>1278.114</ele>
        <time>2011-05-23T17:57:35Z</time>
      </trkpt>
      <trkpt lat="40.855200" lon="-3.725619">
        <ele>1278.108</ele>
        <time>2011-05-23T17:57:45Z</time>
      </trkpt>
      <trkpt lat="40.855204" lon="-3.725616">
        <ele>1278.132</ele>
        <time>2011-05-23T17:57:55Z</time>
      </trkpt>
      <trkpt lat="40.855203" lon="-3.725615">
        <ele>1278.117</ele>
        <time>2011-05-23T17:58:05Z</time>
      </trkpt>
      <trkpt lat="40.855204" lon="-3.725612">
        <ele>1278.177</ele>
        <time>2011-05-23T17:58:15Z</time>
      </trkpt>
      <trkpt lat="40.855205" lon="-3.725611">
        <ele>1278.117</ele>
        <time>2011-05-23T17:58:25Z</time>
      </trkpt>
      <trkpt lat="40.855205" lon="-3.725610">
        <ele>1278.148</ele>
        <time>2011-05-23T17:58:35Z</time>
      </trkpt>
      <trkpt lat="40.855204" lon="-3.725611">
        <ele>1278.158</ele>
        <time>2011-05-23T17:58:45Z</time>
      </trkpt>
      <trkpt lat="40.855207" lon="-3.725606">
        <ele>1278.646</ele>
        <time>2011-05-23T17:58:55Z</time>
      </trkpt>
      <trkpt lat="40.855207" lon="-3.725605">
        <ele>1278.188</ele>
        <time>2011-05-23T17:59:05Z</time>
      </trkpt>
      <trkpt lat="40.855208" lon="-3.725603">
        <ele>1278.648</ele>
        <time>2011-05-23T17:59:15Z</time>
      </trkpt>
      <trkpt lat="40.855210" lon="-3.725600">
        <ele>1278.661</ele>
        <time>2011-05-23T17:59:25Z</time>
      </trkpt>
      <trkpt lat="40.855212" lon="-3.725596">
        <ele>1278.617</ele>
        <time>2011-05-23T17:59:35Z</time>
      </trkpt>
      <trkpt lat="40.855212" lon="-3.725595">
        <ele>1278.608</ele>
        <time>2011-05-23T17:59:45Z</time>
      </trkpt>
      <trkpt lat="40.855211" lon="-3.725595">
        <ele>1278.690</ele>
        <time>2011-05-23T17:59:55Z</time>
      </trkpt>
      <trkpt lat="40.855211" lon="-3.725595">
        <ele>1278.635</ele>
        <time>2011-05-23T18:00:05Z</time>
      </trkpt>
      <trkpt lat="40.855211" lon="-3.725596">
        <ele>1278.685</ele>
        <time>2011-05-23T18:00:15Z</time>
      </trkpt>
      <trkpt lat="40.855210" lon="-3.725597">
        <ele>1279.135</ele>
        <time>2011-05-23T18:00:25Z</time>
      </trkpt>
      <trkpt lat="40.855209" lon="-3.725598">
        <ele>1278.646</ele>
        <time>2011-05-23T18:00:35Z</time>
      </trkpt>
      <trkpt lat="40.855209" lon="-3.725596">
        <ele>1278.646</ele>
        <time>2011-05-23T18:00:45Z</time>
      </trkpt>
      <trkpt lat="40.855209" lon="-3.725597">
        <ele>1278.674</ele>
        <time>2011-05-23T18:00:55Z</time>
      </trkpt>
      <trkpt lat="40.855209" lon="-3.725596">
        <ele>1278.626</ele>
        <time>2011-05-23T18:01:05Z</time>
      </trkpt>
      <trkpt lat="40.855208" lon="-3.725595">
        <ele>1278.612</ele>
        <time>2011-05-23T18:01:15Z</time>
      </trkpt>
      <trkpt lat="40.855210" lon="-3.725594">
        <ele>1278.632</ele>
        <time>2011-05-23T18:01:25Z</time>
      </trkpt>
      <trkpt lat="40.855208" lon="-3.725594">
        <ele>1279.105</ele>
        <time>2011-05-23T18:01:35Z</time>
      </trkpt>
      <trkpt lat="40.855208" lon="-3.725595">
        <ele>1279.108</ele>
        <time>2011-05-23T18:01:45Z</time>
      </trkpt>
      <trkpt lat="40.855206" lon="-3.725597">
        <ele>1279.117</ele>
        <time>2011-05-23T18:01:55Z</time>
      </trkpt>
      <trkpt lat="40.855206" lon="-3.725597">
        <ele>1279.642</ele>
        <time>2011-05-23T18:02:05Z</time>
      </trkpt>
      <trkpt lat="40.855203" lon="-3.725601">
        <ele>1279.672</ele>
        <time>2011-05-23T18:02:15Z</time>
      </trkpt>
      <trkpt lat="40.855203" lon="-3.725601">
        <ele>1279.662</ele>
        <time>2011-05-23T18:02:25Z</time>
      </trkpt>
      <trkpt lat="40.855202" lon="-3.725602">
        <ele>1279.673</ele>
        <time>2011-05-23T18:02:35Z</time>
      </trkpt>
      <trkpt lat="40.855202" lon="-3.725601">
        <ele>1279.683</ele>
        <time>2011-05-23T18:02:45Z</time>
      </trkpt>
      <trkpt lat="40.855201" lon="-3.725602">
        <ele>1280.061</ele>
        <time>2011-05-23T18:02:55Z</time>
      </trkpt>
      <trkpt lat="40.855201" lon="-3.725600">
        <ele>1280.573</ele>
        <time>2011-05-23T18:03:05Z</time>
      </trkpt>
      <trkpt lat="40.855202" lon="-3.725598">
        <ele>1280.078</ele>
        <time>2011-05-23T18:03:15Z</time>
      </trkpt>
      <trkpt lat="40.855201" lon="-3.725599">
        <ele>1279.633</ele>
        <time>2011-05-23T18:03:25Z</time>
      </trkpt>
      <trkpt lat="40.855201" lon="-3.725600">
        <ele>1279.626</ele>
        <time>2011-05-23T18:03:35Z</time>
      </trkpt>
      <trkpt lat="40.855199" lon="-3.725603">
        <ele>1279.608</ele>
        <time>2011-05-23T18:03:45Z</time>
      </trkpt>
      <trkpt lat="40.855198" lon="-3.725605">
        <ele>1279.613</ele>
        <time>2011-05-23T18:03:55Z</time>
      </trkpt>
      <trkpt lat="40.855195" lon="-3.725610">
        <ele>1279.638</ele>
        <time>2011-05-23T18:04:05Z</time>
      </trkpt>
      <trkpt lat="40.855193" lon="-3.725611">
        <ele>1279.678</ele>
        <time>2011-05-23T18:04:15Z</time>
      </trkpt>
      <trkpt lat="40.855189" lon="-3.725615">
        <ele>1279.688</ele>
        <time>2011-05-23T18:04:25Z</time>
      </trkpt>
      <trkpt lat="40.855185" lon="-3.725620">
        <ele>1280.029</ele>
        <time>2011-05-23T18:04:35Z</time>
      </trkpt>
      <trkpt lat="40.855181" lon="-3.725625">
        <ele>1280.039</ele>
        <time>2011-05-23T18:04:45Z</time>
      </trkpt>
      <trkpt lat="40.855178" lon="-3.725630">
        <ele>1280.037</ele>
        <time>2011-05-23T18:04:55Z</time>
      </trkpt>
      <trkpt lat="40.855179" lon="-3.725627">
        <ele>1280.519</ele>
        <time>2011-05-23T18:05:05Z</time>
      </trkpt>
      <trkpt lat="40.855182" lon="-3.725620">
        <ele>1280.018</ele>
        <time>2011-05-23T18:05:15Z</time>
      </trkpt>
      <trkpt lat="40.855182" lon="-3.725619">
        <ele>1280.098</ele>
        <time>2011-05-23T18:05:25Z</time>
      </trkpt>
      <trkpt lat="40.855181" lon="-3.725619">
        <ele>1280.017</ele>
        <time>2011-05-23T18:05:35Z</time>
      </trkpt>
      <trkpt lat="40.855180" lon="-3.725620">
        <ele>1280.008</ele>
        <time>2011-05-23T18:05:45Z</time>
      </trkpt>
      <trkpt lat="40.855180" lon="-3.725621">
        <ele>1280.097</ele>
        <time>2011-05-23T18:05:55Z</time>
      </trkpt>
      <trkpt lat="40.855181" lon="-3.725619">
        <ele>1280.562</ele>
        <time>2011-05-23T18:06:05Z</time>
      </trkpt>
      <trkpt lat="40.855179" lon="-3.725620">
        <ele>1280.592</ele>
        <time>2011-05-23T18:06:15Z</time>
      </trkpt>
      <trkpt lat="40.855177" lon="-3.725616">
        <ele>1280.522</ele>
        <time>2011-05-23T18:06:25Z</time>
      </trkpt>
      <trkpt lat="40.855177" lon="-3.725606">
        <ele>1280.023</ele>
        <time>2011-05-23T18:06:35Z</time>
      </trkpt>
      <trkpt lat="40.855169" lon="-3.725624">
        <ele>1280.523</ele>
        <time>2011-05-23T18:06:45Z</time>
      </trkpt>
      <trkpt lat="40.855166" lon="-3.725629">
        <ele>1280.081</ele>
        <time>2011-05-23T18:06:55Z</time>
      </trkpt>
      <trkpt lat="40.855162" lon="-3.725633">
        <ele>1280.083</ele>
        <time>2011-05-23T18:07:05Z</time>
      </trkpt>
      <trkpt lat="40.855159" lon="-3.725636">
        <ele>1280.093</ele>
        <time>2011-05-23T18:07:15Z</time>
      </trkpt>
      <trkpt lat="40.855160" lon="-3.725628">
        <ele>1280.065</ele>
        <time>2011-05-23T18:07:25Z</time>
      </trkpt>
      <trkpt lat="40.855160" lon="-3.725629">
        <ele>1280.021</ele>
        <time>2011-05-23T18:07:35Z</time>
      </trkpt>
      <trkpt lat="40.855162" lon="-3.725628">
        <ele>1280.008</ele>
        <time>2011-05-23T18:07:45Z</time>
      </trkpt>
      <trkpt lat="40.855163" lon="-3.725627">
        <ele>1279.655</ele>
        <time>2011-05-23T18:07:55Z</time>
      </trkpt>
      <trkpt lat="40.855164" lon="-3.725628">
        <ele>1279.640</ele>
        <time>2011-05-23T18:08:05Z</time>
      </trkpt>
      <trkpt lat="40.855164" lon="-3.725628">
        <ele>1280.090</ele>
        <time>2011-05-23T18:08:15Z</time>
      </trkpt>
      <trkpt lat="40.855166" lon="-3.725626">
        <ele>1279.680</ele>
        <time>2011-05-23T18:08:25Z</time>
      </trkpt>
      <trkpt lat="40.855170" lon="-3.725622">
        <ele>1279.661</ele>
        <time>2011-05-23T18:08:35Z</time>
      </trkpt>
      <trkpt lat="40.855166" lon="-3.725628">
        <ele>1279.681</ele>
        <time>2011-05-23T18:08:45Z</time>
      </trkpt>
      <trkpt lat="40.855165" lon="-3.725631">
        <ele>1279.649</ele>
        <time>2011-05-23T18:08:55Z</time>
      </trkpt>
      <trkpt lat="40.855165" lon="-3.725630">
        <ele>1280.091</ele>
        <time>2011-05-23T18:09:05Z</time>
      </trkpt>
      <trkpt lat="40.855165" lon="-3.725630">
        <ele>1280.038</ele>
        <time>2011-05-23T18:09:15Z</time>
      </trkpt>
      <trkpt lat="40.855167" lon="-3.725627">
        <ele>1280.070</ele>
        <time>2011-05-23T18:09:25Z</time>
      </trkpt>
      <trkpt lat="40.855166" lon="-3.725629">
        <ele>1280.017</ele>
        <time>2011-05-23T18:09:35Z</time>
      </trkpt>
      <trkpt lat="40.855165" lon="-3.725629">
        <ele>1280.008</ele>
        <time>2011-05-23T18:09:45Z</time>
      </trkpt>
      <trkpt lat="40.855166" lon="-3.725625">
        <ele>1280.069</ele>
        <time>2011-05-23T18:09:55Z</time>
      </trkpt>
      <trkpt lat="40.855170" lon="-3.725618">
        <ele>1280.034</ele>
        <time>2011-05-23T18:10:05Z</time>
      </trkpt>
      <trkpt lat="40.855172" lon="-3.725613">
        <ele>1280.044</ele>
        <time>2011-05-23T18:10:15Z</time>
      </trkpt>
      <trkpt lat="40.855172" lon="-3.725612">
        <ele>1280.084</ele>
        <time>2011-05-23T18:10:25Z</time>
      </trkpt>
      <trkpt lat="40.855178" lon="-3.725598">
        <ele>1280.525</ele>
        <time>2011-05-23T18:10:35Z</time>
      </trkpt>
      <trkpt lat="40.855180" lon="-3.725591">
        <ele>1280.045</ele>
        <time>2011-05-23T18:10:45Z</time>
      </trkpt>
      <trkpt lat="40.855164" lon="-3.725562">
        <ele>1280.013</ele>
        <time>2011-05-23T18:10:55Z</time>
      </trkpt>
      <trkpt lat="40.855161" lon="-3.725566">
        <ele>1280.035</ele>
        <time>2011-05-23T18:11:05Z</time>
      </trkpt>
      <trkpt lat="40.855160" lon="-3.725560">
        <ele>1279.699</ele>
        <time>2011-05-23T18:11:15Z</time>
      </trkpt>
      <trkpt lat="40.855170" lon="-3.725557">
        <ele>1279.607</ele>
        <time>2011-05-23T18:11:25Z</time>
      </trkpt>
      <trkpt lat="40.855169" lon="-3.725556">
        <ele>1279.627</ele>
        <time>2011-05-23T18:11:35Z</time>
      </trkpt>
      <trkpt lat="40.855169" lon="-3.725556">
        <ele>1279.608</ele>
        <time>2011-05-23T18:11:45Z</time>
      </trkpt>
      <trkpt lat="40.855168" lon="-3.725556">
        <ele>1279.645</ele>
        <time>2011-05-23T18:11:55Z</time>
      </trkpt>
      <trkpt lat="40.855170" lon="-3.725550">
        <ele>1280.070</ele>
        <time>2011-05-23T18:12:05Z</time>
      </trkpt>
      <trkpt lat="40.855167" lon="-3.725558">
        <ele>1280.580</ele>
        <time>2011-05-23T18:12:15Z</time>
      </trkpt>
      <trkpt lat="40.855171" lon="-3.725516">
        <ele>1280.570</ele>
        <time>2011-05-23T18:12:25Z</time>
      </trkpt>
      <trkpt lat="40.855159" lon="-3.725422">
        <ele>1280.581</ele>
        <time>2011-05-23T18:12:35Z</time>
      </trkpt>
      <trkpt lat="40.855169" lon="-3.725316">
        <ele>1280.591</ele>
        <time>2011-05-23T18:12:45Z</time>
      </trkpt>
      <trkpt lat="40.855268" lon="-3.725202">
        <ele>1279.679</ele>
        <time>2011-05-23T18:12:55Z</time>
      </trkpt>
      <trkpt lat="40.855373" lon="-3.725104">
        <ele>1279.161</ele>
        <time>2011-05-23T18:13:05Z</time>
      </trkpt>
      <trkpt lat="40.855431" lon="-3.724998">
        <ele>1279.125</ele>
        <time>2011-05-23T18:13:15Z</time>
      </trkpt>
      <trkpt lat="40.855486" lon="-3.724883">
        <ele>1279.126</ele>
        <time>2011-05-23T18:13:25Z</time>
      </trkpt>
      <trkpt lat="40.855536" lon="-3.724781">
        <ele>1279.108</ele>
        <time>2011-05-23T18:13:35Z</time>
      </trkpt>
      <trkpt lat="40.855522" lon="-3.724713">
        <ele>1279.108</ele>
        <time>2011-05-23T18:13:45Z</time>
      </trkpt>
      <trkpt lat="40.855532" lon="-3.724617">
        <ele>1278.678</ele>
        <time>2011-05-23T18:13:55Z</time>
      </trkpt>
      <trkpt lat="40.855506" lon="-3.724551">
        <ele>1278.633</ele>
        <time>2011-05-23T18:14:05Z</time>
      </trkpt>
      <trkpt lat="40.855466" lon="-3.724566">
        <ele>1278.623</ele>
        <time>2011-05-23T18:14:15Z</time>
      </trkpt>
      <trkpt lat="40.855467" lon="-3.724563">
        <ele>1278.633</ele>
        <time>2011-05-23T18:14:25Z</time>
      </trkpt>
      <trkpt lat="40.855452" lon="-3.724569">
        <ele>1278.674</ele>
        <time>2011-05-23T18:14:35Z</time>
      </trkpt>
      <trkpt lat="40.855442" lon="-3.724565">
        <ele>1278.164</ele>
        <time>2011-05-23T18:14:45Z</time>
      </trkpt>
      <trkpt lat="40.855425" lon="-3.724583">
        <ele>1278.132</ele>
        <time>2011-05-23T18:14:55Z</time>
      </trkpt>
      <trkpt lat="40.855385" lon="-3.724556">
        <ele>1277.664</ele>
        <time>2011-05-23T18:15:05Z</time>
      </trkpt>
      <trkpt lat="40.855289" lon="-3.724464">
        <ele>1276.819</ele>
        <time>2011-05-23T18:15:15Z</time>
      </trkpt>
      <trkpt lat="40.855196" lon="-3.724368">
        <ele>1276.309</ele>
        <time>2011-05-23T18:15:24Z</time>
      </trkpt>
      <trkpt lat="40.855104" lon="-3.724269">
        <ele>1275.319</ele>
        <time>2011-05-23T18:15:34Z</time>
      </trkpt>
      <trkpt lat="40.855014" lon="-3.724173">
        <ele>1274.408</ele>
        <time>2011-05-23T18:15:44Z</time>
      </trkpt>
      <trkpt lat="40.854916" lon="-3.724083">
        <ele>1273.427</ele>
        <time>2011-05-23T18:15:54Z</time>
      </trkpt>
      <trkpt lat="40.854816" lon="-3.724006">
        <ele>1272.062</ele>
        <time>2011-05-23T18:16:04Z</time>
      </trkpt>
      <trkpt lat="40.854702" lon="-3.723928">
        <ele>1271.552</ele>
        <time>2011-05-23T18:16:14Z</time>
      </trkpt>
      <trkpt lat="40.854587" lon="-3.723870">
        <ele>1271.032</ele>
        <time>2011-05-23T18:16:24Z</time>
      </trkpt>
      <trkpt lat="40.854500" lon="-3.723787">
        <ele>1270.083</ele>
        <time>2011-05-23T18:16:34Z</time>
      </trkpt>
      <trkpt lat="40.854384" lon="-3.723674">
        <ele>1270.013</ele>
        <time>2011-05-23T18:16:44Z</time>
      </trkpt>
      <trkpt lat="40.854298" lon="-3.723556">
        <ele>1269.551</ele>
        <time>2011-05-23T18:16:54Z</time>
      </trkpt>
      <trkpt lat="40.854194" lon="-3.723440">
        <ele>1269.533</ele>
        <time>2011-05-23T18:17:04Z</time>
      </trkpt>
      <trkpt lat="40.854109" lon="-3.723299">
        <ele>1269.556</ele>
        <time>2011-05-23T18:17:14Z</time>
      </trkpt>
      <trkpt lat="40.854036" lon="-3.723155">
        <ele>1268.559</ele>
        <time>2011-05-23T18:17:24Z</time>
      </trkpt>
      <trkpt lat="40.853987" lon="-3.723019">
        <ele>1268.014</ele>
        <time>2011-05-23T18:17:34Z</time>
      </trkpt>
      <trkpt lat="40.853951" lon="-3.722876">
        <ele>1267.108</ele>
        <time>2011-05-23T18:17:44Z</time>
      </trkpt>
      <trkpt lat="40.853891" lon="-3.722719">
        <ele>1266.191</ele>
        <time>2011-05-23T18:17:54Z</time>
      </trkpt>
      <trkpt lat="40.853803" lon="-3.722567">
        <ele>1265.676</ele>
        <time>2011-05-23T18:18:04Z</time>
      </trkpt>
      <trkpt lat="40.853706" lon="-3.722441">
        <ele>1265.116</ele>
        <time>2011-05-23T18:18:14Z</time>
      </trkpt>
      <trkpt lat="40.853651" lon="-3.722280">
        <ele>1266.146</ele>
        <time>2011-05-23T18:18:24Z</time>
      </trkpt>
      <trkpt lat="40.853551" lon="-3.722174">
        <ele>1266.127</ele>
        <time>2011-05-23T18:18:34Z</time>
      </trkpt>
      <trkpt lat="40.853496" lon="-3.722029">
        <ele>1266.187</ele>
        <time>2011-05-23T18:18:44Z</time>
      </trkpt>
      <trkpt lat="40.853387" lon="-3.721888">
        <ele>1265.115</ele>
        <time>2011-05-23T18:18:54Z</time>
      </trkpt>
      <trkpt lat="40.853317" lon="-3.721716">
        <ele>1264.387</ele>
        <time>2011-05-23T18:19:04Z</time>
      </trkpt>
      <trkpt lat="40.853300" lon="-3.721556">
        <ele>1263.839</ele>
        <time>2011-05-23T18:19:14Z</time>
      </trkpt>
      <trkpt lat="40.853304" lon="-3.721391">
        <ele>1263.801</ele>
        <time>2011-05-23T18:19:24Z</time>
      </trkpt>
      <trkpt lat="40.853282" lon="-3.721216">
        <ele>1263.321</ele>
        <time>2011-05-23T18:19:34Z</time>
      </trkpt>
      <trkpt lat="40.853269" lon="-3.721044">
        <ele>1262.808</ele>
        <time>2011-05-23T18:19:44Z</time>
      </trkpt>
      <trkpt lat="40.853251" lon="-3.720865">
        <ele>1261.919</ele>
        <time>2011-05-23T18:19:54Z</time>
      </trkpt>
      <trkpt lat="40.853266" lon="-3.720686">
        <ele>1260.474</ele>
        <time>2011-05-23T18:20:04Z</time>
      </trkpt>
      <trkpt lat="40.853317" lon="-3.720529">
        <ele>1259.044</ele>
        <time>2011-05-23T18:20:14Z</time>
      </trkpt>
      <trkpt lat="40.853264" lon="-3.720347">
        <ele>1258.594</ele>
        <time>2011-05-23T18:20:24Z</time>
      </trkpt>
      <trkpt lat="40.853275" lon="-3.720163">
        <ele>1257.545</ele>
        <time>2011-05-23T18:20:34Z</time>
      </trkpt>
      <trkpt lat="40.853284" lon="-3.719992">
        <ele>1256.515</ele>
        <time>2011-05-23T18:20:44Z</time>
      </trkpt>
      <trkpt lat="40.853304" lon="-3.719828">
        <ele>1256.093</ele>
        <time>2011-05-23T18:20:54Z</time>
      </trkpt>
      <trkpt lat="40.853279" lon="-3.719654">
        <ele>1255.015</ele>
        <time>2011-05-23T18:21:04Z</time>
      </trkpt>
      <trkpt lat="40.853260" lon="-3.719489">
        <ele>1254.615</ele>
        <time>2011-05-23T18:21:14Z</time>
      </trkpt>
      <trkpt lat="40.853238" lon="-3.719333">
        <ele>1254.665</ele>
        <time>2011-05-23T18:21:24Z</time>
      </trkpt>
      <trkpt lat="40.853168" lon="-3.719175">
        <ele>1253.611</ele>
        <time>2011-05-23T18:21:34Z</time>
      </trkpt>
      <trkpt lat="40.853134" lon="-3.718996">
        <ele>1253.608</ele>
        <time>2011-05-23T18:21:44Z</time>
      </trkpt>
      <trkpt lat="40.853163" lon="-3.718840">
        <ele>1253.117</ele>
        <time>2011-05-23T18:21:54Z</time>
      </trkpt>
      <trkpt lat="40.853151" lon="-3.718671">
        <ele>1252.122</ele>
        <time>2011-05-23T18:22:04Z</time>
      </trkpt>
      <trkpt lat="40.853079" lon="-3.718515">
        <ele>1251.872</ele>
        <time>2011-05-23T18:22:14Z</time>
      </trkpt>
      <trkpt lat="40.853003" lon="-3.718342">
        <ele>1251.312</ele>
        <time>2011-05-23T18:22:24Z</time>
      </trkpt>
      <trkpt lat="40.852920" lon="-3.718182">
        <ele>1250.333</ele>
        <time>2011-05-23T18:22:34Z</time>
      </trkpt>
      <trkpt lat="40.852876" lon="-3.718030">
        <ele>1249.423</ele>
        <time>2011-05-23T18:22:44Z</time>
      </trkpt>
      <trkpt lat="40.852911" lon="-3.717854">
        <ele>1248.481</ele>
        <time>2011-05-23T18:22:54Z</time>
      </trkpt>
      <trkpt lat="40.852942" lon="-3.717700">
        <ele>1248.443</ele>
        <time>2011-05-23T18:23:04Z</time>
      </trkpt>
      <trkpt lat="40.852938" lon="-3.717521">
        <ele>1247.431</ele>
        <time>2011-05-23T18:23:14Z</time>
      </trkpt>
      <trkpt lat="40.852924" lon="-3.717326">
        <ele>1246.561</ele>
        <time>2011-05-23T18:23:24Z</time>
      </trkpt>
      <trkpt lat="40.852949" lon="-3.717179">
        <ele>1245.507</ele>
        <time>2011-05-23T18:23:34Z</time>
      </trkpt>
      <trkpt lat="40.852911" lon="-3.717021">
        <ele>1243.508</ele>
        <time>2011-05-23T18:23:44Z</time>
      </trkpt>
      <trkpt lat="40.852866" lon="-3.716846">
        <ele>1242.159</ele>
        <time>2011-05-23T18:23:54Z</time>
      </trkpt>
      <trkpt lat="40.852811" lon="-3.716681">
        <ele>1240.614</ele>
        <time>2011-05-23T18:24:04Z</time>
      </trkpt>
      <trkpt lat="40.852802" lon="-3.716540">
        <ele>1240.134</ele>
        <time>2011-05-23T18:24:14Z</time>
      </trkpt>
      <trkpt lat="40.852778" lon="-3.716395">
        <ele>1239.344</ele>
        <time>2011-05-23T18:24:24Z</time>
      </trkpt>
      <trkpt lat="40.852745" lon="-3.716246">
        <ele>1238.315</ele>
        <time>2011-05-23T18:24:34Z</time>
      </trkpt>
      <trkpt lat="40.852702" lon="-3.716112">
        <ele>1236.435</ele>
        <time>2011-05-23T18:24:44Z</time>
      </trkpt>
      <trkpt lat="40.852667" lon="-3.715956">
        <ele>1235.423</ele>
        <time>2011-05-23T18:24:54Z</time>
      </trkpt>
      <trkpt lat="40.852620" lon="-3.715778">
        <ele>1234.925</ele>
        <time>2011-05-23T18:25:04Z</time>
      </trkpt>
      <trkpt lat="40.852581" lon="-3.715615">
        <ele>1234.089</ele>
        <time>2011-05-23T18:25:14Z</time>
      </trkpt>
      <trkpt lat="40.852546" lon="-3.715454">
        <ele>1234.006</ele>
        <time>2011-05-23T18:25:24Z</time>
      </trkpt>
      <trkpt lat="40.852493" lon="-3.715284">
        <ele>1233.526</ele>
        <time>2011-05-23T18:25:34Z</time>
      </trkpt>
      <trkpt lat="40.852443" lon="-3.715141">
        <ele>1232.008</ele>
        <time>2011-05-23T18:25:44Z</time>
      </trkpt>
      <trkpt lat="40.852416" lon="-3.714958">
        <ele>1231.514</ele>
        <time>2011-05-23T18:25:54Z</time>
      </trkpt>
      <trkpt lat="40.852349" lon="-3.714780">
        <ele>1230.589</ele>
        <time>2011-05-23T18:26:04Z</time>
      </trkpt>
      <trkpt lat="40.852349" lon="-3.714628">
        <ele>1229.669</ele>
        <time>2011-05-23T18:26:14Z</time>
      </trkpt>
      <trkpt lat="40.852366" lon="-3.714468">
        <ele>1228.639</ele>
        <time>2011-05-23T18:26:24Z</time>
      </trkpt>
      <trkpt lat="40.852427" lon="-3.714339">
        <ele>1227.390</ele>
        <time>2011-05-23T18:26:34Z</time>
      </trkpt>
      <trkpt lat="40.852479" lon="-3.714203">
        <ele>1226.360</ele>
        <time>2011-05-23T18:26:44Z</time>
      </trkpt>
      <trkpt lat="40.852518" lon="-3.714043">
        <ele>1226.388</ele>
        <time>2011-05-23T18:26:54Z</time>
      </trkpt>
      <trkpt lat="40.852552" lon="-3.713880">
        <ele>1225.380</ele>
        <time>2011-05-23T18:27:04Z</time>
      </trkpt>
      <trkpt lat="40.852586" lon="-3.713729">
        <ele>1224.912</ele>
        <time>2011-05-23T18:27:14Z</time>
      </trkpt>
      <trkpt lat="40.852638" lon="-3.713567">
        <ele>1224.432</ele>
        <time>2011-05-23T18:27:24Z</time>
      </trkpt>
      <trkpt lat="40.852671" lon="-3.713422">
        <ele>1223.405</ele>
        <time>2011-05-23T18:27:34Z</time>
      </trkpt>
      <trkpt lat="40.852688" lon="-3.713279">
        <ele>1221.508</ele>
        <time>2011-05-23T18:27:44Z</time>
      </trkpt>
      <trkpt lat="40.852714" lon="-3.713114">
        <ele>1220.517</ele>
        <time>2011-05-23T18:27:54Z</time>
      </trkpt>
      <trkpt lat="40.852746" lon="-3.712941">
        <ele>1219.582</ele>
        <time>2011-05-23T18:28:04Z</time>
      </trkpt>
      <trkpt lat="40.852801" lon="-3.712809">
        <ele>1219.042</ele>
        <time>2011-05-23T18:28:14Z</time>
      </trkpt>
      <trkpt lat="40.852884" lon="-3.712667">
        <ele>1218.582</ele>
        <time>2011-05-23T18:28:24Z</time>
      </trkpt>
      <trkpt lat="40.852969" lon="-3.712531">
        <ele>1218.533</ele>
        <time>2011-05-23T18:28:34Z</time>
      </trkpt>
      <trkpt lat="40.853040" lon="-3.712409">
        <ele>1218.013</ele>
        <time>2011-05-23T18:28:44Z</time>
      </trkpt>
      <trkpt lat="40.853116" lon="-3.712265">
        <ele>1216.621</ele>
        <time>2011-05-23T18:28:54Z</time>
      </trkpt>
      <trkpt lat="40.853188" lon="-3.712126">
        <ele>1216.613</ele>
        <time>2011-05-23T18:29:04Z</time>
      </trkpt>
      <trkpt lat="40.853284" lon="-3.712004">
        <ele>1217.662</ele>
        <time>2011-05-23T18:29:14Z</time>
      </trkpt>
      <trkpt lat="40.853382" lon="-3.711889">
        <ele>1218.083</ele>
        <time>2011-05-23T18:29:24Z</time>
      </trkpt>
      <trkpt lat="40.853466" lon="-3.711781">
        <ele>1217.111</ele>
        <time>2011-05-23T18:29:34Z</time>
      </trkpt>
      <trkpt lat="40.853508" lon="-3.711660">
        <ele>1216.108</ele>
        <time>2011-05-23T18:29:44Z</time>
      </trkpt>
      <trkpt lat="40.853597" lon="-3.711510">
        <ele>1215.182</ele>
        <time>2011-05-23T18:29:54Z</time>
      </trkpt>
      <trkpt lat="40.853685" lon="-3.711347">
        <ele>1215.177</ele>
        <time>2011-05-23T18:30:04Z</time>
      </trkpt>
      <trkpt lat="40.853736" lon="-3.711197">
        <ele>1215.137</ele>
        <time>2011-05-23T18:30:14Z</time>
      </trkpt>
      <trkpt lat="40.853782" lon="-3.711064">
        <ele>1215.177</ele>
        <time>2011-05-23T18:30:24Z</time>
      </trkpt>
      <trkpt lat="40.853853" lon="-3.710923">
        <ele>1214.858</ele>
        <time>2011-05-23T18:30:34Z</time>
      </trkpt>
      <trkpt lat="40.853941" lon="-3.710834">
        <ele>1214.348</ele>
        <time>2011-05-23T18:30:44Z</time>
      </trkpt>
      <trkpt lat="40.854054" lon="-3.710786">
        <ele>1213.396</ele>
        <time>2011-05-23T18:30:54Z</time>
      </trkpt>
      <trkpt lat="40.854151" lon="-3.710775">
        <ele>1212.418</ele>
        <time>2011-05-23T18:31:04Z</time>
      </trkpt>
      <trkpt lat="40.854174" lon="-3.710774">
        <ele>1211.991</ele>
        <time>2011-05-23T18:31:14Z</time>
      </trkpt>
      <trkpt lat="40.854285" lon="-3.710739">
        <ele>1210.081</ele>
        <time>2011-05-23T18:31:24Z</time>
      </trkpt>
      <trkpt lat="40.854417" lon="-3.710712">
        <ele>1208.519</ele>
        <time>2011-05-23T18:31:34Z</time>
      </trkpt>
      <trkpt lat="40.854540" lon="-3.710717">
        <ele>1207.508</ele>
        <time>2011-05-23T18:31:44Z</time>
      </trkpt>
      <trkpt lat="40.854672" lon="-3.710770">
        <ele>1206.545</ele>
        <time>2011-05-23T18:31:54Z</time>
      </trkpt>
      <trkpt lat="40.854786" lon="-3.710764">
        <ele>1206.060</ele>
        <time>2011-05-23T18:32:04Z</time>
      </trkpt>
      <trkpt lat="40.854891" lon="-3.710728">
        <ele>1206.030</ele>
        <time>2011-05-23T18:32:14Z</time>
      </trkpt>
      <trkpt lat="40.855047" lon="-3.710705">
        <ele>1206.010</ele>
        <time>2011-05-23T18:32:24Z</time>
      </trkpt>
      <trkpt lat="40.855169" lon="-3.710658">
        <ele>1206.521</ele>
        <time>2011-05-23T18:32:34Z</time>
      </trkpt>
      <trkpt lat="40.855307" lon="-3.710624">
        <ele>1206.541</ele>
        <time>2011-05-23T18:32:44Z</time>
      </trkpt>
      <trkpt lat="40.855430" lon="-3.710607">
        <ele>1206.589</ele>
        <time>2011-05-23T18:32:54Z</time>
      </trkpt>
      <trkpt lat="40.855533" lon="-3.710630">
        <ele>1208.081</ele>
        <time>2011-05-23T18:33:04Z</time>
      </trkpt>
      <trkpt lat="40.855656" lon="-3.710588">
        <ele>1208.553</ele>
        <time>2011-05-23T18:33:14Z</time>
      </trkpt>
      <trkpt lat="40.855795" lon="-3.710537">
        <ele>1208.504</ele>
        <time>2011-05-23T18:33:24Z</time>
      </trkpt>
      <trkpt lat="40.855907" lon="-3.710443">
        <ele>1209.014</ele>
        <time>2011-05-23T18:33:34Z</time>
      </trkpt>
      <trkpt lat="40.856020" lon="-3.710370">
        <ele>1208.508</ele>
        <time>2011-05-23T18:33:44Z</time>
      </trkpt>
      <trkpt lat="40.856150" lon="-3.710311">
        <ele>1208.551</ele>
        <time>2011-05-23T18:33:54Z</time>
      </trkpt>
      <trkpt lat="40.856265" lon="-3.710287">
        <ele>1209.596</ele>
        <time>2011-05-23T18:34:04Z</time>
      </trkpt>
      <trkpt lat="40.856388" lon="-3.710209">
        <ele>1209.526</ele>
        <time>2011-05-23T18:34:14Z</time>
      </trkpt>
      <trkpt lat="40.856513" lon="-3.710263">
        <ele>1209.566</ele>
        <time>2011-05-23T18:34:24Z</time>
      </trkpt>
      <trkpt lat="40.856601" lon="-3.710369">
        <ele>1209.547</ele>
        <time>2011-05-23T18:34:34Z</time>
      </trkpt>
      <trkpt lat="40.856711" lon="-3.710474">
        <ele>1210.937</ele>
        <time>2011-05-23T18:34:44Z</time>
      </trkpt>
      <trkpt lat="40.856794" lon="-3.710565">
        <ele>1212.455</ele>
        <time>2011-05-23T18:34:54Z</time>
      </trkpt>
      <trkpt lat="40.856907" lon="-3.710551">
        <ele>1214.397</ele>
        <time>2011-05-23T18:35:04Z</time>
      </trkpt>
      <trkpt lat="40.857053" lon="-3.710472">
        <ele>1215.134</ele>
        <time>2011-05-23T18:35:14Z</time>
      </trkpt>
      <trkpt lat="40.857077" lon="-3.710313">
        <ele>1214.355</ele>
        <time>2011-05-23T18:35:24Z</time>
      </trkpt>
      <trkpt lat="40.857135" lon="-3.710141">
        <ele>1213.810</ele>
        <time>2011-05-23T18:35:34Z</time>
      </trkpt>
      <trkpt lat="40.857198" lon="-3.709991">
        <ele>1213.308</ele>
        <time>2011-05-23T18:35:44Z</time>
      </trkpt>
      <trkpt lat="40.857294" lon="-3.709872">
        <ele>1212.849</ele>
        <time>2011-05-23T18:35:54Z</time>
      </trkpt>
      <trkpt lat="40.857335" lon="-3.709756">
        <ele>1212.894</ele>
        <time>2011-05-23T18:36:04Z</time>
      </trkpt>
      <trkpt lat="40.857391" lon="-3.709678">
        <ele>1212.494</ele>
        <time>2011-05-23T18:36:14Z</time>
      </trkpt>
      <trkpt lat="40.857454" lon="-3.709535">
        <ele>1212.414</ele>
        <time>2011-05-23T18:36:24Z</time>
      </trkpt>
      <trkpt lat="40.857506" lon="-3.709388">
        <ele>1210.945</ele>
        <time>2011-05-23T18:36:34Z</time>
      </trkpt>
      <trkpt lat="40.857576" lon="-3.709240">
        <ele>1210.455</ele>
        <time>2011-05-23T18:36:44Z</time>
      </trkpt>
      <trkpt lat="40.857582" lon="-3.709101">
        <ele>1209.033</ele>
        <time>2011-05-23T18:36:54Z</time>
      </trkpt>
      <trkpt lat="40.857663" lon="-3.709021">
        <ele>1208.595</ele>
        <time>2011-05-23T18:37:04Z</time>
      </trkpt>
      <trkpt lat="40.857689" lon="-3.708863">
        <ele>1207.088</ele>
        <time>2011-05-23T18:37:14Z</time>
      </trkpt>
      <trkpt lat="40.857727" lon="-3.708727">
        <ele>1206.524</ele>
        <time>2011-05-23T18:37:24Z</time>
      </trkpt>
      <trkpt lat="40.857799" lon="-3.708630">
        <ele>1206.526</ele>
        <time>2011-05-23T18:37:34Z</time>
      </trkpt>
      <trkpt lat="40.857888" lon="-3.708560">
        <ele>1206.508</ele>
        <time>2011-05-23T18:37:44Z</time>
      </trkpt>
      <trkpt lat="40.857888" lon="-3.708550">
        <ele>1206.044</ele>
        <time>2011-05-23T18:37:54Z</time>
      </trkpt>
      <trkpt lat="40.857887" lon="-3.708555">
        <ele>1206.039</ele>
        <time>2011-05-23T18:38:04Z</time>
      </trkpt>
      <trkpt lat="40.857883" lon="-3.708566">
        <ele>1205.519</ele>
        <time>2011-05-23T18:38:14Z</time>
      </trkpt>
      <trkpt lat="40.857845" lon="-3.708473">
        <ele>1205.119</ele>
        <time>2011-05-23T18:38:24Z</time>
      </trkpt>
      <trkpt lat="40.857852" lon="-3.708453">
        <ele>1205.150</ele>
        <time>2011-05-23T18:38:34Z</time>
      </trkpt>
      <trkpt lat="40.857857" lon="-3.708439">
        <ele>1205.160</ele>
        <time>2011-05-23T18:38:44Z</time>
      </trkpt>
      <trkpt lat="40.857863" lon="-3.708424">
        <ele>1205.178</ele>
        <time>2011-05-23T18:38:54Z</time>
      </trkpt>
      <trkpt lat="40.857863" lon="-3.708422">
        <ele>1205.160</ele>
        <time>2011-05-23T18:39:04Z</time>
      </trkpt>
      <trkpt lat="40.857858" lon="-3.708431">
        <ele>1205.112</ele>
        <time>2011-05-23T18:39:14Z</time>
      </trkpt>
      <trkpt lat="40.857858" lon="-3.708432">
        <ele>1205.132</ele>
        <time>2011-05-23T18:39:24Z</time>
      </trkpt>
      <trkpt lat="40.857860" lon="-3.708426">
        <ele>1205.105</ele>
        <time>2011-05-23T18:39:34Z</time>
      </trkpt>
      <trkpt lat="40.857862" lon="-3.708418">
        <ele>1205.108</ele>
        <time>2011-05-23T18:39:44Z</time>
      </trkpt>
      <trkpt lat="40.857861" lon="-3.708419">
        <ele>1205.177</ele>
        <time>2011-05-23T18:39:54Z</time>
      </trkpt>
      <trkpt lat="40.857864" lon="-3.708411">
        <ele>1205.142</ele>
        <time>2011-05-23T18:40:04Z</time>
      </trkpt>
      <trkpt lat="40.857862" lon="-3.708416">
        <ele>1205.552</ele>
        <time>2011-05-23T18:40:14Z</time>
      </trkpt>
      <trkpt lat="40.857859" lon="-3.708420">
        <ele>1205.132</ele>
        <time>2011-05-23T18:40:24Z</time>
      </trkpt>
      <trkpt lat="40.857854" lon="-3.708448">
        <ele>1205.173</ele>
        <time>2011-05-23T18:40:34Z</time>
      </trkpt>
      <trkpt lat="40.857848" lon="-3.708530">
        <ele>1205.113</ele>
        <time>2011-05-23T18:40:44Z</time>
      </trkpt>
      <trkpt lat="40.857843" lon="-3.708560">
        <ele>1205.191</ele>
        <time>2011-05-23T18:40:54Z</time>
      </trkpt>
      <trkpt lat="40.857841" lon="-3.708596">
        <ele>1205.173</ele>
        <time>2011-05-23T18:41:04Z</time>
      </trkpt>
      <trkpt lat="40.857838" lon="-3.708602">
        <ele>1205.553</ele>
        <time>2011-05-23T18:41:14Z</time>
      </trkpt>
      <trkpt lat="40.857832" lon="-3.708616">
        <ele>1205.104</ele>
        <time>2011-05-23T18:41:24Z</time>
      </trkpt>
      <trkpt lat="40.857833" lon="-3.708613">
        <ele>1205.114</ele>
        <time>2011-05-23T18:41:34Z</time>
      </trkpt>
      <trkpt lat="40.857835" lon="-3.708609">
        <ele>1205.508</ele>
        <time>2011-05-23T18:41:44Z</time>
      </trkpt>
      <trkpt lat="40.857833" lon="-3.708612">
        <ele>1205.131</ele>
        <time>2011-05-23T18:41:54Z</time>
      </trkpt>
      <trkpt lat="40.857840" lon="-3.708596">
        <ele>1205.156</ele>
        <time>2011-05-23T18:42:04Z</time>
      </trkpt>
      <trkpt lat="40.857852" lon="-3.708567">
        <ele>1205.576</ele>
        <time>2011-05-23T18:42:14Z</time>
      </trkpt>
      <trkpt lat="40.857848" lon="-3.708573">
        <ele>1205.146</ele>
        <time>2011-05-23T18:42:24Z</time>
      </trkpt>
      <trkpt lat="40.857843" lon="-3.708587">
        <ele>1205.197</ele>
        <time>2011-05-23T18:42:34Z</time>
      </trkpt>
      <trkpt lat="40.857840" lon="-3.708596">
        <ele>1205.127</ele>
        <time>2011-05-23T18:42:44Z</time>
      </trkpt>
      <trkpt lat="40.857836" lon="-3.708606">
        <ele>1205.515</ele>
        <time>2011-05-23T18:42:54Z</time>
      </trkpt>
      <trkpt lat="40.857832" lon="-3.708612">
        <ele>1205.597</ele>
        <time>2011-05-23T18:43:04Z</time>
      </trkpt>
      <trkpt lat="40.857835" lon="-3.708605">
        <ele>1205.599</ele>
        <time>2011-05-23T18:43:14Z</time>
      </trkpt>
      <trkpt lat="40.857837" lon="-3.708598">
        <ele>1205.507</ele>
        <time>2011-05-23T18:43:24Z</time>
      </trkpt>
      <trkpt lat="40.857844" lon="-3.708579">
        <ele>1205.527</ele>
        <time>2011-05-23T18:43:34Z</time>
      </trkpt>
      <trkpt lat="40.857847" lon="-3.708571">
        <ele>1205.508</ele>
        <time>2011-05-23T18:43:44Z</time>
      </trkpt>
      <trkpt lat="40.857850" lon="-3.708567">
        <ele>1205.595</ele>
        <time>2011-05-23T18:43:54Z</time>
      </trkpt>
      <trkpt lat="40.857851" lon="-3.708565">
        <ele>1205.190</ele>
        <time>2011-05-23T18:44:04Z</time>
      </trkpt>
      <trkpt lat="40.857850" lon="-3.708566">
        <ele>1205.140</ele>
        <time>2011-05-23T18:44:14Z</time>
      </trkpt>
      <trkpt lat="40.857853" lon="-3.708559">
        <ele>1205.150</ele>
        <time>2011-05-23T18:44:24Z</time>
      </trkpt>
      <trkpt lat="40.857856" lon="-3.708553">
        <ele>1205.591</ele>
        <time>2011-05-23T18:44:34Z</time>
      </trkpt>
      <trkpt lat="40.857856" lon="-3.708555">
        <ele>1205.141</ele>
        <time>2011-05-23T18:44:44Z</time>
      </trkpt>
      <trkpt lat="40.857856" lon="-3.708553">
        <ele>1205.139</ele>
        <time>2011-05-23T18:44:54Z</time>
      </trkpt>
      <trkpt lat="40.857859" lon="-3.708547">
        <ele>1205.111</ele>
        <time>2011-05-23T18:45:04Z</time>
      </trkpt>
      <trkpt lat="40.857865" lon="-3.708533">
        <ele>1205.167</ele>
        <time>2011-05-23T18:45:14Z</time>
      </trkpt>
      <trkpt lat="40.857874" lon="-3.708512">
        <ele>1205.181</ele>
        <time>2011-05-23T18:45:24Z</time>
      </trkpt>
      <trkpt lat="40.857876" lon="-3.708509">
        <ele>1205.519</ele>
        <time>2011-05-23T18:45:34Z</time>
      </trkpt>
      <trkpt lat="40.857870" lon="-3.708526">
        <ele>1205.108</ele>
        <time>2011-05-23T18:45:44Z</time>
      </trkpt>
      <trkpt lat="40.857867" lon="-3.708534">
        <ele>1205.192</ele>
        <time>2011-05-23T18:45:54Z</time>
      </trkpt>
      <trkpt lat="40.857873" lon="-3.708544">
        <ele>1205.167</ele>
        <time>2011-05-23T18:46:04Z</time>
      </trkpt>
      <trkpt lat="40.857885" lon="-3.708554">
        <ele>1205.117</ele>
        <time>2011-05-23T18:46:14Z</time>
      </trkpt>
      <trkpt lat="40.857857" lon="-3.708597">
        <ele>1205.187</ele>
        <time>2011-05-23T18:46:24Z</time>
      </trkpt>
      <trkpt lat="40.857854" lon="-3.708605">
        <ele>1206.038</ele>
        <time>2011-05-23T18:46:34Z</time>
      </trkpt>
      <trkpt lat="40.857844" lon="-3.708597">
        <ele>1206.088</ele>
        <time>2011-05-23T18:46:44Z</time>
      </trkpt>
      <trkpt lat="40.857937" lon="-3.708498">
        <ele>1207.056</ele>
        <time>2011-05-23T18:46:54Z</time>
      </trkpt>
      <trkpt lat="40.858006" lon="-3.708385">
        <ele>1208.098</ele>
        <time>2011-05-23T18:47:04Z</time>
      </trkpt>
      <trkpt lat="40.858056" lon="-3.708189">
        <ele>1209.071</ele>
        <time>2011-05-23T18:47:14Z</time>
      </trkpt>
      <trkpt lat="40.858131" lon="-3.708095">
        <ele>1210.041</ele>
        <time>2011-05-23T18:47:24Z</time>
      </trkpt>
      <trkpt lat="40.858244" lon="-3.708061">
        <ele>1212.415</ele>
        <time>2011-05-23T18:47:34Z</time>
      </trkpt>
      <trkpt lat="40.858367" lon="-3.708024">
        <ele>1213.308</ele>
        <time>2011-05-23T18:47:44Z</time>
      </trkpt>
      <trkpt lat="40.858444" lon="-3.708058">
        <ele>1215.173</ele>
        <time>2011-05-23T18:47:54Z</time>
      </trkpt>
      <trkpt lat="40.858590" lon="-3.708054">
        <ele>1216.648</ele>
        <time>2011-05-23T18:48:04Z</time>
      </trkpt>
      <trkpt lat="40.858720" lon="-3.708052">
        <ele>1217.678</ele>
        <time>2011-05-23T18:48:14Z</time>
      </trkpt>
      <trkpt lat="40.858758" lon="-3.707933">
        <ele>1218.058</ele>
        <time>2011-05-23T18:48:24Z</time>
      </trkpt>
      <trkpt lat="40.858818" lon="-3.707857">
        <ele>1217.639</ele>
        <time>2011-05-23T18:48:34Z</time>
      </trkpt>
      <trkpt lat="40.858858" lon="-3.707835">
        <ele>1218.049</ele>
        <time>2011-05-23T18:48:44Z</time>
      </trkpt>
      <trkpt lat="40.858884" lon="-3.707817">
        <ele>1218.087</ele>
        <time>2011-05-23T18:48:54Z</time>
      </trkpt>
      <trkpt lat="40.858919" lon="-3.707791">
        <ele>1218.079</ele>
        <time>2011-05-23T18:49:04Z</time>
      </trkpt>
      <trkpt lat="40.858928" lon="-3.707642">
        <ele>1218.081</ele>
        <time>2011-05-23T18:49:14Z</time>
      </trkpt>
      <trkpt lat="40.858962" lon="-3.707490">
        <ele>1218.061</ele>
        <time>2011-05-23T18:49:24Z</time>
      </trkpt>
      <trkpt lat="40.858994" lon="-3.707343">
        <ele>1218.017</ele>
        <time>2011-05-23T18:49:34Z</time>
      </trkpt>
      <trkpt lat="40.859016" lon="-3.707134">
        <ele>1218.508</ele>
        <time>2011-05-23T18:49:44Z</time>
      </trkpt>
      <trkpt lat="40.859032" lon="-3.706884">
        <ele>1218.094</ele>
        <time>2011-05-23T18:49:54Z</time>
      </trkpt>
      <trkpt lat="40.859035" lon="-3.706779">
        <ele>1217.189</ele>
        <time>2011-05-23T18:50:04Z</time>
      </trkpt>
      <trkpt lat="40.859071" lon="-3.706629">
        <ele>1216.129</ele>
        <time>2011-05-23T18:50:14Z</time>
      </trkpt>
      <trkpt lat="40.859178" lon="-3.706532">
        <ele>1215.189</ele>
        <time>2011-05-23T18:50:24Z</time>
      </trkpt>
      <trkpt lat="40.859237" lon="-3.706388">
        <ele>1214.350</ele>
        <time>2011-05-23T18:50:34Z</time>
      </trkpt>
      <trkpt lat="40.859284" lon="-3.706220">
        <ele>1213.810</ele>
        <time>2011-05-23T18:50:44Z</time>
      </trkpt>
      <trkpt lat="40.859289" lon="-3.705991">
        <ele>1212.418</ele>
        <time>2011-05-23T18:50:54Z</time>
      </trkpt>
      <trkpt lat="40.859282" lon="-3.705801">
        <ele>1211.930</ele>
        <time>2011-05-23T18:51:04Z</time>
      </trkpt>
      <trkpt lat="40.859292" lon="-3.705593">
        <ele>1211.424</ele>
        <time>2011-05-23T18:51:14Z</time>
      </trkpt>
      <trkpt lat="40.859301" lon="-3.705434">
        <ele>1211.404</ele>
        <time>2011-05-23T18:51:24Z</time>
      </trkpt>
      <trkpt lat="40.859335" lon="-3.705282">
        <ele>1211.914</ele>
        <time>2011-05-23T18:51:34Z</time>
      </trkpt>
      <trkpt lat="40.859331" lon="-3.705086">
        <ele>1211.908</ele>
        <time>2011-05-23T18:51:44Z</time>
      </trkpt>
      <trkpt lat="40.859341" lon="-3.704923">
        <ele>1211.968</ele>
        <time>2011-05-23T18:51:54Z</time>
      </trkpt>
      <trkpt lat="40.859346" lon="-3.704732">
        <ele>1211.983</ele>
        <time>2011-05-23T18:52:04Z</time>
      </trkpt>
      <trkpt lat="40.859345" lon="-3.704544">
        <ele>1211.413</ele>
        <time>2011-05-23T18:52:14Z</time>
      </trkpt>
      <trkpt lat="40.859354" lon="-3.704388">
        <ele>1211.493</ele>
        <time>2011-05-23T18:52:23Z</time>
      </trkpt>
      <trkpt lat="40.859340" lon="-3.704204">
        <ele>1211.474</ele>
        <time>2011-05-23T18:52:33Z</time>
      </trkpt>
      <trkpt lat="40.859342" lon="-3.704004">
        <ele>1211.434</ele>
        <time>2011-05-23T18:52:43Z</time>
      </trkpt>
      <trkpt lat="40.859338" lon="-3.703845">
        <ele>1211.462</ele>
        <time>2011-05-23T18:52:53Z</time>
      </trkpt>
      <trkpt lat="40.859381" lon="-3.703670">
        <ele>1211.454</ele>
        <time>2011-05-23T18:53:03Z</time>
      </trkpt>
      <trkpt lat="40.859430" lon="-3.703517">
        <ele>1210.913</ele>
        <time>2011-05-23T18:53:13Z</time>
      </trkpt>
      <trkpt lat="40.859478" lon="-3.703351">
        <ele>1210.943</ele>
        <time>2011-05-23T18:53:23Z</time>
      </trkpt>
      <trkpt lat="40.859534" lon="-3.703192">
        <ele>1210.407</ele>
        <time>2011-05-23T18:53:33Z</time>
      </trkpt>
      <trkpt lat="40.859582" lon="-3.703009">
        <ele>1209.508</ele>
        <time>2011-05-23T18:53:43Z</time>
      </trkpt>
      <trkpt lat="40.859620" lon="-3.702840">
        <ele>1209.587</ele>
        <time>2011-05-23T18:53:53Z</time>
      </trkpt>
      <trkpt lat="40.859694" lon="-3.702704">
        <ele>1209.072</ele>
        <time>2011-05-23T18:54:03Z</time>
      </trkpt>
      <trkpt lat="40.859771" lon="-3.702528">
        <ele>1209.082</ele>
        <time>2011-05-23T18:54:13Z</time>
      </trkpt>
      <trkpt lat="40.859820" lon="-3.702357">
        <ele>1208.582</ele>
        <time>2011-05-23T18:54:23Z</time>
      </trkpt>
      <trkpt lat="40.859863" lon="-3.702174">
        <ele>1209.053</ele>
        <time>2011-05-23T18:54:33Z</time>
      </trkpt>
      <trkpt lat="40.859933" lon="-3.702034">
        <ele>1209.063</ele>
        <time>2011-05-23T18:54:43Z</time>
      </trkpt>
      <trkpt lat="40.859991" lon="-3.701872">
        <ele>1209.091</ele>
        <time>2011-05-23T18:54:53Z</time>
      </trkpt>
      <trkpt lat="40.860039" lon="-3.701712">
        <ele>1209.533</ele>
        <time>2011-05-23T18:55:03Z</time>
      </trkpt>
      <trkpt lat="40.860093" lon="-3.701566">
        <ele>1210.418</ele>
        <time>2011-05-23T18:55:13Z</time>
      </trkpt>
      <trkpt lat="40.860134" lon="-3.701439">
        <ele>1210.498</ele>
        <time>2011-05-23T18:55:23Z</time>
      </trkpt>
      <trkpt lat="40.860216" lon="-3.701305">
        <ele>1211.417</ele>
        <time>2011-05-23T18:55:33Z</time>
      </trkpt>
      <trkpt lat="40.860435" lon="-3.701111">
        <ele>1212.408</ele>
        <time>2011-05-23T18:55:43Z</time>
      </trkpt>
      <trkpt lat="40.860410" lon="-3.701052">
        <ele>1213.857</ele>
        <time>2011-05-23T18:55:53Z</time>
      </trkpt>
      <trkpt lat="40.860474" lon="-3.700899">
        <ele>1214.822</ele>
        <time>2011-05-23T18:56:03Z</time>
      </trkpt>
      <trkpt lat="40.860566" lon="-3.700767">
        <ele>1215.612</ele>
        <time>2011-05-23T18:56:13Z</time>
      </trkpt>
      <trkpt lat="40.860659" lon="-3.700620">
        <ele>1215.692</ele>
        <time>2011-05-23T18:56:23Z</time>
      </trkpt>
      <trkpt lat="40.860754" lon="-3.700473">
        <ele>1216.183</ele>
        <time>2011-05-23T18:56:33Z</time>
      </trkpt>
      <trkpt lat="40.860843" lon="-3.700348">
        <ele>1216.183</ele>
        <time>2011-05-23T18:56:43Z</time>
      </trkpt>
      <trkpt lat="40.860939" lon="-3.700215">
        <ele>1216.141</ele>
        <time>2011-05-23T18:56:53Z</time>
      </trkpt>
      <trkpt lat="40.861007" lon="-3.700061">
        <ele>1215.123</ele>
        <time>2011-05-23T18:57:03Z</time>
      </trkpt>
      <trkpt lat="40.861112" lon="-3.699922">
        <ele>1215.113</ele>
        <time>2011-05-23T18:57:13Z</time>
      </trkpt>
      <trkpt lat="40.861198" lon="-3.699772">
        <ele>1215.143</ele>
        <time>2011-05-23T18:57:23Z</time>
      </trkpt>
      <trkpt lat="40.861279" lon="-3.699632">
        <ele>1215.607</ele>
        <time>2011-05-23T18:57:33Z</time>
      </trkpt>
      <trkpt lat="40.861347" lon="-3.699480">
        <ele>1216.608</ele>
        <time>2011-05-23T18:57:43Z</time>
      </trkpt>
      <trkpt lat="40.861416" lon="-3.699350">
        <ele>1218.037</ele>
        <time>2011-05-23T18:57:53Z</time>
      </trkpt>
      <trkpt lat="40.861488" lon="-3.699236">
        <ele>1218.582</ele>
        <time>2011-05-23T18:58:02Z</time>
      </trkpt>
      <trkpt lat="40.861594" lon="-3.699088">
        <ele>1219.022</ele>
        <time>2011-05-23T18:58:12Z</time>
      </trkpt>
      <trkpt lat="40.861710" lon="-3.698939">
        <ele>1219.042</ele>
        <time>2011-05-23T18:58:22Z</time>
      </trkpt>
      <trkpt lat="40.861805" lon="-3.698778">
        <ele>1219.023</ele>
        <time>2011-05-23T18:58:32Z</time>
      </trkpt>
      <trkpt lat="40.861913" lon="-3.698624">
        <ele>1218.073</ele>
        <time>2011-05-23T18:58:42Z</time>
      </trkpt>
      <trkpt lat="40.861994" lon="-3.698460">
        <ele>1217.111</ele>
        <time>2011-05-23T18:58:52Z</time>
      </trkpt>
      <trkpt lat="40.862033" lon="-3.698278">
        <ele>1217.123</ele>
        <time>2011-05-23T18:59:02Z</time>
      </trkpt>
      <trkpt lat="40.862071" lon="-3.698104">
        <ele>1217.153</ele>
        <time>2011-05-23T18:59:12Z</time>
      </trkpt>
      <trkpt lat="40.862102" lon="-3.697958">
        <ele>1217.104</ele>
        <time>2011-05-23T18:59:22Z</time>
      </trkpt>
      <trkpt lat="40.862136" lon="-3.697767">
        <ele>1217.114</ele>
        <time>2011-05-23T18:59:32Z</time>
      </trkpt>
      <trkpt lat="40.862182" lon="-3.697569">
        <ele>1217.608</ele>
        <time>2011-05-23T18:59:42Z</time>
      </trkpt>
      <trkpt lat="40.862209" lon="-3.697364">
        <ele>1218.061</ele>
        <time>2011-05-23T18:59:52Z</time>
      </trkpt>
      <trkpt lat="40.862274" lon="-3.697181">
        <ele>1218.036</ele>
        <time>2011-05-23T19:00:02Z</time>
      </trkpt>
      <trkpt lat="40.862299" lon="-3.697007">
        <ele>1218.076</ele>
        <time>2011-05-23T19:00:12Z</time>
      </trkpt>
      <trkpt lat="40.862338" lon="-3.696815">
        <ele>1217.686</ele>
        <time>2011-05-23T19:00:22Z</time>
      </trkpt>
      <trkpt lat="40.862376" lon="-3.696638">
        <ele>1217.187</ele>
        <time>2011-05-23T19:00:32Z</time>
      </trkpt>
      <trkpt lat="40.862410" lon="-3.696447">
        <ele>1217.667</ele>
        <time>2011-05-23T19:00:42Z</time>
      </trkpt>
      <trkpt lat="40.862477" lon="-3.696267">
        <ele>1217.165</ele>
        <time>2011-05-23T19:00:52Z</time>
      </trkpt>
      <trkpt lat="40.862526" lon="-3.696082">
        <ele>1217.637</ele>
        <time>2011-05-23T19:01:02Z</time>
      </trkpt>
      <trkpt lat="40.862549" lon="-3.695889">
        <ele>1218.097</ele>
        <time>2011-05-23T19:01:12Z</time>
      </trkpt>
      <trkpt lat="40.862569" lon="-3.695686">
        <ele>1219.523</ele>
        <time>2011-05-23T19:01:22Z</time>
      </trkpt>
      <trkpt lat="40.862600" lon="-3.695496">
        <ele>1219.525</ele>
        <time>2011-05-23T19:01:32Z</time>
      </trkpt>
      <trkpt lat="40.862639" lon="-3.695333">
        <ele>1220.508</ele>
        <time>2011-05-23T19:01:42Z</time>
      </trkpt>
      <trkpt lat="40.862677" lon="-3.695154">
        <ele>1221.045</ele>
        <time>2011-05-23T19:01:52Z</time>
      </trkpt>
      <trkpt lat="40.862726" lon="-3.695002">
        <ele>1221.520</ele>
        <time>2011-05-23T19:02:02Z</time>
      </trkpt>
      <trkpt lat="40.862806" lon="-3.694826">
        <ele>1222.490</ele>
        <time>2011-05-23T19:02:12Z</time>
      </trkpt>
      <trkpt lat="40.862869" lon="-3.694672">
        <ele>1223.960</ele>
        <time>2011-05-23T19:02:22Z</time>
      </trkpt>
      <trkpt lat="40.862937" lon="-3.694523">
        <ele>1224.951</ele>
        <time>2011-05-23T19:02:32Z</time>
      </trkpt>
      <trkpt lat="40.863057" lon="-3.694382">
        <ele>1225.811</ele>
        <time>2011-05-23T19:02:42Z</time>
      </trkpt>
      <trkpt lat="40.863149" lon="-3.694229">
        <ele>1226.849</ele>
        <time>2011-05-23T19:02:52Z</time>
      </trkpt>
      <trkpt lat="40.863241" lon="-3.694069">
        <ele>1227.331</ele>
        <time>2011-05-23T19:03:02Z</time>
      </trkpt>
      <trkpt lat="40.863328" lon="-3.693929">
        <ele>1227.642</ele>
        <time>2011-05-23T19:03:12Z</time>
      </trkpt>
      <trkpt lat="40.863379" lon="-3.693750">
        <ele>1229.622</ele>
        <time>2011-05-23T19:03:22Z</time>
      </trkpt>
      <trkpt lat="40.863418" lon="-3.693609">
        <ele>1232.014</ele>
        <time>2011-05-23T19:03:32Z</time>
      </trkpt>
      <trkpt lat="40.863480" lon="-3.693455">
        <ele>1233.508</ele>
        <time>2011-05-23T19:03:42Z</time>
      </trkpt>
      <trkpt lat="40.863538" lon="-3.693278">
        <ele>1234.970</ele>
        <time>2011-05-23T19:03:52Z</time>
      </trkpt>
      <trkpt lat="40.863590" lon="-3.693145">
        <ele>1235.475</ele>
        <time>2011-05-23T19:04:02Z</time>
      </trkpt>
      <trkpt lat="40.863665" lon="-3.693053">
        <ele>1235.915</ele>
        <time>2011-05-23T19:04:12Z</time>
      </trkpt>
      <trkpt lat="40.863725" lon="-3.692872">
        <ele>1235.975</ele>
        <time>2011-05-23T19:04:22Z</time>
      </trkpt>
      <trkpt lat="40.863784" lon="-3.692730">
        <ele>1235.946</ele>
        <time>2011-05-23T19:04:32Z</time>
      </trkpt>
      <trkpt lat="40.863866" lon="-3.692636">
        <ele>1235.956</ele>
        <time>2011-05-23T19:04:42Z</time>
      </trkpt>
      <trkpt lat="40.863953" lon="-3.692480">
        <ele>1236.464</ele>
        <time>2011-05-23T19:04:52Z</time>
      </trkpt>
      <trkpt lat="40.864061" lon="-3.692371">
        <ele>1236.926</ele>
        <time>2011-05-23T19:05:02Z</time>
      </trkpt>
      <trkpt lat="40.864142" lon="-3.692254">
        <ele>1237.341</ele>
        <time>2011-05-23T19:05:12Z</time>
      </trkpt>
      <trkpt lat="40.864223" lon="-3.692113">
        <ele>1237.381</ele>
        <time>2011-05-23T19:05:22Z</time>
      </trkpt>
      <trkpt lat="40.864330" lon="-3.691981">
        <ele>1237.309</ele>
        <time>2011-05-23T19:05:32Z</time>
      </trkpt>
      <trkpt lat="40.864414" lon="-3.691850">
        <ele>1237.308</ele>
        <time>2011-05-23T19:05:42Z</time>
      </trkpt>
      <trkpt lat="40.864521" lon="-3.691741">
        <ele>1237.390</ele>
        <time>2011-05-23T19:05:52Z</time>
      </trkpt>
      <trkpt lat="40.864579" lon="-3.691662">
        <ele>1236.965</ele>
        <time>2011-05-23T19:06:02Z</time>
      </trkpt>
      <trkpt lat="40.864647" lon="-3.691557">
        <ele>1236.935</ele>
        <time>2011-05-23T19:06:12Z</time>
      </trkpt>
      <trkpt lat="40.864730" lon="-3.691412">
        <ele>1236.925</ele>
        <time>2011-05-23T19:06:22Z</time>
      </trkpt>
      <trkpt lat="40.864796" lon="-3.691274">
        <ele>1236.976</ele>
        <time>2011-05-23T19:06:32Z</time>
      </trkpt>
      <trkpt lat="40.864848" lon="-3.691143">
        <ele>1236.916</ele>
        <time>2011-05-23T19:06:42Z</time>
      </trkpt>
      <trkpt lat="40.864952" lon="-3.691005">
        <ele>1237.814</ele>
        <time>2011-05-23T19:06:52Z</time>
      </trkpt>
      <trkpt lat="40.865068" lon="-3.690863">
        <ele>1237.816</ele>
        <time>2011-05-23T19:07:02Z</time>
      </trkpt>
      <trkpt lat="40.865170" lon="-3.690734">
        <ele>1237.823</ele>
        <time>2011-05-23T19:07:12Z</time>
      </trkpt>
      <trkpt lat="40.865232" lon="-3.690615">
        <ele>1237.883</ele>
        <time>2011-05-23T19:07:22Z</time>
      </trkpt>
      <trkpt lat="40.865317" lon="-3.690469">
        <ele>1237.811</ele>
        <time>2011-05-23T19:07:32Z</time>
      </trkpt>
      <trkpt lat="40.865369" lon="-3.690314">
        <ele>1236.908</ele>
        <time>2011-05-23T19:07:42Z</time>
      </trkpt>
      <trkpt lat="40.865453" lon="-3.690197">
        <ele>1236.478</ele>
        <time>2011-05-23T19:07:52Z</time>
      </trkpt>
      <trkpt lat="40.865536" lon="-3.690084">
        <ele>1236.483</ele>
        <time>2011-05-23T19:08:02Z</time>
      </trkpt>
      <trkpt lat="40.865608" lon="-3.689989">
        <ele>1236.973</ele>
        <time>2011-05-23T19:08:12Z</time>
      </trkpt>
      <trkpt lat="40.865628" lon="-3.689979">
        <ele>1237.383</ele>
        <time>2011-05-23T19:08:22Z</time>
      </trkpt>
      <trkpt lat="40.865626" lon="-3.689978">
        <ele>1237.344</ele>
        <time>2011-05-23T19:08:32Z</time>
      </trkpt>
      <trkpt lat="40.865632" lon="-3.689983">
        <ele>1237.374</ele>
        <time>2011-05-23T19:08:42Z</time>
      </trkpt>
      <trkpt lat="40.865674" lon="-3.689939">
        <ele>1237.352</ele>
        <time>2011-05-23T19:08:52Z</time>
      </trkpt>
      <trkpt lat="40.865795" lon="-3.689844">
        <ele>1237.824</ele>
        <time>2011-05-23T19:09:02Z</time>
      </trkpt>
      <trkpt lat="40.865900" lon="-3.689736">
        <ele>1237.329</ele>
        <time>2011-05-23T19:09:12Z</time>
      </trkpt>
      <trkpt lat="40.866017" lon="-3.689606">
        <ele>1236.900</ele>
        <time>2011-05-23T19:09:22Z</time>
      </trkpt>
      <trkpt lat="40.866107" lon="-3.689458">
        <ele>1235.420</ele>
        <time>2011-05-23T19:09:32Z</time>
      </trkpt>
      <trkpt lat="40.866205" lon="-3.689284">
        <ele>1234.508</ele>
        <time>2011-05-23T19:09:42Z</time>
      </trkpt>
      <trkpt lat="40.866288" lon="-3.689148">
        <ele>1234.028</ele>
        <time>2011-05-23T19:09:52Z</time>
      </trkpt>
      <trkpt lat="40.866416" lon="-3.689045">
        <ele>1234.583</ele>
        <time>2011-05-23T19:10:02Z</time>
      </trkpt>
      <trkpt lat="40.866537" lon="-3.688943">
        <ele>1234.983</ele>
        <time>2011-05-23T19:10:12Z</time>
      </trkpt>
      <trkpt lat="40.866649" lon="-3.688897">
        <ele>1237.323</ele>
        <time>2011-05-23T19:10:22Z</time>
      </trkpt>
      <trkpt lat="40.866770" lon="-3.688835">
        <ele>1239.834</ele>
        <time>2011-05-23T19:10:32Z</time>
      </trkpt>
      <trkpt lat="40.866860" lon="-3.688708">
        <ele>1242.154</ele>
        <time>2011-05-23T19:10:42Z</time>
      </trkpt>
      <trkpt lat="40.866944" lon="-3.688549">
        <ele>1244.042</ele>
        <time>2011-05-23T19:10:52Z</time>
      </trkpt>
      <trkpt lat="40.867047" lon="-3.688394">
        <ele>1246.024</ele>
        <time>2011-05-23T19:11:02Z</time>
      </trkpt>
      <trkpt lat="40.867121" lon="-3.688251">
        <ele>1247.425</ele>
        <time>2011-05-23T19:11:12Z</time>
      </trkpt>
      <trkpt lat="40.867200" lon="-3.688063">
        <ele>1247.926</ele>
        <time>2011-05-23T19:11:22Z</time>
      </trkpt>
      <trkpt lat="40.867255" lon="-3.687908">
        <ele>1247.408</ele>
        <time>2011-05-23T19:11:32Z</time>
      </trkpt>
      <trkpt lat="40.867346" lon="-3.687749">
        <ele>1248.908</ele>
        <time>2011-05-23T19:11:42Z</time>
      </trkpt>
      <trkpt lat="40.867420" lon="-3.687604">
        <ele>1250.888</ele>
        <time>2011-05-23T19:11:52Z</time>
      </trkpt>
      <trkpt lat="40.867523" lon="-3.687506">
        <ele>1252.163</ele>
        <time>2011-05-23T19:12:02Z</time>
      </trkpt>
      <trkpt lat="40.867645" lon="-3.687376">
        <ele>1253.633</ele>
        <time>2011-05-23T19:12:12Z</time>
      </trkpt>
      <trkpt lat="40.867763" lon="-3.687258">
        <ele>1254.173</ele>
        <time>2011-05-23T19:12:22Z</time>
      </trkpt>
      <trkpt lat="40.867852" lon="-3.687100">
        <ele>1254.674</ele>
        <time>2011-05-23T19:12:32Z</time>
      </trkpt>
      <trkpt lat="40.867958" lon="-3.686971">
        <ele>1254.684</ele>
        <time>2011-05-23T19:12:42Z</time>
      </trkpt>
      <trkpt lat="40.868054" lon="-3.686796">
        <ele>1254.642</ele>
        <time>2011-05-23T19:12:52Z</time>
      </trkpt>
      <trkpt lat="40.868144" lon="-3.686624">
        <ele>1255.054</ele>
        <time>2011-05-23T19:13:02Z</time>
      </trkpt>
      <trkpt lat="40.868217" lon="-3.686451">
        <ele>1255.538</ele>
        <time>2011-05-23T19:13:12Z</time>
      </trkpt>
      <trkpt lat="40.868294" lon="-3.686294">
        <ele>1256.070</ele>
        <time>2011-05-23T19:13:22Z</time>
      </trkpt>
      <trkpt lat="40.868377" lon="-3.686086">
        <ele>1256.517</ele>
        <time>2011-05-23T19:13:32Z</time>
      </trkpt>
      <trkpt lat="40.868405" lon="-3.685936">
        <ele>1256.508</ele>
        <time>2011-05-23T19:13:42Z</time>
      </trkpt>
      <trkpt lat="40.868445" lon="-3.685740">
        <ele>1256.539</ele>
        <time>2011-05-23T19:13:52Z</time>
      </trkpt>
      <trkpt lat="40.868470" lon="-3.685570">
        <ele>1256.514</ele>
        <time>2011-05-23T19:14:02Z</time>
      </trkpt>
      <trkpt lat="40.868519" lon="-3.685383">
        <ele>1257.564</ele>
        <time>2011-05-23T19:14:12Z</time>
      </trkpt>
      <trkpt lat="40.868604" lon="-3.685221">
        <ele>1257.514</ele>
        <time>2011-05-23T19:14:22Z</time>
      </trkpt>
      <trkpt lat="40.868636" lon="-3.685025">
        <ele>1258.035</ele>
        <time>2011-05-23T19:14:32Z</time>
      </trkpt>
      <trkpt lat="40.868719" lon="-3.684880">
        <ele>1259.515</ele>
        <time>2011-05-23T19:14:42Z</time>
      </trkpt>
      <trkpt lat="40.868755" lon="-3.684751">
        <ele>1259.963</ele>
        <time>2011-05-23T19:14:52Z</time>
      </trkpt>
      <trkpt lat="40.868811" lon="-3.684595">
        <ele>1259.975</ele>
        <time>2011-05-23T19:15:02Z</time>
      </trkpt>
      <trkpt lat="40.868877" lon="-3.684452">
        <ele>1259.984</ele>
        <time>2011-05-23T19:15:12Z</time>
      </trkpt>
      <trkpt lat="40.868932" lon="-3.684314">
        <ele>1259.007</ele>
        <time>2011-05-23T19:15:22Z</time>
      </trkpt>
      <trkpt lat="40.869010" lon="-3.684182">
        <ele>1258.017</ele>
        <time>2011-05-23T19:15:32Z</time>
      </trkpt>
      <trkpt lat="40.869086" lon="-3.684021">
        <ele>1257.508</ele>
        <time>2011-05-23T19:15:42Z</time>
      </trkpt>
      <trkpt lat="40.869144" lon="-3.683848">
        <ele>1258.514</ele>
        <time>2011-05-23T19:15:52Z</time>
      </trkpt>
      <trkpt lat="40.869196" lon="-3.683682">
        <ele>1258.059</ele>
        <time>2011-05-23T19:16:02Z</time>
      </trkpt>
      <trkpt lat="40.869235" lon="-3.683533">
        <ele>1257.559</ele>
        <time>2011-05-23T19:16:12Z</time>
      </trkpt>
      <trkpt lat="40.869291" lon="-3.683361">
        <ele>1257.079</ele>
        <time>2011-05-23T19:16:22Z</time>
      </trkpt>
      <trkpt lat="40.869337" lon="-3.683236">
        <ele>1257.020</ele>
        <time>2011-05-23T19:16:32Z</time>
      </trkpt>
      <trkpt lat="40.869407" lon="-3.683091">
        <ele>1256.520</ele>
        <time>2011-05-23T19:16:42Z</time>
      </trkpt>
      <trkpt lat="40.869488" lon="-3.682939">
        <ele>1255.528</ele>
        <time>2011-05-23T19:16:52Z</time>
      </trkpt>
      <trkpt lat="40.869549" lon="-3.682834">
        <ele>1254.130</ele>
        <time>2011-05-23T19:17:02Z</time>
      </trkpt>
      <trkpt lat="40.869568" lon="-3.682739">
        <ele>1252.134</ele>
        <time>2011-05-23T19:17:12Z</time>
      </trkpt>
      <trkpt lat="40.869870" lon="-3.682410">
        <ele>1247.455</ele>
        <time>2011-05-23T19:17:32Z</time>
      </trkpt>
      <trkpt lat="40.869915" lon="-3.682279">
        <ele>1245.510</ele>
        <time>2011-05-23T19:17:42Z</time>
      </trkpt>
      <trkpt lat="40.869941" lon="-3.682109">
        <ele>1245.008</ele>
        <time>2011-05-23T19:17:52Z</time>
      </trkpt>
      <trkpt lat="40.869998" lon="-3.681940">
        <ele>1244.519</ele>
        <time>2011-05-23T19:18:02Z</time>
      </trkpt>
      <trkpt lat="40.870048" lon="-3.681802">
        <ele>1244.574</ele>
        <time>2011-05-23T19:18:12Z</time>
      </trkpt>
      <trkpt lat="40.870120" lon="-3.681673">
        <ele>1244.534</ele>
        <time>2011-05-23T19:18:22Z</time>
      </trkpt>
      <trkpt lat="40.870226" lon="-3.681536">
        <ele>1244.524</ele>
        <time>2011-05-23T19:18:32Z</time>
      </trkpt>
      <trkpt lat="40.870296" lon="-3.681397">
        <ele>1244.545</ele>
        <time>2011-05-23T19:18:42Z</time>
      </trkpt>
      <trkpt lat="40.870368" lon="-3.681183">
        <ele>1243.085</ele>
        <time>2011-05-23T19:18:52Z</time>
      </trkpt>
      <trkpt lat="40.870421" lon="-3.681002">
        <ele>1242.593</ele>
        <time>2011-05-23T19:19:02Z</time>
      </trkpt>
      <trkpt lat="40.870481" lon="-3.680857">
        <ele>1241.625</ele>
        <time>2011-05-23T19:19:12Z</time>
      </trkpt>
      <trkpt lat="40.870526" lon="-3.680710">
        <ele>1241.618</ele>
        <time>2011-05-23T19:19:22Z</time>
      </trkpt>
      <trkpt lat="40.870588" lon="-3.680560">
        <ele>1241.198</ele>
        <time>2011-05-23T19:19:32Z</time>
      </trkpt>
      <trkpt lat="40.870648" lon="-3.680395">
        <ele>1240.617</ele>
        <time>2011-05-23T19:19:42Z</time>
      </trkpt>
      <trkpt lat="40.870735" lon="-3.680207">
        <ele>1239.808</ele>
        <time>2011-05-23T19:19:52Z</time>
      </trkpt>
      <trkpt lat="40.870785" lon="-3.680068">
        <ele>1238.897</ele>
        <time>2011-05-23T19:20:02Z</time>
      </trkpt>
      <trkpt lat="40.870873" lon="-3.679927">
        <ele>1237.892</ele>
        <time>2011-05-23T19:20:12Z</time>
      </trkpt>
      <trkpt lat="40.870932" lon="-3.679770">
        <ele>1236.492</ele>
        <time>2011-05-23T19:20:22Z</time>
      </trkpt>
      <trkpt lat="40.870973" lon="-3.679622">
        <ele>1234.952</ele>
        <time>2011-05-23T19:20:32Z</time>
      </trkpt>
      <trkpt lat="40.871026" lon="-3.679449">
        <ele>1234.013</ele>
        <time>2011-05-23T19:20:42Z</time>
      </trkpt>
      <trkpt lat="40.871095" lon="-3.679316">
        <ele>1231.513</ele>
        <time>2011-05-23T19:20:52Z</time>
      </trkpt>
      <trkpt lat="40.871140" lon="-3.679156">
        <ele>1230.561</ele>
        <time>2011-05-23T19:21:02Z</time>
      </trkpt>
      <trkpt lat="40.871209" lon="-3.678985">
        <ele>1231.093</ele>
        <time>2011-05-23T19:21:12Z</time>
      </trkpt>
      <trkpt lat="40.871265" lon="-3.678805">
        <ele>1231.017</ele>
        <time>2011-05-23T19:21:22Z</time>
      </trkpt>
      <trkpt lat="40.871228" lon="-3.678745">
        <ele>1230.587</ele>
        <time>2011-05-23T19:21:32Z</time>
      </trkpt>
      <trkpt lat="40.871093" lon="-3.678830">
        <ele>1230.015</ele>
        <time>2011-05-23T19:21:42Z</time>
      </trkpt>
      <trkpt lat="40.871063" lon="-3.678843">
        <ele>1229.608</ele>
        <time>2011-05-23T19:21:44Z</time>
      </trkpt>
      <trkpt lat="40.871134" lon="-3.678585">
        <ele>1229.677</ele>
        <time>2011-05-23T19:22:04Z</time>
      </trkpt>
      <trkpt lat="40.871185" lon="-3.678422">
        <ele>1228.682</ele>
        <time>2011-05-23T19:22:14Z</time>
      </trkpt>
      <trkpt lat="40.871250" lon="-3.678265">
        <ele>1227.352</ele>
        <time>2011-05-23T19:22:24Z</time>
      </trkpt>
      <trkpt lat="40.871286" lon="-3.678089">
        <ele>1225.332</ele>
        <time>2011-05-23T19:22:34Z</time>
      </trkpt>
      <trkpt lat="40.871275" lon="-3.677913">
        <ele>1224.933</ele>
        <time>2011-05-23T19:22:44Z</time>
      </trkpt>
      <trkpt lat="40.871333" lon="-3.677748">
        <ele>1224.473</ele>
        <time>2011-05-23T19:22:54Z</time>
      </trkpt>
      <trkpt lat="40.871325" lon="-3.677725">
        <ele>1224.951</ele>
        <time>2011-05-23T19:24:35Z</time>
      </trkpt>
      <trkpt lat="40.871294" lon="-3.677585">
        <ele>1224.433</ele>
        <time>2011-05-23T19:24:45Z</time>
      </trkpt>
      <trkpt lat="40.871262" lon="-3.677461">
        <ele>1224.973</ele>
        <time>2011-05-23T19:24:55Z</time>
      </trkpt>
      <trkpt lat="40.871232" lon="-3.677318">
        <ele>1224.985</ele>
        <time>2011-05-23T19:25:05Z</time>
      </trkpt>
      <trkpt lat="40.871227" lon="-3.677187">
        <ele>1224.413</ele>
        <time>2011-05-23T19:25:15Z</time>
      </trkpt>
      <trkpt lat="40.871251" lon="-3.677074">
        <ele>1223.908</ele>
        <time>2011-05-23T19:25:25Z</time>
      </trkpt>
      <trkpt lat="40.871249" lon="-3.676983">
        <ele>1223.433</ele>
        <time>2011-05-23T19:26:55Z</time>
      </trkpt>
      <trkpt lat="40.871184" lon="-3.676840">
        <ele>1222.918</ele>
        <time>2011-05-23T19:27:05Z</time>
      </trkpt>
      <trkpt lat="40.871109" lon="-3.676664">
        <ele>1222.968</ele>
        <time>2011-05-23T19:27:15Z</time>
      </trkpt>
      <trkpt lat="40.871062" lon="-3.676492">
        <ele>1222.418</ele>
        <time>2011-05-23T19:27:25Z</time>
      </trkpt>
      <trkpt lat="40.871022" lon="-3.676349">
        <ele>1222.439</ele>
        <time>2011-05-23T19:27:35Z</time>
      </trkpt>
      <trkpt lat="40.871038" lon="-3.676169">
        <ele>1221.599</ele>
        <time>2011-05-23T19:27:45Z</time>
      </trkpt>
      <trkpt lat="40.871061" lon="-3.675982">
        <ele>1221.047</ele>
        <time>2011-05-23T19:27:55Z</time>
      </trkpt>
      <trkpt lat="40.871067" lon="-3.675762">
        <ele>1219.569</ele>
        <time>2011-05-23T19:28:05Z</time>
      </trkpt>
      <trkpt lat="40.871123" lon="-3.675614">
        <ele>1218.095</ele>
        <time>2011-05-23T19:28:15Z</time>
      </trkpt>
      <trkpt lat="40.871145" lon="-3.675476">
        <ele>1216.649</ele>
        <time>2011-05-23T19:28:25Z</time>
      </trkpt>
      <trkpt lat="40.871139" lon="-3.675328">
        <ele>1215.123</ele>
        <time>2011-05-23T19:28:35Z</time>
      </trkpt>
      <trkpt lat="40.871122" lon="-3.675130">
        <ele>1213.808</ele>
        <time>2011-05-23T19:28:45Z</time>
      </trkpt>
      <trkpt lat="40.871147" lon="-3.674956">
        <ele>1212.485</ele>
        <time>2011-05-23T19:28:55Z</time>
      </trkpt>
      <trkpt lat="40.871174" lon="-3.674783">
        <ele>1211.470</ele>
        <time>2011-05-23T19:29:05Z</time>
      </trkpt>
      <trkpt lat="40.871165" lon="-3.674637">
        <ele>1210.480</ele>
        <time>2011-05-23T19:29:15Z</time>
      </trkpt>
      <trkpt lat="40.871139" lon="-3.674493">
        <ele>1210.020</ele>
        <time>2011-05-23T19:29:25Z</time>
      </trkpt>
      <trkpt lat="40.871154" lon="-3.674316">
        <ele>1209.531</ele>
        <time>2011-05-23T19:29:35Z</time>
      </trkpt>
      <trkpt lat="40.871209" lon="-3.674143">
        <ele>1209.031</ele>
        <time>2011-05-23T19:29:45Z</time>
      </trkpt>
      <trkpt lat="40.871243" lon="-3.673971">
        <ele>1208.539</ele>
        <time>2011-05-23T19:29:55Z</time>
      </trkpt>
      <trkpt lat="40.871251" lon="-3.673790">
        <ele>1207.081</ele>
        <time>2011-05-23T19:30:05Z</time>
      </trkpt>
      <trkpt lat="40.871284" lon="-3.673623">
        <ele>1205.532</ele>
        <time>2011-05-23T19:30:15Z</time>
      </trkpt>
      <trkpt lat="40.871321" lon="-3.673457">
        <ele>1204.192</ele>
        <time>2011-05-23T19:30:25Z</time>
      </trkpt>
      <trkpt lat="40.871343" lon="-3.673305">
        <ele>1202.811</ele>
        <time>2011-05-23T19:30:35Z</time>
      </trkpt>
      <trkpt lat="40.871373" lon="-3.673129">
        <ele>1201.808</ele>
        <time>2011-05-23T19:30:45Z</time>
      </trkpt>
      <trkpt lat="40.871447" lon="-3.672972">
        <ele>1200.339</ele>
        <time>2011-05-23T19:30:55Z</time>
      </trkpt>
      <trkpt lat="40.871523" lon="-3.672792">
        <ele>1199.494</ele>
        <time>2011-05-23T19:31:05Z</time>
      </trkpt>
      <trkpt lat="40.871563" lon="-3.672662">
        <ele>1197.964</ele>
        <time>2011-05-23T19:31:15Z</time>
      </trkpt>
      <trkpt lat="40.871596" lon="-3.672537">
        <ele>1197.084</ele>
        <time>2011-05-23T19:31:25Z</time>
      </trkpt>
      <trkpt lat="40.871656" lon="-3.672376">
        <ele>1196.075</ele>
        <time>2011-05-23T19:31:35Z</time>
      </trkpt>
      <trkpt lat="40.871699" lon="-3.672236">
        <ele>1195.515</ele>
        <time>2011-05-23T19:31:45Z</time>
      </trkpt>
      <trkpt lat="40.871746" lon="-3.672108">
        <ele>1195.043</ele>
        <time>2011-05-23T19:31:55Z</time>
      </trkpt>
      <trkpt lat="40.871836" lon="-3.671979">
        <ele>1193.515</ele>
        <time>2011-05-23T19:32:05Z</time>
      </trkpt>
      <trkpt lat="40.871938" lon="-3.671859">
        <ele>1191.694</ele>
        <time>2011-05-23T19:32:15Z</time>
      </trkpt>
      <trkpt lat="40.872018" lon="-3.671742">
        <ele>1189.857</ele>
        <time>2011-05-23T19:32:25Z</time>
      </trkpt>
      <trkpt lat="40.872128" lon="-3.671632">
        <ele>1189.322</ele>
        <time>2011-05-23T19:32:35Z</time>
      </trkpt>
      <trkpt lat="40.872249" lon="-3.671499">
        <ele>1187.808</ele>
        <time>2011-05-23T19:32:45Z</time>
      </trkpt>
      <trkpt lat="40.872331" lon="-3.671423">
        <ele>1186.935</ele>
        <time>2011-05-23T19:32:55Z</time>
      </trkpt>
      <trkpt lat="40.872432" lon="-3.671334">
        <ele>1185.020</ele>
        <time>2011-05-23T19:33:05Z</time>
      </trkpt>
      <trkpt lat="40.872506" lon="-3.671254">
        <ele>1184.540</ele>
        <time>2011-05-23T19:33:15Z</time>
      </trkpt>
      <trkpt lat="40.872647" lon="-3.671243">
        <ele>1183.570</ele>
        <time>2011-05-23T19:33:25Z</time>
      </trkpt>
      <trkpt lat="40.872746" lon="-3.671135">
        <ele>1182.081</ele>
        <time>2011-05-23T19:33:35Z</time>
      </trkpt>
      <trkpt lat="40.872789" lon="-3.670976">
        <ele>1180.531</ele>
        <time>2011-05-23T19:33:45Z</time>
      </trkpt>
      <trkpt lat="40.872836" lon="-3.670813">
        <ele>1178.699</ele>
        <time>2011-05-23T19:33:55Z</time>
      </trkpt>
      <trkpt lat="40.872825" lon="-3.670630">
        <ele>1176.891</ele>
        <time>2011-05-23T19:34:05Z</time>
      </trkpt>
      <trkpt lat="40.872802" lon="-3.670457">
        <ele>1176.344</ele>
        <time>2011-05-23T19:34:15Z</time>
      </trkpt>
      <trkpt lat="40.872787" lon="-3.670286">
        <ele>1175.305</ele>
        <time>2011-05-23T19:34:25Z</time>
      </trkpt>
      <trkpt lat="40.872763" lon="-3.670132">
        <ele>1174.915</ele>
        <time>2011-05-23T19:34:35Z</time>
      </trkpt>
      <trkpt lat="40.872786" lon="-3.669978">
        <ele>1173.408</ele>
        <time>2011-05-23T19:34:45Z</time>
      </trkpt>
      <trkpt lat="40.872844" lon="-3.669812">
        <ele>1172.090</ele>
        <time>2011-05-23T19:34:55Z</time>
      </trkpt>
      <trkpt lat="40.872869" lon="-3.669643">
        <ele>1170.585</ele>
        <time>2011-05-23T19:35:05Z</time>
      </trkpt>
      <trkpt lat="40.872916" lon="-3.669495">
        <ele>1169.515</ele>
        <time>2011-05-23T19:35:15Z</time>
      </trkpt>
      <trkpt lat="40.872980" lon="-3.669317">
        <ele>1169.575</ele>
        <time>2011-05-23T19:35:25Z</time>
      </trkpt>
      <trkpt lat="40.873030" lon="-3.669131">
        <ele>1168.566</ele>
        <time>2011-05-23T19:35:35Z</time>
      </trkpt>
      <trkpt lat="40.873071" lon="-3.668986">
        <ele>1167.696</ele>
        <time>2011-05-23T19:35:45Z</time>
      </trkpt>
      <trkpt lat="40.873074" lon="-3.668843">
        <ele>1167.154</ele>
        <time>2011-05-23T19:35:55Z</time>
      </trkpt>
      <trkpt lat="40.873099" lon="-3.668694">
        <ele>1166.156</ele>
        <time>2011-05-23T19:36:05Z</time>
      </trkpt>
      <trkpt lat="40.873121" lon="-3.668490">
        <ele>1165.687</ele>
        <time>2011-05-23T19:36:15Z</time>
      </trkpt>
      <trkpt lat="40.873157" lon="-3.668324">
        <ele>1164.842</ele>
        <time>2011-05-23T19:36:25Z</time>
      </trkpt>
      <trkpt lat="40.873203" lon="-3.668176">
        <ele>1164.826</ele>
        <time>2011-05-23T19:36:35Z</time>
      </trkpt>
      <trkpt lat="40.873304" lon="-3.668028">
        <ele>1163.808</ele>
        <time>2011-05-23T19:36:45Z</time>
      </trkpt>
      <trkpt lat="40.873394" lon="-3.667928">
        <ele>1163.834</ele>
        <time>2011-05-23T19:36:55Z</time>
      </trkpt>
      <trkpt lat="40.873505" lon="-3.667786">
        <ele>1163.319</ele>
        <time>2011-05-23T19:37:05Z</time>
      </trkpt>
      <trkpt lat="40.873531" lon="-3.667619">
        <ele>1161.939</ele>
        <time>2011-05-23T19:37:15Z</time>
      </trkpt>
      <trkpt lat="40.873517" lon="-3.667472">
        <ele>1160.019</ele>
        <time>2011-05-23T19:37:25Z</time>
      </trkpt>
      <trkpt lat="40.873513" lon="-3.667322">
        <ele>1158.540</ele>
        <time>2011-05-23T19:37:35Z</time>
      </trkpt>
      <trkpt lat="40.873512" lon="-3.667157">
        <ele>1156.530</ele>
        <time>2011-05-23T19:37:45Z</time>
      </trkpt>
      <trkpt lat="40.873535" lon="-3.667006">
        <ele>1155.148</ele>
        <time>2011-05-23T19:37:55Z</time>
      </trkpt>
      <trkpt lat="40.873528" lon="-3.666864">
        <ele>1154.170</ele>
        <time>2011-05-23T19:38:05Z</time>
      </trkpt>
      <trkpt lat="40.873531" lon="-3.666752">
        <ele>1154.124</ele>
        <time>2011-05-23T19:38:15Z</time>
      </trkpt>
      <trkpt lat="40.873475" lon="-3.666600">
        <ele>1152.304</ele>
        <time>2011-05-23T19:38:25Z</time>
      </trkpt>
      <trkpt lat="40.873365" lon="-3.666529">
        <ele>1150.314</ele>
        <time>2011-05-23T19:38:35Z</time>
      </trkpt>
      <trkpt lat="40.873286" lon="-3.666566">
        <ele>1148.408</ele>
        <time>2011-05-23T19:38:45Z</time>
      </trkpt>
      <trkpt lat="40.873183" lon="-3.666576">
        <ele>1146.548</ele>
        <time>2011-05-23T19:38:55Z</time>
      </trkpt>
      <trkpt lat="40.873078" lon="-3.666659">
        <ele>1145.063</ele>
        <time>2011-05-23T19:39:05Z</time>
      </trkpt>
      <trkpt lat="40.872932" lon="-3.666668">
        <ele>1143.023</ele>
        <time>2011-05-23T19:39:15Z</time>
      </trkpt>
      <trkpt lat="40.872850" lon="-3.666584">
        <ele>1141.113</ele>
        <time>2011-05-23T19:39:25Z</time>
      </trkpt>
      <trkpt lat="40.872769" lon="-3.666498">
        <ele>1138.854</ele>
        <time>2011-05-23T19:39:35Z</time>
      </trkpt>
      <trkpt lat="40.872697" lon="-3.666312">
        <ele>1137.954</ele>
        <time>2011-05-23T19:39:45Z</time>
      </trkpt>
      <trkpt lat="40.872624" lon="-3.666186">
        <ele>1136.992</ele>
        <time>2011-05-23T19:39:55Z</time>
      </trkpt>
      <trkpt lat="40.872540" lon="-3.666058">
        <ele>1135.994</ele>
        <time>2011-05-23T19:40:05Z</time>
      </trkpt>
      <trkpt lat="40.872462" lon="-3.665942">
        <ele>1135.425</ele>
        <time>2011-05-23T19:40:15Z</time>
      </trkpt>
      <trkpt lat="40.872449" lon="-3.665824">
        <ele>1135.426</ele>
        <time>2011-05-23T19:40:25Z</time>
      </trkpt>
      <trkpt lat="40.872355" lon="-3.665687">
        <ele>1134.008</ele>
        <time>2011-05-23T19:40:35Z</time>
      </trkpt>
      <trkpt lat="40.872280" lon="-3.665553">
        <ele>1132.508</ele>
        <time>2011-05-23T19:40:45Z</time>
      </trkpt>
      <trkpt lat="40.872180" lon="-3.665408">
        <ele>1131.038</ele>
        <time>2011-05-23T19:40:55Z</time>
      </trkpt>
      <trkpt lat="40.872141" lon="-3.665248">
        <ele>1130.193</ele>
        <time>2011-05-23T19:41:05Z</time>
      </trkpt>
      <trkpt lat="40.872130" lon="-3.665055">
        <ele>1129.143</ele>
        <time>2011-05-23T19:41:15Z</time>
      </trkpt>
      <trkpt lat="40.872040" lon="-3.664955">
        <ele>1128.163</ele>
        <time>2011-05-23T19:41:25Z</time>
      </trkpt>
      <trkpt lat="40.871962" lon="-3.664873">
        <ele>1127.374</ele>
        <time>2011-05-23T19:43:05Z</time>
      </trkpt>
      <trkpt lat="40.872001" lon="-3.664689">
        <ele>1127.864</ele>
        <time>2011-05-23T19:43:15Z</time>
      </trkpt>
      <trkpt lat="40.872020" lon="-3.664499">
        <ele>1128.682</ele>
        <time>2011-05-23T19:43:25Z</time>
      </trkpt>
      <trkpt lat="40.872073" lon="-3.664338">
        <ele>1128.144</ele>
        <time>2011-05-23T19:43:35Z</time>
      </trkpt>
      <trkpt lat="40.872143" lon="-3.664163">
        <ele>1129.119</ele>
        <time>2011-05-23T19:43:45Z</time>
      </trkpt>
      <trkpt lat="40.872120" lon="-3.663988">
        <ele>1128.609</ele>
        <time>2011-05-23T19:43:55Z</time>
      </trkpt>
      <trkpt lat="40.872093" lon="-3.663855">
        <ele>1128.119</ele>
        <time>2011-05-23T19:44:05Z</time>
      </trkpt>
      <trkpt lat="40.872164" lon="-3.663672">
        <ele>1127.808</ele>
        <time>2011-05-23T19:44:15Z</time>
      </trkpt>
      <trkpt lat="40.872175" lon="-3.663490">
        <ele>1127.857</ele>
        <time>2011-05-23T19:44:25Z</time>
      </trkpt>
      <trkpt lat="40.872209" lon="-3.663321">
        <ele>1127.322</ele>
        <time>2011-05-23T19:44:35Z</time>
      </trkpt>
      <trkpt lat="40.872240" lon="-3.663153">
        <ele>1126.812</ele>
        <time>2011-05-23T19:44:45Z</time>
      </trkpt>
      <trkpt lat="40.872242" lon="-3.662995">
        <ele>1126.882</ele>
        <time>2011-05-23T19:44:55Z</time>
      </trkpt>
      <trkpt lat="40.872293" lon="-3.662813">
        <ele>1126.863</ele>
        <time>2011-05-23T19:45:05Z</time>
      </trkpt>
      <trkpt lat="40.872140" lon="-3.662713">
        <ele>1126.893</ele>
        <time>2011-05-23T19:45:15Z</time>
      </trkpt>
      <trkpt lat="40.872021" lon="-3.662621">
        <ele>1125.461</ele>
        <time>2011-05-23T19:45:25Z</time>
      </trkpt>
      <trkpt lat="40.871944" lon="-3.662546">
        <ele>1124.463</ele>
        <time>2011-05-23T19:45:35Z</time>
      </trkpt>
      <trkpt lat="40.871864" lon="-3.662411">
        <ele>1124.454</ele>
        <time>2011-05-23T19:45:45Z</time>
      </trkpt>
      <trkpt lat="40.871839" lon="-3.662251">
        <ele>1123.956</ele>
        <time>2011-05-23T19:45:55Z</time>
      </trkpt>
      <trkpt lat="40.871807" lon="-3.662113">
        <ele>1124.411</ele>
        <time>2011-05-23T19:46:05Z</time>
      </trkpt>
      <trkpt lat="40.871938" lon="-3.662042">
        <ele>1125.408</ele>
        <time>2011-05-23T19:46:15Z</time>
      </trkpt>
      <trkpt lat="40.872049" lon="-3.662011">
        <ele>1126.341</ele>
        <time>2011-05-23T19:46:25Z</time>
      </trkpt>
      <trkpt lat="40.872096" lon="-3.661830">
        <ele>1127.876</ele>
        <time>2011-05-23T19:46:35Z</time>
      </trkpt>
      <trkpt lat="40.872125" lon="-3.661702">
        <ele>1128.656</ele>
        <time>2011-05-23T19:46:45Z</time>
      </trkpt>
      <trkpt lat="40.872205" lon="-3.661550">
        <ele>1129.626</ele>
        <time>2011-05-23T19:46:55Z</time>
      </trkpt>
      <trkpt lat="40.872188" lon="-3.661379">
        <ele>1131.067</ele>
        <time>2011-05-23T19:47:05Z</time>
      </trkpt>
      <trkpt lat="40.872145" lon="-3.661346">
        <ele>1130.677</ele>
        <time>2011-05-23T19:47:15Z</time>
      </trkpt>
      <trkpt lat="40.872065" lon="-3.661274">
        <ele>1130.655</ele>
        <time>2011-05-23T19:47:25Z</time>
      </trkpt>
      <trkpt lat="40.872032" lon="-3.661231">
        <ele>1130.147</ele>
        <time>2011-05-23T19:47:45Z</time>
      </trkpt>
      <trkpt lat="40.872032" lon="-3.661229">
        <ele>1130.667</ele>
        <time>2011-05-23T19:47:55Z</time>
      </trkpt>
      <trkpt lat="40.872040" lon="-3.661196">
        <ele>1129.181</ele>
        <time>2011-05-23T19:51:25Z</time>
      </trkpt>
      <trkpt lat="40.871992" lon="-3.661067">
        <ele>1129.119</ele>
        <time>2011-05-23T19:51:35Z</time>
      </trkpt>
      <trkpt lat="40.871996" lon="-3.660899">
        <ele>1129.608</ele>
        <time>2011-05-23T19:51:45Z</time>
      </trkpt>
      <trkpt lat="40.871976" lon="-3.660743">
        <ele>1129.632</ele>
        <time>2011-05-23T19:51:55Z</time>
      </trkpt>
      <trkpt lat="40.871892" lon="-3.660561">
        <ele>1130.157</ele>
        <time>2011-05-23T19:52:05Z</time>
      </trkpt>
      <trkpt lat="40.871841" lon="-3.660394">
        <ele>1131.037</ele>
        <time>2011-05-23T19:52:15Z</time>
      </trkpt>
      <trkpt lat="40.871826" lon="-3.660224">
        <ele>1132.057</ele>
        <time>2011-05-23T19:52:25Z</time>
      </trkpt>
      <trkpt lat="40.871764" lon="-3.660042">
        <ele>1133.028</ele>
        <time>2011-05-23T19:52:35Z</time>
      </trkpt>
      <trkpt lat="40.871739" lon="-3.659874">
        <ele>1134.028</ele>
        <time>2011-05-23T19:52:45Z</time>
      </trkpt>
      <trkpt lat="40.871724" lon="-3.659693">
        <ele>1135.076</ele>
        <time>2011-05-23T19:52:55Z</time>
      </trkpt>
      <trkpt lat="40.871681" lon="-3.659561">
        <ele>1135.418</ele>
        <time>2011-05-23T19:53:05Z</time>
      </trkpt>
      <trkpt lat="40.871655" lon="-3.659367">
        <ele>1136.423</ele>
        <time>2011-05-23T19:53:15Z</time>
      </trkpt>
      <trkpt lat="40.871625" lon="-3.659188">
        <ele>1137.983</ele>
        <time>2011-05-23T19:53:25Z</time>
      </trkpt>
      <trkpt lat="40.871659" lon="-3.659009">
        <ele>1138.811</ele>
        <time>2011-05-23T19:53:35Z</time>
      </trkpt>
      <trkpt lat="40.871713" lon="-3.658844">
        <ele>1140.308</ele>
        <time>2011-05-23T19:53:45Z</time>
      </trkpt>
      <trkpt lat="40.871774" lon="-3.658684">
        <ele>1140.648</ele>
        <time>2011-05-23T19:53:55Z</time>
      </trkpt>
      <trkpt lat="40.871821" lon="-3.658515">
        <ele>1140.353</ele>
        <time>2011-05-23T19:54:05Z</time>
      </trkpt>
      <trkpt lat="40.871871" lon="-3.658336">
        <ele>1140.613</ele>
        <time>2011-05-23T19:54:15Z</time>
      </trkpt>
      <trkpt lat="40.871886" lon="-3.658153">
        <ele>1141.643</ele>
        <time>2011-05-23T19:54:25Z</time>
      </trkpt>
      <trkpt lat="40.871922" lon="-3.658012">
        <ele>1143.524</ele>
        <time>2011-05-23T19:54:35Z</time>
      </trkpt>
      <trkpt lat="40.871936" lon="-3.657835">
        <ele>1144.564</ele>
        <time>2011-05-23T19:54:45Z</time>
      </trkpt>
      <trkpt lat="40.871904" lon="-3.657681">
        <ele>1146.022</ele>
        <time>2011-05-23T19:54:55Z</time>
      </trkpt>
      <trkpt lat="40.871820" lon="-3.657585">
        <ele>1147.014</ele>
        <time>2011-05-23T19:55:05Z</time>
      </trkpt>
      <trkpt lat="40.871703" lon="-3.657560">
        <ele>1148.989</ele>
        <time>2011-05-23T19:55:15Z</time>
      </trkpt>
      <trkpt lat="40.871586" lon="-3.657555">
        <ele>1149.906</ele>
        <time>2011-05-23T19:55:25Z</time>
      </trkpt>
      <trkpt lat="40.871461" lon="-3.657540">
        <ele>1150.326</ele>
        <time>2011-05-23T19:55:35Z</time>
      </trkpt>
      <trkpt lat="40.871342" lon="-3.657469">
        <ele>1150.308</ele>
        <time>2011-05-23T19:55:45Z</time>
      </trkpt>
      <trkpt lat="40.871260" lon="-3.657363">
        <ele>1150.344</ele>
        <time>2011-05-23T19:55:55Z</time>
      </trkpt>
      <trkpt lat="40.871142" lon="-3.657254">
        <ele>1150.369</ele>
        <time>2011-05-23T19:56:05Z</time>
      </trkpt>
      <trkpt lat="40.871049" lon="-3.657149">
        <ele>1150.359</ele>
        <time>2011-05-23T19:56:15Z</time>
      </trkpt>
      <trkpt lat="40.870911" lon="-3.657069">
        <ele>1151.889</ele>
        <time>2011-05-23T19:56:25Z</time>
      </trkpt>
      <trkpt lat="40.870762" lon="-3.657045">
        <ele>1152.870</ele>
        <time>2011-05-23T19:56:35Z</time>
      </trkpt>
      <trkpt lat="40.870642" lon="-3.657029">
        <ele>1153.680</ele>
        <time>2011-05-23T19:56:45Z</time>
      </trkpt>
      <trkpt lat="40.870529" lon="-3.657003">
        <ele>1155.168</ele>
        <time>2011-05-23T19:56:55Z</time>
      </trkpt>
      <trkpt lat="40.870430" lon="-3.657055">
        <ele>1156.020</ele>
        <time>2011-05-23T19:57:05Z</time>
      </trkpt>
      <trkpt lat="40.870323" lon="-3.657114">
        <ele>1157.047</ele>
        <time>2011-05-23T19:57:15Z</time>
      </trkpt>
      <trkpt lat="40.870207" lon="-3.657042">
        <ele>1158.529</ele>
        <time>2011-05-23T19:57:25Z</time>
      </trkpt>
      <trkpt lat="40.870120" lon="-3.656926">
        <ele>1160.021</ele>
        <time>2011-05-23T19:57:35Z</time>
      </trkpt>
      <trkpt lat="40.870003" lon="-3.656933">
        <ele>1160.908</ele>
        <time>2011-05-23T19:57:45Z</time>
      </trkpt>
      <trkpt lat="40.869894" lon="-3.656949">
        <ele>1160.450</ele>
        <time>2011-05-23T19:57:55Z</time>
      </trkpt>
      <trkpt lat="40.869798" lon="-3.656938">
        <ele>1160.435</ele>
        <time>2011-05-23T19:58:05Z</time>
      </trkpt>
      <trkpt lat="40.869693" lon="-3.656864">
        <ele>1161.435</ele>
        <time>2011-05-23T19:58:15Z</time>
      </trkpt>
      <trkpt lat="40.869612" lon="-3.656803">
        <ele>1162.845</ele>
        <time>2011-05-23T19:58:25Z</time>
      </trkpt>
      <trkpt lat="40.869522" lon="-3.656780">
        <ele>1164.326</ele>
        <time>2011-05-23T19:58:35Z</time>
      </trkpt>
      <trkpt lat="40.869443" lon="-3.656684">
        <ele>1166.196</ele>
        <time>2011-05-23T19:58:45Z</time>
      </trkpt>
      <trkpt lat="40.869366" lon="-3.656648">
        <ele>1167.654</ele>
        <time>2011-05-23T19:58:55Z</time>
      </trkpt>
      <trkpt lat="40.869261" lon="-3.656593">
        <ele>1169.526</ele>
        <time>2011-05-23T19:59:05Z</time>
      </trkpt>
      <trkpt lat="40.869153" lon="-3.656527">
        <ele>1171.089</ele>
        <time>2011-05-23T19:59:15Z</time>
      </trkpt>
      <trkpt lat="40.869159" lon="-3.656366">
        <ele>1173.406</ele>
        <time>2011-05-23T19:59:25Z</time>
      </trkpt>
      <trkpt lat="40.869092" lon="-3.656290">
        <ele>1175.326</ele>
        <time>2011-05-23T19:59:35Z</time>
      </trkpt>
      <trkpt lat="40.868992" lon="-3.656158">
        <ele>1177.308</ele>
        <time>2011-05-23T19:59:45Z</time>
      </trkpt>
      <trkpt lat="40.868946" lon="-3.656018">
        <ele>1178.644</ele>
        <time>2011-05-23T19:59:55Z</time>
      </trkpt>
      <trkpt lat="40.868820" lon="-3.655887">
        <ele>1180.589</ele>
        <time>2011-05-23T20:00:05Z</time>
      </trkpt>
      <trkpt lat="40.868772" lon="-3.655744">
        <ele>1181.519</ele>
        <time>2011-05-23T20:00:15Z</time>
      </trkpt>
      <trkpt lat="40.868711" lon="-3.655567">
        <ele>1183.589</ele>
        <time>2011-05-23T20:00:25Z</time>
      </trkpt>
      <trkpt lat="40.868747" lon="-3.655424">
        <ele>1184.550</ele>
        <time>2011-05-23T20:00:35Z</time>
      </trkpt>
      <trkpt lat="40.868759" lon="-3.655256">
        <ele>1186.420</ele>
        <time>2011-05-23T20:00:45Z</time>
      </trkpt>
      <trkpt lat="40.868755" lon="-3.655096">
        <ele>1187.898</ele>
        <time>2011-05-23T20:00:55Z</time>
      </trkpt>
      <trkpt lat="40.868754" lon="-3.654956">
        <ele>1188.360</ele>
        <time>2011-05-23T20:01:05Z</time>
      </trkpt>
      <trkpt lat="40.868748" lon="-3.654803">
        <ele>1187.433</ele>
        <time>2011-05-23T20:01:15Z</time>
      </trkpt>
      <trkpt lat="40.868653" lon="-3.654713">
        <ele>1185.923</ele>
        <time>2011-05-23T20:01:25Z</time>
      </trkpt>
      <trkpt lat="40.868565" lon="-3.654601">
        <ele>1184.515</ele>
        <time>2011-05-23T20:01:35Z</time>
      </trkpt>
      <trkpt lat="40.868491" lon="-3.654491">
        <ele>1182.508</ele>
        <time>2011-05-23T20:01:45Z</time>
      </trkpt>
      <trkpt lat="40.868462" lon="-3.654378">
        <ele>1180.539</ele>
        <time>2011-05-23T20:01:55Z</time>
      </trkpt>
      <trkpt lat="40.868336" lon="-3.654275">
        <ele>1178.674</ele>
        <time>2011-05-23T20:02:05Z</time>
      </trkpt>
      <trkpt lat="40.868236" lon="-3.654207">
        <ele>1176.394</ele>
        <time>2011-05-23T20:02:15Z</time>
      </trkpt>
      <trkpt lat="40.868150" lon="-3.654116">
        <ele>1174.444</ele>
        <time>2011-05-23T20:02:25Z</time>
      </trkpt>
      <trkpt lat="40.868186" lon="-3.654019">
        <ele>1172.545</ele>
        <time>2011-05-23T20:02:35Z</time>
      </trkpt>
      <trkpt lat="40.868210" lon="-3.653871">
        <ele>1170.095</ele>
        <time>2011-05-23T20:02:45Z</time>
      </trkpt>
      <trkpt lat="40.868212" lon="-3.653758">
        <ele>1168.083</ele>
        <time>2011-05-23T20:02:55Z</time>
      </trkpt>
      <trkpt lat="40.868201" lon="-3.653613">
        <ele>1166.125</ele>
        <time>2011-05-23T20:03:05Z</time>
      </trkpt>
      <trkpt lat="40.868270" lon="-3.653538">
        <ele>1163.839</ele>
        <time>2011-05-23T20:03:15Z</time>
      </trkpt>
      <trkpt lat="40.868354" lon="-3.653514">
        <ele>1161.901</ele>
        <time>2011-05-23T20:03:25Z</time>
      </trkpt>
      <trkpt lat="40.868441" lon="-3.653512">
        <ele>1159.021</ele>
        <time>2011-05-23T20:03:35Z</time>
      </trkpt>
      <trkpt lat="40.868547" lon="-3.653419">
        <ele>1157.008</ele>
        <time>2011-05-23T20:03:45Z</time>
      </trkpt>
      <trkpt lat="40.868554" lon="-3.653416">
        <ele>1156.569</ele>
        <time>2011-05-23T20:03:55Z</time>
      </trkpt>
      <trkpt lat="40.868553" lon="-3.653416">
        <ele>1156.014</ele>
        <time>2011-05-23T20:04:05Z</time>
      </trkpt>
      <trkpt lat="40.868555" lon="-3.653407">
        <ele>1156.024</ele>
        <time>2011-05-23T20:04:15Z</time>
      </trkpt>
      <trkpt lat="40.868575" lon="-3.653367">
        <ele>1155.154</ele>
        <time>2011-05-23T20:04:25Z</time>
      </trkpt>
      <trkpt lat="40.868596" lon="-3.653253">
        <ele>1154.155</ele>
        <time>2011-05-23T20:04:35Z</time>
      </trkpt>
      <trkpt lat="40.868642" lon="-3.653106">
        <ele>1152.315</ele>
        <time>2011-05-23T20:04:45Z</time>
      </trkpt>
      <trkpt lat="40.868661" lon="-3.652935">
        <ele>1152.853</ele>
        <time>2011-05-23T20:04:55Z</time>
      </trkpt>
      <trkpt lat="40.868674" lon="-3.652781">
        <ele>1151.895</ele>
        <time>2011-05-23T20:05:05Z</time>
      </trkpt>
      <trkpt lat="40.868661" lon="-3.652616">
        <ele>1150.383</ele>
        <time>2011-05-23T20:05:15Z</time>
      </trkpt>
      <trkpt lat="40.868637" lon="-3.652472">
        <ele>1149.925</ele>
        <time>2011-05-23T20:05:25Z</time>
      </trkpt>
      <trkpt lat="40.868595" lon="-3.652340">
        <ele>1148.917</ele>
        <time>2011-05-23T20:05:35Z</time>
      </trkpt>
      <trkpt lat="40.868511" lon="-3.652374">
        <ele>1146.508</ele>
        <time>2011-05-23T20:05:45Z</time>
      </trkpt>
      <trkpt lat="40.868451" lon="-3.652421">
        <ele>1145.084</ele>
        <time>2011-05-23T20:05:55Z</time>
      </trkpt>
      <trkpt lat="40.868427" lon="-3.652340">
        <ele>1144.089</ele>
        <time>2011-05-23T20:06:05Z</time>
      </trkpt>
      <trkpt lat="40.868396" lon="-3.652298">
        <ele>1144.059</ele>
        <time>2011-05-23T20:06:15Z</time>
      </trkpt>
      <trkpt lat="40.868371" lon="-3.652300">
        <ele>1142.699</ele>
        <time>2011-05-23T20:06:25Z</time>
      </trkpt>
      <trkpt lat="40.868322" lon="-3.652231">
        <ele>1140.350</ele>
        <time>2011-05-23T20:06:35Z</time>
      </trkpt>
      <trkpt lat="40.868290" lon="-3.652155">
        <ele>1137.930</ele>
        <time>2011-05-23T20:06:45Z</time>
      </trkpt>
      <trkpt lat="40.868218" lon="-3.652118">
        <ele>1135.438</ele>
        <time>2011-05-23T20:06:55Z</time>
      </trkpt>
      <trkpt lat="40.868192" lon="-3.652033">
        <ele>1134.050</ele>
        <time>2011-05-23T20:07:05Z</time>
      </trkpt>
      <trkpt lat="40.868126" lon="-3.651922">
        <ele>1132.036</ele>
        <time>2011-05-23T20:07:15Z</time>
      </trkpt>
      <trkpt lat="40.868086" lon="-3.651812">
        <ele>1130.617</ele>
        <time>2011-05-23T20:07:25Z</time>
      </trkpt>
      <trkpt lat="40.868051" lon="-3.651708">
        <ele>1129.618</ele>
        <time>2011-05-23T20:07:35Z</time>
      </trkpt>
      <trkpt lat="40.868046" lon="-3.651599">
        <ele>1128.608</ele>
        <time>2011-05-23T20:07:45Z</time>
      </trkpt>
      <trkpt lat="40.868012" lon="-3.651500">
        <ele>1125.819</ele>
        <time>2011-05-23T20:07:55Z</time>
      </trkpt>
      <trkpt lat="40.867922" lon="-3.651366">
        <ele>1124.454</ele>
        <time>2011-05-23T20:08:05Z</time>
      </trkpt>
      <trkpt lat="40.867927" lon="-3.651270">
        <ele>1122.084</ele>
        <time>2011-05-23T20:08:15Z</time>
      </trkpt>
      <trkpt lat="40.867905" lon="-3.651141">
        <ele>1120.554</ele>
        <time>2011-05-23T20:08:25Z</time>
      </trkpt>
      <trkpt lat="40.867861" lon="-3.651048">
        <ele>1119.045</ele>
        <time>2011-05-23T20:08:34Z</time>
      </trkpt>
      <trkpt lat="40.867874" lon="-3.650969">
        <ele>1115.355</ele>
        <time>2011-05-23T20:08:44Z</time>
      </trkpt>
      <trkpt lat="40.867908" lon="-3.650843">
        <ele>1114.363</ele>
        <time>2011-05-23T20:08:54Z</time>
      </trkpt>
      <trkpt lat="40.867895" lon="-3.650730">
        <ele>1112.485</ele>
        <time>2011-05-23T20:09:04Z</time>
      </trkpt>
      <trkpt lat="40.867899" lon="-3.650682">
        <ele>1112.413</ele>
        <time>2011-05-23T20:09:14Z</time>
      </trkpt>
      <trkpt lat="40.867906" lon="-3.650598">
        <ele>1111.943</ele>
        <time>2011-05-23T20:09:24Z</time>
      </trkpt>
      <trkpt lat="40.867904" lon="-3.650578">
        <ele>1110.907</ele>
        <time>2011-05-23T20:09:34Z</time>
      </trkpt>
      <trkpt lat="40.867909" lon="-3.650566">
        <ele>1110.508</ele>
        <time>2011-05-23T20:09:44Z</time>
      </trkpt>
      <trkpt lat="40.867895" lon="-3.650478">
        <ele>1108.077</ele>
        <time>2011-05-23T20:09:54Z</time>
      </trkpt>
      <trkpt lat="40.867834" lon="-3.650357">
        <ele>1106.082</ele>
        <time>2011-05-23T20:10:04Z</time>
      </trkpt>
      <trkpt lat="40.867826" lon="-3.650248">
        <ele>1104.632</ele>
        <time>2011-05-23T20:10:14Z</time>
      </trkpt>
      <trkpt lat="40.867741" lon="-3.650131">
        <ele>1102.322</ele>
        <time>2011-05-23T20:10:24Z</time>
      </trkpt>
      <trkpt lat="40.867708" lon="-3.649994">
        <ele>1100.853</ele>
        <time>2011-05-23T20:10:34Z</time>
      </trkpt>
      <trkpt lat="40.867633" lon="-3.649880">
        <ele>1099.483</ele>
        <time>2011-05-23T20:10:44Z</time>
      </trkpt>
      <trkpt lat="40.867622" lon="-3.649849">
        <ele>1099.941</ele>
        <time>2011-05-23T20:10:54Z</time>
      </trkpt>
      <trkpt lat="40.867627" lon="-3.649836">
        <ele>1099.483</ele>
        <time>2011-05-23T20:11:04Z</time>
      </trkpt>
      <trkpt lat="40.867607" lon="-3.649697">
        <ele>1099.958</ele>
        <time>2011-05-23T20:11:14Z</time>
      </trkpt>
      <trkpt lat="40.867572" lon="-3.649558">
        <ele>1099.952</ele>
        <time>2011-05-23T20:11:24Z</time>
      </trkpt>
      <trkpt lat="40.867555" lon="-3.649403">
        <ele>1100.417</ele>
        <time>2011-05-23T20:11:34Z</time>
      </trkpt>
      <trkpt lat="40.867538" lon="-3.649156">
        <ele>1097.508</ele>
        <time>2011-05-23T20:17:04Z</time>
      </trkpt>
      <trkpt lat="40.867526" lon="-3.649146">
        <ele>1098.071</ele>
        <time>2011-05-23T20:17:14Z</time>
      </trkpt>
      <trkpt lat="40.867518" lon="-3.649109">
        <ele>1097.546</ele>
        <time>2011-05-23T20:17:24Z</time>
      </trkpt>
      <trkpt lat="40.867482" lon="-3.648992">
        <ele>1096.576</ele>
        <time>2011-05-23T20:17:34Z</time>
      </trkpt>
      <trkpt lat="40.867427" lon="-3.648835">
        <ele>1096.076</ele>
        <time>2011-05-23T20:17:44Z</time>
      </trkpt>
      <trkpt lat="40.867347" lon="-3.648706">
        <ele>1094.577</ele>
        <time>2011-05-23T20:17:54Z</time>
      </trkpt>
      <trkpt lat="40.867340" lon="-3.648649">
        <ele>1094.567</ele>
        <time>2011-05-23T20:18:04Z</time>
      </trkpt>
      <trkpt lat="40.867340" lon="-3.648648">
        <ele>1094.525</ele>
        <time>2011-05-23T20:18:14Z</time>
      </trkpt>
      <trkpt lat="40.867340" lon="-3.648647">
        <ele>1094.547</ele>
        <time>2011-05-23T20:18:24Z</time>
      </trkpt>
      <trkpt lat="40.867302" lon="-3.648557">
        <ele>1095.534</ele>
        <time>2011-05-23T20:18:34Z</time>
      </trkpt>
      <trkpt lat="40.867257" lon="-3.648463">
        <ele>1097.055</ele>
        <time>2011-05-23T20:18:44Z</time>
      </trkpt>
      <trkpt lat="40.867251" lon="-3.648330">
        <ele>1099.410</ele>
        <time>2011-05-23T20:18:54Z</time>
      </trkpt>
      <trkpt lat="40.867273" lon="-3.648274">
        <ele>1099.908</ele>
        <time>2011-05-23T20:19:34Z</time>
      </trkpt>
      <trkpt lat="40.867286" lon="-3.648223">
        <ele>1100.899</ele>
        <time>2011-05-23T20:19:54Z</time>
      </trkpt>
      <trkpt lat="40.867285" lon="-3.648093">
        <ele>1101.314</ele>
        <time>2011-05-23T20:20:04Z</time>
      </trkpt>
      <trkpt lat="40.867201" lon="-3.647955">
        <ele>1103.144</ele>
        <time>2011-05-23T20:20:14Z</time>
      </trkpt>
      <trkpt lat="40.867109" lon="-3.647859">
        <ele>1103.614</ele>
        <time>2011-05-23T20:20:44Z</time>
      </trkpt>
      <trkpt lat="40.867106" lon="-3.647850">
        <ele>1103.155</ele>
        <time>2011-05-23T20:20:54Z</time>
      </trkpt>
      <trkpt lat="40.867066" lon="-3.647729">
        <ele>1103.195</ele>
        <time>2011-05-23T20:21:04Z</time>
      </trkpt>
      <trkpt lat="40.867020" lon="-3.647563">
        <ele>1103.143</ele>
        <time>2011-05-23T20:21:14Z</time>
      </trkpt>
      <trkpt lat="40.866972" lon="-3.647380">
        <ele>1103.665</ele>
        <time>2011-05-23T20:21:24Z</time>
      </trkpt>
      <trkpt lat="40.866904" lon="-3.647238">
        <ele>1102.888</ele>
        <time>2011-05-23T20:21:34Z</time>
      </trkpt>
      <trkpt lat="40.866855" lon="-3.647072">
        <ele>1101.824</ele>
        <time>2011-05-23T20:21:44Z</time>
      </trkpt>
      <trkpt lat="40.866809" lon="-3.646884">
        <ele>1101.326</ele>
        <time>2011-05-23T20:21:54Z</time>
      </trkpt>
      <trkpt lat="40.866758" lon="-3.646722">
        <ele>1101.808</ele>
        <time>2011-05-23T20:22:04Z</time>
      </trkpt>
      <trkpt lat="40.866736" lon="-3.646556">
        <ele>1102.874</ele>
        <time>2011-05-23T20:22:14Z</time>
      </trkpt>
      <trkpt lat="40.866701" lon="-3.646378">
        <ele>1103.159</ele>
        <time>2011-05-23T20:22:24Z</time>
      </trkpt>
      <trkpt lat="40.866674" lon="-3.646228">
        <ele>1104.189</ele>
        <time>2011-05-23T20:22:34Z</time>
      </trkpt>
      <trkpt lat="40.866680" lon="-3.646067">
        <ele>1106.029</ele>
        <time>2011-05-23T20:22:44Z</time>
      </trkpt>
      <trkpt lat="40.866632" lon="-3.645920">
        <ele>1106.060</ele>
        <time>2011-05-23T20:22:54Z</time>
      </trkpt>
      <trkpt lat="40.866677" lon="-3.645782">
        <ele>1107.030</ele>
        <time>2011-05-23T20:23:04Z</time>
      </trkpt>
      <trkpt lat="40.866679" lon="-3.645621">
        <ele>1108.538</ele>
        <time>2011-05-23T20:23:14Z</time>
      </trkpt>
      <trkpt lat="40.866727" lon="-3.645469">
        <ele>1107.570</ele>
        <time>2011-05-23T20:23:24Z</time>
      </trkpt>
      <trkpt lat="40.866761" lon="-3.645300">
        <ele>1108.053</ele>
        <time>2011-05-23T20:23:34Z</time>
      </trkpt>
      <trkpt lat="40.866810" lon="-3.645199">
        <ele>1110.504</ele>
        <time>2011-05-23T20:23:43Z</time>
      </trkpt>
      <trkpt lat="40.866835" lon="-3.645073">
        <ele>1112.914</ele>
        <time>2011-05-23T20:23:53Z</time>
      </trkpt>
      <trkpt lat="40.866768" lon="-3.644979">
        <ele>1113.808</ele>
        <time>2011-05-23T20:24:03Z</time>
      </trkpt>
      <trkpt lat="40.866704" lon="-3.644870">
        <ele>1115.391</ele>
        <time>2011-05-23T20:24:13Z</time>
      </trkpt>
      <trkpt lat="40.866669" lon="-3.644751">
        <ele>1117.126</ele>
        <time>2011-05-23T20:24:23Z</time>
      </trkpt>
      <trkpt lat="40.866622" lon="-3.644688">
        <ele>1119.526</ele>
        <time>2011-05-23T20:24:33Z</time>
      </trkpt>
      <trkpt lat="40.866629" lon="-3.644588">
        <ele>1121.066</ele>
        <time>2011-05-23T20:24:43Z</time>
      </trkpt>
      <trkpt lat="40.866605" lon="-3.644551">
        <ele>1122.067</ele>
        <time>2011-05-23T20:24:53Z</time>
      </trkpt>
      <trkpt lat="40.866588" lon="-3.644451">
        <ele>1123.497</ele>
        <time>2011-05-23T20:25:03Z</time>
      </trkpt>
      <trkpt lat="40.866574" lon="-3.644181">
        <ele>1125.895</ele>
        <time>2011-05-23T20:26:23Z</time>
      </trkpt>
      <trkpt lat="40.866622" lon="-3.644130">
        <ele>1127.827</ele>
        <time>2011-05-23T20:26:33Z</time>
      </trkpt>
      <trkpt lat="40.866673" lon="-3.644013">
        <ele>1129.136</ele>
        <time>2011-05-23T20:26:43Z</time>
      </trkpt>
      <trkpt lat="40.866790" lon="-3.643927">
        <ele>1132.017</ele>
        <time>2011-05-23T20:26:53Z</time>
      </trkpt>
      <trkpt lat="40.866864" lon="-3.643774">
        <ele>1133.018</ele>
        <time>2011-05-23T20:27:03Z</time>
      </trkpt>
      <trkpt lat="40.866914" lon="-3.643689">
        <ele>1133.508</ele>
        <time>2011-05-23T20:27:13Z</time>
      </trkpt>
      <trkpt lat="40.866952" lon="-3.643617">
        <ele>1134.089</ele>
        <time>2011-05-23T20:27:23Z</time>
      </trkpt>
      <trkpt lat="40.866970" lon="-3.643393">
        <ele>1135.054</ele>
        <time>2011-05-23T20:27:33Z</time>
      </trkpt>
      <trkpt lat="40.867047" lon="-3.643259">
        <ele>1135.424</ele>
        <time>2011-05-23T20:27:43Z</time>
      </trkpt>
      <trkpt lat="40.867121" lon="-3.643106">
        <ele>1136.464</ele>
        <time>2011-05-23T20:27:53Z</time>
      </trkpt>
      <trkpt lat="40.867201" lon="-3.642970">
        <ele>1137.465</ele>
        <time>2011-05-23T20:28:03Z</time>
      </trkpt>
      <trkpt lat="40.867249" lon="-3.642824">
        <ele>1138.315</ele>
        <time>2011-05-23T20:28:13Z</time>
      </trkpt>
      <trkpt lat="40.867300" lon="-3.642701">
        <ele>1138.893</ele>
        <time>2011-05-23T20:28:23Z</time>
      </trkpt>
      <trkpt lat="40.867391" lon="-3.642553">
        <ele>1139.365</ele>
        <time>2011-05-23T20:28:33Z</time>
      </trkpt>
      <trkpt lat="40.867511" lon="-3.642420">
        <ele>1140.383</ele>
        <time>2011-05-23T20:28:43Z</time>
      </trkpt>
      <trkpt lat="40.867557" lon="-3.642286">
        <ele>1140.625</ele>
        <time>2011-05-23T20:28:53Z</time>
      </trkpt>
      <trkpt lat="40.867651" lon="-3.642143">
        <ele>1141.117</ele>
        <time>2011-05-23T20:29:03Z</time>
      </trkpt>
      <trkpt lat="40.867723" lon="-3.642003">
        <ele>1142.108</ele>
        <time>2011-05-23T20:29:13Z</time>
      </trkpt>
      <trkpt lat="40.867769" lon="-3.641897">
        <ele>1143.024</ele>
        <time>2011-05-23T20:29:23Z</time>
      </trkpt>
      <trkpt lat="40.867827" lon="-3.641824">
        <ele>1143.539</ele>
        <time>2011-05-23T20:29:33Z</time>
      </trkpt>
      <trkpt lat="40.867885" lon="-3.641676">
        <ele>1144.579</ele>
        <time>2011-05-23T20:29:43Z</time>
      </trkpt>
      <trkpt lat="40.867871" lon="-3.641546">
        <ele>1146.019</ele>
        <time>2011-05-23T20:29:53Z</time>
      </trkpt>
      <trkpt lat="40.867906" lon="-3.641404">
        <ele>1146.590</ele>
        <time>2011-05-23T20:30:03Z</time>
      </trkpt>
      <trkpt lat="40.867927" lon="-3.641311">
        <ele>1147.540</ele>
        <time>2011-05-23T20:30:13Z</time>
      </trkpt>
      <trkpt lat="40.867890" lon="-3.641179">
        <ele>1142.188</ele>
        <time>2011-05-23T20:34:53Z</time>
      </trkpt>
      <trkpt lat="40.867940" lon="-3.641111">
        <ele>1142.650</ele>
        <time>2011-05-23T20:35:03Z</time>
      </trkpt>
      <trkpt lat="40.868001" lon="-3.641058">
        <ele>1143.597</ele>
        <time>2011-05-23T20:35:13Z</time>
      </trkpt>
      <trkpt lat="40.868085" lon="-3.640999">
        <ele>1145.023</ele>
        <time>2011-05-23T20:35:23Z</time>
      </trkpt>
      <trkpt lat="40.868204" lon="-3.640885">
        <ele>1146.025</ele>
        <time>2011-05-23T20:35:33Z</time>
      </trkpt>
      <trkpt lat="40.868350" lon="-3.640779">
        <ele>1146.508</ele>
        <time>2011-05-23T20:35:43Z</time>
      </trkpt>
      <trkpt lat="40.868476" lon="-3.640728">
        <ele>1147.915</ele>
        <time>2011-05-23T20:35:53Z</time>
      </trkpt>
      <trkpt lat="40.868651" lon="-3.640611">
        <ele>1147.510</ele>
        <time>2011-05-23T20:36:03Z</time>
      </trkpt>
      <trkpt lat="40.868754" lon="-3.640580">
        <ele>1147.510</ele>
        <time>2011-05-23T20:36:13Z</time>
      </trkpt>
      <trkpt lat="40.868816" lon="-3.640485">
        <ele>1147.520</ele>
        <time>2011-05-23T20:36:23Z</time>
      </trkpt>
      <trkpt lat="40.868794" lon="-3.640284">
        <ele>1147.591</ele>
        <time>2011-05-23T20:36:33Z</time>
      </trkpt>
      <trkpt lat="40.868771" lon="-3.640140">
        <ele>1147.961</ele>
        <time>2011-05-23T20:36:43Z</time>
      </trkpt>
      <trkpt lat="40.868741" lon="-3.639948">
        <ele>1147.949</ele>
        <time>2011-05-23T20:36:53Z</time>
      </trkpt>
      <trkpt lat="40.868748" lon="-3.639782">
        <ele>1148.451</ele>
        <time>2011-05-23T20:37:03Z</time>
      </trkpt>
      <trkpt lat="40.868716" lon="-3.639617">
        <ele>1147.582</ele>
        <time>2011-05-23T20:37:13Z</time>
      </trkpt>
      <trkpt lat="40.868673" lon="-3.639487">
        <ele>1146.543</ele>
        <time>2011-05-23T20:37:23Z</time>
      </trkpt>
      <trkpt lat="40.868622" lon="-3.639365">
        <ele>1146.517</ele>
        <time>2011-05-23T20:37:33Z</time>
      </trkpt>
      <trkpt lat="40.868575" lon="-3.639266">
        <ele>1145.508</ele>
        <time>2011-05-23T20:37:43Z</time>
      </trkpt>
      <trkpt lat="40.868515" lon="-3.639114">
        <ele>1145.084</ele>
        <time>2011-05-23T20:37:53Z</time>
      </trkpt>
      <trkpt lat="40.868479" lon="-3.638970">
        <ele>1143.539</ele>
        <time>2011-05-23T20:38:03Z</time>
      </trkpt>
      <trkpt lat="40.868441" lon="-3.638881">
        <ele>1141.629</ele>
        <time>2011-05-23T20:38:13Z</time>
      </trkpt>
      <trkpt lat="40.868421" lon="-3.638813">
        <ele>1141.199</ele>
        <time>2011-05-23T20:38:23Z</time>
      </trkpt>
      <trkpt lat="40.868328" lon="-3.638770">
        <ele>1139.310</ele>
        <time>2011-05-23T20:38:33Z</time>
      </trkpt>
      <trkpt lat="40.868272" lon="-3.638731">
        <ele>1137.950</ele>
        <time>2011-05-23T20:38:43Z</time>
      </trkpt>
      <trkpt lat="40.868272" lon="-3.638740">
        <ele>1137.978</ele>
        <time>2011-05-23T20:38:53Z</time>
      </trkpt>
      <trkpt lat="40.868274" lon="-3.638734">
        <ele>1137.930</ele>
        <time>2011-05-23T20:39:03Z</time>
      </trkpt>
      <trkpt lat="40.868253" lon="-3.638716">
        <ele>1137.465</ele>
        <time>2011-05-23T20:39:13Z</time>
      </trkpt>
      <trkpt lat="40.868261" lon="-3.638660">
        <ele>1136.968</ele>
        <time>2011-05-23T20:39:23Z</time>
      </trkpt>
      <trkpt lat="40.868269" lon="-3.638666">
        <ele>1136.414</ele>
        <time>2011-05-23T20:39:33Z</time>
      </trkpt>
      <trkpt lat="40.868278" lon="-3.638686">
        <ele>1136.408</ele>
        <time>2011-05-23T20:39:43Z</time>
      </trkpt>
      <trkpt lat="40.868280" lon="-3.638688">
        <ele>1136.432</ele>
        <time>2011-05-23T20:39:53Z</time>
      </trkpt>
      <trkpt lat="40.868265" lon="-3.638702">
        <ele>1136.477</ele>
        <time>2011-05-23T20:40:03Z</time>
      </trkpt>
      <trkpt lat="40.868268" lon="-3.638744">
        <ele>1137.997</ele>
        <time>2011-05-23T20:40:13Z</time>
      </trkpt>
      <trkpt lat="40.868227" lon="-3.638632">
        <ele>1136.917</ele>
        <time>2011-05-23T20:40:23Z</time>
      </trkpt>
      <trkpt lat="40.868200" lon="-3.638484">
        <ele>1135.448</ele>
        <time>2011-05-23T20:40:33Z</time>
      </trkpt>
      <trkpt lat="40.868157" lon="-3.638369">
        <ele>1133.588</ele>
        <time>2011-05-23T20:40:43Z</time>
      </trkpt>
      <trkpt lat="40.868083" lon="-3.638243">
        <ele>1132.036</ele>
        <time>2011-05-23T20:40:53Z</time>
      </trkpt>
      <trkpt lat="40.868067" lon="-3.638049">
        <ele>1130.618</ele>
        <time>2011-05-23T20:41:03Z</time>
      </trkpt>
      <trkpt lat="40.867986" lon="-3.637871">
        <ele>1129.687</ele>
        <time>2011-05-23T20:41:13Z</time>
      </trkpt>
      <trkpt lat="40.867912" lon="-3.637731">
        <ele>1128.142</ele>
        <time>2011-05-23T20:41:23Z</time>
      </trkpt>
      <trkpt lat="40.867855" lon="-3.637596">
        <ele>1126.826</ele>
        <time>2011-05-23T20:41:33Z</time>
      </trkpt>
      <trkpt lat="40.867807" lon="-3.637445">
        <ele>1125.408</ele>
        <time>2011-05-23T20:41:43Z</time>
      </trkpt>
      <trkpt lat="40.867714" lon="-3.637282">
        <ele>1124.494</ele>
        <time>2011-05-23T20:41:53Z</time>
      </trkpt>
      <trkpt lat="40.867631" lon="-3.637147">
        <ele>1123.059</ele>
        <time>2011-05-23T20:42:03Z</time>
      </trkpt>
      <trkpt lat="40.867529" lon="-3.637038">
        <ele>1122.089</ele>
        <time>2011-05-23T20:42:13Z</time>
      </trkpt>
      <trkpt lat="40.867422" lon="-3.636944">
        <ele>1120.539</ele>
        <time>2011-05-23T20:42:23Z</time>
      </trkpt>
      <trkpt lat="40.867424" lon="-3.636704">
        <ele>1119.070</ele>
        <time>2011-05-23T20:42:33Z</time>
      </trkpt>
      <trkpt lat="40.867378" lon="-3.636504">
        <ele>1116.650</ele>
        <time>2011-05-23T20:42:43Z</time>
      </trkpt>
      <trkpt lat="40.867358" lon="-3.636336">
        <ele>1115.378</ele>
        <time>2011-05-23T20:42:53Z</time>
      </trkpt>
      <trkpt lat="40.867319" lon="-3.636248">
        <ele>1113.360</ele>
        <time>2011-05-23T20:43:03Z</time>
      </trkpt>
      <trkpt lat="40.867344" lon="-3.636090">
        <ele>1111.992</ele>
        <time>2011-05-23T20:43:13Z</time>
      </trkpt>
      <trkpt lat="40.867391" lon="-3.635927">
        <ele>1110.073</ele>
        <time>2011-05-23T20:43:23Z</time>
      </trkpt>
      <trkpt lat="40.867402" lon="-3.635734">
        <ele>1108.520</ele>
        <time>2011-05-23T20:43:33Z</time>
      </trkpt>
      <trkpt lat="40.867460" lon="-3.635565">
        <ele>1106.508</ele>
        <time>2011-05-23T20:43:43Z</time>
      </trkpt>
      <trkpt lat="40.867496" lon="-3.635483">
        <ele>1105.185</ele>
        <time>2011-05-23T20:43:53Z</time>
      </trkpt>
      <trkpt lat="40.867619" lon="-3.635359">
        <ele>1103.690</ele>
        <time>2011-05-23T20:44:03Z</time>
      </trkpt>
      <trkpt lat="40.867733" lon="-3.635249">
        <ele>1102.380</ele>
        <time>2011-05-23T20:44:13Z</time>
      </trkpt>
      <trkpt lat="40.867858" lon="-3.635141">
        <ele>1100.840</ele>
        <time>2011-05-23T20:44:23Z</time>
      </trkpt>
      <trkpt lat="40.867902" lon="-3.635015">
        <ele>1100.431</ele>
        <time>2011-05-23T20:44:33Z</time>
      </trkpt>
      <trkpt lat="40.867937" lon="-3.634856">
        <ele>1098.931</ele>
        <time>2011-05-23T20:44:43Z</time>
      </trkpt>
      <trkpt lat="40.867908" lon="-3.634729">
        <ele>1097.529</ele>
        <time>2011-05-23T20:44:53Z</time>
      </trkpt>
      <trkpt lat="40.867900" lon="-3.634613">
        <ele>1095.581</ele>
        <time>2011-05-23T20:45:03Z</time>
      </trkpt>
      <trkpt lat="40.867847" lon="-3.634492">
        <ele>1094.035</ele>
        <time>2011-05-23T20:45:13Z</time>
      </trkpt>
      <trkpt lat="40.867804" lon="-3.634318">
        <ele>1091.686</ele>
        <time>2011-05-23T20:45:23Z</time>
      </trkpt>
      <trkpt lat="40.867752" lon="-3.634134">
        <ele>1090.314</ele>
        <time>2011-05-23T20:45:33Z</time>
      </trkpt>
      <trkpt lat="40.867715" lon="-3.633940">
        <ele>1087.908</ele>
        <time>2011-05-23T20:45:43Z</time>
      </trkpt>
      <trkpt lat="40.867669" lon="-3.633741">
        <ele>1086.489</ele>
        <time>2011-05-23T20:45:53Z</time>
      </trkpt>
      <trkpt lat="40.867630" lon="-3.633573">
        <ele>1085.094</ele>
        <time>2011-05-23T20:46:03Z</time>
      </trkpt>
      <trkpt lat="40.867558" lon="-3.633430">
        <ele>1083.584</ele>
        <time>2011-05-23T20:46:13Z</time>
      </trkpt>
      <trkpt lat="40.867502" lon="-3.633262">
        <ele>1082.524</ele>
        <time>2011-05-23T20:46:23Z</time>
      </trkpt>
      <trkpt lat="40.867410" lon="-3.633120">
        <ele>1081.555</ele>
        <time>2011-05-23T20:46:33Z</time>
      </trkpt>
      <trkpt lat="40.867345" lon="-3.632940">
        <ele>1080.175</ele>
        <time>2011-05-23T20:46:43Z</time>
      </trkpt>
      <trkpt lat="40.867330" lon="-3.632819">
        <ele>1079.683</ele>
        <time>2011-05-23T20:46:53Z</time>
      </trkpt>
      <trkpt lat="40.867281" lon="-3.632677">
        <ele>1078.695</ele>
        <time>2011-05-23T20:47:03Z</time>
      </trkpt>
      <trkpt lat="40.867278" lon="-3.632558">
        <ele>1077.859</ele>
        <time>2011-05-23T20:47:13Z</time>
      </trkpt>
      <trkpt lat="40.867248" lon="-3.632324">
        <ele>1077.803</ele>
        <time>2011-05-23T20:47:23Z</time>
      </trkpt>
      <trkpt lat="40.867190" lon="-3.632145">
        <ele>1076.323</ele>
        <time>2011-05-23T20:47:33Z</time>
      </trkpt>
      <trkpt lat="40.867125" lon="-3.631942">
        <ele>1075.408</ele>
        <time>2011-05-23T20:47:43Z</time>
      </trkpt>
      <trkpt lat="40.867054" lon="-3.631797">
        <ele>1074.481</ele>
        <time>2011-05-23T20:47:53Z</time>
      </trkpt>
      <trkpt lat="40.866969" lon="-3.631659">
        <ele>1073.086</ele>
        <time>2011-05-23T20:48:03Z</time>
      </trkpt>
      <trkpt lat="40.866914" lon="-3.631472">
        <ele>1072.086</ele>
        <time>2011-05-23T20:48:13Z</time>
      </trkpt>
      <trkpt lat="40.866849" lon="-3.631303">
        <ele>1072.076</ele>
        <time>2011-05-23T20:48:23Z</time>
      </trkpt>
      <trkpt lat="40.866809" lon="-3.631093">
        <ele>1070.537</ele>
        <time>2011-05-23T20:48:33Z</time>
      </trkpt>
      <trkpt lat="40.866788" lon="-3.630917">
        <ele>1069.537</ele>
        <time>2011-05-23T20:48:43Z</time>
      </trkpt>
      <trkpt lat="40.866715" lon="-3.630694">
        <ele>1069.025</ele>
        <time>2011-05-23T20:48:53Z</time>
      </trkpt>
      <trkpt lat="40.866593" lon="-3.630485">
        <ele>1068.127</ele>
        <time>2011-05-23T20:49:03Z</time>
      </trkpt>
      <trkpt lat="40.866566" lon="-3.630375">
        <ele>1067.129</ele>
        <time>2011-05-23T20:49:13Z</time>
      </trkpt>
      <trkpt lat="40.866522" lon="-3.630230">
        <ele>1066.600</ele>
        <time>2011-05-23T20:49:23Z</time>
      </trkpt>
      <trkpt lat="40.866423" lon="-3.629976">
        <ele>1065.820</ele>
        <time>2011-05-23T20:49:33Z</time>
      </trkpt>
      <trkpt lat="40.866360" lon="-3.629719">
        <ele>1064.308</ele>
        <time>2011-05-23T20:49:43Z</time>
      </trkpt>
      <trkpt lat="40.866294" lon="-3.629489">
        <ele>1063.898</ele>
        <time>2011-05-23T20:49:53Z</time>
      </trkpt>
      <trkpt lat="40.866229" lon="-3.629357">
        <ele>1063.453</ele>
        <time>2011-05-23T20:50:03Z</time>
      </trkpt>
      <trkpt lat="40.866211" lon="-3.629169">
        <ele>1062.923</ele>
        <time>2011-05-23T20:50:13Z</time>
      </trkpt>
      <trkpt lat="40.866191" lon="-3.628997">
        <ele>1061.983</ele>
        <time>2011-05-23T20:50:23Z</time>
      </trkpt>
      <trkpt lat="40.866146" lon="-3.628877">
        <ele>1061.484</ele>
        <time>2011-05-23T20:50:33Z</time>
      </trkpt>
      <trkpt lat="40.866027" lon="-3.628744">
        <ele>1060.944</ele>
        <time>2011-05-23T20:50:43Z</time>
      </trkpt>
      <trkpt lat="40.866010" lon="-3.628568">
        <ele>1060.572</ele>
        <time>2011-05-23T20:50:53Z</time>
      </trkpt>
      <trkpt lat="40.865866" lon="-3.628456">
        <ele>1060.544</ele>
        <time>2011-05-23T20:51:03Z</time>
      </trkpt>
      <trkpt lat="40.865849" lon="-3.628283">
        <ele>1060.091</ele>
        <time>2011-05-23T20:51:13Z</time>
      </trkpt>
      <trkpt lat="40.865777" lon="-3.628137">
        <ele>1060.081</ele>
        <time>2011-05-23T20:51:23Z</time>
      </trkpt>
      <trkpt lat="40.865727" lon="-3.627976">
        <ele>1059.519</ele>
        <time>2011-05-23T20:51:33Z</time>
      </trkpt>
      <trkpt lat="40.865669" lon="-3.627858">
        <ele>1059.508</ele>
        <time>2011-05-23T20:51:43Z</time>
      </trkpt>
      <trkpt lat="40.865588" lon="-3.627769">
        <ele>1059.545</ele>
        <time>2011-05-23T20:51:53Z</time>
      </trkpt>
      <trkpt lat="40.865547" lon="-3.627617">
        <ele>1059.040</ele>
        <time>2011-05-23T20:52:03Z</time>
      </trkpt>
      <trkpt lat="40.865425" lon="-3.627543">
        <ele>1058.560</ele>
        <time>2011-05-23T20:52:13Z</time>
      </trkpt>
      <trkpt lat="40.865339" lon="-3.627385">
        <ele>1058.550</ele>
        <time>2011-05-23T20:52:23Z</time>
      </trkpt>
      <trkpt lat="40.865272" lon="-3.627241">
        <ele>1057.591</ele>
        <time>2011-05-23T20:52:33Z</time>
      </trkpt>
      <trkpt lat="40.865174" lon="-3.627145">
        <ele>1057.051</ele>
        <time>2011-05-23T20:52:43Z</time>
      </trkpt>
      <trkpt lat="40.865089" lon="-3.626991">
        <ele>1056.159</ele>
        <time>2011-05-23T20:52:53Z</time>
      </trkpt>
      <trkpt lat="40.865016" lon="-3.626867">
        <ele>1055.651</ele>
        <time>2011-05-23T20:53:03Z</time>
      </trkpt>
      <trkpt lat="40.864906" lon="-3.626781">
        <ele>1054.672</ele>
        <time>2011-05-23T20:53:13Z</time>
      </trkpt>
      <trkpt lat="40.864824" lon="-3.626672">
        <ele>1053.613</ele>
        <time>2011-05-23T20:53:23Z</time>
      </trkpt>
      <trkpt lat="40.864752" lon="-3.626506">
        <ele>1052.814</ele>
        <time>2011-05-23T20:53:33Z</time>
      </trkpt>
      <trkpt lat="40.864658" lon="-3.626391">
        <ele>1051.808</ele>
        <time>2011-05-23T20:53:43Z</time>
      </trkpt>
      <trkpt lat="40.864627" lon="-3.626190">
        <ele>1050.993</ele>
        <time>2011-05-23T20:53:53Z</time>
      </trkpt>
      <trkpt lat="40.864563" lon="-3.626044">
        <ele>1048.988</ele>
        <time>2011-05-23T20:54:03Z</time>
      </trkpt>
      <trkpt lat="40.864524" lon="-3.625856">
        <ele>1047.058</ele>
        <time>2011-05-23T20:54:13Z</time>
      </trkpt>
      <trkpt lat="40.864498" lon="-3.625718">
        <ele>1045.578</ele>
        <time>2011-05-23T20:54:23Z</time>
      </trkpt>
      <trkpt lat="40.864508" lon="-3.625440">
        <ele>1044.019</ele>
        <time>2011-05-23T20:54:33Z</time>
      </trkpt>
      <trkpt lat="40.864498" lon="-3.625225">
        <ele>1042.179</ele>
        <time>2011-05-23T20:54:43Z</time>
      </trkpt>
      <trkpt lat="40.864502" lon="-3.625039">
        <ele>1040.877</ele>
        <time>2011-05-23T20:54:53Z</time>
      </trkpt>
      <trkpt lat="40.864494" lon="-3.624840">
        <ele>1039.379</ele>
        <time>2011-05-23T20:55:03Z</time>
      </trkpt>
      <trkpt lat="40.864482" lon="-3.624664">
        <ele>1037.963</ele>
        <time>2011-05-23T20:55:13Z</time>
      </trkpt>
      <trkpt lat="40.864465" lon="-3.624499">
        <ele>1036.044</ele>
        <time>2011-05-23T20:55:23Z</time>
      </trkpt>
      <trkpt lat="40.864377" lon="-3.624360">
        <ele>1034.518</ele>
        <time>2011-05-23T20:55:33Z</time>
      </trkpt>
      <trkpt lat="40.864284" lon="-3.624218">
        <ele>1033.008</ele>
        <time>2011-05-23T20:55:43Z</time>
      </trkpt>
      <trkpt lat="40.864242" lon="-3.624155">
        <ele>1031.532</ele>
        <time>2011-05-23T20:55:53Z</time>
      </trkpt>
      <trkpt lat="40.864193" lon="-3.623971">
        <ele>1030.177</ele>
        <time>2011-05-23T20:56:03Z</time>
      </trkpt>
      <trkpt lat="40.864149" lon="-3.623786">
        <ele>1027.867</ele>
        <time>2011-05-23T20:56:13Z</time>
      </trkpt>
      <trkpt lat="40.864110" lon="-3.623634">
        <ele>1025.967</ele>
        <time>2011-05-23T20:56:23Z</time>
      </trkpt>
      <trkpt lat="40.864062" lon="-3.623471">
        <ele>1023.978</ele>
        <time>2011-05-23T20:56:33Z</time>
      </trkpt>
      <trkpt lat="40.864071" lon="-3.623273">
        <ele>1022.518</ele>
        <time>2011-05-23T20:56:43Z</time>
      </trkpt>
      <trkpt lat="40.864064" lon="-3.623101">
        <ele>1021.566</ele>
        <time>2011-05-23T20:56:53Z</time>
      </trkpt>
      <trkpt lat="40.864126" lon="-3.622885">
        <ele>1020.518</ele>
        <time>2011-05-23T20:57:03Z</time>
      </trkpt>
      <trkpt lat="40.864177" lon="-3.622683">
        <ele>1019.078</ele>
        <time>2011-05-23T20:57:13Z</time>
      </trkpt>
      <trkpt lat="40.864230" lon="-3.622530">
        <ele>1018.233</ele>
        <time>2011-05-23T20:57:23Z</time>
      </trkpt>
      <trkpt lat="40.864315" lon="-3.622301">
        <ele>1017.226</ele>
        <time>2011-05-23T20:57:33Z</time>
      </trkpt>
      <trkpt lat="40.864295" lon="-3.622131">
        <ele>1016.708</ele>
        <time>2011-05-23T20:57:43Z</time>
      </trkpt>
      <trkpt lat="40.864232" lon="-3.621977">
        <ele>1015.793</ele>
        <time>2011-05-23T20:57:53Z</time>
      </trkpt>
      <trkpt lat="40.864203" lon="-3.621823">
        <ele>1015.218</ele>
        <time>2011-05-23T20:58:03Z</time>
      </trkpt>
      <trkpt lat="40.864175" lon="-3.621665">
        <ele>1014.718</ele>
        <time>2011-05-23T20:58:13Z</time>
      </trkpt>
      <trkpt lat="40.864162" lon="-3.621493">
        <ele>1014.228</ele>
        <time>2011-05-23T20:58:23Z</time>
      </trkpt>
      <trkpt lat="40.864129" lon="-3.621306">
        <ele>1013.799</ele>
        <time>2011-05-23T20:58:33Z</time>
      </trkpt>
      <trkpt lat="40.864072" lon="-3.621113">
        <ele>1013.499</ele>
        <time>2011-05-23T20:58:43Z</time>
      </trkpt>
      <trkpt lat="40.863934" lon="-3.620971">
        <ele>1012.437</ele>
        <time>2011-05-23T20:58:53Z</time>
      </trkpt>
      <trkpt lat="40.863880" lon="-3.620876">
        <ele>1011.999</ele>
        <time>2011-05-23T20:59:03Z</time>
      </trkpt>
      <trkpt lat="40.863821" lon="-3.620734">
        <ele>1011.465</ele>
        <time>2011-05-23T20:59:13Z</time>
      </trkpt>
      <trkpt lat="40.863771" lon="-3.620543">
        <ele>1010.568</ele>
        <time>2011-05-23T20:59:23Z</time>
      </trkpt>
      <trkpt lat="40.863723" lon="-3.620396">
        <ele>1010.014</ele>
        <time>2011-05-23T20:59:33Z</time>
      </trkpt>
      <trkpt lat="40.863622" lon="-3.620246">
        <ele>1009.508</ele>
        <time>2011-05-23T20:59:43Z</time>
      </trkpt>
      <trkpt lat="40.863558" lon="-3.620112">
        <ele>1009.052</ele>
        <time>2011-05-23T20:59:53Z</time>
      </trkpt>
      <trkpt lat="40.863501" lon="-3.619936">
        <ele>1008.047</ele>
        <time>2011-05-23T21:00:03Z</time>
      </trkpt>
      <trkpt lat="40.863400" lon="-3.619795">
        <ele>1007.077</ele>
        <time>2011-05-23T21:00:13Z</time>
      </trkpt>
      <trkpt lat="40.863355" lon="-3.619658">
        <ele>1006.577</ele>
        <time>2011-05-23T21:00:23Z</time>
      </trkpt>
      <trkpt lat="40.863258" lon="-3.619547">
        <ele>1006.218</ele>
        <time>2011-05-23T21:00:33Z</time>
      </trkpt>
      <trkpt lat="40.863152" lon="-3.619353">
        <ele>1005.278</ele>
        <time>2011-05-23T21:00:43Z</time>
      </trkpt>
      <trkpt lat="40.863086" lon="-3.619219">
        <ele>1003.216</ele>
        <time>2011-05-23T21:00:53Z</time>
      </trkpt>
      <trkpt lat="40.862992" lon="-3.619112">
        <ele>1001.758</ele>
        <time>2011-05-23T21:01:03Z</time>
      </trkpt>
      <trkpt lat="40.862935" lon="-3.618944">
        <ele>999.976</ele>
        <time>2011-05-23T21:01:13Z</time>
      </trkpt>
      <trkpt lat="40.862913" lon="-3.618800">
        <ele>999.090</ele>
        <time>2011-05-23T21:01:23Z</time>
      </trkpt>
      <trkpt lat="40.862992" lon="-3.618646">
        <ele>998.019</ele>
        <time>2011-05-23T21:01:33Z</time>
      </trkpt>
      <trkpt lat="40.863063" lon="-3.618476">
        <ele>998.008</ele>
        <time>2011-05-23T21:01:43Z</time>
      </trkpt>
      <trkpt lat="40.863161" lon="-3.618368">
        <ele>998.073</ele>
        <time>2011-05-23T21:01:53Z</time>
      </trkpt>
      <trkpt lat="40.863284" lon="-3.618237">
        <ele>997.558</ele>
        <time>2011-05-23T21:02:03Z</time>
      </trkpt>
      <trkpt lat="40.863374" lon="-3.618155">
        <ele>997.098</ele>
        <time>2011-05-23T21:02:13Z</time>
      </trkpt>
      <trkpt lat="40.863461" lon="-3.618009">
        <ele>997.078</ele>
        <time>2011-05-23T21:02:23Z</time>
      </trkpt>
      <trkpt lat="40.863491" lon="-3.617900">
        <ele>996.039</ele>
        <time>2011-05-23T21:02:33Z</time>
      </trkpt>
      <trkpt lat="40.863426" lon="-3.617726">
        <ele>995.549</ele>
        <time>2011-05-23T21:02:43Z</time>
      </trkpt>
      <trkpt lat="40.863327" lon="-3.617597">
        <ele>995.027</ele>
        <time>2011-05-23T21:02:53Z</time>
      </trkpt>
      <trkpt lat="40.863211" lon="-3.617492">
        <ele>994.079</ele>
        <time>2011-05-23T21:03:03Z</time>
      </trkpt>
      <trkpt lat="40.863131" lon="-3.617361">
        <ele>994.011</ele>
        <time>2011-05-23T21:03:13Z</time>
      </trkpt>
      <trkpt lat="40.863074" lon="-3.617239">
        <ele>993.721</ele>
        <time>2011-05-23T21:03:23Z</time>
      </trkpt>
      <trkpt lat="40.863054" lon="-3.617054">
        <ele>993.703</ele>
        <time>2011-05-23T21:03:33Z</time>
      </trkpt>
      <trkpt lat="40.863149" lon="-3.616940">
        <ele>993.208</ele>
        <time>2011-05-23T21:03:43Z</time>
      </trkpt>
      <trkpt lat="40.863251" lon="-3.616890">
        <ele>993.747</ele>
        <time>2011-05-23T21:03:53Z</time>
      </trkpt>
      <trkpt lat="40.863377" lon="-3.616806">
        <ele>994.092</ele>
        <time>2011-05-23T21:04:03Z</time>
      </trkpt>
      <trkpt lat="40.863531" lon="-3.616750">
        <ele>994.552</ele>
        <time>2011-05-23T21:04:13Z</time>
      </trkpt>
      <trkpt lat="40.863641" lon="-3.616720">
        <ele>994.572</ele>
        <time>2011-05-23T21:04:23Z</time>
      </trkpt>
      <trkpt lat="40.863724" lon="-3.616605">
        <ele>993.773</ele>
        <time>2011-05-23T21:04:33Z</time>
      </trkpt>
      <trkpt lat="40.863842" lon="-3.616497">
        <ele>991.763</ele>
        <time>2011-05-23T21:04:43Z</time>
      </trkpt>
      <trkpt lat="40.863973" lon="-3.616403">
        <ele>989.781</ele>
        <time>2011-05-23T21:04:53Z</time>
      </trkpt>
      <trkpt lat="40.864120" lon="-3.616376">
        <ele>990.213</ele>
        <time>2011-05-23T21:05:03Z</time>
      </trkpt>
      <trkpt lat="40.864284" lon="-3.616307">
        <ele>989.723</ele>
        <time>2011-05-23T21:05:13Z</time>
      </trkpt>
      <trkpt lat="40.864393" lon="-3.616219">
        <ele>990.283</ele>
        <time>2011-05-23T21:05:23Z</time>
      </trkpt>
      <trkpt lat="40.864521" lon="-3.616196">
        <ele>990.211</ele>
        <time>2011-05-23T21:05:33Z</time>
      </trkpt>
      <trkpt lat="40.864632" lon="-3.616227">
        <ele>990.708</ele>
        <time>2011-05-23T21:05:43Z</time>
      </trkpt>
      <trkpt lat="40.864800" lon="-3.616231">
        <ele>990.218</ele>
        <time>2011-05-23T21:05:53Z</time>
      </trkpt>
      <trkpt lat="40.864898" lon="-3.616239">
        <ele>991.713</ele>
        <time>2011-05-23T21:06:03Z</time>
      </trkpt>
      <trkpt lat="40.864973" lon="-3.616150">
        <ele>991.273</ele>
        <time>2011-05-23T21:06:13Z</time>
      </trkpt>
      <trkpt lat="40.865044" lon="-3.615968">
        <ele>990.213</ele>
        <time>2011-05-23T21:06:23Z</time>
      </trkpt>
      <trkpt lat="40.865068" lon="-3.615813">
        <ele>987.944</ele>
        <time>2011-05-23T21:06:33Z</time>
      </trkpt>
      <trkpt lat="40.865089" lon="-3.615709">
        <ele>987.414</ele>
        <time>2011-05-23T21:06:43Z</time>
      </trkpt>
      <trkpt lat="40.865143" lon="-3.615691">
        <ele>1047.095</ele>
        <time>2016-07-03T13:32:15Z</time>
      </trkpt>
      <trkpt lat="40.865168" lon="-3.615411">
        <ele>1046.549</ele>
        <time>2016-07-03T13:32:21Z</time>
      </trkpt>
      <trkpt lat="40.865210" lon="-3.615158">
        <ele>1046.023</ele>
        <time>2016-07-03T13:32:32Z</time>
      </trkpt>
      <trkpt lat="40.865323" lon="-3.614848">
        <ele>1045.908</ele>
        <time>2016-07-03T13:32:37Z</time>
      </trkpt>
      <trkpt lat="40.865435" lon="-3.614622">
        <ele>1046.375</ele>
        <time>2016-07-03T13:32:45Z</time>
      </trkpt>
      <trkpt lat="40.865589" lon="-3.614366">
        <ele>1047.521</ele>
        <time>2016-07-03T13:32:52Z</time>
      </trkpt>
      <trkpt lat="40.865742" lon="-3.614114">
        <ele>1048.944</ele>
        <time>2016-07-03T13:33:02Z</time>
      </trkpt>
      <trkpt lat="40.865608" lon="-3.613829">
        <ele>1046.951</ele>
        <time>2016-07-03T13:33:10Z</time>
      </trkpt>
      <trkpt lat="40.865518" lon="-3.613623">
        <ele>1045.718</ele>
        <time>2016-07-03T13:33:18Z</time>
      </trkpt>
      <trkpt lat="40.865324" lon="-3.613373">
        <ele>1044.024</ele>
        <time>2016-07-03T13:33:26Z</time>
      </trkpt>
      <trkpt lat="40.865467" lon="-3.613098">
        <ele>1044.490</ele>
        <time>2016-07-03T13:33:34Z</time>
      </trkpt>
      <trkpt lat="40.865539" lon="-3.612855">
        <ele>1044.586</ele>
        <time>2016-07-03T13:33:44Z</time>
      </trkpt>
      <trkpt lat="40.865567" lon="-3.612660">
        <ele>1052.432</ele>
        <time>2016-07-03T13:33:52Z</time>
      </trkpt>
      <trkpt lat="40.865652" lon="-3.612599">
        <ele>1052.892</ele>
        <time>2016-07-03T13:33:59Z</time>
      </trkpt>
      <trkpt lat="40.865738" lon="-3.612543">
        <ele>1053.011</ele>
        <time>2016-07-03T13:34:06Z</time>
      </trkpt>
      <trkpt lat="40.865819" lon="-3.612475">
        <ele>1053.508</ele>
        <time>2016-07-03T13:34:13Z</time>
      </trkpt>
      <trkpt lat="40.865902" lon="-3.612417">
        <ele>1053.819</ele>
        <time>2016-07-03T13:34:20Z</time>
      </trkpt>
      <trkpt lat="40.865987" lon="-3.612367">
        <ele>1054.125</ele>
        <time>2016-07-03T13:34:29Z</time>
      </trkpt>
      <trkpt lat="40.866069" lon="-3.612312">
        <ele>1054.688</ele>
        <time>2016-07-03T13:34:38Z</time>
      </trkpt>
      <trkpt lat="40.866156" lon="-3.612253">
        <ele>1055.355</ele>
        <time>2016-07-03T13:34:47Z</time>
      </trkpt>
      <trkpt lat="40.866250" lon="-3.612195">
        <ele>1055.632</ele>
        <time>2016-07-03T13:34:56Z</time>
      </trkpt>
      <trkpt lat="40.866326" lon="-3.612130">
        <ele>1056.388</ele>
        <time>2016-07-03T13:35:05Z</time>
      </trkpt>
      <trkpt lat="40.866407" lon="-3.612064">
        <ele>1056.574</ele>
        <time>2016-07-03T13:35:13Z</time>
      </trkpt>
      <trkpt lat="40.866496" lon="-3.612005">
        <ele>1056.910</ele>
        <time>2016-07-03T13:35:21Z</time>
      </trkpt>
      <trkpt lat="40.866589" lon="-3.611968">
        <ele>1057.015</ele>
        <time>2016-07-03T13:35:29Z</time>
      </trkpt>
      <trkpt lat="40.866685" lon="-3.611903">
        <ele>1057.065</ele>
        <time>2016-07-03T13:35:37Z</time>
      </trkpt>
      <trkpt lat="40.866773" lon="-3.611842">
        <ele>1057.411</ele>
        <time>2016-07-03T13:35:44Z</time>
      </trkpt>
      <trkpt lat="40.866852" lon="-3.611777">
        <ele>1057.808</ele>
        <time>2016-07-03T13:35:51Z</time>
      </trkpt>
      <trkpt lat="40.866934" lon="-3.611727">
        <ele>1058.027</ele>
        <time>2016-07-03T13:35:57Z</time>
      </trkpt>
      <trkpt lat="40.867014" lon="-3.611660">
        <ele>1058.163</ele>
        <time>2016-07-03T13:36:04Z</time>
      </trkpt>
      <trkpt lat="40.867103" lon="-3.611606">
        <ele>1058.816</ele>
        <time>2016-07-03T13:36:13Z</time>
      </trkpt>
      <trkpt lat="40.867193" lon="-3.611550">
        <ele>1059.053</ele>
        <time>2016-07-03T13:36:20Z</time>
      </trkpt>
      <trkpt lat="40.867284" lon="-3.611501">
        <ele>1059.030</ele>
        <time>2016-07-03T13:36:28Z</time>
      </trkpt>
      <trkpt lat="40.867380" lon="-3.611466">
        <ele>1058.936</ele>
        <time>2016-07-03T13:36:36Z</time>
      </trkpt>
      <trkpt lat="40.867467" lon="-3.611429">
        <ele>1058.942</ele>
        <time>2016-07-03T13:36:44Z</time>
      </trkpt>
      <trkpt lat="40.867536" lon="-3.611347">
        <ele>1059.188</ele>
        <time>2016-07-03T13:36:53Z</time>
      </trkpt>
      <trkpt lat="40.867623" lon="-3.611291">
        <ele>1059.042</ele>
        <time>2016-07-03T13:37:02Z</time>
      </trkpt>
      <trkpt lat="40.867712" lon="-3.611240">
        <ele>1059.022</ele>
        <time>2016-07-03T13:37:10Z</time>
      </trkpt>
      <trkpt lat="40.867788" lon="-3.611173">
        <ele>1059.114</ele>
        <time>2016-07-03T13:37:17Z</time>
      </trkpt>
      <trkpt lat="40.867878" lon="-3.611139">
        <ele>1059.408</ele>
        <time>2016-07-03T13:37:27Z</time>
      </trkpt>
      <trkpt lat="40.867965" lon="-3.611081">
        <ele>1059.680</ele>
        <time>2016-07-03T13:37:35Z</time>
      </trkpt>
      <trkpt lat="40.868054" lon="-3.611021">
        <ele>1059.376</ele>
        <time>2016-07-03T13:37:43Z</time>
      </trkpt>
      <trkpt lat="40.868146" lon="-3.610970">
        <ele>1059.559</ele>
        <time>2016-07-03T13:37:52Z</time>
      </trkpt>
      <trkpt lat="40.868237" lon="-3.610914">
        <ele>1059.486</ele>
        <time>2016-07-03T13:38:00Z</time>
      </trkpt>
      <trkpt lat="40.868323" lon="-3.610870">
        <ele>1059.413</ele>
        <time>2016-07-03T13:38:08Z</time>
      </trkpt>
      <trkpt lat="40.868400" lon="-3.610802">
        <ele>1059.549</ele>
        <time>2016-07-03T13:38:17Z</time>
      </trkpt>
      <trkpt lat="40.868491" lon="-3.610753">
        <ele>1059.555</ele>
        <time>2016-07-03T13:38:25Z</time>
      </trkpt>
      <trkpt lat="40.868578" lon="-3.610699">
        <ele>1060.031</ele>
        <time>2016-07-03T13:38:32Z</time>
      </trkpt>
      <trkpt lat="40.868665" lon="-3.610643">
        <ele>1060.128</ele>
        <time>2016-07-03T13:38:41Z</time>
      </trkpt>
      <trkpt lat="40.868744" lon="-3.610576">
        <ele>1060.189</ele>
        <time>2016-07-03T13:38:48Z</time>
      </trkpt>
      <trkpt lat="40.868833" lon="-3.610523">
        <ele>1060.017</ele>
        <time>2016-07-03T13:38:56Z</time>
      </trkpt>
      <trkpt lat="40.868914" lon="-3.610467">
        <ele>1060.008</ele>
        <time>2016-07-03T13:39:04Z</time>
      </trkpt>
      <trkpt lat="40.869002" lon="-3.610416">
        <ele>1060.038</ele>
        <time>2016-07-03T13:39:12Z</time>
      </trkpt>
      <trkpt lat="40.869085" lon="-3.610361">
        <ele>1060.374</ele>
        <time>2016-07-03T13:39:19Z</time>
      </trkpt>
      <trkpt lat="40.869177" lon="-3.610305">
        <ele>1060.337</ele>
        <time>2016-07-03T13:39:27Z</time>
      </trkpt>
      <trkpt lat="40.869267" lon="-3.610273">
        <ele>1060.544</ele>
        <time>2016-07-03T13:39:35Z</time>
      </trkpt>
      <trkpt lat="40.869346" lon="-3.610216">
        <ele>1060.991</ele>
        <time>2016-07-03T13:39:42Z</time>
      </trkpt>
      <trkpt lat="40.869437" lon="-3.610162">
        <ele>1061.567</ele>
        <time>2016-07-03T13:39:51Z</time>
      </trkpt>
      <trkpt lat="40.869519" lon="-3.610107">
        <ele>1061.473</ele>
        <time>2016-07-03T13:39:58Z</time>
      </trkpt>
      <trkpt lat="40.869610" lon="-3.610050">
        <ele>1061.679</ele>
        <time>2016-07-03T13:40:06Z</time>
      </trkpt>
      <trkpt lat="40.869691" lon="-3.609990">
        <ele>1061.818</ele>
        <time>2016-07-03T13:40:14Z</time>
      </trkpt>
      <trkpt lat="40.869774" lon="-3.609939">
        <ele>1062.098</ele>
        <time>2016-07-03T13:40:22Z</time>
      </trkpt>
      <trkpt lat="40.869858" lon="-3.609876">
        <ele>1062.117</ele>
        <time>2016-07-03T13:40:29Z</time>
      </trkpt>
      <trkpt lat="40.869944" lon="-3.609808">
        <ele>1062.508</ele>
        <time>2016-07-03T13:40:36Z</time>
      </trkpt>
      <trkpt lat="40.870031" lon="-3.609770">
        <ele>1062.887</ele>
        <time>2016-07-03T13:40:44Z</time>
      </trkpt>
      <trkpt lat="40.870120" lon="-3.609721">
        <ele>1063.063</ele>
        <time>2016-07-03T13:40:53Z</time>
      </trkpt>
      <trkpt lat="40.870207" lon="-3.609671">
        <ele>1063.036</ele>
        <time>2016-07-03T13:41:01Z</time>
      </trkpt>
      <trkpt lat="40.870290" lon="-3.609618">
        <ele>1063.313</ele>
        <time>2016-07-03T13:41:08Z</time>
      </trkpt>
      <trkpt lat="40.870371" lon="-3.609559">
        <ele>1063.470</ele>
        <time>2016-07-03T13:41:15Z</time>
      </trkpt>
      <trkpt lat="40.870455" lon="-3.609499">
        <ele>1063.556</ele>
        <time>2016-07-03T13:41:22Z</time>
      </trkpt>
      <trkpt lat="40.870542" lon="-3.609455">
        <ele>1063.522</ele>
        <time>2016-07-03T13:41:30Z</time>
      </trkpt>
      <trkpt lat="40.870622" lon="-3.609393">
        <ele>1063.988</ele>
        <time>2016-07-03T13:41:37Z</time>
      </trkpt>
      <trkpt lat="40.870701" lon="-3.609332">
        <ele>1064.121</ele>
        <time>2016-07-03T13:41:45Z</time>
      </trkpt>
      <trkpt lat="40.870811" lon="-3.609267">
        <ele>1064.641</ele>
        <time>2016-07-03T13:41:56Z</time>
      </trkpt>
      <trkpt lat="40.870889" lon="-3.609204">
        <ele>1065.005</ele>
        <time>2016-07-03T13:42:05Z</time>
      </trkpt>
      <trkpt lat="40.870969" lon="-3.609144">
        <ele>1065.508</ele>
        <time>2016-07-03T13:42:13Z</time>
      </trkpt>
      <trkpt lat="40.871052" lon="-3.609082">
        <ele>1065.958</ele>
        <time>2016-07-03T13:42:21Z</time>
      </trkpt>
      <trkpt lat="40.871144" lon="-3.609025">
        <ele>1066.414</ele>
        <time>2016-07-03T13:42:28Z</time>
      </trkpt>
      <trkpt lat="40.871229" lon="-3.608977">
        <ele>1066.617</ele>
        <time>2016-07-03T13:42:35Z</time>
      </trkpt>
      <trkpt lat="40.871316" lon="-3.608915">
        <ele>1067.054</ele>
        <time>2016-07-03T13:42:42Z</time>
      </trkpt>
      <trkpt lat="40.871398" lon="-3.608854">
        <ele>1067.321</ele>
        <time>2016-07-03T13:42:49Z</time>
      </trkpt>
      <trkpt lat="40.871483" lon="-3.608790">
        <ele>1067.647</ele>
        <time>2016-07-03T13:42:58Z</time>
      </trkpt>
      <trkpt lat="40.871564" lon="-3.608729">
        <ele>1068.123</ele>
        <time>2016-07-03T13:43:05Z</time>
      </trkpt>
      <trkpt lat="40.871648" lon="-3.608680">
        <ele>1068.379</ele>
        <time>2016-07-03T13:43:13Z</time>
      </trkpt>
      <trkpt lat="40.871736" lon="-3.608621">
        <ele>1069.166</ele>
        <time>2016-07-03T13:43:22Z</time>
      </trkpt>
      <trkpt lat="40.871823" lon="-3.608554">
        <ele>1069.529</ele>
        <time>2016-07-03T13:43:31Z</time>
      </trkpt>
      <trkpt lat="40.871905" lon="-3.608498">
        <ele>1070.121</ele>
        <time>2016-07-03T13:43:39Z</time>
      </trkpt>
      <trkpt lat="40.871982" lon="-3.608431">
        <ele>1070.508</ele>
        <time>2016-07-03T13:43:47Z</time>
      </trkpt>
      <trkpt lat="40.872067" lon="-3.608365">
        <ele>1071.042</ele>
        <time>2016-07-03T13:43:55Z</time>
      </trkpt>
      <trkpt lat="40.872148" lon="-3.608300">
        <ele>1071.598</ele>
        <time>2016-07-03T13:44:04Z</time>
      </trkpt>
      <trkpt lat="40.872239" lon="-3.608237">
        <ele>1072.191</ele>
        <time>2016-07-03T13:44:13Z</time>
      </trkpt>
      <trkpt lat="40.872327" lon="-3.608171">
        <ele>1072.378</ele>
        <time>2016-07-03T13:44:21Z</time>
      </trkpt>
      <trkpt lat="40.872405" lon="-3.608096">
        <ele>1072.595</ele>
        <time>2016-07-03T13:44:29Z</time>
      </trkpt>
      <trkpt lat="40.872483" lon="-3.608011">
        <ele>1072.621</ele>
        <time>2016-07-03T13:44:37Z</time>
      </trkpt>
      <trkpt lat="40.872561" lon="-3.607926">
        <ele>1072.817</ele>
        <time>2016-07-03T13:44:44Z</time>
      </trkpt>
      <trkpt lat="40.872635" lon="-3.607845">
        <ele>1072.673</ele>
        <time>2016-07-03T13:44:52Z</time>
      </trkpt>
      <trkpt lat="40.872698" lon="-3.607759">
        <ele>1073.089</ele>
        <time>2016-07-03T13:44:59Z</time>
      </trkpt>
      <trkpt lat="40.872757" lon="-3.607667">
        <ele>1073.406</ele>
        <time>2016-07-03T13:45:08Z</time>
      </trkpt>
      <trkpt lat="40.872828" lon="-3.607570">
        <ele>1073.526</ele>
        <time>2016-07-03T13:45:15Z</time>
      </trkpt>
      <trkpt lat="40.872896" lon="-3.607485">
        <ele>1073.508</ele>
        <time>2016-07-03T13:45:22Z</time>
      </trkpt>
      <trkpt lat="40.872970" lon="-3.607402">
        <ele>1073.834</ele>
        <time>2016-07-03T13:45:30Z</time>
      </trkpt>
      <trkpt lat="40.873030" lon="-3.607309">
        <ele>1073.910</ele>
        <time>2016-07-03T13:45:39Z</time>
      </trkpt>
      <trkpt lat="40.873082" lon="-3.607211">
        <ele>1074.383</ele>
        <time>2016-07-03T13:45:47Z</time>
      </trkpt>
      <trkpt lat="40.873135" lon="-3.607097">
        <ele>1074.530</ele>
        <time>2016-07-03T13:45:55Z</time>
      </trkpt>
      <trkpt lat="40.873184" lon="-3.606993">
        <ele>1075.067</ele>
        <time>2016-07-03T13:46:05Z</time>
      </trkpt>
      <trkpt lat="40.873236" lon="-3.606884">
        <ele>1075.073</ele>
        <time>2016-07-03T13:46:15Z</time>
      </trkpt>
      <trkpt lat="40.873285" lon="-3.606771">
        <ele>1075.119</ele>
        <time>2016-07-03T13:46:26Z</time>
      </trkpt>
      <trkpt lat="40.873339" lon="-3.606666">
        <ele>1075.165</ele>
        <time>2016-07-03T13:46:35Z</time>
      </trkpt>
      <trkpt lat="40.873398" lon="-3.606558">
        <ele>1075.523</ele>
        <time>2016-07-03T13:46:42Z</time>
      </trkpt>
      <trkpt lat="40.873455" lon="-3.606450">
        <ele>1076.383</ele>
        <time>2016-07-03T13:46:50Z</time>
      </trkpt>
      <trkpt lat="40.873529" lon="-3.606375">
        <ele>1076.111</ele>
        <time>2016-07-03T13:46:57Z</time>
      </trkpt>
      <trkpt lat="40.873587" lon="-3.606261">
        <ele>1076.508</ele>
        <time>2016-07-03T13:47:09Z</time>
      </trkpt>
      <trkpt lat="40.873662" lon="-3.606175">
        <ele>1076.818</ele>
        <time>2016-07-03T13:47:19Z</time>
      </trkpt>
      <trkpt lat="40.873723" lon="-3.606051">
        <ele>1077.554</ele>
        <time>2016-07-03T13:47:30Z</time>
      </trkpt>
      <trkpt lat="40.873761" lon="-3.605930">
        <ele>1077.667</ele>
        <time>2016-07-03T13:47:40Z</time>
      </trkpt>
      <trkpt lat="40.873789" lon="-3.605813">
        <ele>1078.074</ele>
        <time>2016-07-03T13:47:47Z</time>
      </trkpt>
      <trkpt lat="40.873842" lon="-3.605701">
        <ele>1078.541</ele>
        <time>2016-07-03T13:47:57Z</time>
      </trkpt>
      <trkpt lat="40.873902" lon="-3.605593">
        <ele>1078.617</ele>
        <time>2016-07-03T13:48:04Z</time>
      </trkpt>
      <trkpt lat="40.873964" lon="-3.605502">
        <ele>1079.043</ele>
        <time>2016-07-03T13:48:12Z</time>
      </trkpt>
      <trkpt lat="40.874026" lon="-3.605405">
        <ele>1079.589</ele>
        <time>2016-07-03T13:48:20Z</time>
      </trkpt>
      <trkpt lat="40.874093" lon="-3.605306">
        <ele>1079.681</ele>
        <time>2016-07-03T13:48:28Z</time>
      </trkpt>
      <trkpt lat="40.874117" lon="-3.605186">
        <ele>1080.061</ele>
        <time>2016-07-03T13:48:38Z</time>
      </trkpt>
      <trkpt lat="40.874173" lon="-3.605092">
        <ele>1080.617</ele>
        <time>2016-07-03T13:48:47Z</time>
      </trkpt>
      <trkpt lat="40.874236" lon="-3.604986">
        <ele>1080.808</ele>
        <time>2016-07-03T13:48:54Z</time>
      </trkpt>
      <trkpt lat="40.874294" lon="-3.604875">
        <ele>1081.654</ele>
        <time>2016-07-03T13:49:02Z</time>
      </trkpt>
      <trkpt lat="40.874358" lon="-3.604769">
        <ele>1082.510</ele>
        <time>2016-07-03T13:49:11Z</time>
      </trkpt>
      <trkpt lat="40.874400" lon="-3.604664">
        <ele>1082.873</ele>
        <time>2016-07-03T13:49:20Z</time>
      </trkpt>
      <trkpt lat="40.874455" lon="-3.604565">
        <ele>1082.680</ele>
        <time>2016-07-03T13:49:27Z</time>
      </trkpt>
      <trkpt lat="40.874522" lon="-3.604468">
        <ele>1082.827</ele>
        <time>2016-07-03T13:49:35Z</time>
      </trkpt>
      <trkpt lat="40.874579" lon="-3.604361">
        <ele>1083.093</ele>
        <time>2016-07-03T13:49:42Z</time>
      </trkpt>
      <trkpt lat="40.874639" lon="-3.604264">
        <ele>1083.059</ele>
        <time>2016-07-03T13:49:50Z</time>
      </trkpt>
      <trkpt lat="40.874706" lon="-3.604167">
        <ele>1083.325</ele>
        <time>2016-07-03T13:49:58Z</time>
      </trkpt>
      <trkpt lat="40.874755" lon="-3.604057">
        <ele>1083.925</ele>
        <time>2016-07-03T13:50:05Z</time>
      </trkpt>
      <trkpt lat="40.874809" lon="-3.603961">
        <ele>1084.026</ele>
        <time>2016-07-03T13:50:13Z</time>
      </trkpt>
      <trkpt lat="40.874861" lon="-3.603864">
        <ele>1084.108</ele>
        <time>2016-07-03T13:50:20Z</time>
      </trkpt>
      <trkpt lat="40.874911" lon="-3.603764">
        <ele>1084.308</ele>
        <time>2016-07-03T13:50:27Z</time>
      </trkpt>
      <trkpt lat="40.874970" lon="-3.603660">
        <ele>1084.428</ele>
        <time>2016-07-03T13:50:33Z</time>
      </trkpt>
      <trkpt lat="40.875023" lon="-3.603560">
        <ele>1084.694</ele>
        <time>2016-07-03T13:50:44Z</time>
      </trkpt>
      <trkpt lat="40.875085" lon="-3.603458">
        <ele>1085.097</ele>
        <time>2016-07-03T13:50:52Z</time>
      </trkpt>
      <trkpt lat="40.875146" lon="-3.603358">
        <ele>1085.574</ele>
        <time>2016-07-03T13:51:00Z</time>
      </trkpt>
      <trkpt lat="40.875197" lon="-3.603251">
        <ele>1085.891</ele>
        <time>2016-07-03T13:51:08Z</time>
      </trkpt>
      <trkpt lat="40.875256" lon="-3.603148">
        <ele>1086.097</ele>
        <time>2016-07-03T13:51:16Z</time>
      </trkpt>
      <trkpt lat="40.875310" lon="-3.603052">
        <ele>1086.423</ele>
        <time>2016-07-03T13:51:23Z</time>
      </trkpt>
      <trkpt lat="40.875356" lon="-3.602942">
        <ele>1086.159</ele>
        <time>2016-07-03T13:51:31Z</time>
      </trkpt>
      <trkpt lat="40.875403" lon="-3.602836">
        <ele>1086.537</ele>
        <time>2016-07-03T13:51:39Z</time>
      </trkpt>
      <trkpt lat="40.875461" lon="-3.602738">
        <ele>1086.849</ele>
        <time>2016-07-03T13:51:47Z</time>
      </trkpt>
      <trkpt lat="40.875519" lon="-3.602646">
        <ele>1086.913</ele>
        <time>2016-07-03T13:51:54Z</time>
      </trkpt>
      <trkpt lat="40.875579" lon="-3.602546">
        <ele>1087.508</ele>
        <time>2016-07-03T13:52:02Z</time>
      </trkpt>
      <trkpt lat="40.875631" lon="-3.602445">
        <ele>1087.889</ele>
        <time>2016-07-03T13:52:09Z</time>
      </trkpt>
      <trkpt lat="40.875693" lon="-3.602324">
        <ele>1088.375</ele>
        <time>2016-07-03T13:52:16Z</time>
      </trkpt>
      <trkpt lat="40.875744" lon="-3.602226">
        <ele>1089.048</ele>
        <time>2016-07-03T13:52:24Z</time>
      </trkpt>
      <trkpt lat="40.875814" lon="-3.602137">
        <ele>1089.345</ele>
        <time>2016-07-03T13:52:32Z</time>
      </trkpt>
      <trkpt lat="40.875867" lon="-3.602026">
        <ele>1089.652</ele>
        <time>2016-07-03T13:52:41Z</time>
      </trkpt>
      <trkpt lat="40.875929" lon="-3.601934">
        <ele>1090.028</ele>
        <time>2016-07-03T13:52:49Z</time>
      </trkpt>
      <trkpt lat="40.875991" lon="-3.601825">
        <ele>1090.654</ele>
        <time>2016-07-03T13:52:59Z</time>
      </trkpt>
      <trkpt lat="40.876048" lon="-3.601718">
        <ele>1091.390</ele>
        <time>2016-07-03T13:53:08Z</time>
      </trkpt>
      <trkpt lat="40.876115" lon="-3.601633">
        <ele>1091.857</ele>
        <time>2016-07-03T13:53:17Z</time>
      </trkpt>
      <trkpt lat="40.876177" lon="-3.601545">
        <ele>1092.000</ele>
        <time>2016-07-03T13:53:25Z</time>
      </trkpt>
      <trkpt lat="40.876255" lon="-3.601465">
        <ele>1092.520</ele>
        <time>2016-07-03T13:53:31Z</time>
      </trkpt>
      <trkpt lat="40.876337" lon="-3.601376">
        <ele>1092.808</ele>
        <time>2016-07-03T13:53:38Z</time>
      </trkpt>
      <trkpt lat="40.876402" lon="-3.601294">
        <ele>1093.031</ele>
        <time>2016-07-03T13:53:45Z</time>
      </trkpt>
      <trkpt lat="40.876468" lon="-3.601192">
        <ele>1094.077</ele>
        <time>2016-07-03T13:53:54Z</time>
      </trkpt>
      <trkpt lat="40.876536" lon="-3.601099">
        <ele>1094.370</ele>
        <time>2016-07-03T13:54:02Z</time>
      </trkpt>
      <trkpt lat="40.876601" lon="-3.601004">
        <ele>1095.017</ele>
        <time>2016-07-03T13:54:11Z</time>
      </trkpt>
      <trkpt lat="40.876668" lon="-3.600925">
        <ele>1095.344</ele>
        <time>2016-07-03T13:54:19Z</time>
      </trkpt>
      <trkpt lat="40.876752" lon="-3.600851">
        <ele>1096.070</ele>
        <time>2016-07-03T13:54:27Z</time>
      </trkpt>
      <trkpt lat="40.876833" lon="-3.600784">
        <ele>1096.936</ele>
        <time>2016-07-03T13:54:35Z</time>
      </trkpt>
      <trkpt lat="40.876918" lon="-3.600718">
        <ele>1098.022</ele>
        <time>2016-07-03T13:54:43Z</time>
      </trkpt>
      <trkpt lat="40.877004" lon="-3.600657">
        <ele>1099.015</ele>
        <time>2016-07-03T13:54:51Z</time>
      </trkpt>
      <trkpt lat="40.877088" lon="-3.600604">
        <ele>1099.965</ele>
        <time>2016-07-03T13:54:59Z</time>
      </trkpt>
      <trkpt lat="40.877176" lon="-3.600563">
        <ele>1101.011</ele>
        <time>2016-07-03T13:55:07Z</time>
      </trkpt>
      <trkpt lat="40.877268" lon="-3.600565">
        <ele>1101.808</ele>
        <time>2016-07-03T13:55:15Z</time>
      </trkpt>
      <trkpt lat="40.877364" lon="-3.600582">
        <ele>1102.477</ele>
        <time>2016-07-03T13:55:23Z</time>
      </trkpt>
      <trkpt lat="40.877459" lon="-3.600598">
        <ele>1102.993</ele>
        <time>2016-07-03T13:55:31Z</time>
      </trkpt>
      <trkpt lat="40.877559" lon="-3.600611">
        <ele>1103.856</ele>
        <time>2016-07-03T13:55:40Z</time>
      </trkpt>
      <trkpt lat="40.877648" lon="-3.600628">
        <ele>1104.153</ele>
        <time>2016-07-03T13:55:47Z</time>
      </trkpt>
      <trkpt lat="40.877748" lon="-3.600627">
        <ele>1104.870</ele>
        <time>2016-07-03T13:55:55Z</time>
      </trkpt>
      <trkpt lat="40.877842" lon="-3.600624">
        <ele>1105.166</ele>
        <time>2016-07-03T13:56:03Z</time>
      </trkpt>
      <trkpt lat="40.877939" lon="-3.600629">
        <ele>1106.042</ele>
        <time>2016-07-03T13:56:11Z</time>
      </trkpt>
      <trkpt lat="40.878039" lon="-3.600632">
        <ele>1106.028</ele>
        <time>2016-07-03T13:56:19Z</time>
      </trkpt>
      <trkpt lat="40.878136" lon="-3.600633">
        <ele>1105.831</ele>
        <time>2016-07-03T13:56:27Z</time>
      </trkpt>
      <trkpt lat="40.878228" lon="-3.600640">
        <ele>1105.461</ele>
        <time>2016-07-03T13:56:35Z</time>
      </trkpt>
      <trkpt lat="40.878326" lon="-3.600632">
        <ele>1105.507</ele>
        <time>2016-07-03T13:56:45Z</time>
      </trkpt>
      <trkpt lat="40.878413" lon="-3.600602">
        <ele>1104.908</ele>
        <time>2016-07-03T13:56:57Z</time>
      </trkpt>
      <trkpt lat="40.878503" lon="-3.600557">
        <ele>1104.149</ele>
        <time>2016-07-03T13:57:06Z</time>
      </trkpt>
      <trkpt lat="40.878582" lon="-3.600490">
        <ele>1102.835</ele>
        <time>2016-07-03T13:57:16Z</time>
      </trkpt>
      <trkpt lat="40.878662" lon="-3.600417">
        <ele>1101.588</ele>
        <time>2016-07-03T13:57:26Z</time>
      </trkpt>
      <trkpt lat="40.878719" lon="-3.600322">
        <ele>1100.195</ele>
        <time>2016-07-03T13:57:35Z</time>
      </trkpt>
      <trkpt lat="40.878773" lon="-3.600214">
        <ele>1099.052</ele>
        <time>2016-07-03T13:57:44Z</time>
      </trkpt>
      <trkpt lat="40.878845" lon="-3.600135">
        <ele>1097.928</ele>
        <time>2016-07-03T13:57:52Z</time>
      </trkpt>
      <trkpt lat="40.878918" lon="-3.600052">
        <ele>1096.944</ele>
        <time>2016-07-03T13:58:01Z</time>
      </trkpt>
      <trkpt lat="40.878999" lon="-3.599994">
        <ele>1096.310</ele>
        <time>2016-07-03T13:58:08Z</time>
      </trkpt>
      <trkpt lat="40.879083" lon="-3.599937">
        <ele>1095.827</ele>
        <time>2016-07-03T13:58:17Z</time>
      </trkpt>
      <trkpt lat="40.879177" lon="-3.599891">
        <ele>1095.368</ele>
        <time>2016-07-03T13:58:25Z</time>
      </trkpt>
      <trkpt lat="40.879261" lon="-3.599847">
        <ele>1095.014</ele>
        <time>2016-07-03T13:58:34Z</time>
      </trkpt>
      <trkpt lat="40.879356" lon="-3.599827">
        <ele>1094.608</ele>
        <time>2016-07-03T13:58:42Z</time>
      </trkpt>
      <trkpt lat="40.879448" lon="-3.599787">
        <ele>1094.368</ele>
        <time>2016-07-03T13:58:50Z</time>
      </trkpt>
      <trkpt lat="40.879540" lon="-3.599757">
        <ele>1093.634</ele>
        <time>2016-07-03T13:58:59Z</time>
      </trkpt>
      <trkpt lat="40.879636" lon="-3.599742">
        <ele>1093.317</ele>
        <time>2016-07-03T13:59:06Z</time>
      </trkpt>
      <trkpt lat="40.879733" lon="-3.599740">
        <ele>1092.574</ele>
        <time>2016-07-03T13:59:15Z</time>
      </trkpt>
      <trkpt lat="40.879838" lon="-3.599728">
        <ele>1091.521</ele>
        <time>2016-07-03T13:59:24Z</time>
      </trkpt>
      <trkpt lat="40.879931" lon="-3.599718">
        <ele>1090.977</ele>
        <time>2016-07-03T13:59:32Z</time>
      </trkpt>
      <trkpt lat="40.880021" lon="-3.599719">
        <ele>1090.323</ele>
        <time>2016-07-03T13:59:40Z</time>
      </trkpt>
      <trkpt lat="40.880120" lon="-3.599721">
        <ele>1089.529</ele>
        <time>2016-07-03T13:59:48Z</time>
      </trkpt>
      <trkpt lat="40.880218" lon="-3.599714">
        <ele>1088.528</ele>
        <time>2016-07-03T13:59:56Z</time>
      </trkpt>
      <trkpt lat="40.880322" lon="-3.599715">
        <ele>1087.589</ele>
        <time>2016-07-03T14:00:05Z</time>
      </trkpt>
      <trkpt lat="40.880416" lon="-3.599702">
        <ele>1086.917</ele>
        <time>2016-07-03T14:00:13Z</time>
      </trkpt>
      <trkpt lat="40.880513" lon="-3.599692">
        <ele>1085.608</ele>
        <time>2016-07-03T14:00:22Z</time>
      </trkpt>
      <trkpt lat="40.880609" lon="-3.599667">
        <ele>1085.098</ele>
        <time>2016-07-03T14:00:30Z</time>
      </trkpt>
      <trkpt lat="40.880706" lon="-3.599646">
        <ele>1083.974</ele>
        <time>2016-07-03T14:00:40Z</time>
      </trkpt>
      <trkpt lat="40.880797" lon="-3.599618">
        <ele>1083.087</ele>
        <time>2016-07-03T14:00:49Z</time>
      </trkpt>
      <trkpt lat="40.880886" lon="-3.599581">
        <ele>1082.034</ele>
        <time>2016-07-03T14:00:58Z</time>
      </trkpt>
      <trkpt lat="40.880985" lon="-3.599558">
        <ele>1080.981</ele>
        <time>2016-07-03T14:01:08Z</time>
      </trkpt>
      <trkpt lat="40.881071" lon="-3.599511">
        <ele>1080.067</ele>
        <time>2016-07-03T14:01:18Z</time>
      </trkpt>
      <trkpt lat="40.881167" lon="-3.599479">
        <ele>1078.523</ele>
        <time>2016-07-03T14:01:29Z</time>
      </trkpt>
      <trkpt lat="40.881260" lon="-3.599461">
        <ele>1076.979</ele>
        <time>2016-07-03T14:01:39Z</time>
      </trkpt>
      <trkpt lat="40.881354" lon="-3.599439">
        <ele>1075.589</ele>
        <time>2016-07-03T14:01:49Z</time>
      </trkpt>
      <trkpt lat="40.881441" lon="-3.599408">
        <ele>1074.306</ele>
        <time>2016-07-03T14:01:59Z</time>
      </trkpt>
      <trkpt lat="40.881537" lon="-3.599379">
        <ele>1073.026</ele>
        <time>2016-07-03T14:02:08Z</time>
      </trkpt>
      <trkpt lat="40.881625" lon="-3.599343">
        <ele>1071.908</ele>
        <time>2016-07-03T14:02:18Z</time>
      </trkpt>
      <trkpt lat="40.881718" lon="-3.599308">
        <ele>1070.624</ele>
        <time>2016-07-03T14:02:28Z</time>
      </trkpt>
      <trkpt lat="40.881810" lon="-3.599286">
        <ele>1069.650</ele>
        <time>2016-07-03T14:02:37Z</time>
      </trkpt>
      <trkpt lat="40.881914" lon="-3.599280">
        <ele>1068.873</ele>
        <time>2016-07-03T14:02:46Z</time>
      </trkpt>
      <trkpt lat="40.882010" lon="-3.599269">
        <ele>1067.940</ele>
        <time>2016-07-03T14:02:55Z</time>
      </trkpt>
      <trkpt lat="40.882108" lon="-3.599247">
        <ele>1066.987</ele>
        <time>2016-07-03T14:03:04Z</time>
      </trkpt>
      <trkpt lat="40.882202" lon="-3.599231">
        <ele>1066.333</ele>
        <time>2016-07-03T14:03:12Z</time>
      </trkpt>
      <trkpt lat="40.882297" lon="-3.599218">
        <ele>1065.519</ele>
        <time>2016-07-03T14:03:20Z</time>
      </trkpt>
      <trkpt lat="40.882390" lon="-3.599206">
        <ele>1064.585</ele>
        <time>2016-07-03T14:03:30Z</time>
      </trkpt>
      <trkpt lat="40.882487" lon="-3.599208">
        <ele>1063.398</ele>
        <time>2016-07-03T14:03:39Z</time>
      </trkpt>
      <trkpt lat="40.882579" lon="-3.599214">
        <ele>1062.415</ele>
        <time>2016-07-03T14:03:48Z</time>
      </trkpt>
      <trkpt lat="40.882675" lon="-3.599194">
        <ele>1061.626</ele>
        <time>2016-07-03T14:03:56Z</time>
      </trkpt>
      <trkpt lat="40.882769" lon="-3.599185">
        <ele>1061.008</ele>
        <time>2016-07-03T14:04:04Z</time>
      </trkpt>
      <trkpt lat="40.882861" lon="-3.599193">
        <ele>1060.135</ele>
        <time>2016-07-03T14:04:13Z</time>
      </trkpt>
      <trkpt lat="40.882962" lon="-3.599199">
        <ele>1059.561</ele>
        <time>2016-07-03T14:04:23Z</time>
      </trkpt>
      <trkpt lat="40.883056" lon="-3.599201">
        <ele>1059.054</ele>
        <time>2016-07-03T14:04:32Z</time>
      </trkpt>
      <trkpt lat="40.883146" lon="-3.599248">
        <ele>1059.111</ele>
        <time>2016-07-03T14:04:41Z</time>
      </trkpt>
      <trkpt lat="40.883203" lon="-3.599353">
        <ele>1059.588</ele>
        <time>2016-07-03T14:04:49Z</time>
      </trkpt>
      <trkpt lat="40.883249" lon="-3.599473">
        <ele>1059.694</ele>
        <time>2016-07-03T14:04:58Z</time>
      </trkpt>
      <trkpt lat="40.883301" lon="-3.599577">
        <ele>1059.550</ele>
        <time>2016-07-03T14:05:05Z</time>
      </trkpt>
      <trkpt lat="40.883369" lon="-3.599654">
        <ele>1059.136</ele>
        <time>2016-07-03T14:05:12Z</time>
      </trkpt>
      <trkpt lat="40.883456" lon="-3.599703">
        <ele>1058.815</ele>
        <time>2016-07-03T14:05:20Z</time>
      </trkpt>
      <trkpt lat="40.883551" lon="-3.599749">
        <ele>1057.965</ele>
        <time>2016-07-03T14:05:29Z</time>
      </trkpt>
      <trkpt lat="40.883645" lon="-3.599783">
        <ele>1056.811</ele>
        <time>2016-07-03T14:05:38Z</time>
      </trkpt>
      <trkpt lat="40.883732" lon="-3.599831">
        <ele>1056.408</ele>
        <time>2016-07-03T14:05:46Z</time>
      </trkpt>
      <trkpt lat="40.883816" lon="-3.599885">
        <ele>1055.867</ele>
        <time>2016-07-03T14:05:54Z</time>
      </trkpt>
      <trkpt lat="40.883895" lon="-3.599952">
        <ele>1055.023</ele>
        <time>2016-07-03T14:06:02Z</time>
      </trkpt>
      <trkpt lat="40.883982" lon="-3.600002">
        <ele>1054.566</ele>
        <time>2016-07-03T14:06:11Z</time>
      </trkpt>
      <trkpt lat="40.884070" lon="-3.600046">
        <ele>1054.133</ele>
        <time>2016-07-03T14:06:20Z</time>
      </trkpt>
      <trkpt lat="40.884156" lon="-3.600095">
        <ele>1054.380</ele>
        <time>2016-07-03T14:06:29Z</time>
      </trkpt>
      <trkpt lat="40.884245" lon="-3.600125">
        <ele>1053.926</ele>
        <time>2016-07-03T14:06:36Z</time>
      </trkpt>
      <trkpt lat="40.884335" lon="-3.600162">
        <ele>1053.472</ele>
        <time>2016-07-03T14:06:44Z</time>
      </trkpt>
      <trkpt lat="40.884426" lon="-3.600199">
        <ele>1052.858</ele>
        <time>2016-07-03T14:06:54Z</time>
      </trkpt>
      <trkpt lat="40.884518" lon="-3.600254">
        <ele>1052.419</ele>
        <time>2016-07-03T14:07:03Z</time>
      </trkpt>
      <trkpt lat="40.884601" lon="-3.600306">
        <ele>1052.109</ele>
        <time>2016-07-03T14:07:12Z</time>
      </trkpt>
      <trkpt lat="40.884697" lon="-3.600319">
        <ele>1051.919</ele>
        <time>2016-07-03T14:07:25Z</time>
      </trkpt>
      <trkpt lat="40.884782" lon="-3.600361">
        <ele>1051.508</ele>
        <time>2016-07-03T14:07:33Z</time>
      </trkpt>
      <trkpt lat="40.884852" lon="-3.600445">
        <ele>1051.827</ele>
        <time>2016-07-03T14:07:45Z</time>
      </trkpt>
      <trkpt lat="40.884935" lon="-3.600503">
        <ele>1052.173</ele>
        <time>2016-07-03T14:07:54Z</time>
      </trkpt>
      <trkpt lat="40.884994" lon="-3.600594">
        <ele>1052.566</ele>
        <time>2016-07-03T14:08:02Z</time>
      </trkpt>
      <trkpt lat="40.885059" lon="-3.600699">
        <ele>1053.063</ele>
        <time>2016-07-03T14:08:10Z</time>
      </trkpt>
      <trkpt lat="40.885115" lon="-3.600800">
        <ele>1053.440</ele>
        <time>2016-07-03T14:08:18Z</time>
      </trkpt>
      <trkpt lat="40.885154" lon="-3.600908">
        <ele>1053.446</ele>
        <time>2016-07-03T14:08:25Z</time>
      </trkpt>
      <trkpt lat="40.885231" lon="-3.600977">
        <ele>1053.522</ele>
        <time>2016-07-03T14:08:34Z</time>
      </trkpt>
      <trkpt lat="40.885313" lon="-3.601048">
        <ele>1053.948</ele>
        <time>2016-07-03T14:08:42Z</time>
      </trkpt>
      <trkpt lat="40.885370" lon="-3.601159">
        <ele>1054.867</ele>
        <time>2016-07-03T14:08:50Z</time>
      </trkpt>
      <trkpt lat="40.885434" lon="-3.601243">
        <ele>1055.581</ele>
        <time>2016-07-03T14:08:57Z</time>
      </trkpt>
      <trkpt lat="40.885503" lon="-3.601327">
        <ele>1056.619</ele>
        <time>2016-07-03T14:09:04Z</time>
      </trkpt>
      <trkpt lat="40.885560" lon="-3.601426">
        <ele>1057.808</ele>
        <time>2016-07-03T14:09:11Z</time>
      </trkpt>
      <trkpt lat="40.885612" lon="-3.601527">
        <ele>1058.832</ele>
        <time>2016-07-03T14:09:18Z</time>
      </trkpt>
      <trkpt lat="40.885664" lon="-3.601626">
        <ele>1060.028</ele>
        <time>2016-07-03T14:09:24Z</time>
      </trkpt>
      <trkpt lat="40.885747" lon="-3.601707">
        <ele>1061.421</ele>
        <time>2016-07-03T14:09:32Z</time>
      </trkpt>
      <trkpt lat="40.885839" lon="-3.601745">
        <ele>1062.398</ele>
        <time>2016-07-03T14:09:39Z</time>
      </trkpt>
      <trkpt lat="40.885929" lon="-3.601780">
        <ele>1063.335</ele>
        <time>2016-07-03T14:09:46Z</time>
      </trkpt>
      <trkpt lat="40.886027" lon="-3.601783">
        <ele>1064.131</ele>
        <time>2016-07-03T14:09:54Z</time>
      </trkpt>
      <trkpt lat="40.886120" lon="-3.601795">
        <ele>1065.097</ele>
        <time>2016-07-03T14:10:01Z</time>
      </trkpt>
      <trkpt lat="40.886215" lon="-3.601817">
        <ele>1066.463</ele>
        <time>2016-07-03T14:10:08Z</time>
      </trkpt>
      <trkpt lat="40.886306" lon="-3.601811">
        <ele>1067.593</ele>
        <time>2016-07-03T14:10:17Z</time>
      </trkpt>
      <trkpt lat="40.886404" lon="-3.601840">
        <ele>1069.065</ele>
        <time>2016-07-03T14:10:25Z</time>
      </trkpt>
      <trkpt lat="40.886496" lon="-3.601863">
        <ele>1070.521</ele>
        <time>2016-07-03T14:10:33Z</time>
      </trkpt>
      <trkpt lat="40.886590" lon="-3.601877">
        <ele>1072.108</ele>
        <time>2016-07-03T14:10:41Z</time>
      </trkpt>
      <trkpt lat="40.886683" lon="-3.601906">
        <ele>1073.015</ele>
        <time>2016-07-03T14:10:48Z</time>
      </trkpt>
      <trkpt lat="40.886778" lon="-3.601922">
        <ele>1074.491</ele>
        <time>2016-07-03T14:10:56Z</time>
      </trkpt>
      <trkpt lat="40.886871" lon="-3.601924">
        <ele>1076.024</ele>
        <time>2016-07-03T14:11:04Z</time>
      </trkpt>
      <trkpt lat="40.886969" lon="-3.601942">
        <ele>1077.671</ele>
        <time>2016-07-03T14:11:12Z</time>
      </trkpt>
      <trkpt lat="40.887070" lon="-3.601968">
        <ele>1079.618</ele>
        <time>2016-07-03T14:11:21Z</time>
      </trkpt>
      <trkpt lat="40.887160" lon="-3.601974">
        <ele>1081.044</ele>
        <time>2016-07-03T14:11:29Z</time>
      </trkpt>
      <trkpt lat="40.887250" lon="-3.601990">
        <ele>1082.080</ele>
        <time>2016-07-03T14:11:38Z</time>
      </trkpt>
      <trkpt lat="40.887341" lon="-3.602023">
        <ele>1082.656</ele>
        <time>2016-07-03T14:11:47Z</time>
      </trkpt>
      <trkpt lat="40.887426" lon="-3.602067">
        <ele>1082.883</ele>
        <time>2016-07-03T14:11:55Z</time>
      </trkpt>
      <trkpt lat="40.887522" lon="-3.602084">
        <ele>1082.625</ele>
        <time>2016-07-03T14:12:03Z</time>
      </trkpt>
      <trkpt lat="40.887618" lon="-3.602119">
        <ele>1082.617</ele>
        <time>2016-07-03T14:12:10Z</time>
      </trkpt>
      <trkpt lat="40.887711" lon="-3.602144">
        <ele>1083.008</ele>
        <time>2016-07-03T14:12:17Z</time>
      </trkpt>
      <trkpt lat="40.887806" lon="-3.602153">
        <ele>1083.154</ele>
        <time>2016-07-03T14:12:26Z</time>
      </trkpt>
      <trkpt lat="40.887902" lon="-3.602183">
        <ele>1083.550</ele>
        <time>2016-07-03T14:12:34Z</time>
      </trkpt>
      <trkpt lat="40.888010" lon="-3.602197">
        <ele>1083.963</ele>
        <time>2016-07-03T14:12:42Z</time>
      </trkpt>
      <trkpt lat="40.888101" lon="-3.602150">
        <ele>1083.110</ele>
        <time>2016-07-03T14:12:52Z</time>
      </trkpt>
      <trkpt lat="40.888201" lon="-3.602142">
        <ele>1082.387</ele>
        <time>2016-07-03T14:13:01Z</time>
      </trkpt>
      <trkpt lat="40.888290" lon="-3.602171">
        <ele>1081.353</ele>
        <time>2016-07-03T14:13:10Z</time>
      </trkpt>
      <trkpt lat="40.888393" lon="-3.602161">
        <ele>1080.589</ele>
        <time>2016-07-03T14:13:17Z</time>
      </trkpt>
      <trkpt lat="40.888490" lon="-3.602153">
        <ele>1079.625</ele>
        <time>2016-07-03T14:13:26Z</time>
      </trkpt>
      <trkpt lat="40.888582" lon="-3.602139">
        <ele>1078.565</ele>
        <time>2016-07-03T14:13:36Z</time>
      </trkpt>
      <trkpt lat="40.888673" lon="-3.602158">
        <ele>1077.568</ele>
        <time>2016-07-03T14:13:46Z</time>
      </trkpt>
      <trkpt lat="40.888765" lon="-3.602188">
        <ele>1076.314</ele>
        <time>2016-07-03T14:13:55Z</time>
      </trkpt>
      <trkpt lat="40.888856" lon="-3.602191">
        <ele>1075.008</ele>
        <time>2016-07-03T14:14:06Z</time>
      </trkpt>
      <trkpt lat="40.888950" lon="-3.602203">
        <ele>1073.972</ele>
        <time>2016-07-03T14:14:15Z</time>
      </trkpt>
      <trkpt lat="40.889039" lon="-3.602178">
        <ele>1072.948</ele>
        <time>2016-07-03T14:14:23Z</time>
      </trkpt>
      <trkpt lat="40.889132" lon="-3.602202">
        <ele>1070.561</ele>
        <time>2016-07-03T14:14:56Z</time>
      </trkpt>
      <trkpt lat="40.889228" lon="-3.602196">
        <ele>1069.048</ele>
        <time>2016-07-03T14:15:07Z</time>
      </trkpt>
      <trkpt lat="40.889322" lon="-3.602197">
        <ele>1067.515</ele>
        <time>2016-07-03T14:15:18Z</time>
      </trkpt>
      <trkpt lat="40.889420" lon="-3.602196">
        <ele>1066.111</ele>
        <time>2016-07-03T14:15:28Z</time>
      </trkpt>
      <trkpt lat="40.889517" lon="-3.602189">
        <ele>1063.917</ele>
        <time>2016-07-03T14:15:40Z</time>
      </trkpt>
      <trkpt lat="40.889609" lon="-3.602181">
        <ele>1062.363</ele>
        <time>2016-07-03T14:15:49Z</time>
      </trkpt>
      <trkpt lat="40.889701" lon="-3.602217">
        <ele>1059.949</ele>
        <time>2016-07-03T14:16:02Z</time>
      </trkpt>
      <trkpt lat="40.889801" lon="-3.602206">
        <ele>1057.902</ele>
        <time>2016-07-03T14:16:13Z</time>
      </trkpt>
      <trkpt lat="40.889902" lon="-3.602232">
        <ele>1055.522</ele>
        <time>2016-07-03T14:16:24Z</time>
      </trkpt>
      <trkpt lat="40.889996" lon="-3.602262">
        <ele>1053.308</ele>
        <time>2016-07-03T14:16:36Z</time>
      </trkpt>
      <trkpt lat="40.890090" lon="-3.602287">
        <ele>1051.190</ele>
        <time>2016-07-03T14:16:48Z</time>
      </trkpt>
      <trkpt lat="40.890182" lon="-3.602326">
        <ele>1049.826</ele>
        <time>2016-07-03T14:16:59Z</time>
      </trkpt>
      <trkpt lat="40.890264" lon="-3.602381">
        <ele>1049.179</ele>
        <time>2016-07-03T14:17:07Z</time>
      </trkpt>
      <trkpt lat="40.890350" lon="-3.602426">
        <ele>1048.856</ele>
        <time>2016-07-03T14:17:17Z</time>
      </trkpt>
      <trkpt lat="40.890442" lon="-3.602480">
        <ele>1047.973</ele>
        <time>2016-07-03T14:17:27Z</time>
      </trkpt>
      <trkpt lat="40.890535" lon="-3.602541">
        <ele>1047.559</ele>
        <time>2016-07-03T14:17:37Z</time>
      </trkpt>
      <trkpt lat="40.890613" lon="-3.602615">
        <ele>1047.015</ele>
        <time>2016-07-03T14:17:46Z</time>
      </trkpt>
      <trkpt lat="40.890691" lon="-3.602686">
        <ele>1046.321</ele>
        <time>2016-07-03T14:17:57Z</time>
      </trkpt>
      <trkpt lat="40.890769" lon="-3.602761">
        <ele>1045.591</ele>
        <time>2016-07-03T14:18:08Z</time>
      </trkpt>
      <trkpt lat="40.890862" lon="-3.602797">
        <ele>1044.581</ele>
        <time>2016-07-03T14:18:19Z</time>
      </trkpt>
      <trkpt lat="40.890906" lon="-3.602687">
        <ele>1043.419</ele>
        <time>2016-07-03T14:18:29Z</time>
      </trkpt>
      <trkpt lat="40.890898" lon="-3.602557">
        <ele>1043.408</ele>
        <time>2016-07-03T14:18:38Z</time>
      </trkpt>
      <trkpt lat="40.890891" lon="-3.602429">
        <ele>1043.625</ele>
        <time>2016-07-03T14:18:46Z</time>
      </trkpt>
      <trkpt lat="40.890885" lon="-3.602298">
        <ele>1043.921</ele>
        <time>2016-07-03T14:18:54Z</time>
      </trkpt>
      <trkpt lat="40.890901" lon="-3.602175">
        <ele>1044.314</ele>
        <time>2016-07-03T14:19:02Z</time>
      </trkpt>
      <trkpt lat="40.890951" lon="-3.602063">
        <ele>1044.341</ele>
        <time>2016-07-03T14:19:10Z</time>
      </trkpt>
      <trkpt lat="40.890998" lon="-3.601944">
        <ele>1044.318</ele>
        <time>2016-07-03T14:19:19Z</time>
      </trkpt>
      <trkpt lat="40.891042" lon="-3.601836">
        <ele>1043.934</ele>
        <time>2016-07-03T14:19:27Z</time>
      </trkpt>
      <trkpt lat="40.891088" lon="-3.601731">
        <ele>1043.610</ele>
        <time>2016-07-03T14:19:35Z</time>
      </trkpt>
      <trkpt lat="40.891138" lon="-3.601625">
        <ele>1043.546</ele>
        <time>2016-07-03T14:19:43Z</time>
      </trkpt>
      <trkpt lat="40.891186" lon="-3.601511">
        <ele>1043.134</ele>
        <time>2016-07-03T14:19:52Z</time>
      </trkpt>
      <trkpt lat="40.891281" lon="-3.601477">
        <ele>1041.555</ele>
        <time>2016-07-03T14:23:11Z</time>
      </trkpt>
      <trkpt lat="40.891372" lon="-3.601513">
        <ele>1040.310</ele>
        <time>2016-07-03T14:23:22Z</time>
      </trkpt>
      <trkpt lat="40.891451" lon="-3.601593">
        <ele>1039.108</ele>
        <time>2016-07-03T14:23:31Z</time>
      </trkpt>
      <trkpt lat="40.891525" lon="-3.601667">
        <ele>1038.899</ele>
        <time>2016-07-03T14:23:39Z</time>
      </trkpt>
      <trkpt lat="40.891604" lon="-3.601741">
        <ele>1038.465</ele>
        <time>2016-07-03T14:23:47Z</time>
      </trkpt>
      <trkpt lat="40.891690" lon="-3.601800">
        <ele>1038.018</ele>
        <time>2016-07-03T14:23:55Z</time>
      </trkpt>
      <trkpt lat="40.891779" lon="-3.601852">
        <ele>1037.565</ele>
        <time>2016-07-03T14:24:05Z</time>
      </trkpt>
      <trkpt lat="40.891862" lon="-3.601903">
        <ele>1037.012</ele>
        <time>2016-07-03T14:24:13Z</time>
      </trkpt>
      <trkpt lat="40.891952" lon="-3.601943">
        <ele>1036.568</ele>
        <time>2016-07-03T14:24:21Z</time>
      </trkpt>
      <trkpt lat="40.892051" lon="-3.601980">
        <ele>1035.874</ele>
        <time>2016-07-03T14:24:30Z</time>
      </trkpt>
      <trkpt lat="40.892149" lon="-3.602010">
        <ele>1034.550</ele>
        <time>2016-07-03T14:24:40Z</time>
      </trkpt>
      <trkpt lat="40.892244" lon="-3.602041">
        <ele>1033.352</ele>
        <time>2016-07-03T14:24:50Z</time>
      </trkpt>
      <trkpt lat="40.892335" lon="-3.602093">
        <ele>1032.353</ele>
        <time>2016-07-03T14:24:59Z</time>
      </trkpt>
      <trkpt lat="40.892423" lon="-3.602135">
        <ele>1030.908</ele>
        <time>2016-07-03T14:25:07Z</time>
      </trkpt>
      <trkpt lat="40.892518" lon="-3.602171">
        <ele>1029.808</ele>
        <time>2016-07-03T14:25:16Z</time>
      </trkpt>
      <trkpt lat="40.892603" lon="-3.602213">
        <ele>1029.061</ele>
        <time>2016-07-03T14:25:23Z</time>
      </trkpt>
      <trkpt lat="40.892698" lon="-3.602253">
        <ele>1028.027</ele>
        <time>2016-07-03T14:25:32Z</time>
      </trkpt>
      <trkpt lat="40.892794" lon="-3.602288">
        <ele>1027.010</ele>
        <time>2016-07-03T14:25:41Z</time>
      </trkpt>
      <trkpt lat="40.892892" lon="-3.602320">
        <ele>1026.057</ele>
        <time>2016-07-03T14:25:49Z</time>
      </trkpt>
      <trkpt lat="40.892982" lon="-3.602344">
        <ele>1025.544</ele>
        <time>2016-07-03T14:25:57Z</time>
      </trkpt>
      <trkpt lat="40.893072" lon="-3.602382">
        <ele>1024.970</ele>
        <time>2016-07-03T14:26:06Z</time>
      </trkpt>
      <trkpt lat="40.893164" lon="-3.602421">
        <ele>1024.376</ele>
        <time>2016-07-03T14:26:14Z</time>
      </trkpt>
      <trkpt lat="40.893263" lon="-3.602440">
        <ele>1023.712</ele>
        <time>2016-07-03T14:26:22Z</time>
      </trkpt>
      <trkpt lat="40.893354" lon="-3.602457">
        <ele>1023.012</ele>
        <time>2016-07-03T14:26:33Z</time>
      </trkpt>
      <trkpt lat="40.893450" lon="-3.602474">
        <ele>1022.232</ele>
        <time>2016-07-03T14:26:45Z</time>
      </trkpt>
      <trkpt lat="40.893541" lon="-3.602496">
        <ele>1021.705</ele>
        <time>2016-07-03T14:26:53Z</time>
      </trkpt>
      <trkpt lat="40.893630" lon="-3.602514">
        <ele>1021.208</ele>
        <time>2016-07-03T14:27:01Z</time>
      </trkpt>
      <trkpt lat="40.893726" lon="-3.602529">
        <ele>1020.757</ele>
        <time>2016-07-03T14:27:09Z</time>
      </trkpt>
      <trkpt lat="40.893823" lon="-3.602543">
        <ele>1020.243</ele>
        <time>2016-07-03T14:27:17Z</time>
      </trkpt>
      <trkpt lat="40.893922" lon="-3.602561">
        <ele>1019.416</ele>
        <time>2016-07-03T14:27:25Z</time>
      </trkpt>
      <trkpt lat="40.894013" lon="-3.602580">
        <ele>1018.543</ele>
        <time>2016-07-03T14:27:34Z</time>
      </trkpt>
      <trkpt lat="40.894114" lon="-3.602578">
        <ele>1017.950</ele>
        <time>2016-07-03T14:27:42Z</time>
      </trkpt>
      <trkpt lat="40.894210" lon="-3.602568">
        <ele>1017.546</ele>
        <time>2016-07-03T14:27:50Z</time>
      </trkpt>
      <trkpt lat="40.894303" lon="-3.602556">
        <ele>1017.082</ele>
        <time>2016-07-03T14:28:01Z</time>
      </trkpt>
      <trkpt lat="40.894342" lon="-3.602445">
        <ele>1016.548</ele>
        <time>2016-07-03T14:28:11Z</time>
      </trkpt>
      <trkpt lat="40.894352" lon="-3.602318">
        <ele>1016.233</ele>
        <time>2016-07-03T14:28:20Z</time>
      </trkpt>
      <trkpt lat="40.894331" lon="-3.602191">
        <ele>1016.523</ele>
        <time>2016-07-03T14:28:28Z</time>
      </trkpt>
      <trkpt lat="40.894275" lon="-3.602096">
        <ele>1016.415</ele>
        <time>2016-07-03T14:28:35Z</time>
      </trkpt>
      <trkpt lat="40.894234" lon="-3.601988">
        <ele>1016.708</ele>
        <time>2016-07-03T14:28:43Z</time>
      </trkpt>
      <trkpt lat="40.894190" lon="-3.601863">
        <ele>1017.019</ele>
        <time>2016-07-03T14:28:52Z</time>
      </trkpt>
      <trkpt lat="40.894138" lon="-3.601759">
        <ele>1017.765</ele>
        <time>2016-07-03T14:29:00Z</time>
      </trkpt>
      <trkpt lat="40.894081" lon="-3.601666">
        <ele>1018.558</ele>
        <time>2016-07-03T14:29:08Z</time>
      </trkpt>
      <trkpt lat="40.894004" lon="-3.601599">
        <ele>1019.015</ele>
        <time>2016-07-03T14:29:15Z</time>
      </trkpt>
      <trkpt lat="40.893936" lon="-3.601501">
        <ele>1019.522</ele>
        <time>2016-07-03T14:29:23Z</time>
      </trkpt>
      <trkpt lat="40.893876" lon="-3.601399">
        <ele>1019.778</ele>
        <time>2016-07-03T14:29:33Z</time>
      </trkpt>
      <trkpt lat="40.893863" lon="-3.601280">
        <ele>1018.924</ele>
        <time>2016-07-03T14:29:44Z</time>
      </trkpt>
      <trkpt lat="40.893840" lon="-3.601155">
        <ele>1018.030</ele>
        <time>2016-07-03T14:29:53Z</time>
      </trkpt>
      <trkpt lat="40.893787" lon="-3.601042">
        <ele>1017.543</ele>
        <time>2016-07-03T14:30:02Z</time>
      </trkpt>
      <trkpt lat="40.893751" lon="-3.600924">
        <ele>1017.264</ele>
        <time>2016-07-03T14:30:10Z</time>
      </trkpt>
      <trkpt lat="40.893716" lon="-3.600805">
        <ele>1016.910</ele>
        <time>2016-07-03T14:30:18Z</time>
      </trkpt>
      <trkpt lat="40.893689" lon="-3.600677">
        <ele>1016.708</ele>
        <time>2016-07-03T14:30:26Z</time>
      </trkpt>
      <trkpt lat="40.893663" lon="-3.600556">
        <ele>1016.280</ele>
        <time>2016-07-03T14:30:34Z</time>
      </trkpt>
      <trkpt lat="40.893610" lon="-3.600455">
        <ele>1016.246</ele>
        <time>2016-07-03T14:30:41Z</time>
      </trkpt>
      <trkpt lat="40.893529" lon="-3.600385">
        <ele>1016.299</ele>
        <time>2016-07-03T14:30:48Z</time>
      </trkpt>
      <trkpt lat="40.893443" lon="-3.600339">
        <ele>1016.476</ele>
        <time>2016-07-03T14:30:55Z</time>
      </trkpt>
      <trkpt lat="40.893364" lon="-3.600264">
        <ele>1016.013</ele>
        <time>2016-07-03T14:31:04Z</time>
      </trkpt>
      <trkpt lat="40.893301" lon="-3.600171">
        <ele>1015.759</ele>
        <time>2016-07-03T14:31:12Z</time>
      </trkpt>
      <trkpt lat="40.893241" lon="-3.600080">
        <ele>1016.075</ele>
        <time>2016-07-03T14:31:19Z</time>
      </trkpt>
      <trkpt lat="40.893172" lon="-3.600002">
        <ele>1016.261</ele>
        <time>2016-07-03T14:31:26Z</time>
      </trkpt>
      <trkpt lat="40.893092" lon="-3.599926">
        <ele>1016.281</ele>
        <time>2016-07-03T14:31:35Z</time>
      </trkpt>
      <trkpt lat="40.893028" lon="-3.599843">
        <ele>1016.261</ele>
        <time>2016-07-03T14:31:42Z</time>
      </trkpt>
      <trkpt lat="40.892946" lon="-3.599764">
        <ele>1016.217</ele>
        <time>2016-07-03T14:31:51Z</time>
      </trkpt>
      <trkpt lat="40.892867" lon="-3.599705">
        <ele>1016.208</ele>
        <time>2016-07-03T14:31:58Z</time>
      </trkpt>
      <trkpt lat="40.892777" lon="-3.599655">
        <ele>1016.074</ele>
        <time>2016-07-03T14:32:06Z</time>
      </trkpt>
      <trkpt lat="40.892687" lon="-3.599587">
        <ele>1016.080</ele>
        <time>2016-07-03T14:32:14Z</time>
      </trkpt>
      <trkpt lat="40.892615" lon="-3.599507">
        <ele>1016.573</ele>
        <time>2016-07-03T14:32:22Z</time>
      </trkpt>
      <trkpt lat="40.892525" lon="-3.599446">
        <ele>1017.210</ele>
        <time>2016-07-03T14:32:30Z</time>
      </trkpt>
      <trkpt lat="40.892442" lon="-3.599392">
        <ele>1017.267</ele>
        <time>2016-07-03T14:32:37Z</time>
      </trkpt>
      <trkpt lat="40.892378" lon="-3.599299">
        <ele>1017.293</ele>
        <time>2016-07-03T14:32:50Z</time>
      </trkpt>
      <trkpt lat="40.892309" lon="-3.599204">
        <ele>1016.969</ele>
        <time>2016-07-03T14:32:58Z</time>
      </trkpt>
      <trkpt lat="40.892239" lon="-3.599116">
        <ele>1016.225</ele>
        <time>2016-07-03T14:33:06Z</time>
      </trkpt>
      <trkpt lat="40.892167" lon="-3.599041">
        <ele>1015.752</ele>
        <time>2016-07-03T14:33:13Z</time>
      </trkpt>
      <trkpt lat="40.892087" lon="-3.598980">
        <ele>1015.253</ele>
        <time>2016-07-03T14:33:20Z</time>
      </trkpt>
      <trkpt lat="40.892002" lon="-3.598925">
        <ele>1014.708</ele>
        <time>2016-07-03T14:33:28Z</time>
      </trkpt>
      <trkpt lat="40.891924" lon="-3.598853">
        <ele>1013.508</ele>
        <time>2016-07-03T14:33:53Z</time>
      </trkpt>
      <trkpt lat="40.891878" lon="-3.598745">
        <ele>1012.281</ele>
        <time>2016-07-03T14:34:03Z</time>
      </trkpt>
      <trkpt lat="40.891828" lon="-3.598630">
        <ele>1011.227</ele>
        <time>2016-07-03T14:34:13Z</time>
      </trkpt>
      <trkpt lat="40.891740" lon="-3.598567">
        <ele>1011.530</ele>
        <time>2016-07-03T14:34:20Z</time>
      </trkpt>
      <trkpt lat="40.891700" lon="-3.598442">
        <ele>1011.417</ele>
        <time>2016-07-03T14:35:20Z</time>
      </trkpt>
      <trkpt lat="40.891711" lon="-3.598319">
        <ele>1011.084</ele>
        <time>2016-07-03T14:35:29Z</time>
      </trkpt>
      <trkpt lat="40.891754" lon="-3.598214">
        <ele>1010.940</ele>
        <time>2016-07-03T14:35:36Z</time>
      </trkpt>
      <trkpt lat="40.891823" lon="-3.598115">
        <ele>1010.596</ele>
        <time>2016-07-03T14:35:44Z</time>
      </trkpt>
      <trkpt lat="40.891896" lon="-3.598023">
        <ele>1010.062</ele>
        <time>2016-07-03T14:35:54Z</time>
      </trkpt>
      <trkpt lat="40.891962" lon="-3.597921">
        <ele>1010.229</ele>
        <time>2016-07-03T14:36:04Z</time>
      </trkpt>
      <trkpt lat="40.892044" lon="-3.597869">
        <ele>1010.000</ele>
        <time>2016-07-03T14:36:12Z</time>
      </trkpt>
      <trkpt lat="40.892139" lon="-3.597829">
        <ele>1009.520</ele>
        <time>2016-07-03T14:36:21Z</time>
      </trkpt>
      <trkpt lat="40.892231" lon="-3.597802">
        <ele>1009.208</ele>
        <time>2016-07-03T14:36:29Z</time>
      </trkpt>
      <trkpt lat="40.892325" lon="-3.597772">
        <ele>1009.098</ele>
        <time>2016-07-03T14:36:37Z</time>
      </trkpt>
      <trkpt lat="40.892420" lon="-3.597733">
        <ele>1009.064</ele>
        <time>2016-07-03T14:36:45Z</time>
      </trkpt>
      <trkpt lat="40.892511" lon="-3.597695">
        <ele>1009.057</ele>
        <time>2016-07-03T14:36:53Z</time>
      </trkpt>
      <trkpt lat="40.892595" lon="-3.597630">
        <ele>1009.484</ele>
        <time>2016-07-03T14:37:00Z</time>
      </trkpt>
      <trkpt lat="40.892670" lon="-3.597553">
        <ele>1010.011</ele>
        <time>2016-07-03T14:37:08Z</time>
      </trkpt>
      <trkpt lat="40.892723" lon="-3.597452">
        <ele>1010.237</ele>
        <time>2016-07-03T14:37:16Z</time>
      </trkpt>
      <trkpt lat="40.892785" lon="-3.597361">
        <ele>1010.553</ele>
        <time>2016-07-03T14:37:24Z</time>
      </trkpt>
      <trkpt lat="40.892823" lon="-3.597251">
        <ele>1011.069</ele>
        <time>2016-07-03T14:37:31Z</time>
      </trkpt>
      <trkpt lat="40.892870" lon="-3.597133">
        <ele>1011.949</ele>
        <time>2016-07-03T14:37:39Z</time>
      </trkpt>
      <trkpt lat="40.892906" lon="-3.597010">
        <ele>1012.902</ele>
        <time>2016-07-03T14:37:48Z</time>
      </trkpt>
      <trkpt lat="40.892956" lon="-3.596911">
        <ele>1013.022</ele>
        <time>2016-07-03T14:37:55Z</time>
      </trkpt>
      <trkpt lat="40.893004" lon="-3.596798">
        <ele>1013.408</ele>
        <time>2016-07-03T14:38:03Z</time>
      </trkpt>
      <trkpt lat="40.893053" lon="-3.596687">
        <ele>1014.040</ele>
        <time>2016-07-03T14:38:11Z</time>
      </trkpt>
      <trkpt lat="40.893110" lon="-3.596590">
        <ele>1014.236</ele>
        <time>2016-07-03T14:38:18Z</time>
      </trkpt>
      <trkpt lat="40.893197" lon="-3.596541">
        <ele>1014.549</ele>
        <time>2016-07-03T14:38:26Z</time>
      </trkpt>
      <trkpt lat="40.893295" lon="-3.596521">
        <ele>1014.786</ele>
        <time>2016-07-03T14:38:35Z</time>
      </trkpt>
      <trkpt lat="40.893393" lon="-3.596493">
        <ele>1015.243</ele>
        <time>2016-07-03T14:38:43Z</time>
      </trkpt>
      <trkpt lat="40.893481" lon="-3.596458">
        <ele>1015.719</ele>
        <time>2016-07-03T14:38:51Z</time>
      </trkpt>
      <trkpt lat="40.893572" lon="-3.596410">
        <ele>1015.775</ele>
        <time>2016-07-03T14:39:00Z</time>
      </trkpt>
      <trkpt lat="40.893667" lon="-3.596387">
        <ele>1015.421</ele>
        <time>2016-07-03T14:39:09Z</time>
      </trkpt>
      <trkpt lat="40.893757" lon="-3.596370">
        <ele>1014.999</ele>
        <time>2016-07-03T14:39:17Z</time>
      </trkpt>
      <trkpt lat="40.893856" lon="-3.596380">
        <ele>1014.207</ele>
        <time>2016-07-03T14:39:26Z</time>
      </trkpt>
      <trkpt lat="40.893949" lon="-3.596379">
        <ele>1013.027</ele>
        <time>2016-07-03T14:39:35Z</time>
      </trkpt>
      <trkpt lat="40.894044" lon="-3.596352">
        <ele>1012.208</ele>
        <time>2016-07-03T14:39:44Z</time>
      </trkpt>
      <trkpt lat="40.894124" lon="-3.596289">
        <ele>1011.215</ele>
        <time>2016-07-03T14:39:52Z</time>
      </trkpt>
      <trkpt lat="40.894192" lon="-3.596194">
        <ele>1010.551</ele>
        <time>2016-07-03T14:40:01Z</time>
      </trkpt>
      <trkpt lat="40.894252" lon="-3.596096">
        <ele>1010.284</ele>
        <time>2016-07-03T14:40:10Z</time>
      </trkpt>
      <trkpt lat="40.894320" lon="-3.596011">
        <ele>1010.231</ele>
        <time>2016-07-03T14:40:18Z</time>
      </trkpt>
      <trkpt lat="40.894368" lon="-3.595900">
        <ele>1010.078</ele>
        <time>2016-07-03T14:40:26Z</time>
      </trkpt>
      <trkpt lat="40.894421" lon="-3.595797">
        <ele>1010.444</ele>
        <time>2016-07-03T14:40:34Z</time>
      </trkpt>
      <trkpt lat="40.894450" lon="-3.595680">
        <ele>1009.740</ele>
        <time>2016-07-03T14:40:43Z</time>
      </trkpt>
      <trkpt lat="40.894506" lon="-3.595571">
        <ele>1007.976</ele>
        <time>2016-07-03T14:40:53Z</time>
      </trkpt>
      <trkpt lat="40.894592" lon="-3.595525">
        <ele>1006.428</ele>
        <time>2016-07-03T14:41:02Z</time>
      </trkpt>
      <trkpt lat="40.894686" lon="-3.595514">
        <ele>1005.289</ele>
        <time>2016-07-03T14:41:11Z</time>
      </trkpt>
      <trkpt lat="40.894768" lon="-3.595450">
        <ele>1004.217</ele>
        <time>2016-07-03T14:41:20Z</time>
      </trkpt>
      <trkpt lat="40.894844" lon="-3.595385">
        <ele>1004.008</ele>
        <time>2016-07-03T14:41:28Z</time>
      </trkpt>
      <trkpt lat="40.894914" lon="-3.595311">
        <ele>1004.068</ele>
        <time>2016-07-03T14:41:35Z</time>
      </trkpt>
      <trkpt lat="40.894985" lon="-3.595230">
        <ele>1003.534</ele>
        <time>2016-07-03T14:41:43Z</time>
      </trkpt>
      <trkpt lat="40.895033" lon="-3.595123">
        <ele>1003.297</ele>
        <time>2016-07-03T14:41:54Z</time>
      </trkpt>
      <trkpt lat="40.895082" lon="-3.595018">
        <ele>1002.924</ele>
        <time>2016-07-03T14:42:02Z</time>
      </trkpt>
      <trkpt lat="40.895113" lon="-3.594905">
        <ele>1002.581</ele>
        <time>2016-07-03T14:42:10Z</time>
      </trkpt>
      <trkpt lat="40.895139" lon="-3.594781">
        <ele>1001.457</ele>
        <time>2016-07-03T14:42:19Z</time>
      </trkpt>
      <trkpt lat="40.895180" lon="-3.594666">
        <ele>1000.563</ele>
        <time>2016-07-03T14:42:27Z</time>
      </trkpt>
      <trkpt lat="40.895198" lon="-3.594540">
        <ele>999.579</ele>
        <time>2016-07-03T14:42:35Z</time>
      </trkpt>
      <trkpt lat="40.895214" lon="-3.594411">
        <ele>998.421</ele>
        <time>2016-07-03T14:42:43Z</time>
      </trkpt>
      <trkpt lat="40.895230" lon="-3.594279">
        <ele>997.741</ele>
        <time>2016-07-03T14:42:51Z</time>
      </trkpt>
      <trkpt lat="40.895241" lon="-3.594146">
        <ele>998.005</ele>
        <time>2016-07-03T14:42:59Z</time>
      </trkpt>
      <trkpt lat="40.895253" lon="-3.594023">
        <ele>998.208</ele>
        <time>2016-07-03T14:43:06Z</time>
      </trkpt>
      <trkpt lat="40.895279" lon="-3.593894">
        <ele>998.518</ele>
        <time>2016-07-03T14:43:41Z</time>
      </trkpt>
      <trkpt lat="40.895244" lon="-3.593770">
        <ele>999.444</ele>
        <time>2016-07-03T14:43:49Z</time>
      </trkpt>
      <trkpt lat="40.895200" lon="-3.593660">
        <ele>1000.237</ele>
        <time>2016-07-03T14:43:57Z</time>
      </trkpt>
      <trkpt lat="40.895131" lon="-3.593579">
        <ele>1001.264</ele>
        <time>2016-07-03T14:44:08Z</time>
      </trkpt>
      <trkpt lat="40.895067" lon="-3.593492">
        <ele>1002.231</ele>
        <time>2016-07-03T14:47:06Z</time>
      </trkpt>
      <trkpt lat="40.895008" lon="-3.593392">
        <ele>1003.277</ele>
        <time>2016-07-03T14:47:15Z</time>
      </trkpt>
      <trkpt lat="40.894951" lon="-3.593284">
        <ele>1003.583</ele>
        <time>2016-07-03T14:47:23Z</time>
      </trkpt>
      <trkpt lat="40.894909" lon="-3.593172">
        <ele>1003.739</ele>
        <time>2016-07-03T14:47:30Z</time>
      </trkpt>
      <trkpt lat="40.894854" lon="-3.593061">
        <ele>1004.912</ele>
        <time>2016-07-03T14:47:38Z</time>
      </trkpt>
      <trkpt lat="40.894772" lon="-3.593007">
        <ele>1005.532</ele>
        <time>2016-07-03T14:47:45Z</time>
      </trkpt>
      <trkpt lat="40.894686" lon="-3.592951">
        <ele>1006.005</ele>
        <time>2016-07-03T14:47:52Z</time>
      </trkpt>
      <trkpt lat="40.894592" lon="-3.592921">
        <ele>1006.508</ele>
        <time>2016-07-03T14:48:01Z</time>
      </trkpt>
      <trkpt lat="40.894494" lon="-3.592880">
        <ele>1006.987</ele>
        <time>2016-07-03T14:48:09Z</time>
      </trkpt>
      <trkpt lat="40.894414" lon="-3.592825">
        <ele>1007.543</ele>
        <time>2016-07-03T14:48:17Z</time>
      </trkpt>
      <trkpt lat="40.894315" lon="-3.592785">
        <ele>1008.546</ele>
        <time>2016-07-03T14:48:25Z</time>
      </trkpt>
      <trkpt lat="40.894220" lon="-3.592747">
        <ele>1009.293</ele>
        <time>2016-07-03T14:48:34Z</time>
      </trkpt>
      <trkpt lat="40.894161" lon="-3.592652">
        <ele>1009.070</ele>
        <time>2016-07-03T14:48:42Z</time>
      </trkpt>
      <trkpt lat="40.894120" lon="-3.592529">
        <ele>1009.286</ele>
        <time>2016-07-03T14:48:51Z</time>
      </trkpt>
      <trkpt lat="40.894103" lon="-3.592410">
        <ele>1009.092</ele>
        <time>2016-07-03T14:48:58Z</time>
      </trkpt>
      <trkpt lat="40.894082" lon="-3.592287">
        <ele>1009.518</ele>
        <time>2016-07-03T14:49:06Z</time>
      </trkpt>
      <trkpt lat="40.894065" lon="-3.592166">
        <ele>1009.923</ele>
        <time>2016-07-03T14:49:13Z</time>
      </trkpt>
      <trkpt lat="40.894063" lon="-3.592036">
        <ele>1010.483</ele>
        <time>2016-07-03T14:49:20Z</time>
      </trkpt>
      <trkpt lat="40.894058" lon="-3.591903">
        <ele>1011.711</ele>
        <time>2016-07-03T14:49:29Z</time>
      </trkpt>
      <trkpt lat="40.894043" lon="-3.591782">
        <ele>1012.008</ele>
        <time>2016-07-03T14:49:37Z</time>
      </trkpt>
      <trkpt lat="40.893990" lon="-3.591668">
        <ele>1012.958</ele>
        <time>2016-07-03T14:49:44Z</time>
      </trkpt>
      <trkpt lat="40.893905" lon="-3.591624">
        <ele>1013.734</ele>
        <time>2016-07-03T14:49:52Z</time>
      </trkpt>
      <trkpt lat="40.893806" lon="-3.591581">
        <ele>1014.757</ele>
        <time>2016-07-03T14:50:01Z</time>
      </trkpt>
      <trkpt lat="40.893705" lon="-3.591573">
        <ele>1014.764</ele>
        <time>2016-07-03T14:50:11Z</time>
      </trkpt>
      <trkpt lat="40.893634" lon="-3.591484">
        <ele>1015.541</ele>
        <time>2016-07-03T14:50:19Z</time>
      </trkpt>
      <trkpt lat="40.893567" lon="-3.591390">
        <ele>1015.967</ele>
        <time>2016-07-03T14:50:27Z</time>
      </trkpt>
      <trkpt lat="40.893509" lon="-3.591293">
        <ele>1015.783</ele>
        <time>2016-07-03T14:50:35Z</time>
      </trkpt>
      <trkpt lat="40.893430" lon="-3.591215">
        <ele>1015.589</ele>
        <time>2016-07-03T14:50:43Z</time>
      </trkpt>
      <trkpt lat="40.893350" lon="-3.591146">
        <ele>1015.953</ele>
        <time>2016-07-03T14:50:51Z</time>
      </trkpt>
      <trkpt lat="40.893259" lon="-3.591090">
        <ele>1016.504</ele>
        <time>2016-07-03T14:50:58Z</time>
      </trkpt>
      <trkpt lat="40.893170" lon="-3.591050">
        <ele>1017.214</ele>
        <time>2016-07-03T14:51:06Z</time>
      </trkpt>
      <trkpt lat="40.893077" lon="-3.590995">
        <ele>1018.008</ele>
        <time>2016-07-03T14:51:14Z</time>
      </trkpt>
      <trkpt lat="40.892987" lon="-3.590925">
        <ele>1018.981</ele>
        <time>2016-07-03T14:51:22Z</time>
      </trkpt>
      <trkpt lat="40.892899" lon="-3.590874">
        <ele>1019.537</ele>
        <time>2016-07-03T14:51:29Z</time>
      </trkpt>
      <trkpt lat="40.892809" lon="-3.590841">
        <ele>1020.710</ele>
        <time>2016-07-03T14:51:37Z</time>
      </trkpt>
      <trkpt lat="40.892710" lon="-3.590845">
        <ele>1022.547</ele>
        <time>2016-07-03T14:51:46Z</time>
      </trkpt>
      <trkpt lat="40.892615" lon="-3.590884">
        <ele>1023.934</ele>
        <time>2016-07-03T14:51:55Z</time>
      </trkpt>
      <trkpt lat="40.892514" lon="-3.590892">
        <ele>1024.860</ele>
        <time>2016-07-03T14:52:03Z</time>
      </trkpt>
      <trkpt lat="40.892420" lon="-3.590843">
        <ele>1025.026</ele>
        <time>2016-07-03T14:52:11Z</time>
      </trkpt>
      <trkpt lat="40.892370" lon="-3.590743">
        <ele>1025.362</ele>
        <time>2016-07-03T14:52:18Z</time>
      </trkpt>
      <trkpt lat="40.892357" lon="-3.590607">
        <ele>1025.561</ele>
        <time>2016-07-03T14:52:26Z</time>
      </trkpt>
      <trkpt lat="40.892343" lon="-3.590487">
        <ele>1025.321</ele>
        <time>2016-07-03T14:52:33Z</time>
      </trkpt>
      <trkpt lat="40.892326" lon="-3.590356">
        <ele>1024.313</ele>
        <time>2016-07-03T14:52:41Z</time>
      </trkpt>
      <trkpt lat="40.892310" lon="-3.590226">
        <ele>1023.708</ele>
        <time>2016-07-03T14:52:49Z</time>
      </trkpt>
      <trkpt lat="40.892295" lon="-3.590098">
        <ele>1023.532</ele>
        <time>2016-07-03T14:52:57Z</time>
      </trkpt>
      <trkpt lat="40.892270" lon="-3.589971">
        <ele>1023.758</ele>
        <time>2016-07-03T14:53:04Z</time>
      </trkpt>
      <trkpt lat="40.892233" lon="-3.589845">
        <ele>1024.591</ele>
        <time>2016-07-03T14:53:11Z</time>
      </trkpt>
      <trkpt lat="40.892187" lon="-3.589728">
        <ele>1025.488</ele>
        <time>2016-07-03T14:53:18Z</time>
      </trkpt>
      <trkpt lat="40.892168" lon="-3.589603">
        <ele>1025.525</ele>
        <time>2016-07-03T14:53:39Z</time>
      </trkpt>
      <trkpt lat="40.892212" lon="-3.589489">
        <ele>1024.611</ele>
        <time>2016-07-03T14:53:50Z</time>
      </trkpt>
      <trkpt lat="40.892253" lon="-3.589376">
        <ele>1023.017</ele>
        <time>2016-07-03T14:53:59Z</time>
      </trkpt>
      <trkpt lat="40.892302" lon="-3.589275">
        <ele>1021.783</ele>
        <time>2016-07-03T14:54:08Z</time>
      </trkpt>
      <trkpt lat="40.892315" lon="-3.589154">
        <ele>1021.076</ele>
        <time>2016-07-03T14:54:16Z</time>
      </trkpt>
      <trkpt lat="40.892393" lon="-3.589088">
        <ele>1020.790</ele>
        <time>2016-07-03T14:54:26Z</time>
      </trkpt>
      <trkpt lat="40.892489" lon="-3.589064">
        <ele>1020.519</ele>
        <time>2016-07-03T14:54:34Z</time>
      </trkpt>
      <trkpt lat="40.892574" lon="-3.589004">
        <ele>1020.508</ele>
        <time>2016-07-03T14:54:43Z</time>
      </trkpt>
      <trkpt lat="40.892669" lon="-3.588975">
        <ele>1020.493</ele>
        <time>2016-07-03T14:54:52Z</time>
      </trkpt>
      <trkpt lat="40.892762" lon="-3.588934">
        <ele>1020.249</ele>
        <time>2016-07-03T14:55:01Z</time>
      </trkpt>
      <trkpt lat="40.892859" lon="-3.588912">
        <ele>1019.732</ele>
        <time>2016-07-03T14:55:10Z</time>
      </trkpt>
      <trkpt lat="40.892955" lon="-3.588897">
        <ele>1018.919</ele>
        <time>2016-07-03T14:55:19Z</time>
      </trkpt>
      <trkpt lat="40.893053" lon="-3.588868">
        <ele>1018.446</ele>
        <time>2016-07-03T14:55:28Z</time>
      </trkpt>
      <trkpt lat="40.893144" lon="-3.588819">
        <ele>1017.512</ele>
        <time>2016-07-03T14:55:37Z</time>
      </trkpt>
      <trkpt lat="40.893222" lon="-3.588752">
        <ele>1016.278</ele>
        <time>2016-07-03T14:55:46Z</time>
      </trkpt>
      <trkpt lat="40.893298" lon="-3.588684">
        <ele>1015.714</ele>
        <time>2016-07-03T14:55:54Z</time>
      </trkpt>
      <trkpt lat="40.893390" lon="-3.588636">
        <ele>1015.562</ele>
        <time>2016-07-03T14:56:03Z</time>
      </trkpt>
      <trkpt lat="40.893483" lon="-3.588625">
        <ele>1015.583</ele>
        <time>2016-07-03T14:56:11Z</time>
      </trkpt>
      <trkpt lat="40.893575" lon="-3.588626">
        <ele>1015.511</ele>
        <time>2016-07-03T14:56:19Z</time>
      </trkpt>
      <trkpt lat="40.893671" lon="-3.588628">
        <ele>1014.708</ele>
        <time>2016-07-03T14:56:28Z</time>
      </trkpt>
      <trkpt lat="40.893764" lon="-3.588624">
        <ele>1014.222</ele>
        <time>2016-07-03T14:56:35Z</time>
      </trkpt>
      <trkpt lat="40.893856" lon="-3.588582">
        <ele>1013.748</ele>
        <time>2016-07-03T14:56:43Z</time>
      </trkpt>
      <trkpt lat="40.893930" lon="-3.588495">
        <ele>1013.261</ele>
        <time>2016-07-03T14:56:51Z</time>
      </trkpt>
      <trkpt lat="40.893984" lon="-3.588379">
        <ele>1012.568</ele>
        <time>2016-07-03T14:56:59Z</time>
      </trkpt>
      <trkpt lat="40.894037" lon="-3.588282">
        <ele>1011.515</ele>
        <time>2016-07-03T14:57:07Z</time>
      </trkpt>
      <trkpt lat="40.894100" lon="-3.588186">
        <ele>1011.091</ele>
        <time>2016-07-03T14:57:17Z</time>
      </trkpt>
      <trkpt lat="40.894163" lon="-3.588085">
        <ele>1010.017</ele>
        <time>2016-07-03T14:57:26Z</time>
      </trkpt>
      <trkpt lat="40.894190" lon="-3.587968">
        <ele>1009.743</ele>
        <time>2016-07-03T14:57:30Z</time>
      </trkpt>
      <trkpt lat="40.894185" lon="-3.587845">
        <ele>1009.936</ele>
        <time>2016-07-03T14:57:34Z</time>
      </trkpt>
      <trkpt lat="40.894183" lon="-3.587709">
        <ele>1010.017</ele>
        <time>2016-07-03T14:57:38Z</time>
      </trkpt>
      <trkpt lat="40.894173" lon="-3.587574">
        <ele>1010.218</ele>
        <time>2016-07-03T14:57:42Z</time>
      </trkpt>
      <trkpt lat="40.894186" lon="-3.587443">
        <ele>1010.008</ele>
        <time>2016-07-03T14:57:46Z</time>
      </trkpt>
      <trkpt lat="40.894216" lon="-3.587311">
        <ele>1009.789</ele>
        <time>2016-07-03T14:57:50Z</time>
      </trkpt>
      <trkpt lat="40.894271" lon="-3.587207">
        <ele>1009.595</ele>
        <time>2016-07-03T14:57:54Z</time>
      </trkpt>
      <trkpt lat="40.894349" lon="-3.587115">
        <ele>1009.238</ele>
        <time>2016-07-03T14:57:58Z</time>
      </trkpt>
      <trkpt lat="40.894409" lon="-3.586993">
        <ele>1008.725</ele>
        <time>2016-07-03T14:58:02Z</time>
      </trkpt>
      <trkpt lat="40.894473" lon="-3.586885">
        <ele>1008.732</ele>
        <time>2016-07-03T14:58:06Z</time>
      </trkpt>
      <trkpt lat="40.894532" lon="-3.586785">
        <ele>1008.018</ele>
        <time>2016-07-03T14:58:10Z</time>
      </trkpt>
      <trkpt lat="40.894592" lon="-3.586685">
        <ele>1007.764</ele>
        <time>2016-07-03T14:58:14Z</time>
      </trkpt>
      <trkpt lat="40.894655" lon="-3.586577">
        <ele>1007.910</ele>
        <time>2016-07-03T14:58:18Z</time>
      </trkpt>
      <trkpt lat="40.894705" lon="-3.586451">
        <ele>1007.782</ele>
        <time>2016-07-03T14:58:22Z</time>
      </trkpt>
      <trkpt lat="40.894736" lon="-3.586310">
        <ele>1007.743</ele>
        <time>2016-07-03T14:58:26Z</time>
      </trkpt>
      <trkpt lat="40.894766" lon="-3.586158">
        <ele>1008.417</ele>
        <time>2016-07-03T14:58:30Z</time>
      </trkpt>
      <trkpt lat="40.894792" lon="-3.586041">
        <ele>1008.708</ele>
        <time>2016-07-03T14:58:33Z</time>
      </trkpt>
      <trkpt lat="40.894824" lon="-3.585930">
        <ele>1009.224</ele>
        <time>2016-07-03T14:58:36Z</time>
      </trkpt>
      <trkpt lat="40.894865" lon="-3.585785">
        <ele>1009.750</ele>
        <time>2016-07-03T14:58:40Z</time>
      </trkpt>
      <trkpt lat="40.894887" lon="-3.585660">
        <ele>1009.943</ele>
        <time>2016-07-03T14:58:45Z</time>
      </trkpt>
      <trkpt lat="40.894900" lon="-3.585528">
        <ele>1010.280</ele>
        <time>2016-07-03T14:58:53Z</time>
      </trkpt>
      <trkpt lat="40.894919" lon="-3.585407">
        <ele>1010.257</ele>
        <time>2016-07-03T14:59:00Z</time>
      </trkpt>
      <trkpt lat="40.894941" lon="-3.585286">
        <ele>1010.713</ele>
        <time>2016-07-03T14:59:07Z</time>
      </trkpt>
      <trkpt lat="40.894943" lon="-3.585157">
        <ele>1010.589</ele>
        <time>2016-07-03T14:59:14Z</time>
      </trkpt>
      <trkpt lat="40.894951" lon="-3.585036">
        <ele>1010.235</ele>
        <time>2016-07-03T14:59:21Z</time>
      </trkpt>
      <trkpt lat="40.894962" lon="-3.584911">
        <ele>1010.055</ele>
        <time>2016-07-03T14:59:28Z</time>
      </trkpt>
      <trkpt lat="40.894984" lon="-3.584790">
        <ele>1009.907</ele>
        <time>2016-07-03T14:59:35Z</time>
      </trkpt>
      <trkpt lat="40.895009" lon="-3.584674">
        <ele>1009.917</ele>
        <time>2016-07-03T14:59:42Z</time>
      </trkpt>
      <trkpt lat="40.895055" lon="-3.584563">
        <ele>1009.908</ele>
        <time>2016-07-03T14:59:50Z</time>
      </trkpt>
      <trkpt lat="40.895105" lon="-3.584463">
        <ele>1009.741</ele>
        <time>2016-07-03T14:59:57Z</time>
      </trkpt>
      <trkpt lat="40.895154" lon="-3.584352">
        <ele>1009.287</ele>
        <time>2016-07-03T15:00:04Z</time>
      </trkpt>
      <trkpt lat="40.895196" lon="-3.584229">
        <ele>1008.950</ele>
        <time>2016-07-03T15:00:12Z</time>
      </trkpt>
      <trkpt lat="40.895237" lon="-3.584104">
        <ele>1008.947</ele>
        <time>2016-07-03T15:00:19Z</time>
      </trkpt>
      <trkpt lat="40.895273" lon="-3.583991">
        <ele>1009.024</ele>
        <time>2016-07-03T15:00:25Z</time>
      </trkpt>
      <trkpt lat="40.895297" lon="-3.583874">
        <ele>1008.770</ele>
        <time>2016-07-03T15:00:29Z</time>
      </trkpt>
      <trkpt lat="40.895301" lon="-3.583742">
        <ele>1009.436</ele>
        <time>2016-07-03T15:00:33Z</time>
      </trkpt>
      <trkpt lat="40.895310" lon="-3.583618">
        <ele>1009.752</ele>
        <time>2016-07-03T15:00:37Z</time>
      </trkpt>
      <trkpt lat="40.895298" lon="-3.583485">
        <ele>1010.525</ele>
        <time>2016-07-03T15:00:41Z</time>
      </trkpt>
      <trkpt lat="40.895270" lon="-3.583349">
        <ele>1011.026</ele>
        <time>2016-07-03T15:00:45Z</time>
      </trkpt>
      <trkpt lat="40.895260" lon="-3.583219">
        <ele>1011.508</ele>
        <time>2016-07-03T15:00:49Z</time>
      </trkpt>
      <trkpt lat="40.895265" lon="-3.583084">
        <ele>1011.908</ele>
        <time>2016-07-03T15:00:53Z</time>
      </trkpt>
      <trkpt lat="40.895254" lon="-3.582931">
        <ele>1012.068</ele>
        <time>2016-07-03T15:00:57Z</time>
      </trkpt>
      <trkpt lat="40.895263" lon="-3.582800">
        <ele>1012.244</ele>
        <time>2016-07-03T15:01:01Z</time>
      </trkpt>
      <trkpt lat="40.895294" lon="-3.582683">
        <ele>1012.077</ele>
        <time>2016-07-03T15:01:05Z</time>
      </trkpt>
      <trkpt lat="40.895334" lon="-3.582561">
        <ele>1012.594</ele>
        <time>2016-07-03T15:01:09Z</time>
      </trkpt>
      <trkpt lat="40.895379" lon="-3.582432">
        <ele>1012.531</ele>
        <time>2016-07-03T15:01:13Z</time>
      </trkpt>
      <trkpt lat="40.895434" lon="-3.582306">
        <ele>1012.567</ele>
        <time>2016-07-03T15:01:17Z</time>
      </trkpt>
      <trkpt lat="40.895495" lon="-3.582188">
        <ele>1012.793</ele>
        <time>2016-07-03T15:01:21Z</time>
      </trkpt>
      <trkpt lat="40.895545" lon="-3.582064">
        <ele>1013.019</ele>
        <time>2016-07-03T15:01:29Z</time>
      </trkpt>
      <trkpt lat="40.895574" lon="-3.581942">
        <ele>1013.975</ele>
        <time>2016-07-03T15:01:38Z</time>
      </trkpt>
      <trkpt lat="40.895564" lon="-3.581823">
        <ele>1014.228</ele>
        <time>2016-07-03T15:01:49Z</time>
      </trkpt>
      <trkpt lat="40.895515" lon="-3.581722">
        <ele>1014.920</ele>
        <time>2016-07-03T15:02:00Z</time>
      </trkpt>
      <trkpt lat="40.895426" lon="-3.581644">
        <ele>1014.708</ele>
        <time>2016-07-03T15:02:05Z</time>
      </trkpt>
      <trkpt lat="40.895331" lon="-3.581668">
        <ele>1014.763</ele>
        <time>2016-07-03T15:02:09Z</time>
      </trkpt>
      <trkpt lat="40.895236" lon="-3.581678">
        <ele>1015.219</ele>
        <time>2016-07-03T15:02:14Z</time>
      </trkpt>
      <trkpt lat="40.895149" lon="-3.581611">
        <ele>1015.432</ele>
        <time>2016-07-03T15:02:23Z</time>
      </trkpt>
      <trkpt lat="40.895109" lon="-3.581501">
        <ele>1015.969</ele>
        <time>2016-07-03T15:02:31Z</time>
      </trkpt>
      <trkpt lat="40.895099" lon="-3.581379">
        <ele>1016.526</ele>
        <time>2016-07-03T15:02:39Z</time>
      </trkpt>
      <trkpt lat="40.895090" lon="-3.581253">
        <ele>1016.942</ele>
        <time>2016-07-03T15:02:47Z</time>
      </trkpt>
      <trkpt lat="40.895076" lon="-3.581120">
        <ele>1016.778</ele>
        <time>2016-07-03T15:02:56Z</time>
      </trkpt>
      <trkpt lat="40.895073" lon="-3.580989">
        <ele>1015.784</ele>
        <time>2016-07-03T15:03:05Z</time>
      </trkpt>
      <trkpt lat="40.895078" lon="-3.580857">
        <ele>1015.061</ele>
        <time>2016-07-03T15:03:14Z</time>
      </trkpt>
      <trkpt lat="40.895073" lon="-3.580724">
        <ele>1014.221</ele>
        <time>2016-07-03T15:03:23Z</time>
      </trkpt>
      <trkpt lat="40.895051" lon="-3.580608">
        <ele>1013.513</ele>
        <time>2016-07-03T15:03:31Z</time>
      </trkpt>
      <trkpt lat="40.895012" lon="-3.580483">
        <ele>1012.908</ele>
        <time>2016-07-03T15:03:40Z</time>
      </trkpt>
      <trkpt lat="40.895005" lon="-3.580363">
        <ele>1012.242</ele>
        <time>2016-07-03T15:03:48Z</time>
      </trkpt>
      <trkpt lat="40.894994" lon="-3.580246">
        <ele>1011.578</ele>
        <time>2016-07-03T15:03:56Z</time>
      </trkpt>
      <trkpt lat="40.894968" lon="-3.580130">
        <ele>1010.221</ele>
        <time>2016-07-03T15:04:05Z</time>
      </trkpt>
      <trkpt lat="40.894951" lon="-3.579999">
        <ele>1009.258</ele>
        <time>2016-07-03T15:04:14Z</time>
      </trkpt>
      <trkpt lat="40.894970" lon="-3.579872">
        <ele>1008.525</ele>
        <time>2016-07-03T15:04:22Z</time>
      </trkpt>
      <trkpt lat="40.894992" lon="-3.579740">
        <ele>1007.441</ele>
        <time>2016-07-03T15:04:32Z</time>
      </trkpt>
      <trkpt lat="40.895021" lon="-3.579619">
        <ele>1006.767</ele>
        <time>2016-07-03T15:04:40Z</time>
      </trkpt>
      <trkpt lat="40.895019" lon="-3.579498">
        <ele>1006.213</ele>
        <time>2016-07-03T15:04:48Z</time>
      </trkpt>
      <trkpt lat="40.894998" lon="-3.579377">
        <ele>1004.414</ele>
        <time>2016-07-03T15:04:58Z</time>
      </trkpt>
      <trkpt lat="40.894970" lon="-3.579260">
        <ele>1003.254</ele>
        <time>2016-07-03T15:05:07Z</time>
      </trkpt>
      <trkpt lat="40.894954" lon="-3.579140">
        <ele>1002.709</ele>
        <time>2016-07-03T15:05:15Z</time>
      </trkpt>
      <trkpt lat="40.894922" lon="-3.579019">
        <ele>1002.508</ele>
        <time>2016-07-03T15:05:23Z</time>
      </trkpt>
      <trkpt lat="40.894904" lon="-3.578901">
        <ele>1002.597</ele>
        <time>2016-07-03T15:05:31Z</time>
      </trkpt>
      <trkpt lat="40.894895" lon="-3.578776">
        <ele>1002.223</ele>
        <time>2016-07-03T15:05:39Z</time>
      </trkpt>
      <trkpt lat="40.894914" lon="-3.578647">
        <ele>1000.716</ele>
        <time>2016-07-03T15:05:49Z</time>
      </trkpt>
      <trkpt lat="40.894984" lon="-3.578569">
        <ele>999.263</ele>
        <time>2016-07-03T15:05:58Z</time>
      </trkpt>
      <trkpt lat="40.895063" lon="-3.578495">
        <ele>998.040</ele>
        <time>2016-07-03T15:06:07Z</time>
      </trkpt>
      <trkpt lat="40.895136" lon="-3.578404">
        <ele>997.446</ele>
        <time>2016-07-03T15:06:16Z</time>
      </trkpt>
      <trkpt lat="40.895200" lon="-3.578315">
        <ele>997.022</ele>
        <time>2016-07-03T15:06:24Z</time>
      </trkpt>
      <trkpt lat="40.895296" lon="-3.578316">
        <ele>996.518</ele>
        <time>2016-07-03T15:06:44Z</time>
      </trkpt>
      <trkpt lat="40.895335" lon="-3.578208">
        <ele>996.239</ele>
        <time>2016-07-03T15:06:51Z</time>
      </trkpt>
      <trkpt lat="40.895365" lon="-3.578090">
        <ele>995.701</ele>
        <time>2016-07-03T15:07:00Z</time>
      </trkpt>
      <trkpt lat="40.895390" lon="-3.577971">
        <ele>995.721</ele>
        <time>2016-07-03T15:07:08Z</time>
      </trkpt>
      <trkpt lat="40.895410" lon="-3.577849">
        <ele>995.208</ele>
        <time>2016-07-03T15:07:16Z</time>
      </trkpt>
      <trkpt lat="40.895433" lon="-3.577733">
        <ele>995.069</ele>
        <time>2016-07-03T15:07:23Z</time>
      </trkpt>
      <trkpt lat="40.895474" lon="-3.577620">
        <ele>994.565</ele>
        <time>2016-07-03T15:07:31Z</time>
      </trkpt>
      <trkpt lat="40.895500" lon="-3.577497">
        <ele>993.738</ele>
        <time>2016-07-03T15:07:40Z</time>
      </trkpt>
      <trkpt lat="40.895511" lon="-3.577375">
        <ele>993.235</ele>
        <time>2016-07-03T15:07:48Z</time>
      </trkpt>
      <trkpt lat="40.895543" lon="-3.577257">
        <ele>992.522</ele>
        <time>2016-07-03T15:07:57Z</time>
      </trkpt>
      <trkpt lat="40.895614" lon="-3.577174">
        <ele>991.528</ele>
        <time>2016-07-03T15:08:05Z</time>
      </trkpt>
      <trkpt lat="40.895695" lon="-3.577102">
        <ele>990.944</ele>
        <time>2016-07-03T15:08:13Z</time>
      </trkpt>
      <trkpt lat="40.895794" lon="-3.577073">
        <ele>990.260</ele>
        <time>2016-07-03T15:08:21Z</time>
      </trkpt>
      <trkpt lat="40.895882" lon="-3.577044">
        <ele>989.739</ele>
        <time>2016-07-03T15:08:29Z</time>
      </trkpt>
      <trkpt lat="40.895977" lon="-3.577008">
        <ele>989.001</ele>
        <time>2016-07-03T15:08:37Z</time>
      </trkpt>
      <trkpt lat="40.896065" lon="-3.576944">
        <ele>989.021</ele>
        <time>2016-07-03T15:08:45Z</time>
      </trkpt>
      <trkpt lat="40.896127" lon="-3.576853">
        <ele>988.708</ele>
        <time>2016-07-03T15:08:53Z</time>
      </trkpt>
      <trkpt lat="40.896154" lon="-3.576726">
        <ele>988.569</ele>
        <time>2016-07-03T15:09:02Z</time>
      </trkpt>
      <trkpt lat="40.896140" lon="-3.576604">
        <ele>988.225</ele>
        <time>2016-07-03T15:11:24Z</time>
      </trkpt>
      <trkpt lat="40.896087" lon="-3.576502">
        <ele>987.038</ele>
        <time>2016-07-03T15:11:34Z</time>
      </trkpt>
      <trkpt lat="40.896032" lon="-3.576394">
        <ele>985.735</ele>
        <time>2016-07-03T15:11:45Z</time>
      </trkpt>
      <trkpt lat="40.895974" lon="-3.576290">
        <ele>985.092</ele>
        <time>2016-07-03T15:11:54Z</time>
      </trkpt>
      <trkpt lat="40.895911" lon="-3.576196">
        <ele>984.918</ele>
        <time>2016-07-03T15:12:02Z</time>
      </trkpt>
      <trkpt lat="40.895840" lon="-3.576110">
        <ele>985.054</ele>
        <time>2016-07-03T15:12:10Z</time>
      </trkpt>
      <trkpt lat="40.895764" lon="-3.576025">
        <ele>985.450</ele>
        <time>2016-07-03T15:12:18Z</time>
      </trkpt>
      <trkpt lat="40.895689" lon="-3.575956">
        <ele>985.447</ele>
        <time>2016-07-03T15:12:25Z</time>
      </trkpt>
      <trkpt lat="40.895588" lon="-3.575923">
        <ele>985.929</ele>
        <time>2016-07-03T15:12:34Z</time>
      </trkpt>
      <trkpt lat="40.895496" lon="-3.575913">
        <ele>985.721</ele>
        <time>2016-07-03T15:12:43Z</time>
      </trkpt>
      <trkpt lat="40.895404" lon="-3.575912">
        <ele>985.708</ele>
        <time>2016-07-03T15:12:51Z</time>
      </trkpt>
      <trkpt lat="40.895312" lon="-3.575898">
        <ele>985.490</ele>
        <time>2016-07-03T15:12:59Z</time>
      </trkpt>
      <trkpt lat="40.895227" lon="-3.575853">
        <ele>985.086</ele>
        <time>2016-07-03T15:13:07Z</time>
      </trkpt>
      <trkpt lat="40.895174" lon="-3.575744">
        <ele>984.939</ele>
        <time>2016-07-03T15:13:15Z</time>
      </trkpt>
      <trkpt lat="40.895163" lon="-3.575621">
        <ele>984.046</ele>
        <time>2016-07-03T15:13:23Z</time>
      </trkpt>
      <trkpt lat="40.895170" lon="-3.575497">
        <ele>983.563</ele>
        <time>2016-07-03T15:13:31Z</time>
      </trkpt>
      <trkpt lat="40.895198" lon="-3.575372">
        <ele>983.279</ele>
        <time>2016-07-03T15:13:39Z</time>
      </trkpt>
      <trkpt lat="40.895249" lon="-3.575264">
        <ele>982.745</ele>
        <time>2016-07-03T15:13:47Z</time>
      </trkpt>
      <trkpt lat="40.895277" lon="-3.575134">
        <ele>982.521</ele>
        <time>2016-07-03T15:13:56Z</time>
      </trkpt>
      <trkpt lat="40.895270" lon="-3.575006">
        <ele>982.553</ele>
        <time>2016-07-03T15:14:04Z</time>
      </trkpt>
      <trkpt lat="40.895243" lon="-3.574884">
        <ele>982.004</ele>
        <time>2016-07-03T15:14:12Z</time>
      </trkpt>
      <trkpt lat="40.895215" lon="-3.574759">
        <ele>981.514</ele>
        <time>2016-07-03T15:14:21Z</time>
      </trkpt>
      <trkpt lat="40.895171" lon="-3.574640">
        <ele>981.208</ele>
        <time>2016-07-03T15:14:29Z</time>
      </trkpt>
      <trkpt lat="40.895138" lon="-3.574518">
        <ele>980.751</ele>
        <time>2016-07-03T15:14:38Z</time>
      </trkpt>
      <trkpt lat="40.895104" lon="-3.574396">
        <ele>979.577</ele>
        <time>2016-07-03T15:14:47Z</time>
      </trkpt>
      <trkpt lat="40.895056" lon="-3.574282">
        <ele>978.720</ele>
        <time>2016-07-03T15:14:56Z</time>
      </trkpt>
      <trkpt lat="40.895019" lon="-3.574171">
        <ele>978.587</ele>
        <time>2016-07-03T15:15:04Z</time>
      </trkpt>
      <trkpt lat="40.894987" lon="-3.574059">
        <ele>977.724</ele>
        <time>2016-07-03T15:15:12Z</time>
      </trkpt>
      <trkpt lat="40.894952" lon="-3.573946">
        <ele>977.020</ele>
        <time>2016-07-03T15:15:20Z</time>
      </trkpt>
      <trkpt lat="40.894906" lon="-3.573838">
        <ele>976.546</ele>
        <time>2016-07-03T15:15:28Z</time>
      </trkpt>
      <trkpt lat="40.894857" lon="-3.573737">
        <ele>976.222</ele>
        <time>2016-07-03T15:15:35Z</time>
      </trkpt>
      <trkpt lat="40.894813" lon="-3.573625">
        <ele>976.291</ele>
        <time>2016-07-03T15:15:43Z</time>
      </trkpt>
      <trkpt lat="40.894775" lon="-3.573505">
        <ele>976.281</ele>
        <time>2016-07-03T15:15:51Z</time>
      </trkpt>
      <trkpt lat="40.894750" lon="-3.573380">
        <ele>976.519</ele>
        <time>2016-07-03T15:15:59Z</time>
      </trkpt>
      <trkpt lat="40.894728" lon="-3.573249">
        <ele>976.708</ele>
        <time>2016-07-03T15:16:07Z</time>
      </trkpt>
      <trkpt lat="40.894681" lon="-3.573146">
        <ele>977.075</ele>
        <time>2016-07-03T15:16:14Z</time>
      </trkpt>
      <trkpt lat="40.894620" lon="-3.573039">
        <ele>976.711</ele>
        <time>2016-07-03T15:16:22Z</time>
      </trkpt>
      <trkpt lat="40.894564" lon="-3.572936">
        <ele>977.074</ele>
        <time>2016-07-03T15:16:30Z</time>
      </trkpt>
      <trkpt lat="40.894512" lon="-3.572831">
        <ele>977.441</ele>
        <time>2016-07-03T15:16:38Z</time>
      </trkpt>
      <trkpt lat="40.894475" lon="-3.572709">
        <ele>977.778</ele>
        <time>2016-07-03T15:16:46Z</time>
      </trkpt>
      <trkpt lat="40.894455" lon="-3.572580">
        <ele>978.074</ele>
        <time>2016-07-03T15:16:54Z</time>
      </trkpt>
      <trkpt lat="40.894456" lon="-3.572447">
        <ele>978.470</ele>
        <time>2016-07-03T15:17:02Z</time>
      </trkpt>
      <trkpt lat="40.894426" lon="-3.572328">
        <ele>979.036</ele>
        <time>2016-07-03T15:17:10Z</time>
      </trkpt>
      <trkpt lat="40.894510" lon="-3.572437">
        <ele>967.467</ele>
        <time>2013-07-22T20:30:33Z</time>
      </trkpt>
      <trkpt lat="40.894146" lon="-3.572208">
        <ele>969.281</ele>
        <time>2013-07-22T20:30:33Z</time>
      </trkpt>
      <trkpt lat="40.893891" lon="-3.571668">
        <ele>967.319</ele>
        <time>2013-07-22T20:30:33Z</time>
      </trkpt>
      <trkpt lat="40.893446" lon="-3.570334">
        <ele>957.208</ele>
        <time>2013-07-22T20:30:33Z</time>
      </trkpt>
      <trkpt lat="40.893339" lon="-3.570305">
        <ele>957.252</ele>
        <time>2013-07-22T20:30:33Z</time>
      </trkpt>
      <trkpt lat="40.893166" lon="-3.570501">
        <ele>956.468</ele>
        <time>2013-07-22T20:30:33Z</time>
      </trkpt>
      <trkpt lat="40.893078" lon="-3.571066">
        <ele>957.021</ele>
        <time>2013-07-22T20:30:33Z</time>
      </trkpt>
      <trkpt lat="40.893030" lon="-3.572000">
        <ele>967.368</ele>
        <time>2013-07-22T20:30:33Z</time>
      </trkpt>
      <trkpt lat="40.892750" lon="-3.572139">
        <ele>968.545</ele>
        <time>2013-07-22T20:30:33Z</time>
      </trkpt>
      <trkpt lat="40.892577" lon="-3.572392">
        <ele>970.671</ele>
        <time>2013-07-22T20:30:33Z</time>
      </trkpt>
      <trkpt lat="40.892017" lon="-3.572755">
        <ele>970.457</ele>
        <time>2013-07-22T20:30:33Z</time>
      </trkpt>
      <trkpt lat="40.891544" lon="-3.572780">
        <ele>972.273</ele>
        <time>2013-07-22T20:30:33Z</time>
      </trkpt>
      <trkpt lat="40.890493" lon="-3.572657">
        <ele>972.012</ele>
        <time>2013-07-22T20:30:33Z</time>
      </trkpt>
      <trkpt lat="40.890522" lon="-3.571044">
        <ele>960.932</ele>
        <time>2013-07-22T20:30:33Z</time>
      </trkpt>
      <trkpt lat="40.890266" lon="-3.570759">
        <ele>959.905</ele>
        <time>2013-07-22T20:30:33Z</time>
      </trkpt>
      <trkpt lat="40.890358" lon="-3.569543">
        <ele>953.408</ele>
        <time>2013-07-22T20:30:33Z</time>
      </trkpt>
      <trkpt lat="40.890144" lon="-3.569230">
        <ele>952.367</ele>
        <time>2013-07-22T20:30:33Z</time>
      </trkpt>
      <trkpt lat="40.890276" lon="-3.568580">
        <ele>950.253</ele>
        <time>2013-07-22T20:30:33Z</time>
      </trkpt>
      <trkpt lat="40.890127" lon="-3.568381">
        <ele>949.536</ele>
        <time>2013-07-22T20:30:33Z</time>
      </trkpt>
      <trkpt lat="40.890197" lon="-3.567221">
        <ele>944.823</ele>
        <time>2013-07-22T20:30:33Z</time>
      </trkpt>
      <trkpt lat="40.890183" lon="-3.565664">
        <ele>941.580</ele>
        <time>2013-07-22T20:30:33Z</time>
      </trkpt>
      <trkpt lat="40.890487" lon="-3.564988">
        <ele>940.766</ele>
        <time>2013-07-22T20:30:33Z</time>
      </trkpt>
      <trkpt lat="40.890276" lon="-3.564193">
        <ele>941.332</ele>
        <time>2013-07-22T20:30:33Z</time>
      </trkpt>
      <trkpt lat="40.889123" lon="-3.562966">
        <ele>939.478</ele>
        <time>2013-07-22T20:30:33Z</time>
      </trkpt>
      <trkpt lat="40.888548" lon="-3.561915">
        <ele>935.262</ele>
        <time>2013-07-22T20:30:33Z</time>
      </trkpt>
      <trkpt lat="40.887951" lon="-3.561032">
        <ele>934.083</ele>
        <time>2013-07-22T20:30:33Z</time>
      </trkpt>
      <trkpt lat="40.887760" lon="-3.560700">
        <ele>939.211</ele>
        <time>2010-10-26T09:09:53Z</time>
      </trkpt>
      <trkpt lat="40.887800" lon="-3.560700">
        <ele>936.008</ele>
        <time>2010-10-26T09:09:53Z</time>
      </trkpt>
      <trkpt lat="40.887830" lon="-3.560680">
        <ele>937.442</ele>
        <time>2010-10-26T09:09:53Z</time>
      </trkpt>
      <trkpt lat="40.888080" lon="-3.560190">
        <ele>934.538</ele>
        <time>2010-10-26T09:09:53Z</time>
      </trkpt>
      <trkpt lat="40.888090" lon="-3.560110">
        <ele>933.531</ele>
        <time>2010-10-26T09:09:53Z</time>
      </trkpt>
      <trkpt lat="40.888120" lon="-3.559960">
        <ele>941.798</ele>
        <time>2010-10-26T09:09:53Z</time>
      </trkpt>
      <trkpt lat="40.888150" lon="-3.559720">
        <ele>935.025</ele>
        <time>2010-10-26T09:09:53Z</time>
      </trkpt>
      <trkpt lat="40.888120" lon="-3.559660">
        <ele>937.431</ele>
        <time>2010-10-26T09:09:53Z</time>
      </trkpt>
      <trkpt lat="40.888160" lon="-3.559550">
        <ele>934.547</ele>
        <time>2010-10-26T09:09:53Z</time>
      </trkpt>
      <trkpt lat="40.888260" lon="-3.559420">
        <ele>932.583</ele>
        <time>2010-10-26T09:09:53Z</time>
      </trkpt>
      <trkpt lat="40.888330" lon="-3.559340">
        <ele>931.724</ele>
        <time>2010-10-26T09:09:53Z</time>
      </trkpt>
      <trkpt lat="40.888630" lon="-3.559190">
        <ele>932.004</ele>
        <time>2010-10-26T09:09:53Z</time>
      </trkpt>
      <trkpt lat="40.889070" lon="-3.559090">
        <ele>933.014</ele>
        <time>2010-10-26T09:09:53Z</time>
      </trkpt>
      <trkpt lat="40.889140" lon="-3.558990">
        <ele>931.708</ele>
        <time>2010-10-26T09:09:53Z</time>
      </trkpt>
      <trkpt lat="40.889170" lon="-3.558810">
        <ele>931.798</ele>
        <time>2010-10-26T09:09:53Z</time>
      </trkpt>
      <trkpt lat="40.889110" lon="-3.558580">
        <ele>934.064</ele>
        <time>2010-10-26T09:09:53Z</time>
      </trkpt>
      <trkpt lat="40.889120" lon="-3.558520">
        <ele>934.517</ele>
        <time>2010-10-26T09:09:53Z</time>
      </trkpt>
      <trkpt lat="40.889210" lon="-3.558300">
        <ele>933.074</ele>
        <time>2010-10-26T09:09:53Z</time>
      </trkpt>
      <trkpt lat="40.889280" lon="-3.557900">
        <ele>931.281</ele>
        <time>2010-10-26T09:09:53Z</time>
      </trkpt>
      <trkpt lat="40.889300" lon="-3.557680">
        <ele>931.287</ele>
        <time>2010-10-26T09:09:53Z</time>
      </trkpt>
      <trkpt lat="40.889430" lon="-3.557660">
        <ele>933.563</ele>
        <time>2010-10-26T09:09:53Z</time>
      </trkpt>
      <trkpt lat="40.889440" lon="-3.557640">
        <ele>934.599</ele>
        <time>2010-10-26T09:09:53Z</time>
      </trkpt>
      <trkpt lat="40.889360" lon="-3.557640">
        <ele>936.084</ele>
        <time>2010-10-26T09:09:53Z</time>
      </trkpt>
      <trkpt lat="40.889350" lon="-3.557580">
        <ele>932.507</ele>
        <time>2010-10-26T09:09:53Z</time>
      </trkpt>
      <trkpt lat="40.889360" lon="-3.557460">
        <ele>933.017</ele>
        <time>2010-10-26T09:09:53Z</time>
      </trkpt>
      <trkpt lat="40.889330" lon="-3.557120">
        <ele>928.708</ele>
        <time>2010-10-26T09:09:53Z</time>
      </trkpt>
      <trkpt lat="40.889310" lon="-3.557100">
        <ele>928.274</ele>
        <time>2010-10-26T09:09:53Z</time>
      </trkpt>
      <trkpt lat="40.889290" lon="-3.556890">
        <ele>927.790</ele>
        <time>2010-10-26T09:09:53Z</time>
      </trkpt>
      <trkpt lat="40.889380" lon="-3.556850">
        <ele>925.973</ele>
        <time>2010-10-26T09:09:53Z</time>
      </trkpt>
      <trkpt lat="40.889470" lon="-3.556750">
        <ele>924.930</ele>
        <time>2010-10-26T09:09:53Z</time>
      </trkpt>
      <trkpt lat="40.889390" lon="-3.556580">
        <ele>921.037</ele>
        <time>2010-10-26T09:09:53Z</time>
      </trkpt>
      <trkpt lat="40.889350" lon="-3.556540">
        <ele>921.093</ele>
        <time>2010-10-26T09:09:53Z</time>
      </trkpt>
      <trkpt lat="40.889360" lon="-3.556490">
        <ele>919.599</ele>
        <time>2010-10-26T09:09:53Z</time>
      </trkpt>
      <trkpt lat="40.889180" lon="-3.556260">
        <ele>914.285</ele>
        <time>2010-10-26T09:09:53Z</time>
      </trkpt>
      <trkpt lat="40.889040" lon="-3.555970">
        <ele>912.976</ele>
        <time>2010-10-26T09:09:53Z</time>
      </trkpt>
      <trkpt lat="40.888850" lon="-3.555740">
        <ele>909.090</ele>
        <time>2010-10-26T09:09:53Z</time>
      </trkpt>
      <trkpt lat="40.888620" lon="-3.555590">
        <ele>910.519</ele>
        <time>2010-10-26T09:09:53Z</time>
      </trkpt>
      <trkpt lat="40.888630" lon="-3.555550">
        <ele>911.008</ele>
        <time>2010-10-26T09:09:53Z</time>
      </trkpt>
      <trkpt lat="40.888530" lon="-3.555270">
        <ele>912.453</ele>
        <time>2010-10-26T09:09:53Z</time>
      </trkpt>
      <trkpt lat="40.888550" lon="-3.555250">
        <ele>911.069</ele>
        <time>2010-10-26T09:09:53Z</time>
      </trkpt>
      <trkpt lat="40.888530" lon="-3.555200">
        <ele>912.982</ele>
        <time>2010-10-26T09:09:53Z</time>
      </trkpt>
      <trkpt lat="40.888310" lon="-3.555110">
        <ele>913.449</ele>
        <time>2010-10-26T09:09:53Z</time>
      </trkpt>
      <trkpt lat="40.888080" lon="-3.554970">
        <ele>913.996</ele>
        <time>2010-10-26T09:09:53Z</time>
      </trkpt>
      <trkpt lat="40.888050" lon="-3.554920">
        <ele>913.412</ele>
        <time>2010-10-26T09:09:53Z</time>
      </trkpt>
      <trkpt lat="40.887920" lon="-3.554760">
        <ele>912.428</ele>
        <time>2010-10-26T09:09:53Z</time>
      </trkpt>
      <trkpt lat="40.887680" lon="-3.554390">
        <ele>912.044</ele>
        <time>2010-10-26T09:09:53Z</time>
      </trkpt>
      <trkpt lat="40.887430" lon="-3.554280">
        <ele>910.599</ele>
        <time>2010-10-26T09:09:53Z</time>
      </trkpt>
      <trkpt lat="40.887150" lon="-3.554110">
        <ele>906.207</ele>
        <time>2010-10-26T09:09:53Z</time>
      </trkpt>
      <trkpt lat="40.887100" lon="-3.553970">
        <ele>906.227</ele>
        <time>2010-10-26T09:09:53Z</time>
      </trkpt>
      <trkpt lat="40.886850" lon="-3.553530">
        <ele>904.708</ele>
        <time>2010-10-26T09:09:53Z</time>
      </trkpt>
      <trkpt lat="40.886710" lon="-3.553090">
        <ele>905.225</ele>
        <time>2010-10-26T09:09:53Z</time>
      </trkpt>
      <trkpt lat="40.886660" lon="-3.552680">
        <ele>903.261</ele>
        <time>2010-10-26T09:09:53Z</time>
      </trkpt>
      <trkpt lat="40.886540" lon="-3.552090">
        <ele>898.574</ele>
        <time>2010-10-26T09:09:53Z</time>
      </trkpt>
      <trkpt lat="40.886420" lon="-3.551840">
        <ele>897.591</ele>
        <time>2010-10-26T09:09:53Z</time>
      </trkpt>
      <trkpt lat="40.886260" lon="-3.551620">
        <ele>895.598</ele>
        <time>2010-10-26T09:09:53Z</time>
      </trkpt>
      <trkpt lat="40.886210" lon="-3.551480">
        <ele>896.044</ele>
        <time>2010-10-26T09:09:53Z</time>
      </trkpt>
      <trkpt lat="40.886160" lon="-3.551420">
        <ele>896.590</ele>
        <time>2010-10-26T09:09:53Z</time>
      </trkpt>
      <trkpt lat="40.886140" lon="-3.551270">
        <ele>893.226</ele>
        <time>2010-10-26T09:09:53Z</time>
      </trkpt>
      <trkpt lat="40.886150" lon="-3.551090">
        <ele>892.246</ele>
        <time>2010-10-26T09:09:53Z</time>
      </trkpt>
      <trkpt lat="40.886210" lon="-3.550910">
        <ele>892.288</ele>
        <time>2010-10-26T09:09:53Z</time>
      </trkpt>
      <trkpt lat="40.886150" lon="-3.550560">
        <ele>889.716</ele>
        <time>2010-10-26T09:09:53Z</time>
      </trkpt>
      <trkpt lat="40.885980" lon="-3.550060">
        <ele>889.208</ele>
        <time>2010-10-26T09:09:53Z</time>
      </trkpt>
      <trkpt lat="40.885890" lon="-3.549660">
        <ele>887.920</ele>
        <time>2010-10-26T09:09:53Z</time>
      </trkpt>
      <trkpt lat="40.885900" lon="-3.549410">
        <ele>887.456</ele>
        <time>2010-10-26T09:09:53Z</time>
      </trkpt>
      <trkpt lat="40.885870" lon="-3.549320">
        <ele>887.979</ele>
        <time>2010-10-26T09:09:53Z</time>
      </trkpt>
      <trkpt lat="40.885950" lon="-3.548620">
        <ele>883.076</ele>
        <time>2010-10-26T09:09:53Z</time>
      </trkpt>
      <trkpt lat="40.885960" lon="-3.548190">
        <ele>881.283</ele>
        <time>2010-10-26T09:09:53Z</time>
      </trkpt>
      <trkpt lat="40.885740" lon="-3.548070">
        <ele>881.719</ele>
        <time>2010-10-26T09:09:53Z</time>
      </trkpt>
      <trkpt lat="40.885670" lon="-3.547830">
        <ele>882.225</ele>
        <time>2010-10-26T09:09:53Z</time>
      </trkpt>
      <trkpt lat="40.885680" lon="-3.547660">
        <ele>884.051</ele>
        <time>2010-10-26T09:09:53Z</time>
      </trkpt>
      <trkpt lat="40.885650" lon="-3.547550">
        <ele>885.516</ele>
        <time>2010-10-26T09:09:53Z</time>
      </trkpt>
      <trkpt lat="40.885670" lon="-3.547460">
        <ele>886.576</ele>
        <time>2010-10-26T09:09:53Z</time>
      </trkpt>
      <trkpt lat="40.885650" lon="-3.547460">
        <ele>885.513</ele>
        <time>2010-10-26T09:09:53Z</time>
      </trkpt>
      <trkpt lat="40.885520" lon="-3.547050">
        <ele>882.208</ele>
        <time>2010-10-26T09:09:53Z</time>
      </trkpt>
      <trkpt lat="40.885410" lon="-3.546640">
        <ele>880.257</ele>
        <time>2010-10-26T09:09:53Z</time>
      </trkpt>
      <trkpt lat="40.885380" lon="-3.546590">
        <ele>880.793</ele>
        <time>2010-10-26T09:09:53Z</time>
      </trkpt>
      <trkpt lat="40.885210" lon="-3.546480">
        <ele>882.256</ele>
        <time>2010-10-26T09:09:53Z</time>
      </trkpt>
      <trkpt lat="40.885100" lon="-3.546490">
        <ele>881.783</ele>
        <time>2010-10-26T09:09:53Z</time>
      </trkpt>
      <trkpt lat="40.884580" lon="-3.546780">
        <ele>880.230</ele>
        <time>2010-10-26T09:09:53Z</time>
      </trkpt>
      <trkpt lat="40.884260" lon="-3.546670">
        <ele>882.216</ele>
        <time>2010-10-26T09:09:53Z</time>
      </trkpt>
      <trkpt lat="40.883980" lon="-3.546510">
        <ele>881.242</ele>
        <time>2010-10-26T09:09:53Z</time>
      </trkpt>
      <trkpt lat="40.883920" lon="-3.546290">
        <ele>880.248</ele>
        <time>2010-10-26T09:09:53Z</time>
      </trkpt>
      <trkpt lat="40.883830" lon="-3.546230">
        <ele>879.231</ele>
        <time>2010-10-26T09:09:53Z</time>
      </trkpt>
      <trkpt lat="40.883730" lon="-3.546280">
        <ele>878.261</ele>
        <time>2010-10-26T09:09:53Z</time>
      </trkpt>
      <trkpt lat="40.883610" lon="-3.546230">
        <ele>875.907</ele>
        <time>2010-10-26T09:09:53Z</time>
      </trkpt>
      <trkpt lat="40.883600" lon="-3.546180">
        <ele>881.208</ele>
        <time>2010-10-26T09:09:53Z</time>
      </trkpt>
      <trkpt lat="40.883610" lon="-3.546210">
        <ele>880.269</ele>
        <time>2010-10-26T09:09:53Z</time>
      </trkpt>
      <trkpt lat="40.883370" lon="-3.545600">
        <ele>875.485</ele>
        <time>2010-10-26T09:09:53Z</time>
      </trkpt>
      <trkpt lat="40.883420" lon="-3.545590">
        <ele>874.598</ele>
        <time>2010-10-26T09:09:53Z</time>
      </trkpt>
      <trkpt lat="40.883430" lon="-3.545520">
        <ele>877.775</ele>
        <time>2010-10-26T09:09:53Z</time>
      </trkpt>
      <trkpt lat="40.883440" lon="-3.545560">
        <ele>876.762</ele>
        <time>2010-10-26T09:09:53Z</time>
      </trkpt>
      <trkpt lat="40.883530" lon="-3.545480">
        <ele>875.988</ele>
        <time>2010-10-26T09:09:53Z</time>
      </trkpt>
      <trkpt lat="40.883500" lon="-3.545510">
        <ele>874.924</ele>
        <time>2010-10-26T09:09:53Z</time>
      </trkpt>
      <trkpt lat="40.883670" lon="-3.545460">
        <ele>878.790</ele>
        <time>2010-10-26T09:09:53Z</time>
      </trkpt>
      <trkpt lat="40.883810" lon="-3.545450">
        <ele>876.482</ele>
        <time>2010-10-26T09:09:53Z</time>
      </trkpt>
      <trkpt lat="40.883960" lon="-3.545480">
        <ele>876.743</ele>
        <time>2010-10-26T09:09:53Z</time>
      </trkpt>
      <trkpt lat="40.884110" lon="-3.545460">
        <ele>875.417</ele>
        <time>2010-10-26T09:09:53Z</time>
      </trkpt>
      <trkpt lat="40.884340" lon="-3.545460">
        <ele>873.008</ele>
        <time>2010-10-26T09:09:53Z</time>
      </trkpt>
      <trkpt lat="40.884480" lon="-3.545400">
        <ele>872.014</ele>
        <time>2010-10-26T09:09:53Z</time>
      </trkpt>
      <trkpt lat="40.884540" lon="-3.545440">
        <ele>870.580</ele>
        <time>2010-10-26T09:09:53Z</time>
      </trkpt>
      <trkpt lat="40.884590" lon="-3.545430">
        <ele>871.083</ele>
        <time>2010-10-26T09:09:53Z</time>
      </trkpt>
      <trkpt lat="40.884680" lon="-3.545290">
        <ele>876.490</ele>
        <time>2010-10-26T09:09:53Z</time>
      </trkpt>
      <trkpt lat="40.884720" lon="-3.544890">
        <ele>877.737</ele>
        <time>2010-10-26T09:09:53Z</time>
      </trkpt>
      <trkpt lat="40.884770" lon="-3.544670">
        <ele>880.253</ele>
        <time>2010-10-26T09:09:53Z</time>
      </trkpt>
      <trkpt lat="40.884740" lon="-3.544550">
        <ele>881.739</ele>
        <time>2010-10-26T09:09:53Z</time>
      </trkpt>
      <trkpt lat="40.884740" lon="-3.544260">
        <ele>886.525</ele>
        <time>2010-10-26T09:09:53Z</time>
      </trkpt>
      <trkpt lat="40.884750" lon="-3.544250">
        <ele>887.479</ele>
        <time>2010-10-26T09:09:53Z</time>
      </trkpt>
      <trkpt lat="40.884710" lon="-3.544280">
        <ele>886.505</ele>
        <time>2010-10-26T09:09:53Z</time>
      </trkpt>
      <trkpt lat="40.884630" lon="-3.543930">
        <ele>888.925</ele>
        <time>2010-10-26T09:09:53Z</time>
      </trkpt>
      <trkpt lat="40.884600" lon="-3.543430">
        <ele>895.508</ele>
        <time>2010-10-26T09:09:53Z</time>
      </trkpt>
      <trkpt lat="40.884530" lon="-3.543300">
        <ele>899.543</ele>
        <time>2010-10-26T09:09:53Z</time>
      </trkpt>
      <trkpt lat="40.884460" lon="-3.543230">
        <ele>899.039</ele>
        <time>2010-10-26T09:09:53Z</time>
      </trkpt>
      <trkpt lat="40.884440" lon="-3.543230">
        <ele>900.472</ele>
        <time>2010-10-26T09:09:53Z</time>
      </trkpt>
      <trkpt lat="40.884370" lon="-3.543120">
        <ele>899.529</ele>
        <time>2010-10-26T09:09:53Z</time>
      </trkpt>
      <trkpt lat="40.884180" lon="-3.542520">
        <ele>909.056</ele>
        <time>2010-10-26T09:09:53Z</time>
      </trkpt>
      <trkpt lat="40.884190" lon="-3.542480">
        <ele>912.072</ele>
        <time>2010-10-26T09:09:53Z</time>
      </trkpt>
      <trkpt lat="40.884130" lon="-3.542140">
        <ele>913.418</ele>
        <time>2010-10-26T09:09:53Z</time>
      </trkpt>
      <trkpt lat="40.883920" lon="-3.541550">
        <ele>921.014</ele>
        <time>2010-10-26T09:09:53Z</time>
      </trkpt>
      <trkpt lat="40.883740" lon="-3.541150">
        <ele>928.242</ele>
        <time>2010-10-26T09:09:53Z</time>
      </trkpt>
      <trkpt lat="40.883590" lon="-3.540570">
        <ele>937.022</ele>
        <time>2010-10-26T09:09:53Z</time>
      </trkpt>
      <trkpt lat="40.883430" lon="-3.540240">
        <ele>941.214</ele>
        <time>2010-10-26T09:09:53Z</time>
      </trkpt>
      <trkpt lat="40.883390" lon="-3.540200">
        <ele>942.208</ele>
        <time>2010-10-26T09:09:53Z</time>
      </trkpt>
      <trkpt lat="40.883370" lon="-3.540130">
        <ele>943.750</ele>
        <time>2010-10-26T09:09:53Z</time>
      </trkpt>
      <trkpt lat="40.883330" lon="-3.540100">
        <ele>945.576</ele>
        <time>2010-10-26T09:09:53Z</time>
      </trkpt>
      <trkpt lat="40.883240" lon="-3.540090">
        <ele>945.029</ele>
        <time>2010-10-26T09:09:53Z</time>
      </trkpt>
      <trkpt lat="40.883150" lon="-3.540100">
        <ele>944.596</ele>
        <time>2010-10-26T09:09:53Z</time>
      </trkpt>
      <trkpt lat="40.883100" lon="-3.539740">
        <ele>945.033</ele>
        <time>2010-10-26T09:09:53Z</time>
      </trkpt>
      <trkpt lat="40.883100" lon="-3.539550">
        <ele>943.249</ele>
        <time>2010-10-26T09:09:53Z</time>
      </trkpt>
      <trkpt lat="40.883110" lon="-3.539540">
        <ele>945.595</ele>
        <time>2010-10-26T09:09:53Z</time>
      </trkpt>
      <trkpt lat="40.883100" lon="-3.539520">
        <ele>943.761</ele>
        <time>2010-10-26T09:09:53Z</time>
      </trkpt>
      <trkpt lat="40.883090" lon="-3.539150">
        <ele>939.742</ele>
        <time>2010-10-26T09:09:53Z</time>
      </trkpt>
      <trkpt lat="40.882960" lon="-3.539040">
        <ele>942.222</ele>
        <time>2010-10-26T09:09:53Z</time>
      </trkpt>
      <trkpt lat="40.882860" lon="-3.539030">
        <ele>939.214</ele>
        <time>2010-10-26T09:09:53Z</time>
      </trkpt>
      <trkpt lat="40.882700" lon="-3.538910">
        <ele>937.008</ele>
        <time>2010-10-26T09:09:53Z</time>
      </trkpt>
      <trkpt lat="40.882590" lon="-3.538750">
        <ele>938.970</ele>
        <time>2010-10-26T09:09:53Z</time>
      </trkpt>
      <trkpt lat="40.882330" lon="-3.538490">
        <ele>939.796</ele>
        <time>2010-10-26T09:09:53Z</time>
      </trkpt>
      <trkpt lat="40.881960" lon="-3.538200">
        <ele>945.599</ele>
        <time>2010-10-26T09:09:53Z</time>
      </trkpt>
      <trkpt lat="40.881990" lon="-3.538250">
        <ele>945.556</ele>
        <time>2010-10-26T09:09:53Z</time>
      </trkpt>
      <trkpt lat="40.881670" lon="-3.537820">
        <ele>947.593</ele>
        <time>2010-10-26T09:09:53Z</time>
      </trkpt>
      <trkpt lat="40.881270" lon="-3.537500">
        <ele>946.079</ele>
        <time>2010-10-26T09:09:53Z</time>
      </trkpt>
      <trkpt lat="40.880920" lon="-3.537210">
        <ele>948.565</ele>
        <time>2010-10-26T09:09:53Z</time>
      </trkpt>
      <trkpt lat="40.880630" lon="-3.537010">
        <ele>949.941</ele>
        <time>2010-10-26T09:09:53Z</time>
      </trkpt>
      <trkpt lat="40.880230" lon="-3.536630">
        <ele>954.298</ele>
        <time>2010-10-26T09:09:53Z</time>
      </trkpt>
      <trkpt lat="40.880090" lon="-3.536480">
        <ele>957.515</ele>
        <time>2010-10-26T09:09:53Z</time>
      </trkpt>
      <trkpt lat="40.879870" lon="-3.536320">
        <ele>959.526</ele>
        <time>2010-10-26T09:09:53Z</time>
      </trkpt>
      <trkpt lat="40.879450" lon="-3.536280">
        <ele>961.908</ele>
        <time>2010-10-26T09:09:53Z</time>
      </trkpt>
      <trkpt lat="40.879270" lon="-3.536320">
        <ele>966.755</ele>
        <time>2010-10-26T09:09:53Z</time>
      </trkpt>
      <trkpt lat="40.879040" lon="-3.536290">
        <ele>973.061</ele>
        <time>2010-10-26T09:09:53Z</time>
      </trkpt>
      <trkpt lat="40.878750" lon="-3.535960">
        <ele>978.234</ele>
        <time>2010-10-26T09:09:53Z</time>
      </trkpt>
      <trkpt lat="40.878510" lon="-3.535810">
        <ele>980.761</ele>
        <time>2010-10-26T09:09:53Z</time>
      </trkpt>
      <trkpt lat="40.878280" lon="-3.535570">
        <ele>983.588</ele>
        <time>2010-10-26T09:09:53Z</time>
      </trkpt>
      <trkpt lat="40.878150" lon="-3.535490">
        <ele>987.924</ele>
        <time>2010-10-26T09:09:53Z</time>
      </trkpt>
      <trkpt lat="40.878070" lon="-3.535340">
        <ele>993.210</ele>
        <time>2010-10-26T09:09:53Z</time>
      </trkpt>
      <trkpt lat="40.878010" lon="-3.535310">
        <ele>994.566</ele>
        <time>2010-10-26T09:09:53Z</time>
      </trkpt>
      <trkpt lat="40.877920" lon="-3.535120">
        <ele>997.573</ele>
        <time>2010-10-26T09:09:53Z</time>
      </trkpt>
      <trkpt lat="40.877750" lon="-3.534970">
        <ele>999.985</ele>
        <time>2010-10-26T09:09:53Z</time>
      </trkpt>
      <trkpt lat="40.877680" lon="-3.534940">
        <ele>998.513</ele>
        <time>2010-10-26T09:09:53Z</time>
      </trkpt>
      <trkpt lat="40.877430" lon="-3.535010">
        <ele>998.008</ele>
        <time>2010-10-26T09:09:53Z</time>
      </trkpt>
      <trkpt lat="40.877130" lon="-3.535020">
        <ele>999.463</ele>
        <time>2010-10-26T09:09:53Z</time>
      </trkpt>
      <trkpt lat="40.876530" lon="-3.535010">
        <ele>1003.229</ele>
        <time>2010-10-26T09:09:53Z</time>
      </trkpt>
      <trkpt lat="40.875850" lon="-3.535120">
        <ele>1003.292</ele>
        <time>2010-10-26T09:09:53Z</time>
      </trkpt>
      <trkpt lat="40.875330" lon="-3.535330">
        <ele>1007.539</ele>
        <time>2010-10-26T09:09:53Z</time>
      </trkpt>
      <trkpt lat="40.875110" lon="-3.535560">
        <ele>1012.946</ele>
        <time>2010-10-26T09:09:53Z</time>
      </trkpt>
      <trkpt lat="40.875030" lon="-3.535880">
        <ele>1019.072</ele>
        <time>2010-10-26T09:09:53Z</time>
      </trkpt>
      <trkpt lat="40.875180" lon="-3.536160">
        <ele>1022.068</ele>
        <time>2010-10-26T09:09:53Z</time>
      </trkpt>
      <trkpt lat="40.875240" lon="-3.536350">
        <ele>1023.954</ele>
        <time>2010-10-26T09:09:53Z</time>
      </trkpt>
      <trkpt lat="40.875200" lon="-3.536450">
        <ele>1024.442</ele>
        <time>2010-10-26T09:09:53Z</time>
      </trkpt>
      <trkpt lat="40.875110" lon="-3.536510">
        <ele>1023.922</ele>
        <time>2010-10-26T09:09:53Z</time>
      </trkpt>
      <trkpt lat="40.874920" lon="-3.536680">
        <ele>1025.914</ele>
        <time>2010-10-26T09:09:53Z</time>
      </trkpt>
      <trkpt lat="40.874770" lon="-3.536750">
        <ele>1026.408</ele>
        <time>2010-10-26T09:09:53Z</time>
      </trkpt>
      <trkpt lat="40.874520" lon="-3.536890">
        <ele>1027.830</ele>
        <time>2010-10-26T09:09:53Z</time>
      </trkpt>
      <trkpt lat="40.874300" lon="-3.537080">
        <ele>1032.076</ele>
        <time>2010-10-26T09:09:53Z</time>
      </trkpt>
      <trkpt lat="40.874100" lon="-3.537090">
        <ele>1036.989</ele>
        <time>2010-10-26T09:09:53Z</time>
      </trkpt>
      <trkpt lat="40.874060" lon="-3.537120">
        <ele>1036.916</ele>
        <time>2010-10-26T09:09:53Z</time>
      </trkpt>
      <trkpt lat="40.873760" lon="-3.537080">
        <ele>1037.463</ele>
        <time>2010-10-26T09:09:53Z</time>
      </trkpt>
      <trkpt lat="40.873780" lon="-3.537040">
        <ele>1037.459</ele>
        <time>2010-10-26T09:09:53Z</time>
      </trkpt>
      <trkpt lat="40.873960" lon="-3.537010">
        <ele>1038.415</ele>
        <time>2010-10-26T09:09:53Z</time>
      </trkpt>
      <trkpt lat="40.874020" lon="-3.536930">
        <ele>1038.451</ele>
        <time>2010-10-26T09:09:53Z</time>
      </trkpt>
      <trkpt lat="40.874060" lon="-3.537040">
        <ele>1039.363</ele>
        <time>2010-10-26T09:09:53Z</time>
      </trkpt>
      <trkpt lat="40.874130" lon="-3.537050">
        <ele>1039.844</ele>
        <time>2010-10-26T09:09:53Z</time>
      </trkpt>
      <trkpt lat="40.874180" lon="-3.537130">
        <ele>1037.918</ele>
        <time>2010-10-26T09:09:53Z</time>
      </trkpt>
      <trkpt lat="40.874630" lon="-3.536800">
        <ele>1030.608</ele>
        <time>2010-10-26T09:09:53Z</time>
      </trkpt>
      <trkpt lat="40.874800" lon="-3.536760">
        <ele>1028.342</ele>
        <time>2010-10-26T09:09:53Z</time>
      </trkpt>
      <trkpt lat="40.875030" lon="-3.536600">
        <ele>1026.448</ele>
        <time>2010-10-26T09:09:53Z</time>
      </trkpt>
      <trkpt lat="40.875240" lon="-3.536310">
        <ele>1024.941</ele>
        <time>2010-10-26T09:09:53Z</time>
      </trkpt>
      <trkpt lat="40.875090" lon="-3.536060">
        <ele>1023.518</ele>
        <time>2010-10-26T09:09:53Z</time>
      </trkpt>
      <trkpt lat="40.875000" lon="-3.535670">
        <ele>1020.535</ele>
        <time>2010-10-26T09:09:53Z</time>
      </trkpt>
      <trkpt lat="40.875230" lon="-3.535400">
        <ele>1017.211</ele>
        <time>2010-10-26T09:09:53Z</time>
      </trkpt>
      <trkpt lat="40.875500" lon="-3.535250">
        <ele>1013.937</ele>
        <time>2010-10-26T09:09:53Z</time>
      </trkpt>
      <trkpt lat="40.875780" lon="-3.535150">
        <ele>1010.563</ele>
        <time>2010-10-26T09:09:53Z</time>
      </trkpt>
      <trkpt lat="40.876320" lon="-3.535050">
        <ele>1007.088</ele>
        <time>2010-10-26T09:09:53Z</time>
      </trkpt>
      <trkpt lat="40.877410" lon="-3.535010">
        <ele>1000.424</ele>
        <time>2010-10-26T09:09:53Z</time>
      </trkpt>
      <trkpt lat="40.877530" lon="-3.534970">
        <ele>999.426</ele>
        <time>2010-10-26T09:09:53Z</time>
      </trkpt>
      <trkpt lat="40.877540" lon="-3.534870">
        <ele>1001.708</ele>
        <time>2010-10-26T09:09:53Z</time>
      </trkpt>
      <trkpt lat="40.877500" lon="-3.534860">
        <ele>999.954</ele>
        <time>2010-10-26T09:09:53Z</time>
      </trkpt>
      <trkpt lat="40.877370" lon="-3.534640">
        <ele>1002.270</ele>
        <time>2010-10-26T09:09:53Z</time>
      </trkpt>
      <trkpt lat="40.877290" lon="-3.534450">
        <ele>1005.243</ele>
        <time>2010-10-26T09:09:53Z</time>
      </trkpt>
      <trkpt lat="40.877280" lon="-3.534210">
        <ele>1007.560</ele>
        <time>2010-10-26T09:09:53Z</time>
      </trkpt>
      <trkpt lat="40.877250" lon="-3.534180">
        <ele>1008.027</ele>
        <time>2010-10-26T09:09:53Z</time>
      </trkpt>
      <trkpt lat="40.877180" lon="-3.534210">
        <ele>1005.293</ele>
        <time>2010-10-26T09:09:53Z</time>
      </trkpt>
      <trkpt lat="40.877100" lon="-3.534210">
        <ele>1009.599</ele>
        <time>2010-10-26T09:09:53Z</time>
      </trkpt>
      <trkpt lat="40.876970" lon="-3.534080">
        <ele>1005.285</ele>
        <time>2010-10-26T09:09:53Z</time>
      </trkpt>
      <trkpt lat="40.877000" lon="-3.533640">
        <ele>1004.784</ele>
        <time>2010-10-26T09:09:53Z</time>
      </trkpt>
      <trkpt lat="40.876870" lon="-3.532940">
        <ele>999.007</ele>
        <time>2010-10-26T09:09:53Z</time>
      </trkpt>
      <trkpt lat="40.876810" lon="-3.532870">
        <ele>998.017</ele>
        <time>2010-10-26T09:09:53Z</time>
      </trkpt>
      <trkpt lat="40.876760" lon="-3.532620">
        <ele>996.008</ele>
        <time>2010-10-26T09:09:53Z</time>
      </trkpt>
      <trkpt lat="40.876650" lon="-3.531950">
        <ele>993.274</ele>
        <time>2010-10-26T09:09:53Z</time>
      </trkpt>
      <trkpt lat="40.876650" lon="-3.531870">
        <ele>993.570</ele>
        <time>2010-10-26T09:09:53Z</time>
      </trkpt>
      <trkpt lat="40.876690" lon="-3.531840">
        <ele>993.563</ele>
        <time>2010-10-26T09:09:53Z</time>
      </trkpt>
      <trkpt lat="40.876590" lon="-3.531130">
        <ele>988.930</ele>
        <time>2010-10-26T09:09:53Z</time>
      </trkpt>
      <trkpt lat="40.876580" lon="-3.531010">
        <ele>987.977</ele>
        <time>2010-10-26T09:09:53Z</time>
      </trkpt>
      <trkpt lat="40.876470" lon="-3.530470">
        <ele>988.963</ele>
        <time>2010-10-26T09:09:53Z</time>
      </trkpt>
      <trkpt lat="40.876350" lon="-3.530200">
        <ele>991.729</ele>
        <time>2010-10-26T09:09:53Z</time>
      </trkpt>
      <trkpt lat="40.876310" lon="-3.530190">
        <ele>995.045</ele>
        <time>2010-10-26T09:09:53Z</time>
      </trkpt>
      <trkpt lat="40.876180" lon="-3.529820">
        <ele>994.533</ele>
        <time>2010-10-26T09:09:53Z</time>
      </trkpt>
      <trkpt lat="40.876000" lon="-3.529390">
        <ele>995.023</ele>
        <time>2010-10-26T09:09:53Z</time>
      </trkpt>
      <trkpt lat="40.875950" lon="-3.529330">
        <ele>994.515</ele>
        <time>2010-10-26T09:09:53Z</time>
      </trkpt>
      <trkpt lat="40.875940" lon="-3.529260">
        <ele>996.008</ele>
        <time>2010-10-26T09:09:53Z</time>
      </trkpt>
      <trkpt lat="40.876000" lon="-3.529170">
        <ele>997.069</ele>
        <time>2010-10-26T09:09:53Z</time>
      </trkpt>
      <trkpt lat="40.875990" lon="-3.529130">
        <ele>999.025</ele>
        <time>2010-10-26T09:09:53Z</time>
      </trkpt>
      <trkpt lat="40.876010" lon="-3.529080">
        <ele>999.018</ele>
        <time>2010-10-26T09:09:53Z</time>
      </trkpt>
      <trkpt lat="40.876140" lon="-3.528990">
        <ele>999.425</ele>
        <time>2010-10-26T09:09:53Z</time>
      </trkpt>
      <trkpt lat="40.876150" lon="-3.528890">
        <ele>999.962</ele>
        <time>2010-10-26T09:09:53Z</time>
      </trkpt>
      <trkpt lat="40.876080" lon="-3.528530">
        <ele>1002.778</ele>
        <time>2010-10-26T09:09:53Z</time>
      </trkpt>
      <trkpt lat="40.876090" lon="-3.528220">
        <ele>1004.794</ele>
        <time>2010-10-26T09:09:53Z</time>
      </trkpt>
      <trkpt lat="40.876140" lon="-3.528080">
        <ele>1005.750</ele>
        <time>2010-10-26T09:09:53Z</time>
      </trkpt>
      <trkpt lat="40.876480" lon="-3.527460">
        <ele>1013.948</ele>
        <time>2010-10-26T09:09:53Z</time>
      </trkpt>
      <trkpt lat="40.876750" lon="-3.527280">
        <ele>1016.261</ele>
        <time>2010-10-26T09:09:53Z</time>
      </trkpt>
      <trkpt lat="40.877140" lon="-3.527140">
        <ele>1021.017</ele>
        <time>2010-10-26T09:09:53Z</time>
      </trkpt>
      <trkpt lat="40.877170" lon="-3.527110">
        <ele>1022.008</ele>
        <time>2010-10-26T09:09:53Z</time>
      </trkpt>
      <trkpt lat="40.877210" lon="-3.526950">
        <ele>1021.070</ele>
        <time>2010-10-26T09:09:53Z</time>
      </trkpt>
      <trkpt lat="40.877380" lon="-3.526680">
        <ele>1020.566</ele>
        <time>2010-10-26T09:09:53Z</time>
      </trkpt>
      <trkpt lat="40.877530" lon="-3.526370">
        <ele>1024.999</ele>
        <time>2010-10-26T09:09:53Z</time>
      </trkpt>
      <trkpt lat="40.877420" lon="-3.526050">
        <ele>1031.066</ele>
        <time>2010-10-26T09:09:53Z</time>
      </trkpt>
      <trkpt lat="40.877470" lon="-3.525810">
        <ele>1034.593</ele>
        <time>2010-10-26T09:09:53Z</time>
      </trkpt>
      <trkpt lat="40.877680" lon="-3.525750">
        <ele>1038.479</ele>
        <time>2010-10-26T09:09:53Z</time>
      </trkpt>
      <trkpt lat="40.877870" lon="-3.525630">
        <ele>1038.855</ele>
        <time>2010-10-26T09:09:53Z</time>
      </trkpt>
      <trkpt lat="40.877990" lon="-3.525520">
        <ele>1041.311</ele>
        <time>2010-10-26T09:09:53Z</time>
      </trkpt>
      <trkpt lat="40.877900" lon="-3.525250">
        <ele>1047.093</ele>
        <time>2010-10-26T09:09:53Z</time>
      </trkpt>
      <trkpt lat="40.877730" lon="-3.525050">
        <ele>1050.465</ele>
        <time>2010-10-26T09:09:53Z</time>
      </trkpt>
      <trkpt lat="40.877670" lon="-3.524780">
        <ele>1054.621</ele>
        <time>2010-10-26T09:09:53Z</time>
      </trkpt>
      <trkpt lat="40.877480" lon="-3.524320">
        <ele>1062.908</ele>
        <time>2010-10-26T09:09:53Z</time>
      </trkpt>
      <trkpt lat="40.877640" lon="-3.524120">
        <ele>1064.845</ele>
        <time>2010-10-26T09:09:53Z</time>
      </trkpt>
      <trkpt lat="40.877700" lon="-3.523950">
        <ele>1067.621</ele>
        <time>2010-10-26T09:09:53Z</time>
      </trkpt>
      <trkpt lat="40.877750" lon="-3.523720">
        <ele>1071.064</ele>
        <time>2010-10-26T09:09:53Z</time>
      </trkpt>
      <trkpt lat="40.877970" lon="-3.523520">
        <ele>1072.091</ele>
        <time>2010-10-26T09:09:53Z</time>
      </trkpt>
      <trkpt lat="40.878120" lon="-3.523240">
        <ele>1073.488</ele>
        <time>2010-10-26T09:09:53Z</time>
      </trkpt>
      <trkpt lat="40.878230" lon="-3.523300">
        <ele>1073.494</ele>
        <time>2010-10-26T09:09:53Z</time>
      </trkpt>
      <trkpt lat="40.878300" lon="-3.523280">
        <ele>1073.410</ele>
        <time>2010-10-26T09:09:53Z</time>
      </trkpt>
      <trkpt lat="40.878630" lon="-3.523050">
        <ele>1072.596</ele>
        <time>2010-10-26T09:09:53Z</time>
      </trkpt>
      <trkpt lat="40.878730" lon="-3.522850">
        <ele>1071.091</ele>
        <time>2010-10-26T09:09:53Z</time>
      </trkpt>
      <trkpt lat="40.878730" lon="-3.522800">
        <ele>1073.081</ele>
        <time>2010-10-26T09:09:53Z</time>
      </trkpt>
      <trkpt lat="40.878720" lon="-3.522810">
        <ele>1073.019</ele>
        <time>2010-10-26T09:09:53Z</time>
      </trkpt>
      <trkpt lat="40.878730" lon="-3.522710">
        <ele>1073.408</ele>
        <time>2010-10-26T09:09:53Z</time>
      </trkpt>
      <trkpt lat="40.879360" lon="-3.521970">
        <ele>1062.465</ele>
        <time>2010-10-26T09:09:53Z</time>
      </trkpt>
      <trkpt lat="40.879560" lon="-3.521690">
        <ele>1060.581</ele>
        <time>2010-10-26T09:09:53Z</time>
      </trkpt>
      <trkpt lat="40.879700" lon="-3.521360">
        <ele>1062.974</ele>
        <time>2010-10-26T09:09:53Z</time>
      </trkpt>
      <trkpt lat="40.879780" lon="-3.520970">
        <ele>1073.411</ele>
        <time>2010-10-26T09:09:53Z</time>
      </trkpt>
      <trkpt lat="40.879860" lon="-3.520730">
        <ele>1070.588</ele>
        <time>2010-10-26T09:09:53Z</time>
      </trkpt>
      <trkpt lat="40.880010" lon="-3.520540">
        <ele>1066.334</ele>
        <time>2010-10-26T09:09:53Z</time>
      </trkpt>
      <trkpt lat="40.880130" lon="-3.520440">
        <ele>1062.960</ele>
        <time>2010-10-26T09:09:53Z</time>
      </trkpt>
      <trkpt lat="40.880280" lon="-3.519920">
        <ele>1058.596</ele>
        <time>2010-10-26T09:09:53Z</time>
      </trkpt>
      <trkpt lat="40.880320" lon="-3.519540">
        <ele>1054.664</ele>
        <time>2010-10-26T09:09:53Z</time>
      </trkpt>
      <trkpt lat="40.880570" lon="-3.518900">
        <ele>1048.906</ele>
        <time>2010-10-26T09:09:53Z</time>
      </trkpt>
      <trkpt lat="40.880740" lon="-3.518650">
        <ele>1045.516</ele>
        <time>2010-10-26T09:09:53Z</time>
      </trkpt>
      <trkpt lat="40.881050" lon="-3.518310">
        <ele>1040.308</ele>
        <time>2010-10-26T09:09:53Z</time>
      </trkpt>
      <trkpt lat="40.881290" lon="-3.518120">
        <ele>1041.362</ele>
        <time>2010-10-26T09:09:53Z</time>
      </trkpt>
      <trkpt lat="40.881510" lon="-3.517980">
        <ele>1040.398</ele>
        <time>2010-10-26T09:09:53Z</time>
      </trkpt>
      <trkpt lat="40.881870" lon="-3.517900">
        <ele>1034.041</ele>
        <time>2010-10-26T09:09:53Z</time>
      </trkpt>
      <trkpt lat="40.881910" lon="-3.517880">
        <ele>1032.568</ele>
        <time>2010-10-26T09:09:53Z</time>
      </trkpt>
      <trkpt lat="40.881940" lon="-3.517810">
        <ele>1031.055</ele>
        <time>2010-10-26T09:09:53Z</time>
      </trkpt>
      <trkpt lat="40.882070" lon="-3.517760">
        <ele>1030.671</ele>
        <time>2010-10-26T09:09:53Z</time>
      </trkpt>
      <trkpt lat="40.882210" lon="-3.517480">
        <ele>1030.117</ele>
        <time>2010-10-26T09:09:53Z</time>
      </trkpt>
      <trkpt lat="40.882320" lon="-3.517360">
        <ele>1028.823</ele>
        <time>2010-10-26T09:09:53Z</time>
      </trkpt>
      <trkpt lat="40.882370" lon="-3.517220">
        <ele>1026.855</ele>
        <time>2010-10-26T09:09:53Z</time>
      </trkpt>
      <trkpt lat="40.882480" lon="-3.516840">
        <ele>1023.907</ele>
        <time>2010-10-26T09:09:53Z</time>
      </trkpt>
      <trkpt lat="40.882340" lon="-3.516670">
        <ele>1024.917</ele>
        <time>2010-10-26T09:09:53Z</time>
      </trkpt>
      <trkpt lat="40.882410" lon="-3.516510">
        <ele>1024.908</ele>
        <time>2010-10-26T09:09:53Z</time>
      </trkpt>
      <trkpt lat="40.882680" lon="-3.516040">
        <ele>1023.551</ele>
        <time>2010-10-26T09:09:53Z</time>
      </trkpt>
      <trkpt lat="40.882730" lon="-3.515920">
        <ele>1023.597</ele>
        <time>2010-10-26T09:09:53Z</time>
      </trkpt>
      <trkpt lat="40.882740" lon="-3.515720">
        <ele>1019.080</ele>
        <time>2010-10-26T09:09:53Z</time>
      </trkpt>
      <trkpt lat="40.882780" lon="-3.515650">
        <ele>1017.277</ele>
        <time>2010-10-26T09:09:53Z</time>
      </trkpt>
      <trkpt lat="40.882680" lon="-3.515080">
        <ele>1022.594</ele>
        <time>2010-10-26T09:09:53Z</time>
      </trkpt>
      <trkpt lat="40.882680" lon="-3.514650">
        <ele>1022.060</ele>
        <time>2010-10-26T09:09:53Z</time>
      </trkpt>
      <trkpt lat="40.882780" lon="-3.514350">
        <ele>1020.076</ele>
        <time>2010-10-26T09:09:53Z</time>
      </trkpt>
      <trkpt lat="40.883000" lon="-3.513910">
        <ele>1018.532</ele>
        <time>2010-10-26T09:09:53Z</time>
      </trkpt>
      <trkpt lat="40.883230" lon="-3.513740">
        <ele>1018.224</ele>
        <time>2010-10-26T09:09:53Z</time>
      </trkpt>
      <trkpt lat="40.883640" lon="-3.513520">
        <ele>1004.704</ele>
        <time>2010-10-26T09:09:53Z</time>
      </trkpt>
      <trkpt lat="40.883690" lon="-3.513350">
        <ele>1004.214</ele>
        <time>2010-10-26T09:09:53Z</time>
      </trkpt>
      <trkpt lat="40.883630" lon="-3.513050">
        <ele>1003.208</ele>
        <time>2010-10-26T09:09:53Z</time>
      </trkpt>
      <trkpt lat="40.883620" lon="-3.512730">
        <ele>1003.258</ele>
        <time>2010-10-26T09:09:53Z</time>
      </trkpt>
      <trkpt lat="40.883720" lon="-3.512050">
        <ele>999.444</ele>
        <time>2010-10-26T09:09:53Z</time>
      </trkpt>
      <trkpt lat="40.883840" lon="-3.511820">
        <ele>996.027</ele>
        <time>2010-10-26T09:09:53Z</time>
      </trkpt>
      <trkpt lat="40.883980" lon="-3.511650">
        <ele>992.774</ele>
        <time>2010-10-26T09:09:53Z</time>
      </trkpt>
      <trkpt lat="40.883960" lon="-3.511210">
        <ele>993.241</ele>
        <time>2010-10-26T09:09:53Z</time>
      </trkpt>
      <trkpt lat="40.884140" lon="-3.510830">
        <ele>989.247</ele>
        <time>2010-10-26T09:09:53Z</time>
      </trkpt>
      <trkpt lat="40.883970" lon="-3.510690">
        <ele>993.583</ele>
        <time>2010-10-26T09:09:53Z</time>
      </trkpt>
      <trkpt lat="40.883920" lon="-3.510590">
        <ele>996.049</ele>
        <time>2010-10-26T09:09:53Z</time>
      </trkpt>
      <trkpt lat="40.883930" lon="-3.510530">
        <ele>996.034</ele>
        <time>2010-10-26T09:09:53Z</time>
      </trkpt>
      <trkpt lat="40.884250" lon="-3.509430">
        <ele>995.055</ele>
        <time>2010-10-26T09:09:53Z</time>
      </trkpt>
      <trkpt lat="40.884470" lon="-3.509240">
        <ele>998.010</ele>
        <time>2010-10-26T09:09:53Z</time>
      </trkpt>
      <trkpt lat="40.884690" lon="-3.508940">
        <ele>996.008</ele>
        <time>2010-10-26T09:09:53Z</time>
      </trkpt>
      <trkpt lat="40.884770" lon="-3.508910">
        <ele>994.579</ele>
        <time>2010-10-26T09:09:53Z</time>
      </trkpt>
      <trkpt lat="40.884820" lon="-3.508360">
        <ele>1000.945</ele>
        <time>2010-10-26T09:09:53Z</time>
      </trkpt>
      <trkpt lat="40.884810" lon="-3.507650">
        <ele>1004.288</ele>
        <time>2010-10-26T09:09:53Z</time>
      </trkpt>
      <trkpt lat="40.884880" lon="-3.507400">
        <ele>1005.275</ele>
        <time>2010-10-26T09:09:53Z</time>
      </trkpt>
      <trkpt lat="40.885110" lon="-3.507050">
        <ele>1002.222</ele>
        <time>2010-10-26T09:09:53Z</time>
      </trkpt>
      <trkpt lat="40.885220" lon="-3.506950">
        <ele>1002.278</ele>
        <time>2010-10-26T09:09:53Z</time>
      </trkpt>
      <trkpt lat="40.885470" lon="-3.506620">
        <ele>1005.754</ele>
        <time>2010-10-26T09:09:53Z</time>
      </trkpt>
      <trkpt lat="40.885510" lon="-3.506520">
        <ele>1010.010</ele>
        <time>2010-10-26T09:09:53Z</time>
      </trkpt>
      <trkpt lat="40.885410" lon="-3.506430">
        <ele>1009.588</ele>
        <time>2010-10-26T09:09:53Z</time>
      </trkpt>
      <trkpt lat="40.885300" lon="-3.506420">
        <ele>1008.524</ele>
        <time>2010-10-26T09:09:53Z</time>
      </trkpt>
      <trkpt lat="40.885170" lon="-3.506560">
        <ele>1005.226</ele>
        <time>2010-10-26T09:09:53Z</time>
      </trkpt>
      <trkpt lat="40.885190" lon="-3.506600">
        <ele>1008.508</ele>
        <time>2010-10-26T09:09:53Z</time>
      </trkpt>
      <trkpt lat="40.885000" lon="-3.506730">
        <ele>1005.774</ele>
        <time>2010-10-26T09:09:53Z</time>
      </trkpt>
      <trkpt lat="40.884460" lon="-3.506610">
        <ele>1011.910</ele>
        <time>2010-10-26T09:09:53Z</time>
      </trkpt>
      <trkpt lat="40.884270" lon="-3.506510">
        <ele>1015.283</ele>
        <time>2010-10-26T09:09:53Z</time>
      </trkpt>
      <trkpt lat="40.884220" lon="-3.506460">
        <ele>1015.760</ele>
        <time>2010-10-26T09:09:53Z</time>
      </trkpt>
      <trkpt lat="40.884220" lon="-3.506480">
        <ele>1015.237</ele>
        <time>2010-10-26T09:09:53Z</time>
      </trkpt>
      <trkpt lat="40.884010" lon="-3.506270">
        <ele>1017.743</ele>
        <time>2010-10-26T09:09:53Z</time>
      </trkpt>
      <trkpt lat="40.883860" lon="-3.506040">
        <ele>1020.599</ele>
        <time>2010-10-26T09:09:53Z</time>
      </trkpt>
      <trkpt lat="40.883770" lon="-3.506050">
        <ele>1022.045</ele>
        <time>2010-10-26T09:09:53Z</time>
      </trkpt>
      <trkpt lat="40.883710" lon="-3.506030">
        <ele>1023.079</ele>
        <time>2010-10-26T09:09:53Z</time>
      </trkpt>
      <trkpt lat="40.883610" lon="-3.505950">
        <ele>1024.405</ele>
        <time>2010-10-26T09:09:53Z</time>
      </trkpt>
      <trkpt lat="40.883450" lon="-3.505860">
        <ele>1027.325</ele>
        <time>2010-10-26T09:09:53Z</time>
      </trkpt>
      <trkpt lat="40.883080" lon="-3.505740">
        <ele>1030.108</ele>
        <time>2010-10-26T09:09:53Z</time>
      </trkpt>
      <trkpt lat="40.882540" lon="-3.505760">
        <ele>1030.693</ele>
        <time>2010-10-26T09:09:53Z</time>
      </trkpt>
      <trkpt lat="40.882290" lon="-3.505890">
        <ele>1033.069</ele>
        <time>2010-10-26T09:09:53Z</time>
      </trkpt>
      <trkpt lat="40.881640" lon="-3.506010">
        <ele>1035.032</ele>
        <time>2010-10-26T09:09:53Z</time>
      </trkpt>
      <trkpt lat="40.881300" lon="-3.506370">
        <ele>1032.059</ele>
        <time>2010-10-26T09:09:53Z</time>
      </trkpt>
      <trkpt lat="40.881160" lon="-3.506300">
        <ele>1035.566</ele>
        <time>2010-10-26T09:09:53Z</time>
      </trkpt>
      <trkpt lat="40.881050" lon="-3.505960">
        <ele>1041.682</ele>
        <time>2010-10-26T09:09:53Z</time>
      </trkpt>
      <trkpt lat="40.880990" lon="-3.505880">
        <ele>1043.178</ele>
        <time>2010-10-26T09:09:53Z</time>
      </trkpt>
      <trkpt lat="40.880990" lon="-3.505690">
        <ele>1044.014</ele>
        <time>2010-10-26T09:09:53Z</time>
      </trkpt>
      <trkpt lat="40.881020" lon="-3.505650">
        <ele>1045.095</ele>
        <time>2010-10-26T09:09:53Z</time>
      </trkpt>
      <trkpt lat="40.881120" lon="-3.505380">
        <ele>1044.049</ele>
        <time>2010-10-26T09:09:53Z</time>
      </trkpt>
      <trkpt lat="40.881180" lon="-3.505340">
        <ele>1044.523</ele>
        <time>2010-10-26T09:09:53Z</time>
      </trkpt>
      <trkpt lat="40.881230" lon="-3.505220">
        <ele>1043.108</ele>
        <time>2010-10-26T09:09:53Z</time>
      </trkpt>
      <trkpt lat="40.881180" lon="-3.505100">
        <ele>1043.175</ele>
        <time>2010-10-26T09:09:53Z</time>
      </trkpt>
      <trkpt lat="40.881040" lon="-3.504940">
        <ele>1038.881</ele>
        <time>2010-10-26T09:09:53Z</time>
      </trkpt>
      <trkpt lat="40.880830" lon="-3.504930">
        <ele>1032.014</ele>
        <time>2010-10-26T09:09:53Z</time>
      </trkpt>
      <trkpt lat="40.880610" lon="-3.505000">
        <ele>1027.881</ele>
        <time>2010-10-26T09:09:53Z</time>
      </trkpt>
      <trkpt lat="40.880130" lon="-3.505040">
        <ele>1022.028</ele>
        <time>2010-10-26T09:09:53Z</time>
      </trkpt>
      <trkpt lat="40.880030" lon="-3.504820">
        <ele>1020.034</ele>
        <time>2010-10-26T09:09:53Z</time>
      </trkpt>
      <trkpt lat="40.879780" lon="-3.504430">
        <ele>1013.930</ele>
        <time>2010-10-26T09:09:53Z</time>
      </trkpt>
      <trkpt lat="40.879650" lon="-3.504350">
        <ele>1010.066</ele>
        <time>2010-10-26T09:09:53Z</time>
      </trkpt>
      <trkpt lat="40.879890" lon="-3.504230">
        <ele>1007.571</ele>
        <time>2010-10-26T09:09:53Z</time>
      </trkpt>
      <trkpt lat="40.879920" lon="-3.504190">
        <ele>1007.041</ele>
        <time>2010-10-26T09:09:53Z</time>
      </trkpt>
      <trkpt lat="40.879790" lon="-3.504050">
        <ele>1001.415</ele>
        <time>2010-10-26T09:09:53Z</time>
      </trkpt>
      <trkpt lat="40.880000" lon="-3.503830">
        <ele>996.508</ele>
        <time>2010-10-26T09:09:53Z</time>
      </trkpt>
      <trkpt lat="40.880040" lon="-3.503810">
        <ele>995.543</ele>
        <time>2010-10-26T09:09:53Z</time>
      </trkpt>
      <trkpt lat="40.880030" lon="-3.503730">
        <ele>994.579</ele>
        <time>2010-10-26T09:09:53Z</time>
      </trkpt>
      <trkpt lat="40.879900" lon="-3.503730">
        <ele>991.792</ele>
        <time>2010-10-26T09:09:53Z</time>
      </trkpt>
      <trkpt lat="40.879890" lon="-3.503690">
        <ele>990.259</ele>
        <time>2010-10-26T09:09:53Z</time>
      </trkpt>
      <trkpt lat="40.880040" lon="-3.503500">
        <ele>985.046</ele>
        <time>2010-10-26T09:09:53Z</time>
      </trkpt>
      <trkpt lat="40.880210" lon="-3.503480">
        <ele>982.082</ele>
        <time>2010-10-26T09:09:53Z</time>
      </trkpt>
      <trkpt lat="40.880220" lon="-3.503440">
        <ele>981.258</ele>
        <time>2010-10-26T09:09:53Z</time>
      </trkpt>
      <trkpt lat="40.880190" lon="-3.503380">
        <ele>978.744</ele>
        <time>2010-10-26T09:09:53Z</time>
      </trkpt>
      <trkpt lat="40.880000" lon="-3.503210">
        <ele>972.597</ele>
        <time>2010-10-26T09:09:53Z</time>
      </trkpt>
      <trkpt lat="40.879760" lon="-3.503270">
        <ele>969.523</ele>
        <time>2010-10-26T09:09:53Z</time>
      </trkpt>
      <trkpt lat="40.879410" lon="-3.503480">
        <ele>967.725</ele>
        <time>2010-10-26T09:09:53Z</time>
      </trkpt>
      <trkpt lat="40.879380" lon="-3.503460">
        <ele>968.708</ele>
        <time>2010-10-26T09:09:53Z</time>
      </trkpt>
      <trkpt lat="40.879470" lon="-3.503320">
        <ele>967.735</ele>
        <time>2010-10-26T09:09:53Z</time>
      </trkpt>
      <trkpt lat="40.879450" lon="-3.503290">
        <ele>966.781</ele>
        <time>2010-10-26T09:09:53Z</time>
      </trkpt>
      <trkpt lat="40.879290" lon="-3.503340">
        <ele>960.584</ele>
        <time>2010-10-26T09:09:53Z</time>
      </trkpt>
      <trkpt lat="40.879120" lon="-3.503360">
        <ele>961.591</ele>
        <time>2010-10-26T09:09:53Z</time>
      </trkpt>
      <trkpt lat="40.878910" lon="-3.503430">
        <ele>955.718</ele>
        <time>2010-10-26T09:09:53Z</time>
      </trkpt>
      <trkpt lat="40.878630" lon="-3.503580">
        <ele>943.724</ele>
        <time>2010-10-26T09:09:53Z</time>
      </trkpt>
      <trkpt lat="40.878230" lon="-3.503720">
        <ele>946.030</ele>
        <time>2010-10-26T09:09:53Z</time>
      </trkpt>
      <trkpt lat="40.878220" lon="-3.503640">
        <ele>950.926</ele>
        <time>2010-10-26T09:09:53Z</time>
      </trkpt>
      <trkpt lat="40.878300" lon="-3.503430">
        <ele>958.585</ele>
        <time>2010-10-26T09:09:53Z</time>
      </trkpt>
      <trkpt lat="40.877970" lon="-3.503530">
        <ele>930.789</ele>
        <time>2010-10-26T09:09:53Z</time>
      </trkpt>
      <trkpt lat="40.877820" lon="-3.503630">
        <ele>925.417</ele>
        <time>2010-10-26T09:09:53Z</time>
      </trkpt>
      <trkpt lat="40.877310" lon="-3.503630">
        <ele>919.208</ele>
        <time>2010-10-26T09:09:53Z</time>
      </trkpt>
      <trkpt lat="40.877030" lon="-3.503700">
        <ele>924.584</ele>
        <time>2010-10-26T09:09:53Z</time>
      </trkpt>
      <trkpt lat="40.876800" lon="-3.503580">
        <ele>916.750</ele>
        <time>2010-10-26T09:09:53Z</time>
      </trkpt>
      <trkpt lat="40.876610" lon="-3.503580">
        <ele>915.213</ele>
        <time>2010-10-26T09:09:53Z</time>
      </trkpt>
      <trkpt lat="40.876590" lon="-3.503540">
        <ele>915.220</ele>
        <time>2010-10-26T09:09:53Z</time>
      </trkpt>
      <trkpt lat="40.876330" lon="-3.503520">
        <ele>914.267</ele>
        <time>2010-10-26T09:09:53Z</time>
      </trkpt>
      <trkpt lat="40.876020" lon="-3.503400">
        <ele>915.243</ele>
        <time>2010-10-26T09:09:53Z</time>
      </trkpt>
      <trkpt lat="40.875980" lon="-3.503430">
        <ele>915.299</ele>
        <time>2010-10-26T09:09:53Z</time>
      </trkpt>
      <trkpt lat="40.875980" lon="-3.503410">
        <ele>921.035</ele>
        <time>2010-10-26T09:09:53Z</time>
      </trkpt>
      <trkpt lat="40.875870" lon="-3.503340">
        <ele>918.252</ele>
        <time>2010-10-26T09:09:53Z</time>
      </trkpt>
      <trkpt lat="40.875870" lon="-3.503230">
        <ele>913.953</ele>
        <time>2010-10-26T09:09:53Z</time>
      </trkpt>
      <trkpt lat="40.875670" lon="-3.502910">
        <ele>910.008</ele>
        <time>2010-10-26T09:09:53Z</time>
      </trkpt>
      <trkpt lat="40.875590" lon="-3.502500">
        <ele>910.008</ele>
        <time>2010-10-26T09:09:53Z</time>
      </trkpt>
      <trkpt lat="40.875610" lon="-3.502000">
        <ele>910.041</ele>
        <time>2010-10-26T09:09:53Z</time>
      </trkpt>
      <trkpt lat="40.875690" lon="-3.501690">
        <ele>907.067</ele>
        <time>2010-10-26T09:09:53Z</time>
      </trkpt>
      <trkpt lat="40.875770" lon="-3.500510">
        <ele>892.250</ele>
        <time>2010-10-26T09:09:53Z</time>
      </trkpt>
      <trkpt lat="40.875590" lon="-3.500070">
        <ele>890.727</ele>
        <time>2010-10-26T09:09:53Z</time>
      </trkpt>
      <trkpt lat="40.875410" lon="-3.499720">
        <ele>886.524</ele>
        <time>2010-10-26T09:09:53Z</time>
      </trkpt>
      <trkpt lat="40.875240" lon="-3.499490">
        <ele>884.050</ele>
        <time>2010-10-26T09:09:53Z</time>
      </trkpt>
      <trkpt lat="40.874720" lon="-3.498640">
        <ele>882.266</ele>
        <time>2010-10-26T09:09:53Z</time>
      </trkpt>
      <trkpt lat="40.874690" lon="-3.498640">
        <ele>887.972</ele>
        <time>2010-10-26T09:09:53Z</time>
      </trkpt>
      <trkpt lat="40.874590" lon="-3.498510">
        <ele>885.053</ele>
        <time>2010-10-26T09:09:53Z</time>
      </trkpt>
      <trkpt lat="40.874340" lon="-3.498360">
        <ele>878.204</ele>
        <time>2010-10-26T09:09:53Z</time>
      </trkpt>
      <trkpt lat="40.874150" lon="-3.498150">
        <ele>877.714</ele>
        <time>2010-10-26T09:09:53Z</time>
      </trkpt>
      <trkpt lat="40.873970" lon="-3.498090">
        <ele>876.408</ele>
        <time>2010-10-26T09:09:53Z</time>
      </trkpt>
      <trkpt lat="40.873760" lon="-3.497940">
        <ele>873.511</ele>
        <time>2010-10-26T09:09:53Z</time>
      </trkpt>
      <trkpt lat="40.873690" lon="-3.497850">
        <ele>872.597</ele>
        <time>2010-10-26T09:09:53Z</time>
      </trkpt>
      <trkpt lat="40.873590" lon="-3.497810">
        <ele>872.050</ele>
        <time>2010-10-26T09:09:53Z</time>
      </trkpt>
      <trkpt lat="40.873390" lon="-3.497640">
        <ele>872.017</ele>
        <time>2010-10-26T09:09:53Z</time>
      </trkpt>
      <trkpt lat="40.873240" lon="-3.497430">
        <ele>868.764</ele>
        <time>2010-10-26T09:09:53Z</time>
      </trkpt>
      <trkpt lat="40.872900" lon="-3.496740">
        <ele>860.060</ele>
        <time>2010-10-26T09:09:53Z</time>
      </trkpt>
      <trkpt lat="40.872800" lon="-3.496630">
        <ele>863.476</ele>
        <time>2010-10-26T09:09:53Z</time>
      </trkpt>
      <trkpt lat="40.872760" lon="-3.496480">
        <ele>863.972</ele>
        <time>2010-10-26T09:09:53Z</time>
      </trkpt>
      <trkpt lat="40.872710" lon="-3.496510">
        <ele>866.737</ele>
        <time>2010-10-26T09:09:53Z</time>
      </trkpt>
      <trkpt lat="40.872650" lon="-3.496490">
        <ele>867.749</ele>
        <time>2010-10-26T09:09:53Z</time>
      </trkpt>
      <trkpt lat="40.872570" lon="-3.496400">
        <ele>865.713</ele>
        <time>2010-10-26T09:09:53Z</time>
      </trkpt>
      <trkpt lat="40.871820" lon="-3.495900">
        <ele>860.008</ele>
        <time>2010-10-26T09:09:53Z</time>
      </trkpt>
      <trkpt lat="40.871300" lon="-3.495470">
        <ele>858.039</ele>
        <time>2010-10-26T09:09:53Z</time>
      </trkpt>
      <trkpt lat="40.871040" lon="-3.495480">
        <ele>857.245</ele>
        <time>2010-10-26T09:09:53Z</time>
      </trkpt>
      <trkpt lat="40.870820" lon="-3.495590">
        <ele>856.228</ele>
        <time>2010-10-26T09:09:53Z</time>
      </trkpt>
      <trkpt lat="40.870590" lon="-3.495540">
        <ele>854.745</ele>
        <time>2010-10-26T09:09:53Z</time>
      </trkpt>
      <trkpt lat="40.870170" lon="-3.495590">
        <ele>854.752</ele>
        <time>2010-10-26T09:09:53Z</time>
      </trkpt>
      <trkpt lat="40.869930" lon="-3.495530">
        <ele>852.218</ele>
        <time>2010-10-26T09:09:53Z</time>
      </trkpt>
      <trkpt lat="40.869830" lon="-3.495540">
        <ele>853.764</ele>
        <time>2010-10-26T09:09:53Z</time>
      </trkpt>
      <trkpt lat="40.869730" lon="-3.495480">
        <ele>851.910</ele>
        <time>2010-10-26T09:09:53Z</time>
      </trkpt>
      <trkpt lat="40.869730" lon="-3.495460">
        <ele>852.285</ele>
        <time>2010-10-26T09:09:53Z</time>
      </trkpt>
      <trkpt lat="40.869660" lon="-3.495430">
        <ele>852.289</ele>
        <time>2010-10-26T09:09:53Z</time>
      </trkpt>
      <trkpt lat="40.869640" lon="-3.495390">
        <ele>852.717</ele>
        <time>2010-10-26T09:09:53Z</time>
      </trkpt>
      <trkpt lat="40.869330" lon="-3.495150">
        <ele>851.408</ele>
        <time>2010-10-26T09:09:53Z</time>
      </trkpt>
      <trkpt lat="40.869210" lon="-3.495030">
        <ele>846.014</ele>
        <time>2010-10-26T09:09:53Z</time>
      </trkpt>
      <trkpt lat="40.869100" lon="-3.495100">
        <ele>850.470</ele>
        <time>2010-10-26T09:09:53Z</time>
      </trkpt>
      <trkpt lat="40.868910" lon="-3.495070">
        <ele>847.043</ele>
        <time>2010-10-26T09:09:53Z</time>
      </trkpt>
      <trkpt lat="40.868810" lon="-3.494960">
        <ele>844.790</ele>
        <time>2010-10-26T09:09:53Z</time>
      </trkpt>
      <trkpt lat="40.868540" lon="-3.494920">
        <ele>843.237</ele>
        <time>2010-10-26T09:09:53Z</time>
      </trkpt>
      <trkpt lat="40.868450" lon="-3.494890">
        <ele>841.283</ele>
        <time>2010-10-26T09:09:53Z</time>
      </trkpt>
      <trkpt lat="40.868200" lon="-3.494680">
        <ele>843.289</ele>
        <time>2010-10-26T09:09:53Z</time>
      </trkpt>
      <trkpt lat="40.867950" lon="-3.494530">
        <ele>842.235</ele>
        <time>2010-10-26T09:09:53Z</time>
      </trkpt>
      <trkpt lat="40.867910" lon="-3.494590">
        <ele>840.786</ele>
        <time>2010-10-26T09:09:53Z</time>
      </trkpt>
      <trkpt lat="40.867700" lon="-3.494590">
        <ele>837.960</ele>
        <time>2010-10-26T09:09:53Z</time>
      </trkpt>
      <trkpt lat="40.867460" lon="-3.494540">
        <ele>838.926</ele>
        <time>2010-10-26T09:09:53Z</time>
      </trkpt>
      <trkpt lat="40.867390" lon="-3.494490">
        <ele>838.908</ele>
        <time>2010-10-26T09:09:53Z</time>
      </trkpt>
      <trkpt lat="40.867100" lon="-3.494370">
        <ele>840.784</ele>
        <time>2010-10-26T09:09:53Z</time>
      </trkpt>
      <trkpt lat="40.867040" lon="-3.494270">
        <ele>840.790</ele>
        <time>2010-10-26T09:09:53Z</time>
      </trkpt>
      <trkpt lat="40.866940" lon="-3.494240">
        <ele>837.923</ele>
        <time>2010-10-26T09:09:53Z</time>
      </trkpt>
      <trkpt lat="40.866770" lon="-3.494220">
        <ele>837.080</ele>
        <time>2010-10-26T09:09:53Z</time>
      </trkpt>
      <trkpt lat="40.866640" lon="-3.494360">
        <ele>834.037</ele>
        <time>2010-10-26T09:09:53Z</time>
      </trkpt>
      <trkpt lat="40.866650" lon="-3.494390">
        <ele>832.753</ele>
        <time>2010-10-26T09:09:53Z</time>
      </trkpt>
      <trkpt lat="40.866490" lon="-3.494420">
        <ele>832.799</ele>
        <time>2010-10-26T09:09:53Z</time>
      </trkpt>
      <trkpt lat="40.866510" lon="-3.494370">
        <ele>833.515</ele>
        <time>2010-10-26T09:09:53Z</time>
      </trkpt>
      <trkpt lat="40.866500" lon="-3.494370">
        <ele>841.759</ele>
        <time>2010-10-26T09:09:53Z</time>
      </trkpt>
    </trkseg>
  </trk>
</gpx>
